GFSGBSN_sfc_wetblb_000.txt.gz
Wetbulb
56.68 56.10 56.50 56.91 57.10 57.26 57.18 56.94 56.15 55.71 55.36 55.59 55.67 55.59 55.02 54.77 54.63 54.11 54.27 54.41 55.34 55.56 55.67 55.85 56.28 56.46 52.08 45.92 46.81 52.69 60.18 58.34 53.41 52.28 48.77 47.40 46.24 44.11 42.30 42.35 43.01 41.03 40.78 42.46 42.66 42.72 41.19
56.31 56.23 56.69 57.01 57.23 57.19 57.28 56.53 55.77 55.50 55.34 55.40 55.42 55.54 55.61 55.31 54.82 54.66 54.39 55.02 55.08 55.12 55.28 55.63 56.19 56.21 48.30 43.43 51.36 52.30 52.71 52.77 51.44 50.35 48.89 48.24 45.76 45.37 44.39 42.94 41.75 43.21 42.23 41.64 42.50 42.72 42.41
55.95 56.10 56.98 57.28 57.22 57.11 56.72 56.01 55.48 55.44 55.38 55.16 55.30 55.34 55.50 55.75 55.79 55.83 55.81 55.34 54.92 54.92 55.28 55.91 56.05 54.77 47.99 46.68 50.21 51.68 53.46 50.10 50.42 50.39 48.97 48.40 47.68 46.09 44.49 42.78 45.33 43.41 41.05 41.44 42.17 41.80 41.27
55.65 55.91 56.97 57.20 56.95 56.79 56.27 55.75 55.08 55.12 55.18 55.08 55.20 54.94 54.78 54.90 55.04 55.18 55.14 54.68 54.74 55.18 55.22 55.62 55.79 52.76 45.77 53.40 51.92 52.56 51.60 50.32 51.00 51.28 50.74 50.14 49.78 46.72 44.07 44.15 42.54 39.25 38.14 34.87 41.10 41.03 41.10
55.57 55.80 56.86 57.34 56.95 56.79 56.45 55.99 55.20 54.88 54.74 54.76 54.80 54.49 54.21 54.06 54.20 54.17 54.19 54.33 54.56 54.98 55.18 54.76 52.11 50.22 44.80 55.75 51.17 51.31 49.60 48.34 49.64 50.68 51.10 51.93 48.19 42.88 42.41 37.04 35.40 35.57 31.29 32.79 37.26 41.49 41.49
54.93 55.69 56.99 57.26 56.91 56.91 57.01 56.29 55.36 54.74 54.73 54.71 54.68 54.41 54.17 53.92 54.06 53.54 53.49 54.33 54.43 53.09 53.08 53.19 52.93 45.44 49.06 46.80 49.71 49.98 49.30 49.75 48.15 48.41 47.71 45.82 41.57 38.28 37.44 35.59 29.09 30.67 31.11 30.47 31.68 38.67 40.42
54.30 54.75 56.59 57.26 56.99 56.99 56.98 56.05 55.18 54.48 54.51 54.65 54.53 54.46 54.11 53.76 53.80 53.40 51.95 50.17 47.60 46.16 49.02 43.32 43.75 44.92 45.85 49.36 49.77 48.95 48.36 48.45 47.46 44.69 39.42 41.86 38.16 33.86 35.53 36.72 37.44 35.98 33.67 32.65 34.15 38.65 39.22
53.74 54.17 55.62 56.60 56.62 56.40 56.36 55.75 54.98 54.28 54.47 54.27 54.18 54.27 54.21 53.86 53.67 53.54 51.72 51.40 48.89 50.66 42.26 47.41 46.55 46.48 48.29 47.81 46.07 48.17 48.84 45.55 43.95 38.73 39.45 39.50 35.28 38.43 40.92 39.92 37.87 36.68 34.22 32.91 37.24 39.32 37.76
53.11 52.95 54.98 55.99 56.27 55.97 55.63 55.34 54.84 54.32 54.01 53.78 53.78 54.14 54.17 53.67 53.38 53.16 53.09 52.85 57.44 53.11 41.89 45.42 47.26 46.26 46.99 48.31 44.45 45.84 46.95 44.29 41.88 39.48 38.79 36.54 37.86 41.69 40.22 37.99 37.46 35.26 33.62 33.21 35.30 37.79 37.09
52.84 52.17 54.15 55.32 55.73 55.34 54.72 54.53 54.51 54.36 53.91 53.64 53.27 53.37 53.22 53.67 53.48 51.38 50.29 53.48 55.83 50.08 36.54 40.90 45.00 47.00 48.01 46.60 43.62 47.27 48.55 44.96 43.18 38.23 38.54 38.63 40.25 39.84 39.35 37.57 36.89 33.16 37.48 37.10 36.18 34.50 31.10
52.65 52.34 53.67 54.61 54.88 54.11 53.76 53.82 53.95 54.05 53.69 53.50 52.99 53.11 54.13 54.98 53.12 50.26 52.99 55.73 55.96 49.69 24.11 42.41 44.67 49.89 47.50 44.26 43.46 47.72 49.08 45.94 40.52 40.22 39.48 36.36 37.37 38.46 38.65 37.59 38.94 37.61 39.99 37.24 36.44 33.65 32.69
52.57 52.67 53.67 54.12 54.21 53.77 53.59 53.59 53.41 53.34 53.16 53.18 52.92 53.19 53.45 54.60 51.18 51.03 55.44 53.11 52.64 35.57 27.03 40.32 44.35 43.61 43.37 44.21 44.58 46.46 45.94 47.35 44.76 41.54 41.94 39.59 41.46 39.87 38.65 40.72 40.53 42.02 38.21 36.60 35.42 33.34 27.59
52.74 53.10 53.57 53.84 54.15 53.77 53.59 53.37 53.18 52.90 52.80 52.83 52.56 54.53 55.73 55.66 48.34 54.09 53.57 50.14 36.77 28.63 42.64 38.88 40.08 42.61 40.66 40.19 42.70 42.97 41.22 39.47 36.68 32.51 33.45 39.33 39.67 42.07 41.91 39.19 41.56 39.53 32.83 24.83 24.54 23.60 24.62
53.65 53.75 53.41 53.65 54.01 53.59 53.38 53.22 52.94 52.68 52.50 52.56 52.40 54.50 55.29 55.57 54.57 54.31 50.18 42.37 30.60 37.73 37.89 42.20 40.96 41.37 38.83 40.07 40.65 41.19 39.30 36.61 39.86 37.67 33.82 32.87 30.04 39.61 43.06 38.46 35.74 36.12 34.21 25.27 20.82 20.02 24.63
53.65 54.15 53.59 53.53 53.95 53.52 53.28 53.03 52.95 52.75 52.20 52.11 53.75 52.99 50.18 52.96 54.84 52.01 45.27 31.43 31.79 36.83 40.05 40.19 41.00 37.95 37.96 41.04 39.73 39.07 37.09 37.05 38.68 39.44 33.84 32.22 33.42 41.43 41.84 41.57 39.69 36.56 32.23 36.18 28.50 21.19 22.09
53.49 53.70 53.52 53.43 53.47 52.98 52.69 52.78 52.80 52.77 52.35 52.46 53.92 47.17 49.22 53.47 53.49 47.28 38.81 35.27 37.45 41.74 42.26 41.93 36.42 38.25 34.82 38.56 37.56 37.10 36.68 39.97 39.01 41.70 40.52 37.41 32.78 38.38 41.21 41.38 41.59 38.78 39.63 30.48 29.09 19.21 20.82
53.00 53.02 53.17 53.16 53.03 52.67 52.68 52.84 52.62 52.40 52.11 52.58 52.08 43.66 49.33 53.76 49.91 42.65 32.98 32.70 39.87 43.94 44.44 41.62 39.30 38.34 38.60 37.10 37.93 36.53 37.18 40.07 41.32 41.11 41.56 37.70 35.69 34.02 37.35 36.48 34.71 36.12 33.20 34.09 33.92 29.60 21.65
52.35 52.40 52.42 52.52 53.04 52.74 52.50 52.64 52.47 52.02 51.76 52.39 45.19 39.85 50.04 51.02 42.04 36.94 35.90 39.68 42.97 42.88 45.34 43.55 42.76 41.21 39.34 38.82 37.67 37.57 37.71 39.47 42.80 41.67 37.64 38.55 33.10 28.01 32.67 38.00 39.86 37.46 35.12 34.06 25.25 25.45 26.92
51.99 51.97 52.17 52.72 52.69 52.26 52.28 52.18 51.86 51.83 51.79 49.79 45.45 44.34 49.40 49.00 34.25 30.43 39.74 42.04 42.84 42.41 42.42 41.71 40.69 42.02 41.89 37.84 34.63 38.43 39.68 42.65 43.41 41.36 37.99 38.38 31.33 25.12 28.87 33.83 36.62 35.36 36.39 35.60 31.54 29.34 28.86
51.79 52.06 52.14 52.26 52.59 52.35 52.16 50.01 50.41 51.76 51.66 48.27 43.75 38.92 43.83 44.41 41.03 39.72 38.61 38.70 40.01 43.85 42.42 43.09 41.59 42.37 40.44 38.08 39.67 36.80 38.24 42.14 43.54 42.49 44.11 41.85 33.79 29.94 25.08 29.39 32.55 32.03 35.17 35.52 33.73 29.74 28.84
51.62 51.74 51.60 51.84 51.95 52.16 50.19 49.85 51.21 51.53 51.41 49.06 43.08 39.60 41.85 35.07 38.31 40.18 40.60 40.25 39.64 38.66 42.51 43.04 40.99 40.71 38.55 33.76 34.91 35.06 38.79 40.42 41.64 43.27 41.14 38.73 31.95 32.76 33.66 35.19 34.92 35.34 34.87 35.13 32.68 32.89 31.09
51.45 51.40 51.05 50.67 51.33 51.56 49.45 49.29 50.94 51.15 51.33 46.70 43.64 42.59 42.18 40.42 41.72 39.14 37.17 37.83 40.37 40.17 40.81 39.41 39.54 40.23 40.18 36.43 37.16 34.78 38.35 37.15 37.63 39.44 36.83 37.53 29.48 31.01 30.15 33.95 33.80 31.74 34.45 35.00 34.73 34.29 33.68
51.41 51.52 50.52 50.56 51.67 51.23 49.69 48.77 49.29 50.82 50.96 46.85 45.22 44.16 44.06 36.60 35.16 34.25 34.57 39.34 40.40 42.05 41.77 42.59 42.12 38.96 34.02 40.38 42.26 42.42 42.54 41.80 39.78 37.20 34.98 34.56 28.84 28.37 23.97 30.44 29.47 25.09 29.72 32.31 33.24 34.61 33.74
51.15 51.35 51.44 51.49 52.03 52.01 48.95 49.00 50.45 50.47 50.69 48.55 46.64 42.81 38.34 32.43 30.01 35.87 40.40 40.68 40.44 40.35 40.25 41.77 41.64 36.81 41.07 44.99 42.45 40.25 37.70 35.20 36.45 37.79 39.82 31.08 27.62 27.57 23.88 30.76 21.90 32.95 36.20 36.67 34.09 34.81 35.97
50.73 50.90 51.62 51.84 51.90 52.03 49.25 50.07 50.29 50.33 51.04 50.22 47.27 44.21 38.38 31.90 34.61 37.52 40.34 40.33 40.33 40.75 39.82 41.13 43.89 43.16 43.43 39.48 32.42 28.26 28.58 27.70 28.88 37.30 35.43 35.04 31.83 28.18 28.73 28.30 29.11 34.38 35.68 32.46 31.38 31.43 35.54
50.58 50.55 50.99 51.38 51.24 51.13 51.36 50.74 50.42 50.31 50.95 51.35 48.73 44.68 41.83 35.61 36.43 41.77 39.90 39.65 33.88 32.54 34.13 38.78 43.96 43.98 40.87 30.05 28.55 21.54 21.45 27.16 29.30 31.46 35.44 34.48 28.99 26.53 27.97 25.42 23.34 30.94 34.15 36.67 37.70 28.13 36.90
50.36 50.49 50.68 50.77 50.57 50.52 50.94 51.28 50.41 50.21 50.81 51.83 49.83 47.10 44.09 36.10 40.74 42.63 37.44 37.87 39.27 35.34 35.33 33.93 38.82 36.92 38.77 29.37 27.88 22.80 25.34 31.11 26.45 22.34 21.89 26.52 28.80 30.87 30.35 27.02 27.53 33.88 36.18 38.62 28.70 30.29 38.49
50.28 50.37 50.26 50.05 50.00 50.05 50.29 50.96 50.62 50.15 50.35 51.66 49.58 50.08 46.82 38.12 41.66 45.52 44.98 41.97 40.63 38.23 33.83 37.87 37.38 34.73 35.29 32.51 28.51 28.73 19.68 27.81 27.38 30.61 27.51 26.80 22.52 21.00 25.47 24.97 21.99 35.87 37.29 32.70 37.10 39.36 39.96
49.80 49.92 49.70 49.67 49.47 49.41 49.87 50.10 50.39 50.21 50.21 50.44 48.89 49.92 48.72 44.06 42.80 46.93 48.01 47.30 45.81 44.74 41.24 37.04 38.38 37.04 35.83 32.76 32.25 29.07 25.70 28.72 29.12 29.39 32.27 28.42 31.86 30.46 32.87 29.20 35.64 39.26 40.41 41.12 41.63 39.98 38.28

GFSGBSN_sfc_wetblb_003.txt.gz
Wetbulb
56.62 56.17 56.79 57.30 57.53 57.65 57.30 56.60 56.90 56.29 55.84 55.52 55.78 55.93 55.35 55.05 54.72 54.38 53.92 53.75 54.14 54.87 55.18 55.50 56.17 56.09 53.21 50.63 50.96 54.71 59.62 58.02 56.13 54.44 50.55 50.41 49.30 48.48 46.06 46.79 47.28 45.86 45.84 46.21 47.05 45.59 46.26
56.41 56.36 56.92 57.53 57.52 57.41 56.77 56.16 56.19 55.80 55.62 55.64 55.56 55.48 55.36 54.87 54.77 54.33 53.96 53.83 53.92 55.16 55.04 55.44 56.29 55.58 52.92 47.15 54.15 54.05 53.21 54.09 54.00 54.24 51.88 51.71 49.92 49.38 48.36 46.49 46.71 47.45 46.93 46.17 46.93 47.05 47.29
56.10 56.21 57.29 57.53 57.45 56.70 56.02 55.47 55.78 55.60 55.66 55.48 55.32 55.40 55.48 55.72 55.00 54.47 54.04 54.19 55.04 54.56 54.83 55.60 55.78 54.59 51.75 51.39 54.48 53.74 53.85 54.43 53.66 54.61 52.45 51.67 51.36 50.21 48.71 46.95 47.83 46.36 44.35 44.64 45.20 45.38 45.72
55.80 56.00 57.34 57.37 57.07 56.39 55.81 55.48 55.54 55.54 55.48 55.40 55.50 55.12 55.06 55.22 55.30 55.24 55.16 54.64 54.42 54.50 55.14 55.46 54.95 53.84 50.77 55.78 55.46 53.18 52.88 53.26 53.12 53.72 53.70 52.80 52.31 49.47 47.83 48.11 45.26 43.04 42.98 41.22 44.38 46.28 46.06
55.49 55.96 57.01 57.27 56.77 56.43 55.71 55.60 55.52 55.36 55.26 55.04 54.94 54.67 54.40 54.18 54.35 54.25 54.45 54.31 54.39 55.08 54.61 54.56 53.66 53.95 50.23 56.27 52.44 52.72 52.24 51.48 52.40 53.22 52.26 51.00 50.40 46.61 46.35 43.30 41.72 41.34 38.19 39.04 41.79 44.74 45.36
54.73 55.50 56.90 57.31 56.93 56.39 55.75 55.26 55.32 54.88 54.89 54.63 54.47 54.39 54.10 53.87 53.98 53.54 53.77 54.33 54.67 53.62 53.30 54.10 52.42 50.06 50.60 48.53 50.70 51.28 52.26 52.08 50.82 52.12 50.71 49.18 45.83 44.34 43.34 42.02 36.25 37.98 37.89 39.18 39.04 43.48 44.90
54.08 54.56 56.25 56.83 56.85 56.61 56.01 55.16 54.86 54.47 54.61 54.61 54.59 54.56 54.07 53.71 53.79 53.43 53.70 53.28 49.30 49.44 50.68 47.08 47.78 46.92 47.73 50.83 51.52 50.18 50.67 51.73 49.90 47.78 44.30 45.20 43.22 39.76 40.63 41.54 41.40 40.52 39.06 38.81 40.82 42.95 43.18
53.69 54.09 55.36 56.42 56.47 56.03 55.93 55.34 54.74 54.23 54.21 54.37 54.36 54.55 54.49 54.20 53.65 53.58 53.35 53.20 51.16 53.62 45.75 48.88 48.13 48.62 49.68 50.11 47.69 49.98 51.65 48.27 46.71 42.43 43.93 43.55 39.88 42.15 42.41 42.02 41.03 40.82 39.24 38.44 41.21 42.29 42.96
53.23 53.03 54.94 55.73 55.95 55.46 55.22 54.99 54.64 54.27 53.82 53.78 53.65 53.98 54.08 53.77 53.45 54.32 55.45 55.85 58.01 55.66 45.55 47.04 48.81 48.57 49.21 50.38 46.70 47.89 49.39 48.20 44.05 42.12 41.19 40.54 41.31 43.38 42.61 40.98 40.86 39.95 38.95 38.64 38.88 41.39 42.40
52.89 52.46 54.16 55.08 55.32 54.91 54.37 54.31 54.27 54.21 53.82 53.55 53.16 53.29 53.41 53.32 52.96 54.04 53.57 56.15 57.13 54.56 39.41 42.16 46.21 48.77 49.33 49.02 46.11 50.55 50.50 48.51 46.07 41.66 42.51 41.15 43.00 42.50 42.08 40.59 40.87 38.05 41.06 41.01 39.59 39.57 37.98
52.64 52.44 53.85 54.36 54.63 53.79 53.63 53.61 53.89 53.77 53.77 53.41 52.94 53.16 53.61 54.07 53.71 52.58 55.09 56.95 58.34 51.44 28.56 43.64 46.45 51.77 48.93 46.50 46.68 48.89 50.55 49.12 43.29 42.50 43.54 39.99 41.63 41.59 41.30 40.78 42.29 40.95 42.16 40.89 40.32 39.63 39.01
52.70 53.12 53.71 53.90 53.92 53.56 53.52 53.32 53.44 53.22 53.10 53.09 52.78 53.36 53.33 54.01 53.53 55.07 56.78 55.78 54.02 37.84 28.81 42.34 46.08 44.85 45.31 45.58 46.08 47.68 47.05 49.07 47.18 43.97 44.73 42.55 45.36 43.69 42.87 43.62 43.79 43.56 41.41 39.96 39.24 38.70 34.75
53.19 53.40 53.79 53.75 53.78 53.58 53.54 53.35 53.17 52.96 52.76 52.83 52.55 54.67 55.93 54.35 50.99 55.79 54.72 51.49 39.25 31.61 43.55 40.53 41.68 43.56 42.19 41.98 43.57 43.92 42.19 41.65 39.70 37.57 36.91 41.36 42.24 44.96 44.39 42.62 44.78 42.96 38.21 33.94 33.96 33.35 32.73
53.53 53.67 53.59 53.69 53.78 53.60 53.40 53.25 52.88 52.69 52.48 52.40 52.52 53.71 53.72 54.95 55.21 55.39 52.17 44.24 33.22 38.72 40.24 43.64 42.67 42.87 40.92 42.61 42.22 42.23 41.43 39.38 42.50 40.35 37.73 36.20 35.07 42.10 44.83 42.26 40.11 40.20 38.67 33.49 26.58 28.92 31.35
53.38 53.66 53.55 53.58 53.58 53.40 53.11 53.01 52.98 52.54 52.34 52.06 52.83 51.60 51.64 53.87 55.37 52.71 47.52 35.26 34.72 38.19 42.13 41.76 42.59 39.94 40.42 42.84 41.59 41.07 39.82 39.51 41.10 42.19 37.65 36.36 36.36 43.58 44.20 44.34 43.21 40.23 37.41 39.24 32.09 25.72 31.04
53.48 53.14 53.13 53.06 53.03 53.06 52.69 52.76 52.78 52.56 52.31 52.26 52.11 49.30 51.14 53.13 53.82 48.97 41.64 36.72 40.27 42.88 43.97 43.49 38.96 41.13 38.28 40.04 39.86 39.80 39.49 42.57 41.24 43.07 43.87 40.10 35.57 41.03 42.94 44.50 44.22 42.41 42.27 35.79 35.75 27.74 25.71
52.92 52.86 52.66 52.58 52.62 52.58 52.56 52.76 52.48 52.26 51.94 52.15 49.36 47.54 51.61 53.87 50.83 44.16 36.52 36.33 41.89 45.12 45.64 43.55 41.50 40.47 40.53 40.12 40.29 39.31 39.46 41.83 43.06 43.48 43.86 40.87 38.67 37.64 40.45 39.65 38.69 40.22 38.25 37.36 37.26 34.46 29.84
52.27 52.15 52.07 52.06 52.60 52.43 52.43 52.47 51.75 51.79 51.63 50.37 45.84 44.34 51.73 52.18 43.00 38.90 38.22 41.70 43.41 44.34 45.95 44.91 44.34 43.08 41.40 41.01 39.93 39.83 39.49 41.33 43.63 44.82 40.91 41.62 37.00 33.45 36.62 41.19 42.81 41.52 38.57 37.22 32.33 29.19 33.09
51.93 51.81 51.99 52.39 52.40 52.35 52.11 50.63 50.65 51.82 51.55 49.92 45.92 46.27 50.25 50.20 37.43 34.82 42.61 42.87 43.71 43.85 42.82 43.40 42.85 43.77 43.37 40.17 37.40 40.99 41.67 45.02 44.47 44.54 42.16 42.08 36.15 30.59 32.34 37.50 40.16 39.16 39.66 37.22 35.51 34.10 31.86
51.84 51.84 51.91 51.94 51.95 52.24 50.63 50.51 50.95 51.47 51.53 48.20 44.69 41.58 44.75 44.44 42.85 41.30 40.40 40.98 41.46 44.29 43.35 43.58 42.66 44.10 41.91 39.89 41.68 39.85 41.02 44.51 45.15 44.56 43.80 43.36 36.74 33.59 30.08 32.93 36.66 34.87 36.69 37.76 37.54 33.43 32.89
51.79 51.80 51.35 51.32 51.23 51.50 49.89 49.81 50.13 51.16 51.09 48.96 44.42 41.76 43.48 37.58 40.76 41.66 42.32 42.24 40.88 40.23 43.95 44.17 42.64 42.23 40.74 36.39 38.48 39.07 41.53 42.48 43.34 43.91 43.50 42.19 36.04 35.87 36.44 37.51 36.85 36.52 36.26 36.75 35.57 36.83 32.91
51.56 51.49 51.06 50.44 50.57 50.00 49.73 49.99 50.25 50.85 50.77 46.86 44.45 43.38 42.59 40.44 41.65 41.35 38.43 41.28 41.20 41.71 42.50 41.96 41.22 42.48 42.49 38.84 39.44 37.92 41.54 40.63 40.17 42.73 41.23 39.74 34.97 35.38 32.99 35.15 34.73 32.78 35.69 36.10 36.62 36.89 36.56
51.41 51.65 50.76 49.98 51.00 50.04 49.53 49.62 50.43 50.59 50.58 47.23 45.53 45.38 44.89 36.58 37.06 37.53 37.56 41.22 41.90 43.06 42.86 44.06 43.14 41.19 37.61 42.39 44.70 45.44 44.79 43.12 43.24 41.18 38.90 38.23 35.30 32.54 29.67 32.48 32.51 29.81 33.47 35.44 36.69 37.98 37.66
51.06 51.51 51.24 51.33 51.61 51.29 49.12 49.43 50.29 50.20 50.25 49.12 47.14 44.06 40.90 35.07 33.78 37.49 41.53 42.30 41.56 42.71 41.64 43.44 43.74 39.57 43.91 46.61 45.14 42.32 38.89 38.00 39.97 40.19 41.26 33.37 32.86 31.97 30.92 32.36 25.59 36.55 39.49 39.47 37.37 38.33 38.85
50.56 50.95 51.55 51.64 51.53 51.52 50.95 50.51 50.17 50.16 50.90 49.96 47.09 44.76 40.61 33.37 35.60 38.07 40.95 41.00 41.87 42.18 41.64 42.89 45.11 44.32 45.89 42.37 36.63 32.75 32.71 31.07 32.65 37.15 37.46 37.80 34.42 31.24 29.41 29.42 32.13 36.21 38.55 36.82 35.62 35.93 39.13
50.23 50.41 51.00 50.90 50.98 50.77 50.77 50.38 50.20 50.06 50.77 51.23 48.80 45.52 42.96 36.53 38.45 42.43 40.92 41.41 37.21 36.80 38.29 41.90 45.50 44.90 42.80 35.36 33.91 29.74 29.61 29.95 32.39 33.64 35.96 35.72 33.11 34.07 30.73 27.78 25.53 34.88 38.00 40.31 40.29 32.85 40.80
50.04 50.14 50.44 50.59 50.56 50.27 50.45 50.51 50.02 49.80 50.57 52.05 50.21 47.99 44.62 38.28 42.31 43.35 40.56 40.34 40.95 38.96 38.01 37.83 42.55 40.38 42.10 34.29 31.90 32.26 33.31 32.91 31.20 26.88 26.88 30.24 30.87 30.32 30.92 28.99 32.07 37.38 38.68 40.29 31.50 34.05 39.84
49.88 49.95 49.93 50.29 50.09 49.83 49.88 50.31 49.94 49.70 50.00 52.05 50.37 49.75 47.36 39.63 43.37 46.58 45.55 42.12 41.88 40.67 37.92 40.36 40.27 38.67 37.13 33.37 33.19 32.96 31.11 33.22 32.39 33.61 31.24 31.39 30.15 27.62 28.00 26.96 25.36 38.34 38.66 36.57 40.30 40.58 41.44
49.54 49.76 49.78 49.73 49.65 49.39 49.48 49.61 50.19 50.02 50.12 50.76 49.89 49.58 48.61 45.64 44.88 48.91 50.61 49.21 48.04 46.09 42.42 39.32 41.36 39.18 39.84 34.87 33.47 32.98 31.53 29.04 31.66 32.02 35.04 31.96 35.14 33.37 33.32 33.85 39.34 40.35 41.56 43.07 42.11 41.12 40.13

GFSGBSN_sfc_wetblb_006.txt.gz
Wetbulb
57.10 56.76 56.85 57.53 57.78 57.58 57.39 57.15 56.56 56.11 56.41 56.01 55.95 56.01 55.78 55.85 55.83 55.30 54.61 54.14 54.14 54.00 54.55 55.22 55.89 56.46 57.73 54.79 53.40 58.70 60.59 61.72 59.70 57.60 56.00 55.20 53.00 52.20 48.91 50.06 50.64 48.96 49.95 50.76 50.23 49.59 50.22
56.59 56.49 56.91 57.79 57.81 57.03 56.67 55.89 55.52 55.99 55.68 55.76 55.64 55.84 55.95 55.43 55.29 54.85 54.51 53.85 53.38 53.51 55.16 55.02 56.12 55.94 58.10 50.12 57.98 58.80 57.99 57.67 58.41 58.10 56.63 56.27 54.10 54.51 51.69 50.59 50.05 50.90 50.81 50.40 50.50 50.61 50.40
56.34 56.41 57.42 57.80 57.29 56.29 56.17 55.58 55.67 55.52 55.62 55.42 55.36 55.54 55.74 55.27 55.01 54.74 54.43 53.85 53.41 54.79 54.75 55.30 55.79 58.30 55.55 53.28 58.95 58.58 56.73 57.25 57.27 57.60 55.94 56.18 55.60 53.73 53.90 51.47 51.80 50.85 48.59 50.16 49.99 49.92 49.52
56.13 55.89 57.21 57.60 57.05 55.95 55.64 55.12 55.72 55.54 55.44 55.12 55.31 55.54 55.16 55.60 55.66 55.10 54.71 54.59 55.14 54.89 55.26 55.22 55.08 59.02 52.77 58.43 59.87 57.08 56.85 55.97 57.49 58.15 57.59 56.80 56.69 54.06 52.50 52.80 49.86 48.33 48.66 45.35 48.93 50.17 50.45
55.57 55.59 56.94 57.49 56.75 55.89 55.61 54.89 55.54 55.32 55.08 54.92 55.06 55.08 54.85 54.67 54.59 54.77 54.83 54.79 54.85 55.40 55.40 54.83 59.35 58.26 51.02 58.48 55.04 56.63 56.25 54.54 56.26 56.51 56.24 54.48 55.01 52.19 51.34 49.59 46.95 47.08 43.46 42.94 45.74 49.48 49.64
54.89 55.13 56.80 57.32 56.75 55.97 55.65 55.22 55.18 54.85 54.89 54.96 55.05 54.87 54.49 54.31 54.34 54.08 53.98 54.61 55.18 55.13 56.27 57.41 56.54 53.31 53.30 51.35 54.40 54.79 56.03 55.56 54.62 54.34 53.96 53.40 53.47 50.31 49.91 47.45 42.18 42.38 42.57 44.29 43.68 47.38 48.98
54.22 54.34 55.93 56.98 56.75 56.29 55.98 55.20 54.88 54.47 54.67 54.88 54.86 54.92 54.38 54.21 54.47 53.91 55.57 59.78 55.69 54.84 55.61 50.99 51.14 51.00 51.76 54.55 56.21 55.07 54.56 54.40 53.83 52.96 48.98 50.68 48.64 45.43 46.05 46.83 45.90 44.96 43.68 43.00 44.92 47.64 47.60
54.01 53.81 55.45 56.36 56.29 55.99 55.81 55.34 54.84 54.37 54.55 54.51 54.69 54.92 54.88 54.43 54.36 54.03 60.18 58.37 56.72 57.97 50.33 53.23 52.12 53.13 53.46 54.08 51.67 54.46 56.95 51.47 50.87 47.50 49.29 48.09 44.58 46.29 47.45 46.90 45.00 44.50 43.03 42.89 45.50 46.63 47.34
53.48 53.10 54.91 55.77 55.81 55.42 55.14 55.02 54.53 54.27 54.29 54.12 54.14 54.45 54.63 53.85 53.68 58.64 62.37 60.05 63.08 60.39 50.75 50.86 52.35 51.74 51.88 54.94 50.99 51.91 54.32 51.42 49.11 47.04 47.50 45.67 45.07 46.56 46.21 46.94 45.57 44.34 43.14 43.48 43.27 46.42 48.00
53.16 52.77 54.18 55.10 55.24 54.65 54.40 54.65 54.49 54.27 54.03 53.82 53.63 54.02 54.06 53.25 56.12 61.06 58.66 60.73 63.40 59.31 47.52 46.33 48.94 51.55 52.52 52.48 49.57 54.36 54.30 51.62 49.20 46.08 46.85 45.99 47.35 46.53 46.32 45.16 46.42 42.64 45.67 45.36 44.41 44.08 42.54
52.93 53.08 53.92 54.41 54.49 53.94 53.72 53.92 54.06 53.98 53.66 53.53 53.31 53.89 53.63 54.57 61.62 58.68 59.60 63.15 63.72 60.63 37.37 47.07 49.15 54.90 54.25 50.54 50.22 51.61 54.50 53.28 47.73 46.60 47.66 43.41 45.85 46.01 45.28 44.65 47.02 44.54 46.96 45.43 45.00 44.64 44.32
53.22 53.59 54.02 54.08 54.02 53.88 53.65 53.47 53.41 53.38 53.28 53.19 53.10 54.30 54.15 58.82 63.60 60.72 63.22 62.09 62.05 47.97 35.07 44.83 49.01 48.77 49.53 50.62 49.65 51.71 51.84 53.53 50.80 48.86 48.95 46.77 49.27 48.62 47.24 47.27 47.08 48.05 45.48 45.47 46.19 45.96 39.94
53.44 53.87 53.79 53.92 53.98 53.80 53.65 53.45 53.13 53.06 52.91 52.96 53.69 54.63 59.77 61.02 58.87 63.17 63.15 60.10 46.58 40.66 46.33 43.70 45.17 48.34 47.99 46.62 47.55 48.57 48.13 47.13 45.52 42.38 42.79 45.63 46.21 48.72 49.42 46.40 48.69 48.15 44.14 40.35 37.97 38.60 37.75
53.57 53.79 53.65 53.88 54.01 53.70 53.45 53.27 52.85 52.57 52.59 52.94 53.40 54.55 56.05 60.59 63.56 62.87 61.95 53.71 39.50 42.79 43.69 46.99 46.91 47.55 44.91 46.67 46.40 47.20 46.04 45.21 47.74 46.21 44.52 41.64 39.62 46.24 48.67 46.20 44.20 44.72 44.38 39.17 30.11 34.59 37.42
53.57 53.65 53.53 53.76 53.60 53.50 53.09 53.02 52.81 52.55 52.26 52.64 53.57 60.75 61.50 60.92 62.37 62.06 55.89 46.73 43.35 44.68 46.54 45.74 46.52 44.17 44.22 46.06 46.18 45.89 45.23 44.28 45.71 47.13 42.48 41.57 40.44 47.35 47.15 48.25 47.17 43.98 41.80 44.29 37.77 33.00 36.35
53.57 53.36 53.04 53.06 53.23 52.96 52.76 52.71 52.56 52.45 52.31 53.02 59.48 59.63 59.02 60.51 61.00 60.53 54.13 42.38 44.90 46.88 47.78 47.54 43.08 44.77 42.59 44.38 44.17 44.80 44.11 45.87 44.69 47.42 48.39 43.84 39.75 44.38 46.08 48.09 48.42 46.47 46.46 40.52 41.54 31.72 28.33
53.24 52.95 52.70 52.76 52.73 52.39 52.54 52.37 51.66 52.15 52.05 52.80 59.75 53.76 58.57 60.66 59.88 56.93 48.32 45.36 46.51 48.58 49.31 47.19 45.46 44.26 45.02 43.89 45.13 43.71 43.07 45.41 47.21 46.66 48.39 45.26 42.66 41.40 44.57 43.88 43.24 44.75 43.54 41.98 41.87 39.73 32.89
52.49 52.23 52.15 52.43 52.57 52.30 51.94 51.04 51.67 51.67 51.86 56.15 57.52 51.16 58.31 60.02 52.26 50.77 47.72 47.89 46.00 48.37 50.19 48.93 49.22 47.47 45.85 45.35 44.20 43.88 43.03 45.19 48.01 48.16 43.83 45.90 43.36 38.43 39.77 44.98 46.47 45.61 43.12 42.02 37.28 31.65 37.15
52.18 52.07 52.23 52.24 52.13 52.03 49.97 50.37 51.33 51.43 51.95 58.63 55.82 54.69 58.54 58.43 48.46 48.14 47.73 46.93 48.02 47.99 47.27 47.89 46.91 48.01 48.01 45.16 42.55 44.86 45.08 47.65 48.43 47.83 45.44 46.42 41.77 36.00 37.75 42.46 44.94 43.05 43.55 42.97 40.92 39.48 34.97
52.00 52.12 51.95 52.05 52.14 50.49 49.81 49.83 50.57 51.28 51.61 58.36 55.38 51.70 54.24 54.87 52.02 49.84 47.58 46.31 45.64 48.66 47.50 48.73 47.16 48.88 47.39 45.37 46.80 44.23 44.74 46.86 47.95 47.83 43.83 47.06 42.89 38.54 34.70 37.26 40.85 38.15 40.17 41.96 41.10 35.92 36.08
51.98 52.02 51.55 50.08 50.13 49.61 49.72 50.17 50.91 51.32 51.18 58.01 55.25 51.02 50.83 48.81 48.93 50.12 49.47 47.73 45.82 44.72 48.25 48.82 46.90 47.26 46.28 42.84 43.42 43.19 45.50 45.69 46.48 45.32 47.70 46.94 38.44 40.75 41.13 41.67 41.45 40.32 39.84 40.56 39.19 40.02 35.73
51.71 51.95 50.91 50.21 50.21 49.23 49.59 50.29 50.77 50.96 50.87 56.62 54.03 51.98 51.28 48.66 49.12 49.44 45.39 47.27 46.05 45.61 47.11 45.68 45.99 46.70 46.82 43.26 43.32 41.80 43.63 43.84 42.78 46.57 45.46 45.43 39.27 38.59 36.64 40.08 40.39 38.18 40.67 40.94 40.86 41.20 40.71
51.61 51.62 50.76 50.04 51.04 49.14 49.66 50.21 50.64 50.89 52.74 57.06 53.56 52.79 55.10 42.34 46.39 48.74 47.44 47.37 46.94 48.74 47.56 49.22 48.91 47.24 44.63 46.66 48.98 49.44 49.55 48.78 47.12 44.99 42.90 42.88 41.16 37.40 34.42 37.15 37.17 34.23 38.30 40.17 40.79 42.13 41.52
51.44 51.46 50.46 51.81 51.76 50.42 49.93 50.82 50.15 50.45 52.58 57.84 55.19 54.87 53.70 46.09 47.58 47.70 47.33 48.22 47.65 47.46 47.12 48.18 49.53 48.28 47.97 51.56 50.82 49.59 47.07 46.13 46.58 45.21 46.20 39.09 39.67 37.05 34.46 34.94 30.04 39.09 44.10 43.53 41.21 42.43 43.73
50.70 51.29 51.81 52.03 52.01 51.45 50.78 50.60 50.16 50.30 51.26 56.94 54.07 54.37 51.56 37.40 48.14 45.78 47.81 47.79 48.36 48.83 47.65 48.05 48.62 48.82 52.73 50.07 45.29 40.03 39.54 37.46 38.87 41.97 42.43 44.02 40.90 34.86 31.75 31.65 36.60 38.95 41.30 40.49 39.10 39.38 43.69
50.36 50.92 51.34 51.47 51.41 50.92 50.51 50.37 50.13 50.03 51.13 57.25 54.26 53.52 53.28 41.28 47.41 48.35 47.85 49.01 47.15 47.32 47.39 47.00 49.16 50.80 50.66 47.25 42.53 35.37 36.20 36.11 36.64 38.18 40.69 40.35 40.39 39.79 33.89 30.02 28.71 39.00 41.98 44.04 43.97 35.89 44.21
50.03 50.26 50.63 51.09 51.00 50.79 50.78 50.37 50.13 50.03 50.81 58.05 55.66 54.41 54.64 51.62 49.17 49.49 48.88 48.28 49.43 48.66 47.72 47.89 48.22 46.79 49.41 42.11 36.85 38.37 38.26 38.85 36.10 34.14 34.14 34.80 34.56 33.57 33.43 31.80 35.72 42.84 43.15 44.18 33.76 37.30 44.49
49.74 49.77 49.79 50.29 50.67 50.38 50.48 50.26 50.06 50.00 50.32 56.64 55.53 55.27 55.04 49.65 49.69 50.32 50.02 48.54 48.49 50.52 47.80 47.78 47.62 46.94 44.94 38.30 36.31 39.00 35.59 40.20 37.93 39.45 37.49 36.82 36.58 33.63 33.68 29.97 28.70 43.17 42.94 37.44 43.32 44.03 42.25
49.35 49.44 49.54 49.87 50.19 50.03 50.00 50.04 50.23 49.88 49.88 52.51 56.35 54.65 54.59 54.53 51.61 53.58 53.93 53.12 53.13 53.16 50.85 49.19 48.21 47.71 49.43 43.55 39.16 37.35 34.14 33.77 39.13 35.96 41.83 36.37 40.31 38.21 37.20 39.06 45.89 46.91 44.61 46.07 44.35 42.80 44.39

GFSGBSN_sfc_wetblb_009.txt.gz
Wetbulb
57.06 57.03 57.03 57.26 58.03 58.41 57.93 57.87 57.53 56.50 55.77 56.60 56.70 56.54 56.32 56.43 56.34 55.98 55.43 54.76 54.35 54.48 54.45 55.56 56.04 56.33 59.79 56.89 54.06 60.02 61.94 64.30 61.92 59.71 57.21 55.59 53.48 52.16 49.10 50.15 50.58 48.81 49.46 50.05 50.21 49.92 49.96
56.79 56.99 56.98 57.35 58.04 57.69 57.54 56.96 56.46 55.77 56.29 56.35 56.21 56.23 56.30 55.85 56.05 55.57 54.88 54.38 53.94 53.71 54.49 55.35 55.64 56.42 59.70 52.04 58.86 59.73 59.31 59.12 59.19 58.44 56.00 55.68 53.80 54.11 51.20 50.42 50.29 51.27 51.16 51.39 51.86 51.59 51.46
56.56 56.66 56.97 57.79 57.82 57.43 56.75 56.12 55.50 56.10 56.16 56.10 56.14 56.13 56.19 55.81 55.28 55.34 54.97 54.19 54.04 54.18 54.90 55.31 55.98 59.72 59.40 54.16 59.39 59.55 58.61 58.17 58.69 59.00 55.82 57.13 56.50 53.85 53.94 51.35 53.47 52.11 49.27 51.07 51.34 51.93 51.03
56.38 56.19 56.40 57.77 57.26 56.43 55.96 55.31 55.15 55.91 55.86 55.86 55.95 56.14 55.79 55.97 55.20 54.61 54.31 54.06 54.45 55.34 55.87 55.81 56.30 60.94 54.54 58.79 60.49 57.56 58.24 57.17 58.75 59.87 58.60 58.28 57.84 55.74 54.25 54.84 51.83 49.69 50.49 46.99 50.60 51.56 52.05
56.15 55.54 56.12 57.51 57.31 56.11 55.49 54.82 55.14 55.47 55.38 55.43 55.51 55.82 55.67 55.42 55.48 55.44 55.62 55.46 55.44 55.73 55.89 55.94 59.93 60.56 51.87 58.45 55.82 57.33 57.49 55.33 57.30 58.61 57.73 56.45 57.06 53.83 53.52 50.06 47.98 48.85 45.20 44.97 47.55 51.24 50.70
55.93 54.93 55.82 57.20 57.10 56.54 55.84 55.10 55.14 54.78 55.15 54.83 54.92 55.13 55.22 55.33 54.96 54.82 54.77 54.88 55.90 55.32 57.15 60.21 60.55 55.18 53.74 52.16 55.06 55.78 57.76 57.52 56.26 56.46 55.24 54.95 54.33 51.57 50.33 48.45 43.36 44.86 44.04 45.48 45.20 49.13 49.23
55.30 54.18 55.05 56.70 56.88 56.44 56.27 55.57 55.02 54.82 54.88 55.00 54.69 55.18 55.16 55.06 54.94 54.49 55.31 60.26 57.35 56.65 57.40 53.32 52.92 52.14 52.80 55.24 57.31 55.47 56.76 56.29 56.12 54.58 50.94 52.54 49.69 48.17 48.14 48.50 47.48 46.54 45.35 44.82 47.28 49.06 48.18
54.95 53.86 54.73 56.22 56.38 56.06 55.95 55.61 54.90 54.71 54.74 54.62 54.94 55.40 54.92 54.88 55.00 54.80 60.37 59.33 59.34 59.20 51.09 54.52 54.74 54.95 55.62 56.17 51.84 54.26 57.81 53.30 52.79 49.38 50.65 48.91 46.74 48.41 49.46 49.05 47.52 46.67 45.32 45.17 47.14 48.41 48.83
54.77 53.68 54.44 55.62 55.76 55.43 55.32 55.47 54.82 54.59 54.49 54.43 54.70 54.66 55.49 54.39 54.43 58.45 62.90 61.18 64.56 63.12 51.86 51.78 53.78 53.19 53.45 55.64 52.10 52.70 55.55 52.51 49.91 47.61 47.77 47.80 47.87 49.06 48.61 48.30 47.31 46.96 45.86 45.98 45.54 48.14 49.37
54.53 53.12 54.48 54.96 55.20 54.86 54.86 54.92 54.84 54.63 54.29 54.43 54.29 54.76 54.78 53.64 55.57 63.57 60.69 63.40 65.89 63.77 48.86 47.05 50.03 52.71 53.80 54.67 51.01 55.85 56.26 53.31 50.22 47.27 48.73 48.10 49.75 48.17 47.98 47.17 48.24 45.10 47.71 47.07 46.18 45.38 43.39
53.96 53.22 54.31 54.63 54.92 54.37 54.14 54.23 54.17 54.23 54.16 54.10 53.96 54.60 54.08 54.23 62.52 59.43 61.69 66.14 66.81 64.09 39.09 48.21 50.40 56.97 54.40 51.98 52.42 52.90 56.86 54.04 48.74 48.18 49.58 46.42 47.51 47.77 46.81 46.70 48.61 46.73 49.16 47.43 47.44 46.06 46.15
53.57 53.69 54.38 54.51 54.41 54.12 53.98 53.88 53.52 53.70 53.80 53.92 53.94 55.38 53.98 59.75 65.40 63.26 65.30 65.61 64.73 49.64 37.26 46.18 50.46 50.49 50.89 51.97 51.69 53.46 53.42 55.32 54.28 50.30 50.73 48.83 51.37 50.43 49.15 49.38 49.02 50.42 48.55 48.08 48.60 47.19 40.83
53.62 53.97 54.29 54.49 54.39 54.10 53.84 53.64 53.19 53.27 53.26 53.96 54.82 55.43 57.15 64.50 60.14 66.33 66.59 62.02 46.46 42.04 48.34 45.22 47.07 49.86 49.78 48.77 49.22 50.95 49.97 49.51 48.61 44.96 45.12 47.92 47.91 50.57 51.02 48.71 50.71 49.74 47.00 41.81 39.64 40.11 39.17
53.90 54.05 54.08 54.49 54.49 54.05 53.64 53.43 52.91 52.77 53.12 54.43 54.69 55.38 59.90 64.59 66.54 66.44 63.35 52.79 42.29 45.40 45.69 49.27 48.90 49.30 46.93 48.94 48.52 48.77 48.36 47.12 49.79 48.92 46.88 44.08 41.93 47.80 49.98 48.19 46.18 46.44 46.67 41.03 32.72 36.30 39.54
53.88 53.86 53.94 54.19 54.15 53.70 53.40 52.99 52.77 52.67 52.98 54.25 54.37 64.99 63.99 64.73 66.15 65.50 55.97 47.02 45.70 46.15 48.44 47.70 48.45 46.23 45.97 47.67 48.14 48.18 47.63 46.60 47.45 49.25 45.40 43.92 43.04 48.98 49.22 50.36 49.30 46.24 43.79 46.57 40.75 38.78 37.89
53.78 53.57 53.53 53.72 53.49 53.11 52.89 52.44 52.31 52.67 53.01 54.79 60.59 59.50 60.08 64.71 65.76 62.94 54.37 45.73 47.63 49.70 49.47 49.59 44.87 47.24 44.47 46.17 46.39 47.02 46.35 48.00 46.71 48.92 50.08 45.84 42.24 46.36 47.89 49.91 50.11 48.30 48.50 42.43 43.44 32.69 30.35
53.49 53.26 53.20 53.36 53.15 52.68 52.20 51.22 52.11 52.37 52.78 55.19 60.99 54.45 61.58 65.63 63.90 56.18 49.61 48.32 48.55 50.94 51.39 49.02 47.07 46.13 47.41 45.86 47.14 45.97 45.46 47.65 49.16 48.57 49.81 47.16 44.48 44.10 46.42 45.67 45.06 46.54 45.69 44.08 43.20 40.96 34.05
52.92 52.89 52.82 53.04 52.93 52.31 50.57 50.59 51.82 52.07 52.29 54.08 59.62 51.87 62.38 64.07 52.78 55.29 50.34 49.84 48.32 50.70 52.50 50.82 51.22 49.44 48.06 47.87 46.38 46.15 45.33 47.83 50.17 50.03 45.90 47.57 45.28 40.40 42.22 47.28 48.97 47.66 45.14 44.01 38.70 35.14 38.93
52.49 52.63 52.63 52.97 52.63 50.65 50.60 50.50 51.13 51.58 51.95 62.70 56.12 55.75 62.24 61.98 50.47 51.97 51.13 49.51 50.84 50.23 50.07 50.17 49.00 50.44 50.95 48.29 44.38 47.17 47.36 49.96 50.46 49.46 47.58 48.17 44.58 38.70 40.75 44.90 47.28 44.35 45.54 44.55 42.55 40.93 36.20
52.39 52.35 52.23 51.90 51.76 50.19 50.56 50.60 51.20 51.61 52.07 60.49 57.19 52.58 55.83 57.72 56.60 52.08 49.80 49.07 47.90 51.42 50.21 51.35 50.19 51.53 49.81 47.34 49.35 46.65 46.84 48.81 50.18 49.94 45.18 48.09 44.78 40.09 36.70 39.94 43.09 40.52 42.25 43.37 42.64 37.20 37.81
52.23 52.13 51.47 50.40 50.17 50.12 50.56 50.70 51.21 51.47 51.73 60.52 58.93 54.23 54.88 50.30 52.33 52.79 52.27 50.66 48.23 46.82 50.78 51.83 49.23 49.41 48.55 44.97 46.48 45.51 47.66 47.71 48.25 45.15 48.55 47.82 40.14 42.83 43.20 43.29 43.06 42.01 41.69 42.31 40.85 41.48 37.49
52.10 51.74 50.56 50.71 49.85 50.17 50.23 50.87 51.14 51.27 51.31 60.92 55.24 54.32 55.75 54.54 53.63 52.14 47.99 49.40 48.41 48.13 49.46 47.96 48.27 49.57 49.12 45.88 45.19 43.96 45.65 45.41 44.80 48.17 47.20 47.34 41.09 41.42 38.75 42.77 42.14 39.91 42.03 42.58 42.50 42.58 42.34
52.11 51.32 50.38 50.76 49.63 50.25 50.48 51.32 50.73 51.09 52.73 60.43 59.42 59.12 57.08 47.06 52.31 50.99 50.24 49.84 49.43 50.91 49.87 51.23 50.77 48.86 47.39 48.45 51.18 51.64 51.56 50.30 48.88 46.95 44.79 44.57 42.93 39.17 35.56 40.98 39.03 35.63 41.01 41.63 42.34 43.77 43.07
51.72 51.25 50.26 52.45 52.24 50.91 51.66 51.04 50.41 50.81 52.24 61.85 59.82 59.51 55.76 49.16 51.30 50.63 50.22 50.87 50.11 50.28 49.01 51.13 51.45 49.67 51.06 54.49 53.57 52.14 50.45 49.31 49.14 48.03 48.98 43.82 41.43 39.72 35.56 36.05 31.04 42.01 46.42 45.60 42.96 44.06 45.27
51.20 51.49 52.24 52.45 52.10 51.80 51.33 50.96 50.35 50.62 51.80 60.80 59.16 58.98 54.84 42.55 51.70 50.13 50.85 50.91 50.98 51.56 50.61 50.57 51.02 53.10 55.52 52.22 47.16 41.00 40.16 37.47 41.41 44.99 45.45 47.29 43.67 37.29 33.66 34.04 38.16 41.34 42.98 42.26 40.88 40.75 46.03
50.92 51.55 52.11 52.00 51.62 51.36 51.08 50.85 50.37 50.31 51.53 60.44 57.98 58.62 57.93 45.41 50.20 52.60 51.49 52.05 49.79 49.55 49.58 49.31 52.51 55.00 54.32 50.24 43.81 36.60 37.10 39.18 39.15 40.83 44.45 44.11 44.76 41.22 36.26 30.99 29.92 40.59 45.37 46.62 46.01 36.85 46.46
50.36 50.94 51.46 51.65 51.46 51.18 51.15 50.78 50.58 50.48 51.07 59.60 59.32 59.24 58.58 54.27 53.32 53.91 51.54 51.38 53.43 51.89 49.69 50.61 50.58 49.74 53.27 44.64 39.28 39.75 39.88 42.62 37.69 35.70 34.10 36.62 36.82 35.87 34.80 33.11 37.07 44.35 45.08 46.81 35.01 38.46 46.90
49.89 50.15 50.49 50.99 51.05 51.07 51.05 50.72 50.41 50.19 50.65 57.09 58.91 59.47 58.57 53.87 52.62 53.46 53.70 52.64 52.82 52.84 49.22 51.53 49.79 50.11 49.61 38.95 39.67 41.95 38.17 42.28 40.51 42.08 39.37 37.68 36.97 33.53 35.85 32.44 29.99 45.98 44.70 39.08 44.95 47.47 46.41
49.53 49.65 49.81 50.15 50.60 50.55 50.82 50.61 50.82 50.13 50.37 52.13 59.46 58.94 59.33 57.45 54.62 56.62 56.16 56.24 56.35 56.32 53.77 52.88 50.58 50.40 50.70 47.13 43.51 43.06 36.38 37.81 40.42 37.32 45.25 38.48 42.30 40.52 40.13 40.17 47.00 47.45 46.48 49.04 47.95 45.89 45.25

GFSGBSN_sfc_wetblb_012.txt.gz
Wetbulb
56.44 57.22 57.23 57.23 57.42 58.37 58.10 57.66 57.10 56.52 56.05 55.69 55.88 57.01 56.84 56.90 56.68 56.22 55.70 55.44 55.27 54.93 54.95 55.13 55.87 55.99 58.09 56.58 54.30 59.37 62.65 64.33 60.29 60.49 57.46 55.49 53.56 52.71 49.30 49.95 50.09 48.47 48.78 49.27 49.31 48.88 49.62
56.91 57.01 57.08 57.02 57.56 58.07 57.70 56.88 56.24 55.73 55.43 55.78 56.49 56.49 56.38 56.39 56.47 55.92 55.78 55.02 54.46 53.78 54.08 55.00 55.93 56.08 57.85 52.51 58.55 59.25 58.84 58.91 58.85 58.27 55.95 55.68 53.78 53.88 50.73 49.80 49.47 50.25 49.41 49.03 49.54 50.31 50.14
56.87 56.66 56.90 57.06 57.87 57.08 56.60 56.23 55.99 55.51 55.62 56.56 56.66 56.49 56.37 56.32 55.43 55.64 55.33 54.77 54.06 54.15 54.86 55.54 55.74 58.22 58.66 55.15 58.65 59.19 58.33 57.76 58.54 58.46 55.99 56.98 56.68 53.18 52.89 50.00 52.48 50.87 48.17 49.80 50.29 51.09 49.94
56.50 56.45 56.10 56.90 57.67 56.71 56.35 56.10 55.20 55.35 56.34 56.43 56.39 56.48 55.97 56.23 55.32 54.79 54.60 54.29 54.25 54.86 55.61 56.41 55.90 59.16 55.76 59.16 59.43 57.52 57.86 56.81 58.22 59.16 57.83 57.61 57.32 55.57 54.28 53.86 50.28 48.26 49.42 45.59 49.69 50.82 51.50
56.26 56.23 55.35 56.76 57.50 56.93 55.97 55.48 54.92 55.77 56.11 56.00 56.26 56.43 55.91 55.65 55.89 54.94 54.63 54.96 55.36 56.15 56.14 56.31 57.97 59.88 54.42 59.07 55.43 57.32 57.22 55.29 56.70 58.01 57.38 56.76 56.84 52.97 52.05 48.11 46.52 47.85 43.49 45.75 47.37 51.04 50.86
55.87 55.51 54.88 56.12 57.31 57.00 56.41 56.34 55.75 55.37 55.62 55.66 55.90 56.04 55.90 55.61 55.47 55.32 55.24 55.55 56.06 55.52 56.52 60.26 60.77 56.30 55.32 52.31 55.19 55.31 57.48 57.34 55.64 55.88 54.63 54.23 53.37 50.00 49.69 47.73 41.32 43.11 43.94 45.01 44.66 48.50 48.22
55.60 55.03 54.12 55.62 56.75 56.77 56.37 56.31 55.53 55.27 55.24 55.38 55.39 56.21 55.87 55.49 55.25 54.80 54.13 57.87 56.52 55.57 58.12 53.80 52.04 52.67 52.14 54.28 55.96 54.85 56.47 55.84 56.05 54.32 50.17 52.25 48.63 46.44 47.74 48.35 47.49 46.59 45.25 44.54 47.40 49.01 47.17
55.13 54.45 53.81 55.32 56.46 56.35 56.03 56.05 55.41 55.04 54.97 54.98 54.94 55.68 55.48 55.53 55.48 55.08 56.97 59.86 58.94 58.90 51.02 54.59 54.30 53.91 54.93 56.22 51.43 53.42 57.22 53.07 52.01 48.70 50.86 48.01 46.10 48.60 49.54 48.90 47.50 46.69 45.18 45.07 47.28 48.65 47.12
55.11 54.04 53.48 55.10 55.93 55.82 55.70 55.72 55.37 54.98 54.89 54.95 55.19 54.88 56.09 54.69 54.72 56.08 61.90 60.80 64.03 64.05 51.52 51.95 54.11 52.96 53.73 55.63 52.04 51.76 55.48 52.86 50.37 48.80 47.50 46.81 47.63 49.51 48.64 48.19 46.74 47.09 45.27 46.04 45.18 48.01 48.85
55.05 53.71 53.77 54.99 55.58 55.31 55.15 55.09 54.88 54.88 54.72 54.91 54.95 54.97 55.34 53.97 54.71 63.36 60.34 62.96 65.50 65.69 47.50 46.63 50.22 52.23 54.04 54.71 50.51 55.20 55.86 53.50 49.95 47.00 48.72 48.20 49.71 48.36 47.90 47.31 47.60 44.38 48.67 47.06 45.82 44.58 40.96
54.95 53.55 54.24 54.87 55.24 54.78 54.29 54.53 54.37 54.41 54.58 54.87 54.87 55.11 54.29 53.94 60.53 59.08 61.64 64.85 66.12 64.29 38.42 48.44 50.15 56.72 53.93 52.24 52.73 52.48 56.48 53.94 48.63 48.29 49.14 46.72 47.88 48.10 47.19 47.09 48.42 46.51 49.10 47.06 46.75 44.97 44.47
54.53 53.24 54.20 54.75 54.96 54.41 54.37 54.06 53.72 53.78 54.02 54.48 55.03 56.23 54.23 58.20 64.16 63.26 65.10 66.09 64.44 49.43 37.69 45.78 50.47 50.30 49.87 51.42 51.53 53.26 52.66 55.44 54.57 50.11 50.63 48.85 51.49 50.29 48.94 49.60 49.09 50.35 48.66 48.13 47.80 45.93 40.54
54.19 53.60 54.32 54.70 54.90 54.41 54.17 53.80 53.31 53.35 53.82 55.46 55.53 55.41 57.10 64.72 61.04 66.27 67.56 62.29 46.21 42.15 48.60 45.16 47.24 50.20 49.37 48.34 49.96 50.84 49.99 49.57 48.00 44.62 44.92 47.99 48.09 50.66 50.78 48.49 50.96 49.22 46.69 40.79 39.08 39.85 38.33
53.95 54.67 54.24 54.72 54.92 54.49 54.02 53.42 53.02 53.01 53.59 55.42 55.71 55.10 60.96 65.04 66.36 67.82 64.18 52.68 41.87 45.87 45.88 49.50 48.95 49.40 46.75 48.94 48.65 49.24 48.94 46.47 49.53 49.35 45.86 43.60 41.17 47.73 50.40 47.98 45.62 46.77 45.64 40.97 32.54 34.07 38.22
54.17 54.34 53.86 54.27 54.59 54.13 53.32 52.82 52.63 52.95 53.51 55.55 55.14 65.60 65.22 65.86 67.47 66.47 57.05 46.20 45.63 45.81 49.02 47.48 48.35 45.81 45.78 47.93 48.31 48.59 47.61 46.03 47.04 48.99 44.63 43.66 42.74 49.16 49.07 49.75 48.69 46.09 42.61 45.99 41.34 38.67 36.89
54.09 54.21 53.67 53.96 54.04 53.52 52.71 51.77 52.55 52.89 53.43 55.81 60.48 59.79 59.74 65.73 67.22 62.97 54.07 46.67 48.62 50.51 49.84 49.47 44.50 47.44 44.37 45.95 46.21 47.35 46.49 48.49 47.11 48.96 50.13 45.66 42.12 46.34 47.58 49.83 50.22 47.41 47.84 41.47 43.39 33.14 30.50
53.65 53.76 53.44 53.78 53.72 52.86 50.81 50.87 52.08 52.49 53.14 55.53 62.22 53.76 62.29 65.91 64.92 55.65 49.06 49.93 49.07 51.15 52.07 48.50 47.34 45.94 47.47 45.70 47.31 46.50 46.34 47.99 49.68 48.76 50.07 47.34 45.44 43.92 46.93 45.42 44.00 45.58 44.42 44.39 42.94 40.75 33.59
53.12 53.16 53.12 53.49 53.42 51.16 50.46 51.04 51.62 52.18 52.65 55.16 61.85 50.16 63.28 65.76 51.38 52.47 50.67 50.40 48.49 50.41 52.79 51.38 51.55 49.40 48.03 47.97 46.61 46.42 45.97 48.09 50.31 50.04 45.80 46.70 45.14 41.90 42.56 47.24 48.28 46.79 44.52 44.02 38.95 35.98 39.83
52.78 52.67 52.85 53.33 52.62 50.40 50.28 51.23 51.69 51.83 51.89 61.19 55.21 55.80 62.77 62.77 49.71 53.45 51.74 50.35 51.38 50.00 50.23 50.16 49.16 50.82 51.44 48.63 44.83 47.56 47.84 50.37 50.89 49.66 46.54 47.41 44.90 39.35 40.28 44.76 47.06 43.27 45.15 44.47 43.65 41.21 35.41
52.48 52.31 52.47 51.08 50.31 50.27 50.40 51.16 51.64 51.77 52.48 58.65 57.57 51.82 54.41 55.89 57.28 52.52 50.14 48.83 48.35 52.51 51.13 51.83 50.79 51.43 49.80 48.02 49.77 46.75 46.62 49.26 50.54 48.89 46.49 48.05 44.69 40.89 36.81 39.47 42.84 40.13 42.06 43.38 42.19 37.29 37.02
52.20 52.11 51.55 50.36 49.86 50.16 50.44 51.18 51.51 51.75 52.04 58.58 58.38 53.42 53.75 49.00 51.39 52.52 52.19 50.34 48.31 47.32 51.59 52.23 49.57 49.56 48.73 45.51 46.80 46.19 48.19 47.19 48.44 45.84 48.17 47.87 41.22 42.81 42.51 42.76 42.86 41.77 41.27 41.86 40.41 41.19 36.12
52.08 51.79 50.57 50.06 49.77 49.90 50.64 51.60 51.21 51.44 50.67 58.70 55.56 54.32 55.73 54.06 54.03 51.94 48.47 49.53 48.71 49.24 49.88 48.42 48.10 49.92 50.18 47.08 46.49 45.05 46.71 46.21 45.65 48.10 47.04 48.19 42.10 41.90 39.52 42.97 41.79 39.11 41.07 41.39 41.69 41.99 41.58
52.08 51.30 50.34 50.44 49.50 50.21 52.00 51.26 50.83 51.23 53.63 59.95 59.83 60.30 56.85 49.26 52.52 51.65 50.80 50.18 49.87 51.24 51.05 52.23 51.19 49.96 47.41 48.97 51.09 51.28 51.30 50.60 48.90 47.43 45.81 45.49 43.75 39.76 36.02 39.44 38.85 36.29 41.11 41.71 42.34 43.57 42.74
51.69 50.75 49.93 52.53 51.74 52.79 51.91 51.13 50.51 50.90 52.20 62.18 61.27 59.79 56.19 50.70 52.31 50.44 51.41 51.66 50.44 50.91 49.10 51.54 52.13 49.73 51.30 54.02 52.97 51.78 50.62 49.60 49.76 48.32 49.57 43.48 41.70 39.58 35.20 35.99 31.22 42.00 45.74 45.15 42.90 43.81 44.85
51.30 50.13 51.88 52.75 52.38 52.26 51.61 51.09 50.50 50.62 51.81 61.38 60.78 59.91 55.13 41.10 52.35 51.38 51.19 50.90 51.99 51.74 50.81 50.80 51.93 53.39 55.06 52.19 47.25 39.94 40.47 38.11 42.02 46.16 45.86 47.79 43.17 35.02 34.19 33.03 37.17 40.65 43.45 41.84 40.26 39.69 45.31
51.17 51.94 52.50 52.21 51.74 51.64 51.38 51.04 50.55 50.54 51.35 61.10 59.24 60.52 59.18 47.29 51.69 53.09 51.17 52.19 50.04 50.37 49.69 49.83 53.81 56.15 54.07 50.64 43.56 37.24 37.87 40.68 38.65 40.49 45.60 45.43 45.98 41.49 34.51 30.77 28.24 41.17 45.17 46.97 45.71 35.81 46.46
50.95 51.57 52.11 52.17 51.76 51.62 51.32 51.11 50.62 50.52 51.09 58.30 59.63 61.51 59.75 55.42 54.69 54.73 52.27 51.72 53.72 52.09 49.47 50.33 50.59 50.64 53.74 44.31 36.93 39.83 40.85 43.18 37.76 35.60 34.75 35.39 37.91 35.06 34.81 31.89 36.21 43.97 45.80 46.93 34.41 37.61 46.14
50.38 50.77 51.08 51.46 51.55 51.93 51.21 50.99 50.54 50.28 50.59 56.02 59.68 60.89 59.26 54.27 53.80 55.66 55.54 54.79 53.69 53.75 49.73 51.70 49.97 51.64 50.60 38.74 39.10 42.95 38.38 42.27 41.57 42.67 37.82 35.13 35.27 32.73 35.43 32.54 30.07 46.38 44.92 39.05 44.79 47.84 46.82
49.74 50.00 50.39 50.77 50.99 51.56 52.23 50.85 50.94 50.54 50.52 51.97 59.11 59.85 60.88 58.07 54.66 58.24 56.98 57.42 56.00 55.31 55.05 54.11 50.93 50.61 51.02 46.16 45.07 44.85 35.75 37.56 39.94 38.45 45.01 39.03 42.91 40.49 39.55 38.90 47.17 48.96 46.23 48.09 47.65 45.89 45.15

GFSGBSN_sfc_wetblb_015.txt.gz
Wetbulb
56.48 56.76 57.57 57.79 57.64 58.01 58.04 57.63 57.26 56.39 55.47 55.27 55.19 55.25 56.12 57.14 57.21 57.16 55.66 55.23 55.03 55.07 54.46 55.15 55.14 55.49 55.19 54.11 53.45 56.70 64.36 62.81 59.97 57.48 55.90 54.92 51.85 48.48 45.84 45.79 46.10 44.70 44.60 45.85 45.89 46.21 45.79
56.84 57.47 57.56 57.51 57.39 57.91 57.15 56.77 56.40 55.49 55.16 54.97 55.01 56.05 56.53 56.56 56.66 56.57 55.43 55.13 54.63 54.23 53.73 53.98 55.03 55.42 54.07 49.54 57.71 57.62 56.75 58.58 57.11 56.74 56.38 55.22 51.85 51.34 49.18 46.52 45.04 46.95 45.58 44.44 44.39 46.12 46.77
56.69 57.51 57.37 57.05 57.12 57.47 56.39 55.79 55.60 55.36 55.07 55.23 56.27 56.41 56.35 56.47 56.31 55.44 55.44 54.88 54.39 53.67 54.10 55.20 55.46 55.98 55.91 55.58 55.74 53.83 56.03 53.80 54.39 54.78 53.56 53.91 53.03 50.40 49.22 46.71 49.21 47.97 44.02 44.82 45.40 46.46 45.50
56.86 57.01 57.09 56.46 56.71 57.03 56.87 55.65 55.49 54.97 55.27 56.53 56.70 56.25 55.95 55.79 55.73 54.95 54.83 54.45 54.12 54.59 55.14 55.83 55.60 55.30 53.02 60.05 54.29 54.68 54.52 53.83 55.61 56.30 55.18 54.45 54.77 51.57 50.26 48.56 46.76 44.13 43.93 39.57 45.01 47.25 46.87
56.77 56.55 56.67 56.00 56.47 57.05 56.69 55.34 55.60 55.77 56.03 56.26 56.04 56.01 55.67 55.24 55.28 54.78 54.39 54.29 54.61 55.06 56.03 56.56 53.95 54.85 51.99 57.55 53.72 54.33 53.63 53.44 55.01 55.68 54.15 55.18 52.84 49.32 47.68 42.66 39.83 41.61 36.81 40.44 42.95 47.46 46.85
56.78 56.51 56.05 55.59 56.55 57.06 56.82 56.38 56.33 55.83 55.57 55.75 55.62 55.62 55.43 55.14 55.00 54.74 54.32 55.24 55.91 55.16 55.43 57.33 57.96 52.03 56.45 51.69 53.84 53.14 53.24 54.88 53.84 54.37 52.94 50.82 48.09 44.16 43.11 40.60 35.64 38.05 39.47 39.98 40.27 41.27 43.38
56.62 56.05 55.44 55.26 56.47 56.97 56.61 56.67 56.15 55.48 55.38 55.88 55.83 55.73 55.19 55.14 55.04 54.53 52.51 51.01 51.61 51.01 54.11 50.32 51.28 53.04 50.39 50.78 52.54 51.35 54.28 53.31 53.08 50.96 45.44 48.32 43.38 39.51 41.79 43.95 44.44 43.45 41.58 40.65 40.74 45.41 43.49
56.23 55.90 54.98 55.12 56.48 56.35 56.21 56.51 55.65 55.30 55.27 55.74 55.73 55.39 55.18 55.09 55.04 54.71 51.83 54.76 54.03 54.23 48.06 55.84 53.18 52.24 54.69 53.99 49.89 51.37 54.23 50.45 50.14 45.11 47.45 44.24 40.50 45.33 47.53 47.11 45.54 44.11 42.38 40.97 43.06 45.97 42.47
55.65 55.34 54.13 54.94 55.79 56.00 55.80 55.96 55.20 55.10 55.04 55.09 55.08 55.75 54.87 54.68 54.55 52.45 53.94 57.44 60.85 59.59 46.36 51.30 53.06 52.05 53.19 54.03 50.22 49.51 52.26 50.79 47.60 45.71 45.20 41.99 44.62 48.53 47.36 45.68 44.43 43.63 42.11 41.38 41.61 44.09 42.76
55.44 54.65 53.48 54.84 55.50 55.57 55.23 55.20 55.06 54.96 54.88 54.84 54.57 55.01 54.53 53.83 52.60 57.28 56.29 59.50 61.73 60.63 40.32 45.55 49.20 51.13 53.61 53.08 49.14 52.49 52.69 50.57 47.90 44.95 45.99 44.49 48.14 47.58 45.84 44.98 44.48 41.63 46.46 45.29 43.57 40.28 34.80
55.19 54.30 53.60 54.71 54.98 54.80 54.33 54.29 54.39 54.37 54.67 54.89 54.59 55.20 53.74 55.18 54.00 56.47 57.90 60.87 60.72 57.63 28.38 47.58 49.23 55.27 52.47 50.78 49.99 50.47 53.42 51.86 46.49 45.57 46.41 43.78 45.07 45.42 44.62 44.78 46.23 44.22 47.03 44.52 43.42 39.60 37.96
54.88 54.08 54.07 54.76 54.57 54.29 54.20 53.88 53.66 53.84 54.14 54.60 54.47 55.27 53.56 53.60 53.33 59.04 62.04 61.80 57.00 42.94 29.53 45.46 49.37 49.27 47.89 49.97 50.29 50.49 50.62 52.52 51.98 47.65 46.56 45.26 48.48 46.51 45.47 47.93 47.15 47.76 45.74 44.85 43.35 40.40 31.22
54.39 54.02 54.58 54.62 54.61 54.37 54.02 53.50 53.13 53.38 53.84 54.40 54.78 54.65 54.30 59.83 56.56 61.84 61.58 55.70 39.48 32.98 47.83 43.20 45.71 48.67 47.25 46.89 47.91 48.72 47.77 45.50 43.07 39.53 39.88 44.88 45.23 46.74 48.62 44.87 47.33 44.93 41.26 31.17 30.28 29.23 29.16
53.84 53.53 54.59 54.39 54.37 54.06 53.64 53.07 52.72 52.87 53.39 54.07 54.72 54.39 58.34 62.57 63.33 62.16 58.59 47.54 35.03 44.46 44.34 48.20 47.33 47.57 44.88 46.97 46.74 47.83 45.48 41.86 45.39 45.22 41.52 38.95 36.01 44.23 47.74 44.72 41.61 42.99 41.32 29.58 27.59 26.69 30.04
53.74 53.78 54.28 53.82 54.16 53.70 53.18 52.19 52.63 52.83 53.02 54.14 54.41 58.26 59.31 60.61 62.99 60.10 52.28 38.58 40.53 44.44 47.04 46.02 46.76 43.91 43.61 46.71 46.25 45.85 42.98 41.97 43.47 44.49 40.35 39.83 39.25 45.98 46.70 46.81 45.40 43.43 36.37 42.03 35.05 31.66 27.56
53.77 53.75 53.59 53.34 53.59 53.07 51.24 50.22 51.83 52.67 53.25 53.94 55.23 55.90 55.27 61.17 61.95 57.49 47.75 42.28 46.68 48.83 48.73 47.64 42.50 45.09 40.99 43.03 43.50 43.79 43.43 46.20 45.34 46.50 46.15 42.96 37.40 44.17 45.97 47.12 47.10 43.56 44.55 35.06 33.79 25.78 25.63
53.36 53.38 53.59 53.30 53.13 51.86 50.35 50.58 51.54 52.37 53.04 54.44 55.29 48.12 56.84 61.49 59.03 49.95 41.12 45.71 47.97 50.12 50.96 47.97 45.85 44.26 45.57 43.11 44.46 43.93 43.58 45.81 47.15 46.64 45.69 43.38 41.50 39.91 44.26 41.39 40.10 41.16 39.84 40.32 39.03 32.86 25.89
52.69 52.71 52.56 53.18 52.83 49.99 50.19 51.11 51.80 52.09 53.08 54.11 53.78 44.41 58.76 59.71 44.69 46.11 43.15 49.56 46.73 48.72 51.33 50.36 49.22 47.51 45.98 45.74 44.53 44.26 43.38 45.15 48.37 47.64 42.79 43.27 40.19 31.07 39.69 44.36 45.64 43.23 41.33 41.04 28.62 30.26 29.34
52.43 52.42 52.40 52.61 51.33 49.93 50.11 51.23 51.65 51.83 52.16 55.82 50.29 50.95 58.09 58.03 38.21 38.83 48.46 49.22 50.07 48.19 48.42 48.70 47.59 49.03 48.75 45.51 41.16 45.27 45.03 48.36 48.72 45.79 42.73 43.45 38.10 29.51 35.69 40.89 43.78 39.86 42.45 42.61 39.99 32.46 29.49
52.11 51.94 51.97 50.71 49.30 49.73 50.42 50.68 51.56 51.71 52.16 54.55 52.56 42.18 49.55 50.63 50.88 48.04 48.26 46.08 46.58 50.53 49.77 50.26 48.66 49.12 47.05 44.96 46.76 43.71 44.01 48.01 47.88 45.74 45.25 45.42 41.11 34.84 29.21 34.91 38.22 35.73 39.28 40.04 37.97 28.02 29.62
51.87 51.80 51.30 49.61 48.83 49.55 50.35 51.44 51.34 51.55 51.76 55.33 52.72 47.22 47.10 39.48 43.80 47.12 48.39 47.68 46.13 45.62 49.41 49.96 47.22 47.60 45.76 39.73 43.35 42.62 44.82 45.06 47.01 45.09 45.61 43.38 35.98 38.59 39.36 39.97 40.13 38.72 38.12 38.16 36.44 36.33 29.65
51.75 51.50 49.76 49.39 48.83 49.39 51.36 51.41 50.98 51.07 50.96 53.77 51.95 50.40 48.75 46.23 46.48 46.68 44.91 45.93 46.39 47.50 47.51 46.34 45.40 47.44 47.08 42.61 43.61 41.37 44.27 43.26 42.87 44.48 43.52 44.53 33.82 33.35 32.64 39.83 38.84 35.67 38.17 38.27 38.23 38.82 37.87
51.70 51.13 49.77 49.59 48.71 50.38 51.86 51.02 50.77 50.92 52.27 53.85 54.85 54.25 51.78 46.42 45.34 43.50 44.46 47.04 47.85 48.31 48.69 50.22 47.81 45.02 41.39 45.19 46.52 46.40 46.37 45.64 46.06 43.31 41.86 40.56 33.50 29.98 28.89 35.28 34.06 27.42 35.20 38.90 39.60 40.42 38.64
51.58 51.00 49.75 51.62 50.60 52.40 51.58 50.72 50.46 50.60 51.75 57.81 56.02 55.35 46.82 39.20 45.12 46.23 49.37 49.30 48.20 48.24 45.79 48.88 48.70 43.77 47.77 49.29 46.96 44.87 43.38 43.94 46.27 44.80 46.48 36.28 33.82 30.77 24.25 26.29 18.73 37.90 42.70 41.83 39.74 40.55 41.00
51.00 49.77 51.08 52.34 51.89 51.68 51.24 50.58 50.25 50.55 51.41 56.31 55.70 55.57 46.02 35.67 47.33 48.03 47.96 48.16 48.05 48.59 47.21 47.55 48.98 49.23 50.11 48.04 36.77 32.64 31.93 31.11 36.96 43.62 43.11 43.85 33.70 25.78 26.39 24.79 30.98 38.11 40.89 38.80 36.45 35.63 42.93
50.07 49.69 52.08 51.78 51.32 51.04 50.80 50.57 50.23 50.42 51.16 56.54 54.94 55.95 51.75 40.96 42.26 52.07 47.08 47.62 43.24 43.36 44.38 46.62 51.07 51.78 50.70 37.93 31.56 27.59 27.26 32.61 33.03 37.84 41.27 42.12 36.47 29.34 24.63 19.24 16.37 33.56 41.92 44.32 42.53 28.61 43.32
50.70 51.52 51.86 51.65 51.38 51.18 50.64 50.65 50.29 50.23 50.72 55.83 55.28 56.39 55.63 45.19 49.13 50.38 46.15 45.22 48.76 46.08 42.89 45.47 46.16 44.40 47.74 34.86 33.39 29.98 30.20 39.01 31.27 30.13 27.37 28.47 28.58 23.89 30.09 18.21 28.11 40.04 43.52 44.46 29.12 30.40 42.69
50.55 50.87 51.09 51.22 51.43 51.34 50.54 50.57 50.33 50.18 50.33 54.84 54.82 55.84 55.16 46.91 48.51 51.93 52.58 49.43 49.00 47.52 39.35 45.15 41.67 41.51 36.18 34.62 30.52 31.21 28.87 32.02 32.47 37.14 32.71 28.91 25.72 28.51 30.95 26.33 22.19 43.48 42.09 33.77 37.98 42.89 42.99
50.10 50.20 50.44 50.84 50.99 52.50 50.84 50.55 50.58 50.36 50.54 51.93 53.98 56.24 57.19 52.60 50.15 53.75 52.87 52.61 51.77 51.55 48.73 47.05 43.06 46.27 44.39 36.67 34.55 35.12 32.78 34.70 32.37 27.66 40.33 31.55 35.14 31.73 32.42 30.59 39.78 43.33 42.02 44.05 44.28 42.73 41.79

GFSGBSN_sfc_wetblb_018.txt.gz
Wetbulb
57.78 57.10 57.20 57.49 57.81 57.61 57.19 57.19 56.67 56.15 55.60 55.25 55.13 54.99 55.17 55.46 56.14 57.23 56.66 54.96 54.87 54.75 54.41 54.09 54.28 54.90 53.48 52.46 51.15 57.12 62.49 63.14 61.31 56.54 53.79 52.18 51.54 48.83 44.75 44.83 44.88 42.32 42.88 44.13 44.57 45.97 43.23
57.01 56.87 57.34 57.60 57.54 57.05 57.22 56.72 55.87 55.41 54.90 54.75 54.57 54.60 55.05 56.24 56.62 56.76 56.16 54.76 54.41 54.42 53.76 53.14 54.16 55.04 51.77 48.31 57.21 56.51 58.29 58.66 55.92 54.58 54.47 53.70 51.82 50.30 47.28 44.92 44.02 44.67 43.76 43.00 43.74 44.87 45.26
56.93 57.08 57.46 57.11 57.01 56.82 57.17 56.15 55.83 55.21 54.97 54.52 54.70 55.45 56.17 56.49 56.45 56.29 55.42 54.73 54.30 53.92 53.10 53.67 54.57 54.49 53.79 52.66 57.61 55.34 54.33 53.52 54.31 55.20 52.44 52.70 52.67 49.33 48.08 45.07 46.57 44.74 41.54 42.33 42.70 43.67 42.87
57.18 56.90 57.30 56.89 56.09 56.16 56.61 56.57 55.45 55.26 54.76 54.78 56.15 56.29 55.75 55.65 55.75 55.36 54.58 54.23 53.82 53.61 54.23 54.78 55.37 53.86 50.42 59.19 56.23 53.27 52.75 52.52 54.09 55.33 53.89 53.45 53.56 50.81 47.71 46.44 45.44 42.32 41.85 37.79 42.70 44.59 45.10
57.24 57.21 57.07 56.71 55.59 55.80 56.31 56.35 55.53 56.09 56.29 56.01 55.91 55.57 55.36 54.84 54.76 54.49 54.15 54.05 54.07 54.64 55.04 56.05 52.89 52.85 47.39 59.44 52.63 53.43 53.00 52.54 53.67 54.30 53.08 53.63 51.85 47.34 46.21 40.76 38.04 39.58 34.69 38.00 40.62 45.29 44.04
56.94 57.26 56.88 56.22 55.25 56.06 56.59 56.43 56.11 55.75 55.43 55.16 55.51 55.11 54.84 54.68 54.58 54.30 53.63 54.21 55.38 55.21 55.10 56.22 56.07 50.55 54.51 53.27 52.63 51.82 51.93 53.35 52.81 52.44 50.92 49.57 45.98 42.60 41.34 38.96 33.45 36.18 36.83 35.40 38.38 40.16 42.13
57.22 57.29 56.82 55.60 55.17 56.49 56.90 56.48 55.99 55.04 54.94 55.18 55.34 55.26 54.90 54.72 54.64 54.32 52.35 50.73 49.29 48.76 52.25 46.61 49.46 51.69 51.11 49.77 51.17 49.67 52.09 51.83 51.59 49.18 43.34 46.90 42.21 38.12 40.02 41.81 42.73 42.59 39.32 38.45 38.56 42.89 41.91
56.61 56.53 56.22 55.13 55.31 56.67 56.31 56.16 55.37 54.65 54.80 54.88 54.95 54.81 54.68 54.78 54.68 54.09 51.45 53.29 51.65 52.34 44.50 53.16 53.99 53.12 53.46 50.42 48.36 49.34 52.86 48.38 47.94 43.43 45.78 42.48 38.97 43.56 45.67 45.90 44.39 43.47 40.44 38.91 41.89 44.61 41.10
56.09 55.61 55.40 54.20 55.53 56.20 55.76 55.72 54.82 54.37 54.47 54.29 54.37 54.60 54.44 54.37 54.13 52.03 50.59 53.89 58.52 57.78 46.43 49.13 51.95 50.49 51.34 52.56 48.04 47.75 50.57 49.13 45.88 43.66 43.34 40.22 42.89 46.81 46.11 43.59 43.24 41.88 40.09 39.43 39.96 41.65 40.84
55.41 54.63 54.27 53.91 55.12 55.55 54.94 54.76 54.61 54.31 54.29 54.10 53.76 53.82 53.51 53.58 51.12 53.11 51.73 56.29 57.26 55.12 37.90 43.51 47.43 49.53 51.63 51.62 47.23 50.76 51.00 49.01 47.11 42.99 43.97 42.86 46.60 45.95 44.22 42.84 42.49 39.33 44.44 43.30 41.44 37.84 33.12
54.86 54.33 53.20 53.38 54.33 54.47 53.78 53.92 53.92 54.04 53.98 53.84 53.55 53.76 53.24 53.74 51.37 54.77 56.83 59.86 59.33 53.70 26.18 45.19 47.73 53.54 50.88 48.67 48.71 48.22 51.62 50.32 44.35 43.94 44.15 41.69 43.53 43.35 42.45 42.91 44.28 42.22 44.97 42.50 41.41 37.12 35.88
54.33 54.29 53.12 53.55 53.90 54.04 53.59 53.52 53.15 53.32 53.33 53.47 53.55 53.94 53.02 51.89 51.36 55.31 60.21 59.13 52.69 40.04 27.77 43.63 48.03 47.07 45.69 48.01 47.69 48.13 48.75 51.06 49.85 45.74 44.69 43.84 46.24 44.42 43.45 46.13 45.29 45.76 43.75 42.90 41.12 37.99 29.85
53.96 53.80 53.20 53.51 53.71 53.86 53.47 53.22 52.63 52.83 52.98 53.14 53.31 53.86 52.69 58.17 55.33 59.58 59.02 50.20 38.53 30.11 45.61 41.56 43.66 46.79 45.36 44.54 46.27 46.49 45.00 43.01 40.97 37.77 37.91 42.93 43.29 45.38 46.78 43.48 45.42 43.11 39.02 29.82 29.21 28.17 28.11
53.80 52.98 53.30 53.55 53.86 53.43 53.21 52.57 52.42 52.29 52.68 52.86 53.36 52.85 54.27 59.27 60.45 59.22 53.23 44.50 34.32 41.95 42.25 45.72 45.64 45.58 43.01 45.08 44.56 45.51 43.44 40.02 43.29 43.26 39.02 36.64 34.39 42.15 45.87 42.70 39.78 41.16 38.58 29.09 27.61 25.26 28.42
53.68 53.04 53.45 53.30 53.59 53.04 52.33 49.88 51.26 52.31 52.39 52.78 53.53 53.49 57.29 58.43 60.07 56.77 48.09 36.31 38.40 42.26 44.99 44.62 45.19 41.88 41.75 44.66 44.34 43.25 40.74 39.81 41.67 42.21 38.61 37.04 37.37 43.85 44.23 44.55 43.97 41.02 35.04 40.42 32.74 29.70 26.09
53.49 53.29 53.21 52.85 53.06 52.01 49.37 50.08 50.75 52.11 52.57 53.45 53.09 52.44 51.06 58.72 58.27 52.71 45.20 39.98 44.74 46.94 47.68 45.94 40.73 43.31 39.17 41.71 41.82 41.63 41.24 44.05 43.44 44.65 44.17 41.50 35.25 42.12 44.08 46.09 45.42 40.93 42.63 34.24 31.40 24.57 24.87
52.96 53.07 52.86 52.63 52.32 49.61 49.88 50.87 51.75 52.24 52.81 52.79 53.14 45.38 50.63 59.29 53.22 46.55 39.02 42.67 46.72 48.75 49.70 46.02 44.02 42.16 43.22 41.09 42.34 41.19 41.46 43.74 45.28 44.90 43.73 42.29 38.58 37.92 43.26 39.63 38.13 39.18 37.58 37.91 36.21 30.54 24.93
52.35 52.42 52.21 52.45 51.16 49.55 49.76 51.54 51.70 52.10 52.41 52.39 50.29 41.92 55.15 52.52 40.13 42.45 41.08 47.14 46.50 46.95 49.47 48.06 47.29 46.36 43.73 43.91 42.89 41.98 41.63 43.36 46.71 45.80 39.97 41.79 37.34 30.11 37.81 42.34 43.49 41.05 39.46 37.94 27.51 29.44 27.62
52.01 51.95 51.82 51.97 49.11 49.64 49.35 51.27 51.47 51.61 52.27 51.73 47.47 48.30 55.73 50.19 34.11 34.48 44.83 47.35 47.97 46.38 46.43 46.39 45.90 47.26 47.01 43.47 40.02 43.36 43.12 46.48 45.72 43.88 41.14 41.14 35.57 28.34 34.00 39.11 41.47 38.28 40.39 40.82 36.37 30.33 28.62
51.80 51.63 51.54 49.73 49.35 49.35 49.84 51.08 51.34 51.54 52.13 53.43 49.75 40.44 46.26 48.14 45.99 43.54 44.31 43.94 44.68 48.43 47.65 48.16 46.62 47.47 45.17 43.05 44.77 41.74 42.33 45.99 45.36 43.51 44.37 44.44 38.48 33.39 29.31 33.52 35.98 33.27 36.87 38.66 35.91 26.47 28.34
51.44 51.17 49.92 49.10 49.17 49.51 50.18 51.18 51.10 51.40 51.39 52.20 50.53 43.51 44.05 36.97 40.13 43.65 46.12 45.62 44.06 43.48 47.34 47.73 45.25 45.65 43.85 38.57 41.50 40.48 43.15 43.43 44.79 44.00 43.71 41.40 34.23 36.32 36.60 37.73 37.40 35.89 35.54 35.64 34.67 34.29 29.45
51.09 50.73 48.70 48.92 49.29 49.69 51.34 50.89 50.72 51.01 51.68 51.43 49.14 47.74 45.21 40.53 44.36 44.46 43.48 44.27 44.30 45.57 45.58 44.28 43.16 45.35 44.72 40.63 41.82 40.01 41.98 40.87 39.93 42.13 41.26 42.14 32.11 32.92 32.16 37.60 37.25 33.56 36.30 36.19 35.84 36.37 35.68
51.06 49.27 49.06 48.74 49.03 51.24 51.26 50.48 50.27 50.75 51.78 52.19 52.19 51.75 47.19 42.76 40.77 41.03 42.38 44.82 45.72 46.89 46.40 47.86 45.71 42.58 39.99 43.46 44.11 43.85 43.95 44.65 44.18 41.49 40.52 37.83 31.98 27.83 26.32 32.75 32.63 26.36 34.42 36.63 37.14 37.55 36.66
50.84 49.32 49.44 48.53 50.65 51.66 50.91 50.10 49.92 50.64 52.60 57.44 55.11 52.43 44.69 37.53 41.74 42.66 47.36 47.27 46.00 46.18 44.46 46.91 46.31 42.31 46.41 48.42 44.30 42.90 41.46 42.55 44.06 43.51 43.14 34.40 31.98 26.84 22.17 23.36 17.03 35.66 40.39 40.21 37.86 38.82 39.61
49.95 49.73 51.26 51.55 51.13 50.77 50.30 49.76 49.65 50.06 51.12 53.92 54.05 52.22 43.78 34.27 44.22 45.44 45.98 45.78 46.38 46.46 45.30 46.01 47.26 47.17 47.70 43.92 33.49 31.59 30.49 32.63 35.51 41.70 42.22 40.08 29.91 25.73 19.79 23.56 27.95 35.59 38.92 37.62 35.29 34.51 40.96
48.94 50.36 51.36 50.73 50.35 50.13 49.85 49.82 49.70 50.15 51.19 53.15 52.60 54.05 46.36 39.63 40.29 49.18 44.88 46.14 41.76 41.09 41.86 45.01 49.34 49.84 45.47 33.98 29.56 26.59 25.20 29.50 31.44 36.18 40.13 39.00 32.51 26.63 26.69 17.12 15.16 30.06 39.85 42.48 40.62 29.15 41.59
48.96 50.78 50.97 50.73 50.33 49.97 50.01 49.86 49.77 50.01 51.06 54.21 52.32 54.43 51.30 43.38 46.90 48.05 43.64 43.93 46.16 42.88 40.51 43.23 44.17 42.90 42.77 27.84 29.81 25.20 29.43 35.88 29.72 28.62 26.49 27.57 24.94 22.73 16.89 16.23 26.07 35.54 41.42 42.29 28.35 29.79 41.53
50.29 50.49 50.35 50.33 50.15 49.72 49.85 49.79 49.66 50.04 50.41 53.94 51.94 53.90 51.08 44.06 46.45 50.71 50.64 46.65 46.81 44.02 38.43 43.19 40.34 39.13 35.22 29.60 27.16 31.25 25.09 31.19 31.01 34.94 31.79 28.70 26.09 24.61 25.45 16.90 21.59 39.85 40.57 33.49 36.24 40.43 41.84
49.92 49.82 50.04 50.22 50.89 49.63 49.49 49.71 49.73 49.97 50.25 53.25 50.36 54.66 55.00 49.24 47.83 51.54 51.68 51.14 50.67 49.18 46.40 43.78 41.14 41.76 40.23 34.64 33.23 35.44 27.04 32.67 29.51 28.17 38.03 30.78 32.16 29.56 31.83 30.92 38.07 41.03 40.68 41.22 43.05 41.54 40.54

GFSGBSN_sfc_wetblb_021.txt.gz
Wetbulb
58.98 58.58 57.95 57.65 57.46 57.52 57.66 57.31 56.76 56.16 55.59 55.39 54.82 54.67 54.86 55.17 55.15 55.19 55.53 56.07 54.65 54.46 54.40 53.94 53.55 54.07 52.05 50.31 49.52 54.90 63.13 62.90 56.79 53.93 50.89 50.10 49.30 48.63 44.69 44.55 45.00 41.08 41.46 43.25 44.35 44.33 42.56
58.56 57.96 57.31 57.05 57.36 57.33 57.29 57.31 56.44 55.58 55.32 54.89 54.46 54.31 54.29 54.46 54.85 56.06 56.27 55.49 54.42 53.98 53.81 53.14 52.99 54.37 50.13 44.14 54.33 55.31 57.86 56.22 55.71 53.14 51.91 51.31 50.50 50.92 47.25 44.60 42.25 44.01 41.75 41.32 43.77 43.70 43.93
58.71 57.65 56.83 56.77 57.22 57.17 56.84 56.76 56.56 55.47 55.05 54.77 54.65 54.06 54.31 55.59 56.37 56.25 56.09 55.32 54.13 53.72 53.12 52.70 53.68 53.83 52.24 48.78 54.98 54.41 56.73 55.12 54.79 53.40 51.25 53.24 52.85 49.13 46.60 43.08 45.20 43.03 40.64 41.25 41.53 42.20 42.32
58.20 57.51 57.15 56.98 56.81 56.43 55.83 56.17 56.61 56.35 54.85 54.86 54.55 54.69 55.68 55.71 55.64 55.64 55.28 53.78 53.65 53.28 52.87 53.61 54.57 53.33 48.28 56.56 56.06 55.69 50.39 51.30 53.85 55.19 53.38 52.65 52.03 49.47 46.16 45.20 43.82 41.41 40.26 37.27 41.20 42.66 42.71
57.77 57.36 57.39 57.11 56.66 55.81 55.21 55.95 56.27 56.33 56.35 56.13 55.95 55.54 55.22 54.80 54.70 54.62 53.88 53.26 53.49 54.04 53.92 55.52 52.45 52.02 46.39 56.80 52.47 53.20 52.16 51.09 52.28 52.78 51.99 52.72 50.67 45.62 44.94 39.87 36.75 37.56 33.41 36.19 38.95 42.99 41.60
57.77 57.37 57.07 57.00 56.42 55.39 55.57 56.35 56.19 55.93 55.68 55.48 55.38 55.18 54.85 54.71 54.27 54.05 53.58 53.66 54.45 54.35 54.53 55.64 54.95 48.52 51.94 49.57 51.71 50.14 50.54 51.76 51.05 51.15 49.30 48.65 45.17 41.80 39.99 37.65 32.08 34.04 35.13 33.23 36.57 39.71 40.75
57.75 57.31 57.13 56.90 56.46 55.41 56.31 56.87 56.29 55.36 54.96 55.14 55.10 54.98 54.73 54.59 54.39 54.04 52.12 51.06 48.77 48.06 50.97 44.85 46.98 48.81 51.44 50.54 50.72 49.01 50.81 50.86 50.27 47.87 42.71 44.85 41.40 37.16 37.95 39.67 40.58 39.65 37.21 36.04 36.34 40.86 40.25
56.98 56.81 57.07 56.99 56.15 55.54 56.31 56.64 55.75 54.77 54.63 54.85 54.70 54.56 54.71 54.75 54.53 54.13 50.56 51.15 49.94 52.59 43.88 51.83 52.69 52.08 53.78 52.80 47.29 48.43 52.43 47.62 46.73 41.82 44.12 41.85 38.21 41.67 44.99 44.42 42.77 41.00 38.31 36.68 39.63 42.70 40.36
56.24 56.25 56.62 56.44 55.69 55.49 56.38 56.19 55.34 54.39 54.31 54.30 54.15 54.42 54.61 54.19 53.99 51.65 49.16 51.67 56.30 54.70 46.35 47.49 50.72 50.01 50.66 50.74 46.35 46.48 49.31 47.57 44.25 42.64 41.71 38.78 40.96 45.62 44.23 42.34 42.01 40.29 37.81 37.30 38.68 39.67 40.73
55.71 55.32 55.60 55.67 54.83 55.30 55.63 55.40 55.00 54.33 54.02 53.88 53.69 53.90 53.74 53.25 49.95 50.90 49.68 54.17 57.06 52.04 37.13 41.89 45.78 47.98 50.04 49.84 45.36 49.16 49.46 47.53 45.56 41.35 42.24 41.56 45.49 44.25 42.58 41.18 41.00 37.76 42.55 41.44 39.84 36.04 32.89
55.26 54.94 54.75 54.45 53.78 54.08 54.37 54.24 54.22 53.96 53.73 53.75 53.40 53.71 53.23 53.63 50.91 53.89 55.81 59.00 57.09 51.05 25.13 43.24 45.91 51.54 49.00 47.43 46.12 46.09 50.38 48.77 42.46 42.75 42.73 40.31 41.64 42.12 41.11 40.84 42.73 40.73 43.08 40.67 39.51 35.41 34.19
54.85 54.71 54.35 53.73 53.14 53.69 53.86 53.57 53.27 53.06 53.28 53.42 53.26 53.58 52.88 51.89 49.93 53.35 58.14 55.52 51.08 38.27 26.71 41.86 46.40 44.82 44.30 46.28 45.72 46.24 48.18 49.93 47.59 43.90 43.43 42.26 44.36 43.10 41.75 44.25 43.36 44.02 42.44 41.08 39.22 36.02 28.79
54.41 54.28 53.88 53.05 53.28 53.57 53.77 53.41 52.80 52.68 52.85 53.14 53.08 53.61 52.15 55.98 54.55 58.46 56.05 48.19 36.51 30.30 43.18 39.92 41.86 44.43 43.29 42.59 44.49 44.42 43.01 41.53 39.88 36.75 36.47 41.12 41.39 43.54 44.74 41.67 43.49 42.01 37.53 28.76 28.06 27.33 27.43
54.06 53.67 53.57 52.95 53.38 53.64 53.45 52.92 52.34 52.48 52.61 52.77 52.80 52.53 52.54 54.36 58.71 56.79 50.15 41.01 32.45 40.46 40.27 43.80 43.99 43.34 41.40 43.44 42.95 43.26 41.56 38.36 41.84 40.84 37.26 34.87 33.07 40.53 44.02 40.95 38.37 38.44 37.33 29.10 28.10 24.98 27.26
53.80 53.41 52.91 53.06 53.39 53.47 52.96 50.98 50.06 52.32 52.32 52.94 52.25 51.24 55.14 56.72 58.05 53.67 45.71 33.93 36.82 39.85 43.04 43.09 43.34 40.22 39.91 42.73 42.58 41.37 38.67 38.28 40.26 40.98 37.74 35.47 35.41 42.40 42.58 42.94 42.57 38.94 33.67 38.64 31.10 28.70 26.02
53.73 53.31 52.62 52.70 52.93 52.74 50.90 49.90 50.51 52.22 52.51 52.78 52.29 49.59 49.70 56.92 54.93 51.36 42.85 38.59 42.75 45.80 45.47 44.34 39.40 41.22 37.58 39.89 40.27 39.89 39.56 42.29 41.65 42.59 42.67 40.47 33.69 40.38 42.52 43.90 43.13 40.04 41.64 32.66 30.03 23.70 24.24
53.10 52.96 52.84 52.50 52.39 50.85 50.03 49.66 51.05 52.23 52.68 53.22 50.31 42.77 47.62 56.56 49.61 44.49 36.14 40.32 45.96 46.91 47.92 43.72 41.52 40.32 41.06 39.60 40.39 39.16 39.60 42.16 43.75 43.70 42.92 40.78 36.30 35.94 41.10 38.02 36.42 38.04 35.86 35.47 34.44 29.17 24.02
52.41 52.36 52.38 52.13 51.56 49.81 49.52 51.34 51.87 52.20 52.21 52.14 47.43 38.56 52.76 48.45 39.35 40.14 40.09 45.44 46.23 45.01 48.10 46.69 45.82 44.32 41.36 42.10 40.94 40.34 40.02 41.49 44.84 44.18 38.58 40.13 35.77 29.69 35.38 41.05 41.94 39.18 37.34 35.65 26.25 28.22 26.42
52.00 52.03 51.78 51.88 49.92 49.56 49.36 51.33 51.67 51.83 52.33 50.83 45.07 48.27 54.27 47.00 32.55 33.58 41.78 45.90 45.92 44.50 44.72 44.96 44.14 45.43 45.11 42.12 38.58 41.26 41.55 44.56 43.33 42.51 39.73 39.53 34.47 27.97 32.90 37.68 39.38 36.97 38.42 37.35 33.85 29.64 27.71
51.75 51.73 51.61 50.44 49.61 49.30 49.05 50.87 51.48 51.76 52.01 52.17 45.41 39.93 44.69 46.62 41.98 40.05 41.31 41.99 42.76 46.92 45.89 46.18 44.73 45.85 43.24 41.91 43.06 40.04 40.76 43.99 42.72 41.72 44.24 42.90 36.70 31.95 28.71 31.79 34.69 31.71 34.95 36.79 34.13 26.12 27.38
51.36 51.21 50.39 49.52 49.26 49.46 49.65 51.32 51.51 51.56 51.39 51.87 47.72 40.99 42.90 37.25 40.41 43.53 44.32 43.75 42.29 41.71 45.58 45.90 43.58 44.03 41.93 37.77 39.40 38.80 41.50 41.43 42.09 43.34 42.22 39.68 33.05 34.21 34.42 35.57 35.28 33.98 34.14 34.73 33.66 33.04 29.04
50.98 50.20 49.27 48.81 49.34 49.61 50.95 50.93 50.93 51.06 51.14 49.75 47.84 43.65 43.00 38.27 41.99 42.24 41.98 42.74 42.91 43.67 44.14 42.45 42.14 43.49 42.60 39.87 40.84 39.02 40.24 38.44 36.54 40.86 39.97 39.88 30.95 31.53 31.69 35.37 35.38 31.88 33.87 34.18 33.83 34.04 34.28
50.46 49.13 48.63 48.76 49.32 51.08 50.80 50.22 50.59 50.96 51.62 48.28 49.07 49.89 45.17 40.12 39.68 40.07 41.03 43.77 44.38 45.05 45.03 45.65 44.47 41.50 38.34 41.64 43.05 42.69 42.27 42.93 42.31 40.16 38.67 35.35 30.77 27.06 24.22 30.67 30.88 24.27 32.09 35.59 35.48 36.17 35.56
48.82 49.02 48.89 49.14 51.01 51.03 50.24 49.81 50.09 50.86 51.85 53.43 52.89 49.04 43.01 35.73 37.61 39.77 45.16 45.15 44.59 44.69 43.30 44.68 44.64 41.52 44.58 45.25 42.84 41.90 40.43 41.41 42.94 41.87 41.18 33.34 29.43 24.57 21.11 22.91 16.66 32.35 37.87 38.17 36.23 36.89 37.94
48.85 49.38 48.84 50.85 50.98 50.49 49.76 49.60 49.66 50.64 52.09 54.62 52.56 48.75 42.15 33.90 41.77 43.43 44.75 44.43 44.75 45.12 43.89 44.59 45.95 45.45 46.11 39.96 33.05 32.15 29.73 31.90 34.60 40.23 38.86 37.82 28.94 24.93 19.65 21.43 27.32 33.11 37.17 35.69 34.58 33.78 39.05
49.02 50.85 51.02 50.50 50.09 49.67 49.44 49.43 49.38 50.48 52.42 54.18 52.53 50.06 45.34 41.05 41.31 46.81 44.16 44.03 40.31 39.39 40.80 43.47 47.79 47.12 42.68 31.65 28.86 24.85 24.05 28.96 30.29 34.75 38.78 35.51 30.49 25.80 24.38 15.97 15.22 29.55 37.45 40.70 38.80 28.85 39.93
50.19 50.39 50.40 50.30 49.93 49.61 49.35 49.29 49.71 50.37 52.61 52.85 52.03 51.91 48.63 42.21 45.38 46.42 42.76 42.66 43.70 41.10 39.01 42.14 43.29 40.97 40.46 27.07 23.17 24.52 28.33 33.26 28.82 27.39 26.14 27.19 22.98 21.81 14.83 16.16 25.57 33.83 39.79 40.43 28.86 28.88 39.85
49.78 49.89 49.76 49.55 50.63 49.48 49.41 49.28 49.55 49.85 51.59 51.83 51.39 52.40 49.40 42.78 46.03 49.31 49.12 45.43 44.69 42.51 37.63 42.01 39.86 38.22 32.28 29.15 25.92 26.71 22.86 30.34 29.96 32.96 31.37 29.37 27.74 23.85 24.88 17.69 22.02 38.20 38.23 33.18 36.75 37.28 41.49
49.38 49.55 49.60 49.47 49.17 50.11 46.75 47.29 48.44 49.79 50.88 52.13 50.73 53.51 52.34 47.35 47.22 49.96 50.30 50.11 49.20 47.30 44.63 41.90 41.52 39.94 39.42 32.68 28.48 30.48 24.98 32.85 28.27 26.75 35.65 29.19 31.79 29.22 30.42 30.14 37.00 38.72 38.34 39.97 40.64 40.52 40.62

GFSGBSN_sfc_wetblb_024.txt.gz
Wetbulb
59.60 59.09 58.63 58.27 57.89 57.70 57.24 57.44 57.48 56.97 55.71 55.67 55.00 54.78 55.00 54.96 55.04 55.47 55.17 55.23 55.40 54.48 54.12 53.87 53.36 53.29 50.94 48.61 48.32 57.25 63.20 62.54 55.63 51.45 49.66 48.67 46.56 46.00 43.12 43.29 43.51 42.38 42.31 43.23 42.94 43.60 44.36
59.33 58.87 58.51 58.14 57.55 57.17 56.90 57.61 57.11 56.74 55.44 55.08 54.99 54.40 54.19 54.22 54.57 54.80 54.63 55.67 54.95 54.03 53.67 53.28 52.85 53.81 48.71 43.54 52.29 57.71 57.95 54.00 52.88 50.83 50.23 49.44 48.39 49.44 46.37 44.66 43.90 43.96 41.90 41.78 43.08 41.55 41.48
59.60 59.05 58.29 57.46 56.81 56.73 56.97 56.84 56.54 56.48 56.00 55.24 54.46 54.21 53.84 54.03 54.66 55.28 55.15 55.72 54.04 53.56 53.23 52.50 53.20 52.80 50.99 48.80 53.70 53.58 56.16 52.80 53.43 52.73 50.26 51.21 50.79 47.83 47.14 43.96 45.83 42.91 39.62 41.03 41.55 40.16 41.12
59.06 59.10 58.53 57.10 56.38 56.35 56.45 56.31 55.77 56.29 56.57 55.36 54.78 54.25 53.90 54.53 55.34 55.42 55.50 55.00 53.56 53.47 52.62 52.97 53.95 52.08 47.95 54.86 54.37 55.50 51.56 50.22 53.41 53.87 51.97 51.49 53.21 49.85 46.75 45.19 43.68 40.58 38.92 35.39 39.12 41.15 40.81
58.77 58.66 58.03 57.16 56.64 56.29 56.11 55.73 55.39 56.11 56.69 56.29 56.09 55.66 55.14 54.70 54.66 54.80 54.59 53.32 53.03 52.74 53.30 54.64 50.70 50.33 46.41 55.46 52.39 52.20 50.30 49.10 51.10 52.06 51.35 52.04 50.34 45.71 43.71 39.54 36.69 36.72 33.31 34.91 37.79 41.20 40.37
58.87 58.36 57.77 57.04 56.62 56.61 56.21 55.59 55.22 55.94 55.92 55.62 55.36 55.16 54.84 54.41 54.40 54.04 53.27 53.30 53.53 54.04 53.45 54.48 54.36 47.96 50.11 47.47 52.07 49.68 49.67 50.92 50.45 49.89 48.98 47.91 44.05 40.93 39.79 36.91 31.96 32.90 33.83 32.03 33.81 38.16 39.99
58.78 58.26 57.55 56.89 56.70 56.66 56.50 55.78 55.59 55.76 55.38 55.16 55.02 54.91 54.79 54.37 54.25 53.86 52.79 50.72 47.61 46.30 49.63 44.71 45.82 45.95 49.62 52.16 49.09 48.08 49.93 50.08 48.94 47.30 42.13 43.68 39.87 36.11 37.28 39.37 39.38 38.63 36.02 34.13 34.65 38.85 39.18
58.02 57.55 57.20 56.93 56.80 56.64 56.59 55.61 56.03 55.38 54.92 54.73 54.71 54.55 54.65 54.61 54.44 53.92 49.54 48.00 47.97 51.18 44.48 50.29 50.70 50.84 52.34 51.68 45.90 46.63 50.44 45.64 45.17 41.27 43.35 41.29 37.12 41.11 43.79 42.63 40.86 39.20 36.51 35.23 37.46 40.49 39.86
57.25 56.77 56.73 56.81 56.82 56.60 56.19 55.59 55.78 55.08 54.39 54.18 54.33 54.28 54.53 54.29 54.02 52.91 49.30 51.20 54.94 53.08 45.25 46.81 50.08 48.05 48.72 50.50 45.05 45.10 48.08 46.27 42.92 41.58 40.78 38.63 39.92 43.99 42.81 40.80 40.52 38.73 36.96 35.54 36.54 38.90 39.09
56.58 55.71 56.01 56.36 56.48 56.04 55.23 55.33 55.70 54.91 54.12 53.84 53.78 53.83 53.68 53.35 49.76 49.63 48.64 52.40 56.82 51.70 37.26 41.46 44.67 47.40 49.13 48.73 45.15 48.61 48.85 47.02 44.19 40.16 41.09 41.18 43.67 42.35 40.56 39.95 39.72 36.03 40.75 39.68 38.25 35.07 31.83
56.11 55.32 55.28 55.59 55.48 54.69 53.81 54.35 54.92 54.55 53.94 53.74 53.35 53.76 53.29 53.12 49.71 52.41 55.03 58.37 56.18 48.69 25.66 42.13 44.49 50.48 47.97 46.54 44.53 45.15 49.47 46.52 41.43 41.58 41.68 39.10 40.16 40.22 39.67 39.04 41.45 39.26 41.98 39.69 37.79 35.02 32.91
55.91 55.24 55.00 54.85 54.47 53.67 53.14 53.65 53.84 53.55 53.21 53.54 53.35 53.44 53.25 51.55 49.09 52.37 56.40 53.42 48.78 37.08 26.96 40.02 44.76 43.17 43.46 44.90 44.11 44.99 46.94 48.61 45.93 42.95 42.41 40.30 42.76 41.58 40.15 42.86 42.09 42.68 41.06 39.34 37.66 34.61 27.96
55.24 54.71 54.65 54.20 53.77 52.97 53.01 53.53 53.43 53.05 52.71 53.01 52.95 53.42 52.63 53.82 53.35 57.21 53.62 46.47 35.40 29.96 41.49 38.32 40.23 42.35 41.69 40.92 42.81 42.91 41.63 40.32 38.49 35.81 35.36 40.04 40.14 42.09 43.30 40.59 41.85 40.66 36.21 28.17 27.68 26.64 26.67
54.69 54.29 54.14 53.80 53.38 52.64 52.98 53.50 53.01 52.28 52.65 52.68 52.33 52.52 52.01 53.22 55.40 55.14 47.01 40.01 30.51 39.02 38.29 41.89 41.70 41.64 39.85 41.48 41.16 41.47 39.75 37.53 40.46 39.13 35.66 33.25 31.60 39.01 42.67 39.50 37.50 36.52 36.59 28.67 26.91 24.85 27.04
52.49 54.00 53.64 53.41 52.87 52.77 52.98 53.17 52.55 51.81 52.15 52.53 52.07 50.21 52.59 55.68 54.90 51.22 42.88 31.38 34.48 38.51 41.18 41.25 41.62 38.68 38.01 40.97 40.90 39.91 37.45 36.91 38.63 39.29 36.58 34.04 33.92 40.54 41.09 41.38 41.22 37.22 32.53 37.11 30.69 28.19 25.66
52.33 53.88 53.23 52.69 52.40 52.61 52.85 52.63 50.63 50.45 52.31 52.33 51.26 50.47 50.16 55.10 53.53 49.09 38.95 35.91 40.87 44.98 43.48 42.71 37.30 39.50 35.90 38.12 38.37 38.06 37.56 40.28 39.76 41.42 41.09 38.83 32.97 38.56 40.70 42.32 42.10 38.47 40.37 31.52 29.21 23.13 23.53
53.32 53.47 52.79 52.24 51.93 52.20 52.41 50.84 50.01 51.01 52.21 52.53 46.68 43.34 47.27 55.00 47.94 42.80 33.45 37.06 44.43 46.33 45.74 42.41 40.12 38.80 39.17 38.11 38.74 37.41 37.83 40.41 42.16 42.19 41.87 38.57 35.79 34.81 38.83 36.74 35.28 36.91 34.51 33.46 33.08 28.10 22.79
53.31 52.59 52.19 51.82 51.98 52.33 51.08 49.87 50.24 51.54 51.91 51.32 43.63 37.86 51.70 46.76 39.32 38.26 38.60 43.71 45.80 43.32 46.03 45.26 44.38 42.14 39.78 40.13 39.07 38.55 38.32 39.95 42.36 42.77 37.82 38.64 34.91 29.71 33.73 38.99 40.28 37.38 35.28 33.96 25.47 26.97 25.68
52.69 51.99 51.74 51.69 52.04 51.09 49.64 49.66 51.52 51.65 52.57 49.62 45.34 47.63 52.83 45.60 32.48 32.95 40.07 43.85 44.60 42.91 43.38 43.39 42.54 43.91 43.50 40.57 37.42 39.47 39.93 42.98 41.74 40.62 38.78 38.97 33.58 27.98 31.47 35.59 37.32 35.26 36.69 34.99 32.13 29.26 27.53
51.73 51.56 51.45 51.71 51.19 50.05 49.13 50.29 51.35 51.63 52.54 49.62 45.53 40.87 44.16 43.67 40.10 39.04 39.48 40.83 41.14 44.91 44.29 44.60 43.50 43.98 42.01 40.13 41.43 38.85 39.26 42.29 41.35 40.63 43.87 41.89 34.77 31.17 27.67 30.32 33.12 31.15 34.46 34.91 33.04 25.15 26.52
51.20 51.15 51.12 50.67 50.28 49.56 49.10 50.03 51.34 51.40 51.82 50.94 44.06 40.58 42.86 37.68 40.28 38.51 41.65 42.09 40.83 40.23 44.18 44.51 42.18 42.52 40.98 36.90 37.82 37.18 39.91 39.69 40.63 42.93 40.98 37.92 32.36 32.47 32.77 34.01 33.39 32.32 32.76 34.00 32.58 31.62 28.82
51.07 50.88 50.21 49.71 49.33 48.97 49.30 51.00 51.14 51.20 51.48 48.79 46.57 41.20 39.58 37.87 42.99 41.95 40.31 41.34 41.43 41.97 42.22 40.83 41.06 41.78 41.05 38.94 39.67 38.06 39.31 37.07 35.09 39.91 38.23 38.27 30.37 30.22 31.07 33.73 33.07 31.66 32.73 32.64 32.24 32.30 32.62
50.78 50.03 49.21 49.23 48.85 49.11 50.85 50.91 50.71 51.02 51.04 46.89 47.75 47.52 42.57 37.90 38.99 38.89 39.43 42.37 43.03 43.92 43.51 43.93 43.30 40.53 37.79 40.36 41.65 41.21 41.06 40.66 40.21 38.96 36.42 33.80 30.24 26.82 23.72 28.78 27.96 24.41 31.00 33.07 33.09 33.91 33.45
49.77 49.03 48.95 49.06 49.14 50.93 50.50 50.37 50.22 50.92 51.19 50.28 50.65 47.67 41.38 32.79 36.38 40.30 43.31 43.63 42.93 42.91 42.27 43.03 43.07 40.03 42.07 43.57 41.95 41.32 39.94 40.79 41.83 40.34 38.94 31.63 28.73 23.46 20.45 22.19 16.31 31.23 35.18 35.74 34.90 35.08 35.80
48.72 48.72 49.10 49.66 50.71 50.36 49.69 49.65 50.04 50.53 51.36 51.62 51.45 47.58 41.26 31.54 36.86 40.18 42.91 43.16 43.43 43.86 42.57 43.20 44.79 43.80 43.99 38.81 33.73 33.00 29.87 32.06 33.68 37.93 35.44 34.98 28.02 23.84 19.27 20.51 27.22 31.48 34.67 34.80 33.91 33.45 38.14
48.58 48.65 49.49 50.59 49.73 49.38 49.20 49.38 49.85 50.52 51.35 53.03 51.16 47.89 45.27 38.77 39.07 44.59 42.72 42.42 39.12 38.35 39.28 41.69 46.00 44.61 40.55 30.17 28.46 24.85 24.98 29.70 29.44 33.46 37.04 33.66 29.99 25.38 20.39 16.19 15.05 29.55 34.91 38.60 37.69 28.85 37.60
49.02 50.20 50.33 50.10 49.53 49.17 49.10 49.35 50.05 50.97 51.99 53.80 50.62 49.95 46.99 42.00 44.51 44.63 41.42 41.50 42.13 39.75 38.31 41.14 42.22 39.53 38.96 26.45 22.57 23.35 25.77 31.48 27.80 26.70 26.38 26.16 24.90 20.65 14.26 15.21 24.70 32.92 38.21 39.00 28.26 29.78 37.69
49.58 49.72 49.67 49.77 49.25 48.78 48.32 48.86 49.98 51.42 51.62 53.94 50.59 51.03 47.71 42.54 45.24 48.06 47.54 43.66 43.03 41.50 37.05 41.19 39.34 38.04 31.73 29.23 26.25 25.72 23.10 29.33 29.48 31.80 31.08 29.20 26.88 21.98 22.83 15.27 22.47 36.46 38.25 32.59 36.10 35.60 39.15
49.22 49.15 49.55 49.91 46.58 47.23 47.90 48.64 49.96 50.92 51.18 53.01 52.03 52.32 50.59 47.26 46.45 48.91 49.18 48.87 47.75 46.05 43.24 40.63 41.14 39.51 38.77 31.45 26.43 26.01 24.92 29.45 27.70 26.24 33.85 28.76 31.34 28.12 29.38 29.52 35.89 37.15 37.79 38.76 38.65 38.28 39.21

GFSGBSN_sfc_wetblb_027.txt.gz
Wetbulb
60.33 60.10 59.43 58.92 58.62 58.37 57.89 57.72 57.46 57.23 56.93 56.50 55.11 55.26 55.04 55.03 54.97 55.21 55.00 54.69 54.76 55.89 54.92 53.80 53.55 52.98 51.78 49.87 49.91 58.57 62.72 62.39 58.34 52.56 52.02 50.43 49.11 48.62 46.55 47.42 46.93 45.05 45.76 45.12 45.03 50.63 51.40
59.90 59.63 59.16 58.52 58.45 58.49 57.91 57.48 57.07 56.99 56.76 56.40 55.35 54.75 54.80 54.56 54.40 54.24 54.23 54.31 54.87 55.10 54.13 53.48 52.84 53.19 49.54 45.02 54.46 60.30 57.88 55.61 54.12 52.50 51.17 51.02 49.84 50.58 49.03 46.66 46.44 46.87 44.75 44.50 43.93 44.99 46.23
60.21 59.59 58.92 58.19 58.09 57.95 57.64 56.82 56.77 56.61 56.26 56.20 55.84 54.95 54.73 54.18 53.92 54.37 54.47 54.77 54.58 54.05 53.53 53.06 52.47 52.56 50.71 49.70 55.29 58.52 56.61 55.07 53.92 53.54 51.14 52.00 52.60 50.97 50.56 45.75 47.74 45.08 43.57 44.41 44.58 45.25 44.99
60.16 59.65 59.24 58.06 57.60 56.87 56.43 56.24 56.40 56.45 55.98 56.32 56.35 55.03 54.40 53.99 54.19 54.08 54.37 54.59 54.33 53.96 52.90 52.73 53.90 51.80 48.74 56.09 57.00 54.93 54.96 54.07 55.01 54.76 53.73 54.36 53.60 50.95 50.05 48.27 45.62 43.54 43.58 40.56 44.32 45.55 44.49
59.75 59.43 59.05 58.21 57.29 56.65 56.00 56.00 55.86 56.20 55.70 56.08 56.28 55.76 55.21 54.71 54.61 53.93 54.30 53.91 53.31 52.82 53.23 54.22 51.61 50.80 48.77 56.65 53.51 54.88 53.17 51.83 52.82 53.89 54.32 53.68 53.90 49.62 46.53 43.64 42.12 42.22 39.27 40.01 42.39 45.24 44.83
59.50 59.29 58.62 58.25 57.30 56.65 56.24 56.08 55.82 55.33 55.03 55.82 55.72 55.43 54.99 54.53 54.37 54.05 53.38 52.94 52.76 53.46 53.31 53.75 53.61 49.07 51.45 49.50 53.52 51.27 53.40 53.52 53.35 51.66 50.91 50.19 47.61 44.98 43.65 42.59 37.38 39.11 39.23 39.98 41.01 43.46 44.87
55.38 59.46 58.55 58.15 57.44 57.12 56.92 56.53 55.84 54.91 55.05 55.68 55.45 55.11 54.99 54.48 54.35 53.57 52.65 52.02 48.77 47.81 50.56 47.24 48.34 48.17 49.30 53.23 52.60 50.47 52.65 53.17 52.75 50.55 46.27 46.62 44.55 42.02 43.34 43.20 41.75 41.59 40.59 40.13 41.37 42.52 44.38
55.45 57.32 58.40 58.06 57.47 57.14 56.99 56.68 55.90 54.72 55.35 55.47 54.85 54.68 54.62 54.60 54.29 53.27 51.43 48.58 49.89 53.19 48.44 50.71 50.84 50.77 52.42 53.16 49.25 49.39 54.02 50.55 50.03 44.62 46.43 45.07 41.90 44.25 45.83 44.78 43.12 42.08 41.17 40.25 41.78 43.29 44.49
54.90 54.42 57.84 57.85 57.37 56.96 56.86 56.44 55.54 54.68 55.03 54.64 54.20 54.46 54.48 54.19 53.77 52.72 49.90 51.15 55.41 56.28 49.09 48.48 50.50 49.32 48.89 51.99 47.95 48.56 52.09 50.21 46.74 44.73 43.90 42.47 43.65 46.25 44.99 43.57 43.05 41.80 41.31 40.78 40.92 43.29 44.08
54.04 53.33 56.64 57.27 57.04 56.63 56.27 56.17 55.46 54.75 54.83 54.12 53.67 53.79 53.66 53.44 50.80 50.73 49.52 54.54 54.77 55.75 40.16 42.93 46.34 49.29 50.09 50.18 47.50 50.82 51.80 50.26 46.69 43.12 44.50 44.26 45.90 44.19 43.37 42.72 43.04 40.57 44.15 42.12 41.13 41.26 38.82
53.59 53.08 54.81 56.45 56.11 55.41 55.23 54.99 54.73 54.70 54.60 54.08 53.45 53.53 53.31 53.64 51.38 50.89 55.40 59.55 56.03 51.33 29.82 43.81 45.97 51.85 49.85 47.33 47.18 47.99 51.82 49.47 44.40 43.77 45.06 42.87 43.85 42.92 42.45 42.79 44.86 42.41 44.38 42.89 41.29 40.11 39.80
53.07 53.15 52.37 55.88 55.17 54.89 54.48 53.89 53.27 53.75 53.79 53.53 53.27 53.41 53.19 52.15 50.55 52.72 56.83 54.85 51.32 40.38 30.91 42.00 46.50 45.12 46.04 46.78 46.64 48.03 49.28 50.12 48.33 45.10 45.09 43.76 46.67 45.33 44.83 44.85 44.63 45.24 44.19 42.95 41.57 40.41 34.90
52.09 52.63 52.70 54.81 54.83 54.56 54.08 53.38 52.82 53.26 53.26 52.90 53.01 53.40 53.14 53.17 52.37 58.64 55.09 49.14 38.72 33.65 43.34 40.03 42.12 44.62 44.05 43.67 44.52 45.13 43.81 43.48 42.75 40.11 39.46 42.89 43.09 45.15 46.41 44.29 45.20 44.74 42.11 35.79 34.69 34.98 33.24
51.61 51.99 52.60 53.97 54.56 54.12 53.46 52.90 52.70 52.88 52.82 52.64 52.39 52.50 52.55 53.33 54.85 54.98 49.16 42.84 34.45 39.57 39.72 43.55 43.05 43.63 42.11 44.10 43.59 43.27 42.41 41.12 43.38 42.48 39.44 37.39 36.38 42.35 45.04 44.09 42.21 41.17 41.90 36.68 29.15 30.94 34.13
51.08 51.71 51.07 54.26 54.16 53.52 52.97 52.62 52.59 52.76 52.17 52.39 52.00 50.86 50.58 55.13 54.28 52.72 45.16 35.45 36.09 39.07 42.71 42.25 43.13 41.02 41.63 43.47 42.83 42.36 40.66 40.40 41.85 43.00 40.33 38.17 37.66 44.17 44.05 45.17 45.17 40.86 38.10 41.32 34.61 31.29 32.11
50.44 51.32 51.63 53.64 53.57 52.83 52.47 52.31 52.62 51.99 51.97 52.29 49.97 49.34 51.11 56.60 55.93 49.02 41.41 36.74 40.96 45.31 44.98 43.83 39.45 41.81 39.07 41.38 41.13 40.97 40.95 43.18 42.55 44.30 44.94 41.78 36.82 41.66 43.65 45.40 44.75 43.41 42.82 37.12 36.18 28.69 27.16
50.01 50.81 51.05 51.55 52.88 52.15 51.90 52.20 52.41 50.50 51.98 52.25 48.95 46.99 50.39 54.93 50.31 44.49 37.34 38.13 44.88 48.18 46.68 43.85 41.80 40.99 41.34 40.79 41.26 40.27 40.36 43.36 44.77 44.46 45.21 41.97 40.83 39.47 42.25 40.64 40.69 41.11 38.92 37.19 37.32 33.88 29.55
49.47 50.12 50.30 50.33 52.40 51.82 51.78 52.28 51.15 49.95 51.78 50.94 45.09 40.08 52.87 48.71 41.70 40.23 39.22 42.73 46.02 45.43 47.80 47.19 45.62 44.04 42.07 42.58 41.39 40.86 40.72 42.80 44.58 45.76 42.73 42.34 39.47 36.26 38.10 42.41 43.90 42.25 39.83 38.95 33.97 30.92 31.00
49.20 48.51 48.99 49.84 51.89 51.49 51.71 51.33 50.21 50.45 52.45 49.58 43.14 48.84 53.79 47.56 36.37 36.69 41.90 44.98 46.49 44.53 45.38 45.90 45.07 45.99 45.79 42.50 39.84 41.90 42.30 44.95 44.27 44.34 42.46 42.83 38.25 33.85 36.32 39.75 41.76 40.58 40.08 37.51 35.80 34.97 31.65
48.74 48.25 49.50 50.74 51.80 51.54 51.18 50.22 49.53 51.30 52.59 50.82 47.41 42.87 46.15 43.84 42.34 40.88 41.86 42.47 43.23 46.32 45.97 45.94 44.81 45.92 44.31 42.71 42.98 40.74 41.48 44.35 44.63 43.99 43.57 43.87 37.69 36.78 33.56 35.69 38.12 36.40 38.29 37.78 38.00 33.44 32.46
48.58 48.79 49.99 51.42 51.33 51.09 50.34 49.64 50.97 51.49 51.84 50.33 45.52 43.05 45.63 39.60 40.25 40.25 43.07 43.49 42.49 42.58 46.30 46.26 44.57 44.65 42.99 39.74 40.67 39.72 42.25 41.77 43.24 43.97 43.56 42.16 37.12 36.72 36.03 36.62 37.11 36.50 36.51 36.94 36.28 36.36 35.18
49.16 48.99 50.41 51.02 50.70 50.31 49.73 49.12 51.11 51.18 51.87 49.68 44.38 41.93 40.68 40.29 43.09 41.36 41.60 42.25 42.34 43.76 44.72 43.98 43.34 44.19 44.91 41.29 42.29 39.96 41.52 40.07 39.12 42.94 41.80 40.48 35.82 35.70 34.38 35.73 35.25 35.21 36.37 36.36 36.73 36.44 36.34
49.46 49.83 50.52 50.19 49.98 49.64 49.27 48.93 50.91 51.20 51.84 48.50 49.16 46.85 43.96 37.97 41.00 38.62 39.96 42.43 43.09 45.37 45.25 45.41 45.10 43.07 41.48 44.11 44.63 43.08 43.15 42.74 42.55 42.10 38.90 37.58 35.01 32.66 29.57 31.31 31.89 29.84 34.80 36.50 36.45 37.31 38.97
49.12 50.48 49.97 49.93 49.59 49.10 49.20 50.57 50.51 51.35 51.01 50.77 50.40 46.75 41.16 34.69 39.04 39.42 42.48 44.88 43.56 44.77 43.87 44.54 45.22 43.28 44.07 46.13 44.83 44.61 42.53 42.39 42.23 39.83 40.24 34.66 32.12 28.92 29.90 27.49 26.43 36.63 39.39 39.00 37.63 38.27 39.06
49.87 49.88 49.58 49.47 48.84 49.15 50.40 50.08 50.26 51.16 51.39 52.84 51.76 47.73 41.26 33.45 38.31 41.15 43.56 43.54 44.18 44.76 44.10 44.59 45.38 44.83 45.74 42.51 38.52 36.04 34.82 35.45 36.37 37.85 36.53 37.29 32.56 27.68 30.06 27.75 31.20 35.91 35.48 36.87 36.70 38.05 40.96
49.20 48.92 49.09 48.62 49.55 49.79 49.52 49.74 50.11 50.67 51.63 53.04 51.99 49.03 45.05 38.47 38.34 44.35 43.52 43.88 41.23 40.74 41.73 43.30 46.09 45.73 42.16 35.01 33.98 31.53 31.61 34.57 33.26 36.18 38.38 35.43 33.91 33.71 26.67 27.56 25.72 34.61 37.46 41.64 41.72 34.54 41.19
48.48 48.64 48.92 49.88 49.23 49.12 49.11 49.43 49.95 50.46 51.28 53.22 51.87 50.45 48.67 43.12 46.41 45.78 43.35 42.76 43.54 42.08 40.68 42.18 43.09 42.95 42.67 33.47 32.10 32.10 32.47 33.84 31.89 29.92 30.33 32.84 31.03 30.44 23.25 29.73 31.05 36.80 39.60 42.01 33.58 36.02 39.85
48.81 49.53 49.22 49.07 49.15 49.04 49.10 49.46 49.73 50.43 51.07 53.91 51.13 52.46 49.48 44.45 47.32 49.52 48.49 44.05 43.82 43.96 40.63 43.00 42.28 41.55 36.84 34.64 34.64 32.31 32.91 33.58 33.15 34.61 33.67 33.21 31.06 30.20 25.67 26.87 28.25 38.65 41.00 37.89 41.95 41.75 41.91
49.14 49.15 48.34 47.28 47.31 48.02 48.89 49.71 49.75 50.48 51.09 52.77 51.58 53.10 50.66 48.20 47.58 50.27 50.70 50.86 50.65 47.85 44.85 42.90 44.18 41.80 41.95 36.81 33.35 32.07 32.70 31.94 31.42 32.75 36.24 33.01 36.22 35.01 34.02 35.34 40.22 40.46 42.63 43.35 42.39 42.10 43.09

GFSGBSN_sfc_wetblb_030.txt.gz
Wetbulb
61.28 60.77 60.26 59.68 59.30 58.97 58.94 58.62 58.01 57.36 56.99 56.95 56.84 56.13 55.96 55.57 55.41 55.26 55.26 54.99 55.06 55.30 56.12 54.19 53.77 53.20 54.75 52.76 52.61 61.82 62.62 61.85 59.33 56.23 55.98 53.71 51.57 50.58 47.41 49.34 50.71 48.89 49.34 49.63 52.40 53.87 54.06
58.88 60.34 59.86 59.53 59.23 59.03 59.04 58.62 57.97 56.98 56.83 56.64 56.44 56.28 56.02 55.64 54.93 54.74 54.87 54.58 54.60 54.88 54.73 53.52 53.03 53.32 53.29 48.44 56.89 61.94 61.77 58.64 56.93 55.42 56.02 55.08 52.22 53.04 51.30 50.32 50.03 50.60 48.96 47.93 48.97 52.08 53.46
58.36 60.31 59.78 59.05 58.48 58.58 58.56 57.97 57.44 56.77 56.77 56.44 56.14 56.00 55.65 54.95 54.27 54.24 54.77 54.72 54.64 54.69 53.71 53.10 52.70 54.05 52.67 52.89 58.29 61.86 59.19 58.29 57.61 56.07 54.89 56.70 55.40 52.24 52.57 50.57 50.88 49.16 45.91 47.01 46.65 48.84 52.21
57.81 57.73 60.10 58.94 58.06 57.62 57.49 57.29 56.75 56.63 56.46 56.28 56.25 56.26 55.43 54.66 54.58 54.09 54.66 54.46 54.44 53.98 53.08 52.95 53.51 53.58 52.40 58.36 60.24 58.83 59.13 58.15 58.75 58.01 56.88 57.01 56.83 53.59 51.91 50.81 48.14 46.15 46.96 43.66 46.69 49.01 48.41
57.79 57.73 59.59 59.16 57.89 57.39 56.99 56.71 56.44 56.31 56.37 56.12 55.76 55.96 55.55 55.07 54.73 54.73 54.24 54.19 53.48 53.05 53.09 53.87 53.75 53.63 51.40 59.39 55.60 57.14 59.03 54.07 56.51 57.10 57.25 56.26 55.61 52.32 50.58 47.05 45.15 45.61 41.98 42.74 44.13 48.64 48.72
57.37 57.12 57.05 59.29 58.29 57.59 57.09 56.48 55.88 55.86 55.84 55.48 55.31 55.85 55.39 54.71 54.48 54.37 53.58 53.04 53.21 53.83 54.34 55.06 55.78 52.49 56.04 52.21 55.46 55.15 56.72 56.35 55.15 54.90 52.76 52.47 52.00 49.03 47.63 46.40 40.79 42.43 42.60 43.67 43.65 46.94 47.59
55.89 56.11 56.17 58.07 58.32 57.88 57.62 56.91 56.06 55.33 55.29 55.09 55.55 55.65 55.17 54.76 54.54 53.80 52.77 54.94 53.31 52.94 53.42 51.73 51.06 52.45 52.17 55.87 56.48 53.55 54.85 55.88 54.51 53.31 48.59 50.38 47.38 44.45 46.45 46.90 45.97 45.61 44.87 44.12 45.24 48.14 47.80
54.43 55.27 55.63 55.80 58.66 58.10 57.85 57.48 56.16 55.35 55.13 54.99 55.45 55.05 54.86 54.84 54.51 53.61 55.44 53.61 54.72 57.14 51.37 55.04 53.97 53.18 54.89 55.32 51.57 52.20 56.11 52.16 51.22 47.79 49.58 48.17 45.62 47.25 48.54 47.33 46.66 46.01 44.35 43.94 45.28 47.72 49.14
53.40 53.97 55.36 55.38 57.45 58.05 57.77 57.41 56.16 55.35 54.82 54.66 54.97 54.58 54.76 54.29 53.70 52.86 54.26 54.92 60.71 60.07 53.39 51.60 54.04 51.83 51.04 53.77 50.85 50.62 54.02 52.21 48.87 47.37 47.25 45.94 47.28 49.09 48.39 47.19 46.17 45.92 45.03 44.72 44.70 47.01 49.03
52.53 53.35 54.37 54.74 55.65 57.75 57.28 56.83 56.20 55.43 54.48 54.40 54.32 53.89 53.96 53.45 51.82 55.62 52.95 57.46 59.37 59.49 46.92 46.00 49.51 52.37 52.77 53.49 49.33 53.36 54.66 52.36 50.02 46.33 48.31 47.93 48.80 48.00 47.94 46.26 47.11 43.93 46.88 46.90 46.13 45.61 42.13
52.27 52.75 53.60 54.19 54.16 56.48 55.94 55.82 55.66 55.33 54.60 54.42 53.73 53.81 53.61 53.68 56.28 53.53 58.51 59.73 63.01 58.89 34.42 47.67 49.17 54.58 53.18 50.17 50.53 51.36 54.97 53.02 47.51 46.87 48.02 45.66 46.84 46.94 46.38 46.12 47.79 45.79 47.71 47.27 46.31 46.09 44.87
51.58 52.13 52.69 53.70 53.23 55.55 55.41 55.03 54.70 54.34 54.09 54.03 53.51 53.55 53.47 53.54 56.11 58.52 60.69 62.52 59.69 45.80 34.28 44.38 49.39 48.34 48.98 49.30 49.13 51.77 52.13 53.84 52.45 48.85 49.32 47.67 50.33 49.53 48.25 48.59 48.79 49.68 48.04 47.53 47.28 46.12 39.66
50.86 51.63 52.19 53.00 52.77 54.93 55.23 54.72 54.11 53.66 53.46 53.61 53.18 53.57 54.19 57.22 54.40 62.89 62.84 57.49 44.80 38.62 46.04 43.30 45.20 48.04 47.74 46.44 47.33 49.13 48.50 47.99 46.19 43.73 44.32 46.78 46.82 49.16 49.93 47.67 49.36 48.76 46.78 40.47 38.18 38.34 37.02
50.21 51.00 51.45 52.40 52.70 53.66 54.85 54.36 53.40 52.82 52.89 53.06 52.40 52.64 54.13 57.37 60.57 60.26 57.75 50.37 38.16 42.45 43.70 46.75 46.74 47.58 45.18 47.12 46.66 47.24 47.28 45.52 47.73 47.16 45.02 42.38 40.19 46.16 48.61 47.86 46.00 46.49 45.70 40.05 31.00 34.23 38.70
49.70 50.36 51.26 51.78 52.57 52.57 54.46 53.79 52.91 52.39 52.66 52.54 52.23 53.40 54.61 57.45 58.83 58.22 52.74 42.78 41.93 44.66 47.27 45.51 46.32 43.93 44.58 46.26 46.76 47.21 46.55 46.56 47.12 48.16 43.78 42.57 41.15 47.57 47.49 48.93 48.45 44.88 43.31 46.48 40.44 37.08 37.84
49.83 49.83 50.35 51.06 51.23 52.92 53.53 53.40 52.52 52.59 52.32 52.23 54.37 53.27 54.20 60.15 61.11 55.90 48.95 42.90 45.96 49.08 48.11 47.91 42.44 44.99 42.69 44.77 44.62 45.94 45.78 47.13 46.46 48.27 49.76 46.32 40.61 45.74 46.87 49.05 48.86 47.40 47.94 41.29 42.95 32.62 31.01
49.33 49.58 49.66 50.52 51.51 50.95 53.14 53.09 52.37 52.44 52.25 52.45 54.44 50.27 58.39 62.73 60.22 53.47 44.42 45.97 47.42 51.99 50.71 47.02 45.26 44.37 45.38 44.65 45.02 44.96 45.30 46.61 48.09 47.92 49.60 48.11 45.53 43.45 46.08 45.34 44.95 44.77 43.96 43.01 43.44 40.96 34.66
48.87 49.20 49.36 49.98 50.89 50.74 52.88 52.56 52.16 51.62 51.93 51.70 53.36 47.29 58.80 58.90 50.13 50.19 46.47 47.53 48.63 49.61 50.99 49.67 49.83 47.94 46.45 47.00 45.62 44.85 44.89 46.81 49.39 49.60 46.72 47.41 46.70 42.05 43.35 46.32 47.66 46.95 45.20 44.44 39.06 36.27 39.16
48.32 48.64 49.16 49.49 50.42 49.68 52.48 52.11 51.57 51.16 52.07 53.75 50.07 53.15 57.38 54.23 45.15 46.10 47.71 47.94 50.97 48.62 49.59 49.60 48.36 49.38 49.82 47.78 44.30 46.68 47.19 47.27 47.64 48.62 47.89 48.07 44.90 39.60 40.16 43.75 45.90 44.55 45.70 44.56 43.11 42.61 37.86
48.07 48.46 48.96 49.31 49.42 49.88 51.77 51.43 50.73 51.18 52.13 56.61 52.04 48.02 52.95 52.12 51.16 48.48 46.45 46.92 47.45 50.19 49.61 50.27 49.31 50.50 49.06 46.79 48.01 45.88 46.18 46.47 47.03 47.75 43.67 47.25 45.59 43.33 39.58 41.21 44.70 41.60 43.34 44.19 43.37 38.30 38.54
47.86 48.16 48.64 48.92 49.21 48.72 51.19 50.98 50.60 51.38 51.83 55.41 53.58 49.82 52.74 45.33 45.98 48.40 48.96 47.90 46.92 46.67 50.08 51.02 48.77 49.64 48.59 45.03 45.69 45.32 46.89 45.00 46.70 45.06 48.02 47.93 43.06 42.88 41.68 41.85 41.84 42.05 42.60 43.28 41.85 42.75 38.80
47.53 47.97 48.22 47.94 47.66 48.85 51.14 50.43 50.34 51.01 51.78 54.72 50.63 49.76 50.11 49.63 48.62 47.38 45.43 46.93 46.91 47.75 49.05 48.08 48.78 49.27 50.05 47.31 47.72 45.99 47.38 46.30 45.95 47.35 47.29 46.05 42.51 41.53 39.49 40.68 40.60 39.71 42.46 43.12 43.72 43.76 42.93
47.78 47.74 48.01 47.45 47.84 49.57 50.81 50.07 49.94 50.41 51.88 54.85 56.11 52.86 52.51 43.98 47.14 46.60 46.28 47.42 47.64 50.82 48.71 49.95 51.32 49.72 48.24 48.48 50.20 51.14 49.73 49.21 48.34 47.48 45.98 44.75 42.58 39.67 36.23 37.55 38.12 35.92 40.86 42.71 43.05 44.62 43.95
47.57 47.77 47.92 48.40 49.47 50.63 50.15 49.38 50.04 50.62 51.58 58.36 58.17 54.84 51.42 44.58 45.93 45.34 47.30 49.08 49.09 50.65 49.30 48.76 50.87 50.02 48.52 51.99 51.88 50.92 49.56 48.17 47.62 45.73 46.30 42.42 41.42 38.54 36.98 33.88 31.90 40.83 43.78 43.55 43.58 44.64 45.83
45.64 47.49 48.79 49.34 50.32 50.07 49.01 49.04 49.91 50.44 51.25 59.08 58.71 55.55 51.78 41.12 47.35 46.47 47.92 49.14 50.03 49.97 48.86 49.34 48.92 50.16 52.55 49.68 46.79 42.83 43.03 42.72 43.01 43.31 43.18 44.11 41.47 35.19 36.77 34.78 38.18 40.12 40.48 40.23 40.39 41.48 46.13
47.59 48.79 49.51 50.02 49.40 48.85 48.56 49.62 50.10 50.66 51.66 58.92 58.99 57.89 55.56 48.13 46.04 49.22 48.51 50.61 48.80 49.09 48.26 46.58 48.52 51.18 48.54 47.34 44.85 40.15 38.28 40.80 38.80 40.67 42.89 41.37 42.18 41.54 34.86 35.36 33.49 40.26 42.59 45.37 45.38 38.50 45.19
48.32 49.45 49.73 49.23 48.63 48.69 49.30 49.71 49.98 50.45 51.39 59.02 58.09 57.00 56.43 52.12 50.54 52.11 48.92 49.23 51.72 50.75 48.69 46.90 46.95 47.14 48.09 45.56 42.91 42.40 40.77 40.49 37.88 36.25 35.36 38.70 38.46 37.40 35.71 36.52 38.79 42.95 43.10 45.92 36.48 39.33 47.18
48.89 48.82 48.39 48.48 49.27 49.32 49.37 49.50 49.63 50.26 51.51 58.78 56.73 57.93 58.17 52.81 51.82 53.22 52.09 50.82 50.04 52.46 48.99 48.22 47.87 47.35 46.57 44.71 44.55 42.57 41.68 40.70 39.79 40.75 39.39 39.02 38.24 37.01 35.18 34.97 33.34 44.05 44.63 41.07 45.93 48.41 47.57
48.32 48.96 48.65 48.65 48.63 48.69 48.85 49.29 49.58 50.35 51.78 55.00 56.23 57.20 58.64 55.64 52.89 55.30 54.44 54.63 53.93 53.77 52.83 50.52 50.95 49.24 50.70 47.31 44.75 43.02 38.44 37.15 40.25 39.54 41.89 38.48 42.86 42.18 41.17 42.35 45.11 46.49 47.89 49.20 48.85 47.86 48.06

GFSGBSN_sfc_wetblb_033.txt.gz
Wetbulb
58.57 58.50 61.19 60.74 60.16 59.64 59.79 59.34 58.70 57.81 57.52 57.29 57.21 57.21 56.97 56.42 56.32 55.89 55.48 55.17 55.24 55.53 55.46 54.98 54.30 54.23 55.16 54.64 54.09 63.91 62.69 62.20 58.88 58.08 55.80 54.07 51.29 51.12 48.61 49.38 50.70 50.07 50.86 51.83 55.90 55.04 54.15
57.24 58.16 58.67 60.36 60.02 59.79 59.73 59.20 58.63 57.84 57.36 56.95 56.97 56.83 56.65 56.44 55.77 55.19 55.08 54.87 54.95 55.17 55.31 54.21 53.92 53.42 54.55 50.18 58.14 61.80 61.19 58.94 57.40 57.55 55.46 54.63 52.47 53.06 51.33 49.92 50.56 51.67 51.11 52.44 54.02 54.15 54.20
56.73 57.69 57.89 59.04 59.49 59.30 59.21 58.63 58.20 57.84 57.30 56.89 56.81 56.24 56.16 56.29 55.65 55.14 54.81 54.79 55.07 55.15 53.95 53.83 53.43 55.38 54.21 54.44 59.58 62.66 60.24 58.92 58.08 57.24 54.97 56.71 56.28 53.30 53.86 51.47 53.10 50.86 48.60 50.88 51.09 52.65 53.38
56.48 57.23 57.78 57.35 58.87 58.33 58.14 57.94 57.92 57.64 57.26 56.83 56.79 56.14 55.84 55.81 55.31 54.97 54.64 54.90 54.88 54.37 53.37 52.97 53.17 56.68 53.09 59.47 61.09 59.40 61.54 59.32 60.16 59.04 57.56 58.23 57.73 54.75 53.56 53.69 50.59 48.03 48.55 45.07 49.06 50.70 53.59
55.47 56.46 57.21 57.51 57.45 58.17 57.71 57.41 57.33 57.38 57.24 56.67 56.43 55.92 55.67 55.45 55.33 54.86 54.78 54.60 53.42 53.46 52.99 53.89 54.90 56.15 53.12 58.95 56.31 58.75 59.78 56.28 58.12 58.39 58.20 57.18 56.92 54.08 52.59 49.17 46.76 46.99 43.13 44.40 45.39 50.40 51.14
54.70 55.74 56.46 57.41 56.86 58.24 57.99 57.31 56.85 56.67 56.40 56.14 55.94 55.52 55.73 55.49 55.23 54.66 54.32 53.52 53.21 53.34 54.82 57.60 57.89 54.33 57.51 53.25 56.45 56.65 59.12 58.18 56.48 56.52 55.20 54.40 53.76 50.82 50.03 47.64 40.85 42.86 43.13 44.73 45.04 48.71 50.55
53.69 54.96 55.59 56.23 56.14 56.85 58.67 57.89 56.83 56.02 55.96 55.84 55.72 55.66 55.84 55.37 55.05 53.97 53.15 56.24 54.38 54.81 55.58 53.80 53.69 53.43 53.74 56.67 58.01 55.76 56.92 55.86 56.24 55.12 50.74 53.05 48.27 46.02 47.55 48.16 48.53 46.72 45.15 44.16 47.10 49.21 47.92
52.72 53.59 54.76 55.13 55.82 55.78 57.97 58.46 56.91 55.88 55.78 55.74 55.42 55.74 55.37 55.19 54.95 53.77 55.12 54.90 57.48 59.22 53.72 56.05 54.67 54.47 56.19 56.24 52.28 53.87 56.69 52.44 52.98 48.71 50.14 49.08 46.04 49.27 49.72 49.03 47.15 46.06 44.84 45.22 46.98 48.66 48.92
52.51 52.57 52.73 54.51 54.92 55.81 55.85 58.45 57.04 55.81 55.67 55.33 55.19 55.64 55.13 54.70 54.00 53.52 55.90 56.46 62.63 61.85 54.96 53.47 54.71 53.81 53.70 55.02 51.36 52.27 54.66 53.24 50.81 48.22 47.65 46.25 47.99 50.42 48.19 46.93 45.87 46.06 44.84 45.44 45.07 47.78 49.03
52.05 52.16 52.66 53.70 54.18 55.04 55.35 56.76 57.13 56.02 55.35 54.78 54.52 54.90 54.20 53.62 51.75 57.75 55.32 59.28 60.54 60.33 49.57 48.27 50.03 52.47 53.81 54.47 50.31 54.70 55.28 53.09 50.78 47.62 48.39 47.71 50.39 48.57 46.94 46.30 47.48 44.34 48.61 47.65 46.76 45.97 41.62
51.69 51.77 52.01 52.53 53.40 53.95 53.99 54.99 56.78 56.02 55.35 54.56 54.23 54.13 53.61 53.30 58.86 55.44 60.78 62.05 63.07 61.80 36.69 49.05 50.46 56.96 54.84 51.30 51.41 51.79 56.23 53.22 48.50 48.15 49.44 46.75 48.32 47.22 46.23 47.21 49.40 46.89 49.32 48.58 48.08 46.01 45.38
51.21 51.37 51.61 52.13 52.90 53.33 53.60 54.64 55.55 55.23 54.80 54.29 53.93 53.87 53.59 54.04 56.70 60.83 62.90 65.00 62.51 47.61 36.71 45.74 50.74 49.29 49.53 50.77 49.80 52.55 52.17 54.29 53.69 49.51 48.97 48.76 52.24 51.11 50.07 50.30 50.35 50.74 48.79 48.53 48.62 46.34 40.61
50.25 50.79 51.29 51.77 52.06 52.50 53.47 54.11 54.85 54.76 54.23 53.83 53.77 53.69 54.27 58.39 55.46 62.73 64.10 60.21 46.36 40.00 47.75 44.74 46.32 48.81 48.37 47.53 48.06 48.96 48.52 48.15 45.93 43.24 42.72 47.38 48.49 50.98 51.57 48.51 50.56 49.64 46.90 40.03 38.36 39.05 38.10
48.84 49.90 50.56 51.14 51.75 52.13 53.04 53.39 54.52 54.00 53.60 53.42 53.02 52.83 54.19 58.26 60.98 62.92 62.02 52.35 40.19 44.62 45.55 48.13 48.08 47.91 45.65 47.90 47.45 47.80 47.08 45.29 48.42 47.95 44.19 42.59 41.24 48.28 51.02 49.40 47.22 47.62 46.42 40.96 33.46 35.16 38.95
46.90 47.93 49.71 50.45 51.32 51.76 52.65 52.96 54.22 53.58 52.97 53.06 52.33 54.94 56.00 57.76 60.54 61.69 56.34 44.54 43.76 45.48 48.27 46.24 47.34 44.73 45.03 47.38 46.98 47.18 46.77 45.65 47.85 49.05 43.73 43.20 42.62 49.58 49.80 50.82 49.75 46.77 43.76 48.65 42.43 42.32 38.65
47.00 47.09 48.80 49.58 50.44 51.36 52.18 52.37 53.67 53.46 52.61 52.28 53.75 53.34 54.27 60.63 60.92 58.57 51.59 44.11 47.91 49.83 50.18 48.64 43.50 46.11 43.49 45.61 44.73 45.89 46.30 48.84 48.29 50.65 52.38 47.63 42.12 47.45 48.65 50.78 50.56 48.69 49.90 42.15 43.14 34.05 33.12
46.66 46.90 47.64 49.18 49.90 51.02 51.69 52.18 52.92 53.16 52.47 52.50 55.03 50.66 58.30 61.62 59.82 53.48 46.20 47.47 49.72 51.53 51.78 48.21 46.01 45.13 46.35 45.63 45.76 45.57 46.43 49.43 50.69 50.57 52.19 49.51 46.56 45.80 47.63 46.34 45.93 46.94 45.22 45.09 45.36 43.48 36.16
46.40 45.86 46.50 48.53 49.31 50.10 51.47 52.28 52.72 52.49 52.12 51.48 54.41 47.17 59.80 62.74 47.62 51.08 47.98 49.85 49.59 50.50 53.44 50.47 50.05 48.69 46.89 47.58 46.01 45.86 46.11 48.33 52.26 51.97 48.18 50.46 47.30 43.33 45.15 49.24 50.19 49.47 47.24 46.89 40.61 38.64 41.07
45.74 44.04 47.71 48.34 48.89 49.35 50.44 50.25 52.42 52.17 52.26 53.64 51.28 53.00 60.28 59.18 45.79 48.80 51.08 49.66 51.10 50.29 50.98 49.98 48.35 50.02 50.11 47.74 44.76 46.67 47.54 50.67 51.27 51.35 48.97 50.56 45.51 40.70 42.51 46.32 48.50 45.53 46.80 47.04 45.67 44.47 39.76
45.62 44.78 47.42 48.47 48.92 49.29 50.08 50.33 51.43 51.91 52.36 56.26 52.39 47.76 52.44 54.84 53.92 50.83 48.84 48.06 47.69 52.28 51.45 51.58 49.48 51.95 49.83 47.85 49.80 47.11 47.75 49.15 50.66 51.24 45.49 48.88 47.14 44.15 40.10 43.16 46.56 44.15 45.24 46.53 45.13 40.06 40.38
44.66 46.60 47.55 48.19 48.60 49.29 49.68 49.54 51.05 51.70 51.94 54.31 53.59 50.11 52.55 47.02 50.77 51.79 50.73 49.01 47.30 47.44 52.11 52.90 50.40 50.27 49.31 46.67 47.89 47.45 49.94 48.24 49.46 46.13 49.26 50.25 44.24 46.11 46.26 45.63 45.33 44.84 44.58 45.27 43.79 44.05 41.25
45.67 47.04 47.37 48.02 48.49 48.85 48.85 49.37 50.15 51.26 51.96 52.10 50.86 51.00 54.05 51.52 52.00 50.21 47.44 47.93 47.34 49.63 50.52 49.49 49.04 50.03 50.64 48.08 48.98 47.19 49.85 49.23 48.20 50.21 50.07 50.18 44.49 45.18 42.73 45.87 44.73 43.12 45.20 44.99 44.98 44.81 44.40
46.86 47.03 47.53 47.96 48.65 48.91 48.29 48.31 49.49 51.17 52.02 52.15 56.57 57.05 54.31 49.78 51.66 48.69 49.21 48.39 48.71 52.06 51.85 52.78 51.58 50.98 50.15 51.25 53.86 54.13 54.04 52.91 52.21 50.37 49.15 48.05 45.56 42.16 37.77 41.47 41.68 37.26 42.97 44.81 45.32 46.26 45.81
46.66 47.27 47.73 48.21 48.62 48.21 46.88 47.49 49.54 50.76 52.13 56.91 56.83 56.47 51.49 47.80 50.54 48.19 49.45 50.01 49.77 51.86 50.49 52.08 54.07 52.17 52.84 55.73 55.16 54.01 52.35 50.99 50.45 49.69 51.61 46.69 45.36 43.11 38.58 36.18 30.57 42.46 46.17 45.53 44.61 46.14 47.26
46.66 47.15 47.61 48.22 48.11 47.54 46.25 46.69 49.69 50.41 50.84 57.25 59.97 56.59 52.94 46.01 50.03 48.82 49.28 49.39 51.21 53.13 52.18 52.10 52.17 54.68 56.37 54.15 48.78 44.72 45.13 44.14 45.05 46.55 46.37 48.19 45.02 38.79 37.69 36.46 40.29 41.93 43.40 42.75 42.09 42.45 46.81
46.85 47.09 47.58 47.79 47.50 47.99 47.76 48.48 49.62 49.80 50.64 55.15 60.26 61.44 57.34 52.70 49.21 50.74 49.15 50.47 49.66 50.78 50.74 49.13 53.45 55.52 53.54 52.02 47.88 41.03 39.14 42.43 41.62 43.80 46.05 45.05 46.24 42.39 37.64 34.83 32.03 42.44 44.99 47.27 46.88 39.36 46.86
46.58 46.69 46.86 47.47 47.27 48.13 48.58 49.26 49.46 49.74 50.73 54.76 60.63 61.51 57.09 51.53 52.60 52.45 49.28 49.51 53.03 52.27 50.84 49.72 50.29 49.87 52.34 49.72 43.69 44.02 42.43 45.08 40.23 39.33 37.13 40.65 41.43 38.77 38.33 37.51 40.93 46.02 45.88 47.74 38.28 41.22 48.39
46.37 46.18 47.15 46.65 48.21 48.64 48.89 49.09 49.39 49.80 51.04 53.08 60.49 62.13 59.54 54.79 54.36 55.21 54.45 52.08 53.91 53.48 50.46 51.66 50.10 50.35 49.94 45.61 47.14 46.01 44.33 44.39 43.36 44.68 42.22 40.73 40.17 37.88 40.47 35.75 33.52 46.92 46.66 41.80 47.65 49.37 49.34
45.62 45.84 48.16 48.55 48.67 48.54 48.52 48.76 49.12 49.84 50.91 52.44 59.25 61.69 63.22 57.72 55.04 58.63 57.31 57.66 56.80 57.53 55.54 53.42 52.24 52.06 52.45 49.46 49.74 49.63 41.97 41.34 44.64 40.25 46.16 41.29 45.58 44.60 43.65 43.77 47.94 48.71 47.68 49.67 50.20 49.13 49.49

GFSGBSN_sfc_wetblb_036.txt.gz
Wetbulb
57.45 57.74 58.41 58.63 60.75 60.48 60.47 59.96 59.16 58.53 57.94 57.74 57.47 57.45 57.16 57.14 56.86 56.49 55.55 54.78 55.33 55.41 55.43 55.71 55.22 54.61 54.38 53.73 53.68 62.64 63.58 62.02 58.75 55.58 55.17 53.85 51.78 49.73 47.16 49.03 49.85 48.18 49.99 51.73 55.18 55.25 55.02
56.19 55.68 56.96 58.03 58.46 60.46 60.57 59.87 59.17 58.54 57.92 57.70 57.23 57.01 56.85 56.75 56.74 56.35 55.56 55.08 55.04 55.35 55.66 55.16 54.53 54.26 54.05 48.73 58.65 62.40 61.04 59.56 55.91 54.96 55.79 54.69 51.35 52.16 50.09 49.49 48.49 50.75 51.23 53.58 54.25 52.79 54.21
55.01 56.08 56.54 57.27 57.64 58.80 60.01 59.20 58.80 58.60 57.96 57.73 57.17 56.73 56.34 56.62 56.72 56.40 55.78 55.08 55.02 55.57 55.59 54.57 54.30 54.10 53.18 51.83 60.09 62.03 60.28 57.08 57.10 56.57 54.23 55.82 54.84 52.72 52.62 50.75 52.83 51.76 48.16 51.00 51.48 52.43 52.59
55.10 55.52 56.07 56.55 57.29 57.16 58.54 58.57 58.37 58.40 57.96 57.68 57.46 56.51 56.00 55.73 55.93 55.69 55.47 54.94 55.10 55.36 54.64 54.00 53.88 55.05 51.41 59.94 60.28 59.38 60.59 59.45 59.59 58.17 56.58 57.66 57.33 54.24 52.79 54.16 51.07 48.26 48.64 44.47 49.57 50.86 53.01
54.66 54.93 55.32 56.14 56.35 56.81 57.10 57.98 57.91 58.15 57.98 57.51 56.93 56.47 55.73 55.24 55.58 55.26 55.30 55.10 55.09 54.50 54.18 54.03 53.64 55.64 52.71 60.36 56.30 58.22 58.88 56.68 58.10 58.32 57.91 57.51 56.35 53.20 52.75 48.66 45.69 46.87 41.32 43.44 46.03 50.07 50.67
54.16 54.57 54.56 55.28 56.10 56.71 56.95 57.83 57.60 57.38 57.35 56.97 56.73 56.20 55.64 55.49 55.52 55.02 54.71 54.76 54.67 53.34 54.16 56.69 56.95 52.77 57.14 53.94 56.15 57.42 58.74 57.45 56.13 56.18 54.85 53.77 52.72 49.90 49.57 46.67 38.67 41.03 42.65 44.65 43.83 46.88 48.42
54.20 53.80 54.34 54.96 55.51 56.53 56.61 56.95 57.87 56.91 56.72 56.74 56.49 56.23 55.62 55.81 55.53 54.47 53.26 54.94 53.25 52.41 54.71 52.07 53.76 52.70 54.18 56.55 57.74 55.83 57.08 55.75 56.36 54.43 49.47 52.29 47.83 45.05 47.25 49.37 47.86 46.66 44.92 43.59 46.00 48.53 47.26
53.62 53.57 53.67 53.64 55.10 55.41 56.16 56.20 57.01 56.77 56.51 56.56 56.22 55.92 55.86 55.72 55.10 54.41 54.44 54.72 57.35 59.03 52.77 56.83 52.84 54.86 56.32 57.20 52.19 53.95 56.55 52.09 52.25 48.67 49.93 49.63 45.18 48.82 49.88 49.08 47.77 46.68 44.62 43.99 46.70 48.03 47.15
52.61 53.15 53.45 53.22 53.60 54.57 55.21 56.00 55.32 56.71 56.23 55.95 55.65 55.64 55.82 54.76 54.43 53.67 54.46 54.85 60.81 60.13 52.61 54.24 54.34 52.63 54.23 55.39 51.52 51.55 53.97 52.58 50.58 47.60 47.93 45.51 47.50 50.30 48.47 46.80 45.76 45.35 44.29 44.81 44.97 46.70 47.04
51.28 52.18 52.75 53.15 53.04 53.24 54.29 55.01 55.28 56.37 55.99 55.40 55.16 55.10 54.29 53.79 51.25 56.33 54.92 58.59 59.17 61.08 47.48 49.17 50.73 52.49 54.55 53.90 50.30 54.51 55.08 52.35 49.87 46.78 48.27 46.47 50.03 48.58 47.07 45.75 46.39 43.01 48.47 47.55 46.27 44.62 39.79
50.22 51.26 51.60 52.35 52.52 52.36 53.10 54.05 54.74 55.47 56.19 55.44 54.61 54.55 53.69 53.38 55.71 55.30 60.83 61.51 64.07 61.26 36.72 50.02 50.73 56.44 54.22 51.00 51.46 51.45 55.46 52.78 48.45 48.10 48.57 45.71 46.72 47.29 44.61 46.30 49.37 45.68 49.05 47.92 46.48 44.54 44.17
50.01 50.31 50.91 51.72 52.14 52.12 52.66 53.22 53.84 54.21 55.57 55.08 54.15 54.11 53.61 53.53 54.52 57.90 62.51 64.57 61.40 46.75 35.58 45.94 50.18 49.53 49.28 50.55 50.07 51.86 51.46 53.98 53.25 48.80 48.98 47.68 50.52 48.19 48.73 49.87 50.14 51.04 48.29 47.67 47.53 45.37 36.19
48.17 49.55 50.19 51.08 51.58 51.54 51.89 52.97 53.41 53.74 54.90 54.58 53.72 53.83 53.88 57.56 54.04 60.62 61.82 60.02 45.11 38.11 48.11 45.34 46.33 48.96 48.03 47.18 47.83 48.61 48.38 46.72 45.19 43.01 42.66 46.04 47.02 51.01 50.93 47.74 49.85 48.14 45.23 39.15 34.14 35.00 36.20
47.82 48.71 49.71 50.88 51.43 51.35 51.66 52.71 53.02 53.40 54.20 54.18 53.06 52.88 53.67 56.30 59.77 62.55 60.96 51.36 38.59 43.87 45.45 48.23 47.55 47.94 45.11 47.63 46.98 47.23 46.34 44.31 47.36 46.47 43.45 40.87 39.43 47.62 50.40 48.25 45.32 44.98 44.47 40.33 31.51 29.84 37.66
47.08 48.15 49.23 49.83 50.63 51.29 51.58 51.92 52.65 53.34 53.68 53.56 52.62 53.79 53.78 56.08 58.14 60.64 54.69 43.58 41.88 46.07 48.11 46.91 46.92 44.35 44.61 46.63 46.55 46.27 45.59 45.01 46.74 47.51 42.68 42.06 41.68 49.23 50.22 50.19 48.91 45.74 42.76 47.57 41.89 42.35 39.34
46.29 47.65 48.01 47.73 48.96 50.47 51.02 51.61 52.26 53.01 53.44 52.54 52.27 51.64 51.68 58.81 60.21 56.49 49.85 43.65 46.56 50.24 50.35 48.81 43.21 45.64 42.53 44.54 44.47 45.17 44.79 47.49 46.35 48.89 51.81 45.81 37.55 47.03 49.18 50.22 49.94 47.38 48.81 42.16 43.14 33.90 32.21
46.30 47.32 47.29 47.04 47.68 48.97 50.14 51.14 51.94 52.89 53.08 52.70 52.40 47.01 55.94 60.11 59.03 51.87 44.70 45.99 49.09 52.01 51.43 48.29 45.71 44.89 45.53 45.05 45.78 44.63 45.01 47.84 49.65 49.47 50.93 48.86 44.98 44.74 47.85 45.45 43.46 46.01 43.84 44.69 43.78 43.72 36.39
46.24 45.64 46.45 46.95 47.00 48.38 49.40 50.37 51.42 52.70 52.43 51.22 50.24 42.78 57.91 60.25 47.18 46.73 45.93 48.70 49.51 51.11 51.88 50.42 49.97 47.87 46.20 47.34 45.65 44.80 44.65 48.04 51.50 51.09 46.82 49.51 47.04 42.87 44.23 49.18 50.22 48.28 46.53 45.89 41.57 38.14 41.65
44.85 45.56 45.83 46.40 47.14 47.91 49.08 49.75 51.05 52.16 52.31 50.73 46.40 49.59 58.64 57.29 41.51 44.06 48.70 49.08 50.29 49.79 50.22 49.78 48.42 49.76 49.81 46.98 44.44 46.52 47.57 52.10 53.03 51.02 48.54 50.47 45.58 39.36 41.08 46.21 48.66 45.36 46.05 46.13 46.63 45.20 40.20
45.08 45.33 45.76 46.45 46.73 46.95 48.55 49.28 50.91 51.77 52.22 51.99 48.01 44.48 50.84 53.08 50.51 47.40 47.10 47.01 47.08 51.95 50.07 51.16 49.71 50.26 48.80 46.82 49.02 46.44 46.98 49.90 51.87 51.77 46.71 51.53 46.31 42.29 38.72 42.23 46.01 44.08 45.19 45.54 44.80 40.27 39.59
45.10 45.27 45.42 46.26 46.08 46.48 47.63 48.91 50.23 51.53 51.78 51.01 49.46 47.22 50.12 43.46 47.26 48.85 50.60 48.41 46.48 46.59 50.52 51.64 49.01 48.30 48.65 45.48 46.25 46.31 48.22 49.10 50.26 46.37 49.37 49.84 42.28 44.13 44.62 46.02 45.78 45.21 44.76 44.92 43.03 44.03 39.80
45.01 45.67 45.67 45.95 45.76 47.66 48.23 48.83 49.77 51.37 51.69 48.13 46.89 48.88 52.09 49.22 49.65 48.62 47.98 48.06 46.93 48.17 48.90 48.85 48.02 49.31 50.24 47.41 48.15 46.25 48.66 49.18 47.33 49.75 49.18 50.33 44.26 45.36 43.10 46.18 45.73 43.00 44.58 45.25 44.96 44.40 44.04
45.08 45.95 46.11 45.78 46.87 47.83 48.12 48.60 49.19 49.57 50.88 47.32 51.23 55.55 51.63 47.81 48.40 47.11 48.37 49.65 49.04 50.82 51.56 51.93 50.96 50.17 49.01 50.99 53.62 54.12 54.17 53.65 52.11 49.87 48.45 48.51 46.22 43.33 38.84 42.46 41.04 35.36 42.54 44.04 44.75 45.86 45.32
45.81 45.27 46.55 46.87 47.08 47.75 48.31 48.34 48.13 48.41 50.64 51.47 52.00 55.41 49.21 45.73 47.76 48.08 50.01 50.87 49.31 50.52 50.65 52.29 53.33 51.64 53.66 56.41 55.77 54.49 52.96 52.13 52.28 51.50 52.52 47.98 46.73 44.33 39.56 35.95 31.04 42.10 46.83 45.51 44.04 44.89 46.03
45.50 44.96 46.44 47.10 47.19 47.52 48.43 48.27 47.98 47.78 48.51 50.94 54.99 56.13 51.75 43.43 49.55 49.56 51.08 51.10 51.08 51.73 51.90 52.24 53.56 55.87 57.54 54.58 49.01 44.78 44.90 43.13 45.98 48.10 48.11 50.08 46.35 40.38 36.48 35.93 40.02 42.03 43.96 43.21 42.18 41.98 46.05
45.95 46.16 46.81 47.37 47.38 47.54 47.86 48.13 47.83 47.52 47.39 50.56 52.24 56.29 53.94 49.61 48.79 52.09 50.10 52.00 48.68 49.57 50.37 50.22 55.24 58.30 57.10 52.70 48.98 41.45 39.47 42.13 41.08 42.92 46.60 45.84 48.43 43.35 38.63 35.74 31.86 42.86 45.05 47.43 46.64 38.92 47.13
45.86 46.16 46.98 47.27 47.68 47.44 46.87 46.84 47.46 47.60 46.87 50.45 53.01 54.86 56.39 49.22 53.96 53.48 49.62 50.28 54.16 51.27 49.38 50.74 50.31 50.80 53.97 50.97 41.41 45.46 42.83 45.84 40.78 39.58 36.93 40.55 42.02 37.68 37.59 37.44 40.05 46.22 46.61 47.78 38.22 40.75 48.14
45.78 46.18 46.69 46.85 47.35 47.35 46.96 46.71 46.85 46.92 48.47 50.47 51.60 54.18 55.63 52.50 54.49 56.03 55.64 52.81 53.82 52.65 49.02 51.65 50.29 51.22 52.21 46.50 47.35 47.27 43.79 45.91 44.56 44.65 41.55 39.69 40.10 36.84 41.13 34.34 32.43 47.51 46.49 41.54 47.51 49.80 49.16
45.92 46.27 46.50 46.98 47.12 46.94 47.44 47.48 47.80 48.46 49.30 51.03 48.39 53.84 56.33 55.03 55.48 59.02 57.88 58.69 57.90 57.42 55.63 53.53 53.20 51.74 52.24 49.92 50.34 50.60 40.33 40.85 44.41 41.11 47.61 41.82 45.58 43.76 42.85 42.48 48.87 49.43 48.06 49.98 50.68 49.03 49.51

GFSGBSN_sfc_wetblb_039.txt.gz
Wetbulb
56.40 57.21 57.45 57.67 58.20 58.41 60.85 60.43 59.53 58.74 58.19 57.81 57.48 57.40 57.50 57.16 57.42 56.99 56.36 55.37 55.23 55.46 55.68 55.59 55.78 55.59 51.80 49.74 52.10 59.64 62.44 61.59 57.24 54.14 50.92 50.91 49.83 48.59 43.94 44.57 45.09 43.90 46.25 52.81 54.69 53.83 52.28
55.57 56.08 56.46 56.48 57.38 58.08 58.53 60.64 59.64 58.59 58.13 57.72 57.36 57.07 56.97 57.02 57.08 56.71 56.46 55.39 54.96 55.03 55.68 55.97 55.30 55.05 49.97 46.61 56.21 62.37 59.89 56.93 55.23 51.38 51.93 52.21 50.64 49.95 46.75 46.38 45.73 47.47 47.41 51.76 51.98 52.93 53.00
55.10 55.39 55.76 56.18 56.22 57.44 57.69 58.34 59.39 58.80 58.32 57.88 57.44 56.83 56.57 56.41 56.41 56.28 56.34 55.61 55.07 55.03 55.76 55.59 54.86 52.91 50.42 48.84 55.64 53.83 58.82 55.26 53.44 52.31 50.69 53.82 52.36 50.13 49.50 47.18 51.25 49.31 45.37 49.38 49.48 51.25 50.25
55.31 55.26 55.52 55.43 55.86 56.14 56.88 56.92 58.47 58.93 58.32 57.94 57.62 56.93 56.18 55.55 55.43 55.41 55.47 55.11 54.86 55.29 55.66 55.29 54.47 51.48 48.33 58.61 56.11 56.22 55.20 55.66 54.77 54.21 54.24 54.23 54.95 52.12 49.10 50.05 49.11 44.82 44.31 41.09 46.86 51.16 51.38
54.87 55.01 54.96 55.03 55.22 55.97 56.14 56.39 57.13 58.46 58.59 57.90 57.50 56.73 55.92 54.96 54.76 55.02 54.82 54.88 54.88 55.47 55.15 54.61 50.57 50.14 49.85 60.64 55.76 56.72 55.82 55.54 56.35 55.89 54.72 55.98 53.38 49.54 49.17 43.41 40.92 42.07 37.23 40.61 44.16 50.74 49.58
53.44 54.27 54.44 54.61 54.48 55.41 56.13 56.41 56.24 57.44 58.06 57.75 57.05 56.53 55.84 54.93 54.76 54.60 54.24 54.64 55.07 53.76 53.35 54.16 53.73 47.89 52.59 53.01 56.09 55.77 55.64 55.81 54.77 54.03 53.37 51.96 48.20 44.87 43.87 40.39 34.08 38.10 39.39 39.02 41.61 46.42 47.56
52.82 53.25 54.47 54.02 54.39 55.08 56.05 56.61 55.85 56.58 57.20 57.34 56.97 56.47 55.92 54.93 55.27 54.38 52.54 51.27 48.94 48.78 50.15 49.56 50.56 50.07 52.10 55.27 56.14 53.64 54.97 53.16 53.34 51.09 45.01 49.46 42.62 39.38 42.50 44.66 46.00 45.37 42.18 41.15 43.04 45.50 45.99
51.50 52.32 53.86 54.19 53.75 54.52 55.49 55.83 55.66 55.05 56.98 57.22 56.76 56.21 55.58 55.30 54.94 54.19 51.21 49.71 53.13 52.80 48.47 54.46 53.88 53.18 54.27 55.44 51.38 52.75 53.81 48.92 49.06 45.45 48.07 45.33 41.05 46.99 48.49 47.76 46.73 45.32 42.53 41.00 44.85 45.58 44.97
52.01 52.26 53.34 53.23 53.27 53.74 53.88 55.18 54.92 54.72 55.80 56.62 56.48 55.98 55.36 54.78 54.16 52.11 50.70 51.25 55.63 54.23 47.79 52.22 54.95 53.67 51.65 53.75 50.49 50.30 51.31 49.66 47.85 45.88 46.05 41.81 46.00 49.98 48.17 46.12 44.88 44.11 42.80 42.79 42.26 43.21 41.71
51.50 51.18 50.77 52.50 53.66 53.24 53.04 53.58 54.59 55.05 54.89 55.91 55.85 55.25 54.37 53.61 49.99 51.79 50.47 55.10 54.72 52.93 42.80 47.27 51.18 52.03 52.18 52.77 48.91 53.69 52.71 49.72 48.64 45.60 46.66 45.65 49.46 48.11 46.24 45.41 45.52 40.94 46.05 46.08 45.24 41.48 35.12
50.40 51.29 51.03 51.41 51.94 52.44 52.34 52.47 53.50 54.82 54.44 55.45 55.27 54.70 53.43 53.27 50.98 51.20 55.42 58.86 54.93 54.48 31.21 48.89 49.42 54.98 52.71 49.63 50.09 50.10 53.15 49.43 46.12 46.41 46.43 44.30 46.14 45.10 43.79 45.87 47.63 43.44 47.29 45.50 44.96 41.15 39.84
50.13 50.19 50.96 50.70 51.50 51.71 52.04 51.90 52.38 53.60 53.90 54.87 54.85 54.30 53.40 52.55 51.56 52.02 54.47 55.33 56.90 43.85 33.47 46.17 49.93 47.62 47.28 48.61 48.71 50.00 49.60 51.19 50.40 46.71 46.46 45.83 49.55 47.59 46.99 48.62 47.90 48.38 46.34 45.30 43.76 40.45 33.43
49.18 49.32 49.73 50.12 50.29 51.40 51.69 51.86 52.11 53.09 53.36 54.28 54.51 53.97 53.09 54.65 49.92 55.57 54.34 53.53 41.93 35.35 46.81 44.06 44.47 47.37 46.06 45.40 46.44 47.05 45.52 43.77 40.79 38.66 38.92 44.89 45.59 48.62 49.98 44.96 47.50 45.69 40.61 33.07 30.82 31.08 30.82
48.57 48.47 48.59 48.78 49.84 50.28 50.83 51.63 51.40 52.25 52.81 53.68 53.71 53.02 53.04 53.71 54.45 55.46 55.31 48.32 36.89 41.73 43.10 48.39 46.52 46.41 43.40 45.58 45.23 45.45 43.78 40.37 44.03 42.42 39.66 37.82 37.03 45.95 49.16 46.06 44.01 43.42 41.81 34.12 27.83 29.03 31.55
47.92 47.74 47.89 48.17 47.63 49.80 50.42 50.95 51.02 51.87 52.37 53.26 53.16 52.35 51.61 52.08 53.90 54.21 51.27 40.95 37.84 43.81 45.50 45.97 45.19 42.27 41.83 44.74 44.98 43.50 41.62 40.85 43.26 43.94 37.75 38.53 39.52 47.99 49.04 48.86 46.79 44.26 39.41 44.44 37.72 35.39 30.62
47.52 47.49 46.98 47.51 47.94 48.53 50.23 50.79 50.72 51.61 52.51 52.93 51.28 50.50 49.80 53.41 55.25 52.65 46.93 40.80 44.21 48.53 49.19 47.82 41.49 43.22 39.30 41.95 41.97 41.39 41.43 44.79 44.61 46.04 47.40 43.92 37.43 45.19 47.47 49.17 47.73 44.61 45.33 36.97 36.32 28.32 27.35
46.95 46.70 46.81 46.47 47.03 48.02 49.44 50.27 50.81 51.58 52.45 52.86 50.89 46.70 51.25 54.70 54.53 48.73 40.45 42.21 45.90 50.63 50.17 46.96 44.10 42.58 43.07 42.02 42.30 40.96 42.24 45.19 46.38 48.04 48.63 45.42 42.49 41.97 45.85 43.38 41.06 42.19 40.07 40.81 40.23 37.04 29.00
45.98 45.88 46.11 46.29 46.22 47.56 48.56 49.88 50.37 51.55 52.14 51.57 49.45 41.67 52.12 55.59 43.23 42.94 41.06 44.72 47.10 48.58 51.14 49.54 48.09 47.09 43.80 44.30 43.48 41.65 42.04 47.51 47.95 48.43 44.35 46.55 42.17 37.07 40.60 46.83 47.22 44.99 43.66 42.92 31.24 32.63 33.54
45.33 45.38 45.64 45.78 46.01 47.28 47.92 48.72 50.17 50.57 51.63 49.39 45.62 46.43 52.95 52.78 36.34 38.43 42.83 44.85 47.71 47.79 47.91 48.12 47.21 48.15 48.14 43.51 42.82 43.70 45.73 50.42 50.55 48.01 45.27 46.43 40.10 31.95 35.76 42.06 45.36 42.28 43.58 43.59 42.89 37.75 33.65
45.01 44.98 45.35 45.25 44.26 46.92 47.06 47.13 49.49 49.98 51.39 50.33 46.57 40.76 48.12 49.51 44.13 41.65 39.92 41.78 43.54 49.94 48.93 49.66 48.08 48.60 46.24 43.98 45.98 43.71 44.52 49.00 49.94 48.18 45.70 47.87 43.03 37.74 31.40 37.19 42.10 39.54 42.48 42.83 40.22 29.90 32.06
44.54 44.35 43.49 42.50 45.70 46.63 46.86 46.77 48.33 49.65 50.64 49.75 46.69 42.75 47.34 41.60 42.39 42.09 43.18 43.18 43.90 44.38 49.41 49.54 47.17 46.52 44.77 41.30 42.70 42.56 45.78 46.23 48.81 46.37 46.59 45.26 37.99 39.62 40.82 42.95 44.39 43.19 42.19 42.33 39.26 39.67 33.45
44.19 44.16 43.79 43.12 45.16 45.66 46.60 46.97 47.01 49.13 49.91 46.75 44.13 43.84 47.68 46.63 46.41 43.77 42.43 42.57 43.83 46.24 47.27 45.82 45.46 46.61 45.62 43.53 44.24 42.06 45.90 44.94 43.95 45.47 44.35 45.64 37.93 39.12 37.21 43.29 41.93 39.02 41.62 41.57 41.02 41.68 39.88
44.33 44.40 44.99 45.21 45.40 46.21 46.73 47.02 46.75 48.60 49.17 44.95 45.87 47.84 47.69 44.15 44.26 42.35 41.49 44.61 45.42 48.03 48.49 49.36 47.71 46.33 45.41 48.00 49.51 48.97 49.27 48.53 48.12 44.84 42.46 42.65 39.80 34.40 31.43 37.00 36.61 29.12 37.22 39.88 41.24 42.21 40.68
44.26 44.90 45.40 45.43 45.59 46.20 46.45 46.70 46.58 48.28 48.93 48.33 46.24 48.05 45.86 40.29 44.28 43.10 44.72 45.66 47.26 47.48 46.58 49.18 49.29 46.67 50.26 52.52 51.05 49.64 48.03 47.92 49.59 48.47 48.14 42.26 40.22 33.82 28.94 29.52 20.94 37.36 43.31 42.71 40.74 41.02 40.94
44.86 45.21 45.50 45.69 45.94 45.96 46.16 46.42 46.63 48.23 49.35 47.82 48.78 47.59 48.12 35.40 45.01 44.62 44.56 46.56 48.60 49.70 48.07 49.87 51.52 52.03 52.78 50.21 42.65 39.02 36.34 35.80 40.72 45.80 44.71 46.59 38.37 32.17 26.96 27.16 34.35 38.56 41.25 40.58 38.30 37.49 42.11
45.02 45.50 45.92 45.61 45.77 45.75 46.15 46.70 47.23 48.54 49.69 48.90 47.77 49.49 49.79 44.96 43.18 47.77 44.46 47.54 45.40 45.25 45.23 49.02 52.14 52.33 52.04 46.80 36.51 33.08 30.88 37.01 36.70 39.52 44.57 43.65 41.76 30.78 29.40 25.29 20.43 35.86 41.74 45.02 43.26 31.74 43.31
44.59 45.38 45.16 46.61 46.22 46.22 46.78 47.18 48.01 48.00 48.57 46.97 46.32 49.36 48.83 46.96 49.48 48.42 44.46 45.57 49.65 47.05 44.37 47.76 48.50 46.99 49.77 34.68 34.78 30.86 30.92 42.15 33.76 33.01 31.36 31.09 31.75 27.65 25.14 23.56 31.34 43.05 44.15 45.19 30.47 33.05 43.53
45.43 45.17 45.82 46.22 46.20 46.58 46.92 47.38 47.70 47.76 48.09 46.43 44.73 48.61 49.87 47.80 49.22 51.45 51.58 49.65 49.64 47.96 42.78 47.47 47.28 44.69 42.24 36.18 35.27 32.78 31.37 35.25 36.16 41.33 36.29 33.15 31.33 26.33 31.74 27.97 26.38 44.41 43.21 36.51 41.41 43.20 44.01
45.31 45.47 46.03 46.31 46.47 46.70 47.17 47.39 47.57 47.65 47.76 47.57 43.95 50.00 52.63 47.94 49.56 55.70 54.79 54.80 53.53 52.69 49.72 48.37 48.71 46.73 47.07 42.11 40.00 36.86 36.22 33.85 34.56 29.96 42.99 33.89 39.04 34.43 36.00 34.16 43.05 43.68 43.36 45.50 45.73 44.23 44.39

GFSGBSN_sfc_wetblb_042.txt.gz
Wetbulb
55.83 55.86 56.71 57.12 57.61 57.83 58.65 59.44 59.93 58.68 58.10 57.72 57.42 57.22 57.57 57.56 57.39 57.02 56.28 56.05 55.77 55.55 55.25 55.54 56.01 55.94 51.15 48.37 49.69 57.82 61.99 62.13 55.37 52.43 48.93 48.56 47.92 47.12 43.90 43.82 44.21 42.59 44.49 49.30 52.54 52.16 50.40
55.95 55.77 55.97 56.18 56.56 56.96 57.94 58.10 58.41 59.14 58.25 57.76 57.27 56.95 56.95 57.08 57.00 56.49 56.22 55.89 55.75 55.43 55.31 55.58 55.88 55.12 49.59 43.58 55.07 60.62 56.88 54.32 53.33 50.58 49.28 49.22 49.10 49.63 45.97 45.51 44.53 47.30 47.67 50.22 51.43 51.28 51.19
55.67 55.91 55.50 55.58 56.31 56.49 56.76 57.02 57.06 58.63 58.88 58.05 57.52 56.89 56.61 56.73 56.27 55.92 55.67 55.65 55.17 55.25 55.23 55.74 55.28 52.45 48.98 44.71 53.85 53.04 57.41 52.97 52.76 50.72 48.75 51.45 51.78 48.64 48.24 46.44 49.54 48.66 46.70 48.77 49.86 49.16 48.50
55.84 55.50 55.80 55.34 55.36 55.71 55.65 55.82 56.67 57.17 58.82 58.47 57.95 56.99 56.12 55.73 55.21 54.82 54.74 54.76 54.68 55.15 55.29 55.52 54.62 50.17 45.81 56.33 55.13 55.38 52.80 53.79 53.75 51.89 51.45 52.90 52.30 50.59 48.42 48.62 47.30 44.15 46.12 40.47 47.05 49.13 50.38
53.79 54.91 55.15 55.04 55.04 55.26 55.52 55.50 56.24 56.61 57.52 58.23 57.83 56.99 55.98 55.11 54.60 54.21 54.52 54.50 54.58 55.35 55.47 54.99 49.17 48.89 47.31 58.33 55.48 57.54 55.10 53.38 53.79 52.37 51.51 54.36 51.91 48.08 47.96 42.65 39.77 40.19 35.54 38.93 43.92 49.17 48.54
52.99 53.57 53.65 54.64 54.51 54.68 54.90 55.48 55.78 56.04 56.46 57.60 57.86 57.02 56.02 55.31 54.23 53.79 53.74 54.05 54.25 53.65 53.27 53.55 52.32 45.22 50.55 50.67 55.22 54.68 54.38 54.50 53.05 51.92 51.50 49.78 46.03 43.02 42.48 39.68 34.19 37.28 38.58 37.74 38.75 45.35 46.02
53.71 52.97 53.20 53.09 54.49 54.45 55.02 55.22 55.86 55.59 55.90 57.02 57.48 57.34 56.10 55.19 54.35 54.25 51.86 50.20 48.77 48.86 48.91 46.95 46.51 46.38 50.07 54.44 55.64 53.38 53.69 52.04 52.24 50.17 43.57 48.13 41.79 38.24 41.53 42.61 42.84 42.73 41.81 40.52 41.48 45.48 45.17
53.28 53.49 52.02 52.62 54.18 54.33 54.48 54.92 55.15 55.27 54.85 56.32 57.10 56.92 56.06 55.31 54.46 53.95 50.59 46.80 50.53 50.01 45.07 51.78 52.11 51.90 54.59 54.27 49.12 52.01 52.78 47.36 48.02 43.86 46.57 45.25 39.80 45.35 47.25 46.90 44.54 44.40 42.52 40.29 42.25 44.80 45.15
52.34 52.61 52.86 52.88 53.51 54.31 54.25 53.97 54.61 54.64 54.50 54.86 56.44 56.66 55.80 54.44 53.73 51.21 48.70 49.04 53.78 53.06 45.91 50.40 53.31 52.60 53.78 53.95 48.42 49.51 50.56 49.10 46.45 44.28 44.28 40.49 44.27 48.67 47.21 45.09 43.40 42.77 40.34 40.20 40.26 42.09 40.49
51.62 51.60 52.13 52.49 51.97 53.46 53.77 53.70 53.37 54.44 54.29 54.15 55.25 55.87 54.60 53.36 49.24 50.23 49.19 53.85 54.14 51.91 41.33 45.17 49.05 52.65 51.79 50.18 47.24 52.57 51.50 50.55 46.49 43.61 44.72 42.97 47.45 46.78 45.20 44.46 44.59 38.42 44.48 44.43 43.24 39.74 34.07
50.91 50.76 51.14 51.83 51.44 50.98 52.33 52.19 52.80 53.37 54.44 54.17 54.48 55.45 53.63 52.98 49.59 49.28 53.21 53.83 52.51 52.51 26.50 46.73 49.81 55.41 50.97 48.03 48.28 48.51 51.98 49.03 44.65 44.71 44.83 41.83 43.88 43.56 43.15 44.06 46.70 42.05 45.79 43.78 43.32 39.63 36.91
50.58 50.61 50.38 51.23 51.36 50.53 50.97 51.82 51.83 52.13 53.46 53.80 53.83 54.81 53.34 52.17 50.72 50.46 53.07 52.80 55.06 42.72 30.25 45.30 48.69 45.90 45.56 47.14 47.50 47.89 47.85 49.13 49.62 45.76 44.61 43.71 47.43 46.09 45.62 47.74 47.23 47.25 44.52 42.88 41.67 38.71 31.92
49.18 50.31 50.25 50.06 50.37 50.92 50.72 50.19 51.75 51.37 52.43 53.23 53.47 54.47 53.26 53.44 48.03 53.25 54.07 52.39 39.59 34.51 45.67 43.10 43.51 45.32 44.38 43.64 44.96 45.27 44.00 42.18 39.81 37.23 37.60 42.49 43.67 46.54 49.34 44.60 46.59 44.72 39.44 30.66 28.68 29.20 28.77
48.26 49.02 49.93 49.42 49.92 50.25 50.54 50.32 50.57 51.00 51.88 52.71 52.74 53.00 53.29 53.03 51.10 52.90 53.47 47.44 35.09 39.91 41.53 47.28 45.13 44.47 41.46 43.74 43.47 44.05 41.56 39.18 41.57 41.36 38.07 35.94 35.38 44.84 46.87 44.32 42.13 41.20 39.13 31.42 27.14 26.55 31.07
47.38 48.12 49.48 49.02 49.26 49.55 49.62 50.32 49.61 50.64 51.20 51.89 52.54 52.67 52.09 52.59 51.38 52.89 49.09 39.38 35.69 41.58 44.32 43.54 43.83 40.65 40.50 43.40 43.31 42.18 40.19 39.57 41.95 41.81 36.76 36.88 38.16 46.03 47.82 48.10 45.84 42.16 37.50 42.07 35.31 32.67 28.07
47.59 47.87 49.49 48.72 48.41 48.74 49.01 48.89 49.66 50.66 50.81 51.83 49.48 50.25 50.52 52.73 52.50 50.75 45.55 38.70 41.83 47.58 47.76 46.23 39.71 41.74 37.72 40.18 39.72 39.83 39.43 42.65 42.20 44.20 44.34 41.84 35.99 43.20 46.82 47.08 46.38 43.82 43.68 36.00 34.86 27.79 26.62
47.42 47.46 48.82 48.35 47.71 47.67 48.18 48.34 49.48 49.59 50.75 51.83 48.42 44.87 51.22 54.29 52.86 45.75 38.72 39.62 44.07 48.61 49.39 45.82 43.11 41.12 41.14 40.05 40.27 38.76 40.31 43.33 44.40 44.68 46.05 43.46 39.35 38.73 44.40 41.87 40.70 40.13 38.36 38.73 38.21 33.64 27.79
46.54 47.11 47.77 47.66 47.62 47.66 47.84 48.12 47.92 49.27 50.12 49.39 46.60 40.26 51.45 54.04 42.20 40.87 39.76 42.83 45.09 46.62 49.48 47.71 47.46 45.02 41.82 41.79 40.25 39.60 40.19 42.97 47.05 47.14 42.80 44.73 40.11 34.29 40.48 44.93 46.38 42.20 40.64 39.95 29.40 30.99 31.75
46.24 46.77 47.31 47.41 47.03 46.73 47.13 47.69 47.72 48.79 49.82 45.73 42.74 44.62 51.52 50.93 37.01 35.53 41.16 43.58 44.71 45.26 46.42 46.43 45.65 46.79 45.84 41.67 38.93 42.12 43.59 47.86 48.90 45.60 43.21 44.33 38.01 31.21 34.79 40.06 43.54 41.32 41.57 42.14 40.67 35.11 31.71
45.91 46.51 46.91 47.01 46.71 46.72 46.74 47.16 47.47 48.73 49.68 46.64 43.89 38.99 45.96 47.33 42.95 38.35 37.62 39.75 40.90 46.47 45.32 46.93 46.67 47.48 44.47 42.14 44.05 41.83 43.64 47.09 48.51 47.04 45.47 46.14 40.08 35.84 30.54 35.33 39.49 37.56 40.77 41.49 38.45 29.57 31.12
45.70 46.73 46.36 45.95 46.10 46.59 46.70 46.92 47.45 48.22 49.56 46.78 44.12 40.21 42.59 38.62 40.56 40.16 39.95 40.67 39.51 40.01 46.56 47.98 45.24 45.39 43.95 39.78 40.84 40.38 44.35 44.86 46.85 45.34 45.43 43.36 37.26 38.50 39.35 40.88 41.67 40.34 40.38 40.59 37.91 37.29 32.34
46.05 46.07 45.53 45.37 45.44 45.95 46.03 47.26 47.79 48.23 49.51 44.01 40.87 40.83 43.89 41.85 43.52 40.19 39.88 38.63 38.81 40.83 43.12 43.15 43.95 45.79 44.70 41.72 41.74 40.52 43.72 42.54 41.87 43.79 42.41 43.36 36.10 36.12 34.35 39.50 38.85 36.85 39.05 38.62 39.37 39.20 38.51
46.10 45.69 45.13 45.10 45.49 45.79 45.29 46.48 47.01 47.40 48.85 42.49 45.22 45.88 44.79 41.60 41.67 39.37 39.14 39.48 40.27 42.27 45.06 46.09 46.50 45.34 42.94 44.81 46.51 45.82 47.15 46.78 46.01 42.78 41.05 40.76 37.93 32.26 30.74 34.60 34.55 28.93 35.55 38.42 39.25 39.91 39.95
45.74 45.39 45.03 44.77 44.62 44.45 45.32 46.57 46.67 46.88 47.52 47.02 45.64 44.96 43.33 38.27 41.94 40.95 41.79 42.34 41.55 42.94 41.39 47.41 47.85 45.66 47.61 50.36 48.60 47.09 45.30 47.13 47.14 45.54 45.74 39.20 36.99 30.93 27.46 27.82 21.37 36.89 41.35 41.14 38.07 38.28 38.95
45.07 44.94 44.82 44.70 44.45 44.79 45.78 45.79 46.30 46.46 46.96 45.63 47.67 45.38 44.90 35.32 42.65 43.95 43.63 42.60 43.49 44.97 45.47 45.75 48.77 49.83 51.67 47.72 41.05 37.40 35.32 36.42 39.74 43.37 43.57 45.15 35.96 30.86 26.12 26.36 32.57 37.30 39.22 37.80 36.58 35.47 39.85
44.40 44.41 44.65 44.50 44.50 45.03 45.05 45.55 46.07 46.39 46.82 46.25 45.47 48.66 46.29 42.14 40.04 45.97 44.14 43.99 40.68 41.76 43.36 46.31 50.65 50.83 51.45 43.41 35.41 31.87 30.40 35.35 35.58 37.88 42.27 40.77 38.67 32.68 27.92 23.70 20.78 34.06 39.83 42.79 41.52 30.68 41.49
43.95 44.19 44.45 44.79 45.19 45.17 45.26 45.55 46.03 46.42 46.53 46.32 45.18 48.21 44.90 43.66 46.82 47.27 43.63 42.42 45.27 43.55 42.45 46.08 46.94 46.01 47.01 33.89 32.68 30.13 31.19 39.39 32.11 31.58 30.03 30.25 30.51 27.17 22.87 22.72 28.45 38.83 42.20 42.88 30.02 31.21 41.80
44.15 44.32 44.43 45.01 45.07 45.05 45.15 45.48 46.00 46.52 46.85 46.27 45.70 49.11 44.84 42.97 46.52 49.53 48.27 43.73 45.44 46.72 41.69 44.78 44.53 43.84 40.72 35.62 34.08 31.85 28.28 34.41 33.85 37.66 34.20 32.35 29.14 24.89 28.70 23.11 25.12 42.85 41.34 36.15 38.02 41.28 42.32
44.51 44.75 45.29 45.32 45.29 45.43 45.52 45.50 45.92 46.58 47.00 47.78 43.50 48.41 49.20 43.85 46.55 49.15 50.02 51.23 50.48 50.82 47.55 45.76 45.27 45.25 45.78 41.42 36.76 35.53 32.03 29.94 32.43 30.49 40.64 32.55 35.20 32.00 33.78 32.40 40.71 42.21 42.04 43.14 43.99 42.90 43.01

GFSGBSN_sfc_wetblb_045.txt.gz
Wetbulb
55.99 56.03 56.65 56.58 56.92 57.68 57.14 58.25 58.37 59.18 58.69 58.04 57.66 57.52 57.75 57.76 57.80 57.20 56.28 55.84 55.82 56.06 55.68 55.34 55.79 55.77 50.64 46.00 45.87 55.10 61.55 62.24 57.05 50.66 47.21 46.37 46.29 45.04 42.25 42.70 42.25 40.53 42.38 47.99 51.33 51.16 50.08
55.93 56.12 55.98 55.82 56.31 55.95 56.04 56.90 57.86 57.68 58.78 58.34 57.63 57.28 57.05 57.32 57.30 56.83 56.06 55.57 55.25 55.47 55.55 55.33 55.75 54.88 47.86 40.76 51.40 57.77 55.47 53.11 51.44 48.62 47.34 47.74 48.08 48.30 45.39 44.25 42.89 45.63 47.84 49.16 49.65 49.85 50.13
54.50 55.51 55.62 55.66 55.51 56.07 56.12 56.30 56.94 56.71 57.24 58.50 58.12 57.31 57.03 56.91 56.79 56.28 55.80 55.07 54.91 54.99 55.37 55.27 55.28 52.03 47.60 43.69 54.42 51.44 54.22 52.17 52.14 49.90 47.38 49.93 50.04 47.44 47.43 45.03 47.50 47.19 46.25 47.74 48.25 48.46 46.66
53.81 55.10 55.54 55.14 55.32 55.29 55.52 55.42 55.57 56.63 56.68 57.62 58.54 57.64 56.64 56.16 55.64 55.17 54.85 54.50 54.60 54.93 55.31 55.17 54.08 49.02 44.97 53.62 53.35 55.43 52.08 52.37 53.21 51.90 49.04 51.02 50.93 48.48 47.03 47.68 46.05 42.27 43.93 41.40 46.96 47.95 49.05
54.02 53.93 54.54 54.59 54.65 54.87 54.94 55.09 55.30 55.74 56.37 56.49 57.34 57.38 56.56 55.51 54.89 54.60 54.03 54.36 54.54 55.07 55.27 54.83 48.08 47.67 45.59 55.75 53.22 56.49 54.04 52.13 52.55 51.25 49.90 52.79 50.08 46.03 46.31 42.00 38.62 38.78 37.77 37.77 43.89 48.19 46.72
53.39 54.22 54.11 53.87 54.14 54.42 54.42 54.63 54.95 55.05 55.49 55.72 56.38 57.02 56.74 55.71 54.76 53.69 53.41 53.85 54.17 53.38 52.98 53.17 51.61 41.97 47.18 48.21 53.35 54.03 53.60 53.43 51.50 50.24 49.70 48.55 44.69 41.72 40.65 38.79 33.09 35.08 35.29 35.02 40.06 43.97 45.69
53.70 54.13 53.34 54.00 54.03 54.03 54.58 54.42 54.49 54.85 55.19 55.67 56.26 56.96 56.78 55.90 54.82 53.95 51.71 49.20 46.38 47.25 48.40 45.65 43.98 42.81 46.78 52.53 53.74 51.71 52.52 50.83 51.31 48.85 42.18 46.36 40.93 37.55 40.08 41.01 41.34 40.66 39.28 39.17 41.36 44.41 45.20
53.26 53.28 53.67 54.08 53.61 53.75 53.88 54.45 53.73 54.25 55.19 54.99 55.25 56.54 56.78 55.98 54.64 53.91 50.22 45.16 47.10 48.25 42.78 49.83 50.35 49.85 52.07 53.64 49.52 50.54 51.51 46.61 46.86 42.45 44.93 42.56 38.42 43.85 45.60 45.02 43.05 41.43 40.18 38.55 42.51 43.79 44.14
52.43 52.48 52.52 53.21 53.74 53.20 53.28 54.27 53.49 53.64 54.26 54.62 54.27 55.71 56.44 55.31 53.81 51.61 48.56 48.16 52.53 50.93 41.19 47.27 51.04 50.49 51.61 53.16 49.08 48.35 49.15 47.84 44.63 42.96 43.09 39.23 41.87 46.62 45.31 42.95 41.78 40.31 39.13 40.89 40.15 41.83 41.33
50.79 51.42 51.96 52.37 52.81 53.01 52.83 53.30 53.77 53.22 53.54 53.77 53.58 54.23 55.22 53.52 49.65 49.55 48.45 52.69 52.21 50.42 38.43 42.79 48.47 51.05 52.62 51.16 45.43 51.19 50.15 49.21 44.74 42.49 43.10 41.33 44.83 45.14 43.17 42.32 42.64 37.12 43.19 42.57 41.22 38.52 34.41
49.51 50.13 51.34 51.90 51.78 51.61 51.75 51.84 53.08 53.25 52.73 53.58 53.42 53.73 54.52 53.41 48.75 48.02 52.09 51.99 51.54 50.31 23.12 42.62 48.34 54.62 50.19 45.94 46.68 47.40 50.20 48.40 43.70 43.37 43.37 40.42 42.56 42.24 41.17 42.67 44.93 40.84 43.59 42.10 41.01 38.41 35.60
49.08 49.23 50.33 51.34 51.12 51.12 51.23 51.06 51.59 52.19 52.36 52.71 53.32 53.42 54.16 52.20 50.33 49.67 52.01 53.09 52.61 37.14 25.76 41.99 48.67 46.30 43.72 45.30 45.63 46.17 47.08 48.25 47.80 44.49 42.63 41.14 45.40 44.01 43.21 46.25 45.36 45.53 42.68 41.02 39.54 36.70 30.27
48.87 48.88 49.36 49.97 50.97 50.81 50.68 50.87 50.60 51.28 51.74 51.86 52.85 53.20 53.32 53.62 47.23 51.81 53.51 53.25 40.09 31.04 42.45 41.82 42.80 43.65 41.87 41.46 42.99 43.81 42.52 40.60 39.48 36.31 35.95 40.45 41.85 44.38 47.08 42.10 45.47 42.47 37.74 30.03 27.81 27.59 28.06
49.05 48.64 48.52 48.84 49.76 50.70 50.49 50.71 50.32 50.20 51.30 51.30 51.59 51.94 53.20 53.74 50.98 50.39 54.01 47.31 33.24 38.08 39.34 46.11 44.04 42.37 39.65 42.13 41.93 42.40 40.06 37.69 39.84 39.89 36.12 34.93 32.98 42.40 45.84 42.84 40.59 39.85 38.27 30.40 25.86 24.86 28.48
49.40 48.79 48.37 48.42 49.36 50.53 50.01 50.21 50.49 49.77 50.72 50.83 51.29 49.99 51.18 53.36 52.43 49.52 49.19 38.60 34.56 39.03 44.61 40.95 42.27 38.58 38.33 41.34 41.46 40.70 38.66 37.84 40.25 41.03 36.11 34.51 35.52 43.73 45.65 46.01 44.90 40.02 36.13 39.77 33.15 31.02 27.38
49.52 49.00 48.31 47.82 48.40 48.92 49.56 49.53 50.07 49.93 49.96 50.39 45.60 46.26 47.64 53.83 53.46 48.06 42.99 38.98 40.91 45.44 47.60 45.46 37.93 40.22 36.55 38.62 38.78 38.51 37.91 41.32 40.91 42.47 42.58 40.25 34.46 41.97 44.23 45.52 45.00 42.18 42.71 33.81 33.01 26.92 25.67
49.36 48.95 48.34 47.68 47.42 48.55 49.16 49.08 49.61 49.89 49.91 50.27 44.75 40.81 47.56 53.38 52.76 43.04 35.43 38.66 42.62 47.12 47.72 44.17 41.82 40.03 40.04 38.49 39.22 37.08 39.06 41.63 42.75 42.11 42.72 41.69 38.13 37.09 42.37 40.25 39.75 39.21 37.21 37.15 36.71 32.33 26.85
49.24 48.57 48.06 47.45 47.17 47.86 48.78 48.76 48.72 49.51 49.45 48.16 40.67 36.19 50.04 52.17 42.54 41.33 35.46 40.71 43.90 44.90 47.73 46.23 45.72 44.37 42.13 40.33 38.39 38.37 38.56 41.58 43.77 44.94 40.66 42.69 37.77 32.75 37.96 42.61 43.88 41.49 39.50 37.71 29.39 29.80 29.93
49.08 48.41 47.87 47.38 47.32 48.03 48.39 48.21 48.37 48.34 49.12 45.80 38.43 40.52 50.94 49.68 37.45 37.50 39.87 39.94 43.77 43.88 43.79 43.83 43.87 45.39 44.69 40.15 36.92 39.28 40.05 45.49 47.08 43.95 41.72 42.99 36.06 29.99 33.99 38.28 41.08 39.45 40.23 40.74 37.81 33.19 30.46
48.99 48.11 47.48 47.15 47.16 48.32 47.97 47.93 47.97 47.81 48.97 46.44 40.76 35.64 43.84 45.99 43.64 39.06 37.71 38.31 39.46 45.71 43.68 44.56 44.50 46.10 43.20 41.05 41.82 39.60 41.43 45.47 46.47 45.74 45.53 44.22 38.17 35.01 31.27 34.56 39.05 35.74 39.17 39.21 37.63 28.90 30.82
48.90 47.98 47.07 46.83 47.14 48.10 47.38 47.41 47.63 47.31 47.73 45.98 40.78 37.14 41.21 37.92 38.99 40.14 39.60 38.75 38.46 39.47 43.79 44.59 41.16 43.17 42.55 38.57 39.01 39.32 42.46 43.03 44.73 43.83 43.54 42.77 36.21 36.70 37.22 38.18 39.20 38.59 38.77 38.84 36.36 35.93 31.85
48.64 47.46 46.64 46.44 47.37 47.62 47.11 46.94 47.06 47.31 47.35 43.04 37.30 39.91 41.29 39.41 41.67 39.77 39.70 36.95 37.91 40.63 41.82 40.56 40.54 44.33 43.02 40.90 41.48 39.57 42.00 40.85 41.35 42.03 41.41 41.81 34.75 35.79 33.92 37.79 37.84 36.26 38.57 38.02 37.90 37.49 36.76
47.93 47.18 46.40 46.35 46.74 47.02 46.82 46.69 46.85 46.97 46.28 41.64 41.91 44.60 42.03 40.36 38.83 38.10 37.23 37.96 38.52 41.73 42.80 44.04 43.99 43.82 41.95 44.03 45.60 45.30 45.51 44.84 44.29 42.18 39.19 38.82 35.92 31.14 29.51 33.14 32.99 28.64 34.42 37.33 37.70 38.54 38.63
47.41 46.83 46.16 46.00 46.65 46.60 46.44 46.19 46.35 46.62 45.61 44.37 42.87 44.88 41.78 34.70 39.12 37.64 39.13 40.09 39.34 40.92 39.37 43.30 43.81 41.25 46.24 48.67 46.75 45.52 44.65 44.92 44.65 43.36 43.17 37.41 34.59 30.17 26.80 28.00 21.43 35.87 39.50 39.20 37.12 36.22 36.81
46.60 46.14 46.23 46.51 46.38 46.22 45.85 45.83 46.11 46.54 46.53 42.28 44.46 44.51 42.61 33.04 39.47 40.98 39.70 39.64 41.17 42.37 40.95 41.69 44.41 46.50 49.08 46.13 40.07 36.84 34.27 36.23 37.63 41.47 42.38 41.76 34.07 29.14 26.85 26.64 31.29 35.46 36.81 36.96 35.32 33.40 38.11
45.77 45.70 46.29 46.03 45.54 45.34 45.61 45.48 45.93 46.78 46.75 44.18 44.14 47.21 44.92 39.92 39.13 43.70 40.64 41.53 38.63 38.47 38.76 41.46 46.28 49.68 47.82 42.20 34.34 32.16 31.77 35.13 34.08 36.13 40.54 37.97 36.71 32.40 26.21 24.19 22.21 34.29 38.53 40.82 40.02 29.49 39.81
45.77 45.76 45.53 45.49 45.20 44.82 45.15 45.30 45.42 46.49 46.60 44.42 44.78 47.98 45.64 39.33 43.20 45.04 41.86 40.76 43.37 39.90 38.34 40.95 45.15 44.94 47.18 35.57 30.95 30.77 30.39 38.46 31.69 31.59 30.00 29.96 29.66 28.90 23.00 22.84 29.14 36.91 40.55 41.12 30.29 31.33 40.33
45.19 44.85 44.85 44.72 44.29 44.15 44.49 45.44 45.96 46.30 46.81 44.41 44.05 47.84 44.75 40.19 42.92 46.17 46.30 43.01 43.51 42.69 38.58 42.63 44.22 43.38 37.75 35.10 34.34 32.84 29.38 34.50 32.57 35.66 33.23 33.26 29.48 24.69 25.14 20.95 25.68 40.10 39.26 34.49 36.78 38.95 40.88
44.10 44.37 44.34 44.08 43.98 44.44 45.11 45.44 45.77 46.10 46.56 45.89 41.96 47.97 49.30 42.83 43.16 46.51 46.00 46.37 46.03 46.91 44.40 44.45 43.81 43.91 43.97 39.46 36.70 35.52 31.52 28.84 32.45 29.35 38.02 32.59 35.51 32.51 33.41 31.98 38.81 40.70 39.70 40.74 41.56 41.53 41.29

GFSGBSN_sfc_wetblb_048.txt.gz
Wetbulb
55.65 55.56 56.28 55.92 55.75 56.22 56.27 57.03 57.18 57.45 57.57 58.57 58.26 58.09 58.24 58.17 58.21 57.27 56.44 55.69 55.59 55.59 55.87 55.87 55.78 55.88 50.55 43.36 43.45 52.60 61.55 61.44 55.86 50.72 45.81 45.74 44.68 43.76 40.57 41.50 40.72 38.59 41.35 45.98 49.02 49.56 48.75
54.68 55.23 55.67 55.71 55.86 55.13 54.89 55.81 56.13 56.28 56.82 57.50 58.31 57.97 57.64 57.59 57.53 57.11 56.40 55.46 54.98 55.14 55.48 55.46 55.61 54.97 47.33 38.69 48.05 55.30 55.02 51.72 50.14 47.47 46.34 46.57 46.70 46.97 44.12 43.13 41.02 45.66 47.33 47.50 49.80 49.41 49.15
54.49 54.40 54.82 54.82 55.46 55.32 55.46 55.34 55.59 55.51 56.18 56.66 57.32 57.97 57.63 57.56 57.18 56.70 56.03 55.22 54.55 54.93 55.16 55.30 55.31 51.99 46.77 41.95 54.01 50.49 52.16 50.72 50.94 49.51 45.91 47.88 48.57 45.87 46.03 43.19 46.20 45.78 44.85 47.42 47.87 47.94 47.36
54.04 54.26 54.32 54.33 54.51 54.79 54.79 54.82 55.07 55.25 55.31 56.08 56.80 57.21 57.13 56.89 56.41 55.76 55.18 54.55 54.29 54.98 55.28 55.20 54.21 48.76 43.57 51.52 51.77 53.81 52.27 52.39 51.79 50.87 48.17 48.68 49.46 46.68 44.64 46.13 44.91 42.24 43.22 40.23 46.51 46.51 46.20
54.01 54.42 54.36 53.91 54.08 54.10 54.22 54.36 54.58 55.01 55.17 55.41 55.81 55.79 56.15 56.15 55.74 55.14 54.59 54.23 54.31 54.96 54.87 54.77 48.46 46.62 42.63 53.55 49.70 53.39 54.27 51.43 51.03 50.24 48.93 51.42 48.46 44.51 44.52 40.30 37.69 37.80 33.54 37.05 43.22 47.08 45.04
54.14 54.03 54.04 53.61 53.45 53.84 53.88 54.11 53.61 54.08 54.43 54.39 55.12 55.68 55.78 55.86 55.57 54.41 53.50 53.84 53.86 53.12 53.16 53.19 51.29 42.36 44.25 46.33 51.28 52.55 52.99 52.15 50.08 48.87 47.58 47.31 43.65 40.52 39.60 37.24 32.62 34.94 35.74 36.93 40.28 42.50 45.73
52.37 53.55 53.83 53.88 53.48 53.90 53.55 53.85 53.57 52.87 53.83 54.45 54.85 55.52 55.74 56.05 55.99 54.29 51.80 49.16 45.10 46.30 48.82 45.84 44.37 41.11 44.06 51.08 53.69 49.81 51.09 50.26 49.89 47.12 41.10 44.79 40.11 36.24 39.34 40.32 40.07 38.83 38.11 37.54 38.21 43.15 43.36
51.83 51.82 52.08 53.69 53.62 53.76 53.43 53.60 53.33 53.55 53.44 54.26 54.73 54.85 55.28 56.33 55.82 53.90 49.68 44.70 46.75 48.02 43.13 48.01 48.63 47.40 49.96 52.17 48.98 50.34 50.68 46.23 45.43 41.23 43.55 41.69 37.72 42.16 43.02 43.02 41.33 39.60 37.82 37.23 41.55 42.82 41.76
50.92 51.01 51.53 51.56 53.29 53.26 53.50 53.59 52.97 53.07 53.10 53.14 53.90 54.16 54.39 55.83 54.17 51.91 47.92 47.15 52.57 51.58 41.69 44.51 48.78 48.24 49.60 51.84 47.72 48.00 48.05 46.05 43.17 41.49 41.83 38.12 40.67 45.14 43.61 41.15 40.01 38.48 37.38 37.61 38.17 40.70 40.34
50.35 50.07 50.12 51.24 51.76 53.12 52.85 53.05 52.69 52.64 52.91 51.84 52.93 53.32 53.02 54.61 50.63 48.96 47.13 52.67 52.79 51.20 36.40 40.95 46.17 49.20 51.13 51.22 45.76 51.54 48.84 47.88 43.42 41.41 41.81 40.61 43.24 43.50 41.50 40.74 41.04 35.61 41.45 40.93 39.69 37.66 32.31
50.25 49.86 49.84 50.03 51.01 51.67 51.85 51.59 52.37 52.25 52.80 52.35 52.05 53.08 52.88 53.61 48.91 48.01 51.07 51.82 53.05 49.67 23.01 41.03 47.06 53.54 51.01 45.73 45.54 46.10 49.22 47.52 42.48 42.34 41.57 39.30 40.46 40.66 40.10 41.17 43.17 39.72 42.34 40.45 39.51 35.86 33.70
50.32 50.04 49.93 49.69 49.71 50.16 51.21 51.11 51.34 51.51 52.20 52.47 51.89 52.67 52.76 53.30 51.62 49.46 52.50 52.81 51.29 36.79 24.91 38.72 47.01 44.59 43.25 43.52 43.97 44.68 45.47 48.26 46.38 43.28 41.16 40.02 43.66 42.55 42.14 43.96 44.11 44.17 40.96 38.91 37.38 35.26 29.65
50.14 49.98 49.83 49.67 49.11 49.60 50.79 51.16 50.63 50.82 50.88 51.77 51.69 52.17 52.44 54.15 49.54 50.57 52.71 50.90 40.25 29.74 40.45 39.34 42.55 43.36 40.45 39.78 41.48 42.30 40.88 40.50 38.48 34.86 34.44 38.52 40.27 43.06 45.47 40.67 42.60 40.03 36.52 29.03 26.94 27.35 28.00
49.71 49.89 49.74 49.70 49.33 49.16 49.94 50.98 50.48 50.51 50.55 50.99 50.99 50.85 51.10 52.70 52.87 50.22 51.73 45.68 33.21 37.09 37.38 44.31 43.07 41.40 38.14 40.39 40.24 40.94 38.85 36.69 38.02 38.49 34.40 33.56 31.72 40.57 43.92 41.76 39.19 38.13 36.98 29.52 25.29 24.40 28.44
49.84 49.67 49.85 49.63 49.37 49.03 49.53 50.00 50.46 50.13 49.86 50.59 50.68 47.14 46.67 49.51 53.73 50.52 46.66 37.25 36.17 37.44 42.50 40.71 41.40 37.57 36.77 39.66 39.87 39.36 37.46 36.77 39.14 40.47 35.42 33.20 34.27 41.92 43.87 44.06 42.24 38.23 34.92 38.51 31.94 30.56 26.99
49.74 49.76 49.56 49.46 49.10 48.89 48.65 49.22 50.05 50.07 50.00 50.04 46.94 45.20 43.05 51.47 54.02 48.81 41.35 37.17 39.43 43.33 45.75 44.73 36.38 38.76 34.94 37.02 37.64 37.20 36.71 39.85 39.42 41.42 41.36 38.57 32.82 40.09 42.62 44.32 43.13 40.49 41.66 33.00 31.51 26.59 25.31
49.35 49.35 49.65 49.49 49.04 48.50 48.23 48.57 49.52 49.87 49.65 50.00 45.56 39.60 42.66 52.25 52.64 45.38 36.39 37.13 41.39 46.14 45.93 42.54 41.03 39.50 38.66 37.05 38.00 36.02 37.50 39.95 41.51 39.90 41.24 39.51 36.54 34.95 40.47 39.15 38.55 37.88 35.76 35.39 34.99 30.67 26.42
48.82 48.82 49.17 49.43 48.97 48.52 48.04 48.30 49.28 49.37 49.18 47.24 42.98 32.75 46.00 51.93 40.57 41.50 37.43 38.78 42.56 44.54 45.65 43.82 44.31 43.16 41.60 39.56 37.33 37.02 37.82 40.61 42.47 42.57 38.81 40.96 36.31 30.77 36.43 40.46 42.11 39.42 38.18 36.81 29.79 29.24 29.40
49.06 48.60 48.69 49.20 48.90 48.20 47.88 48.34 48.74 49.31 48.88 43.99 38.54 37.30 49.49 48.13 33.51 35.21 39.66 40.30 41.44 42.59 42.54 42.79 42.25 44.09 44.09 39.64 35.05 38.42 38.73 42.89 43.63 42.02 39.99 41.42 34.15 28.66 32.03 36.42 39.22 37.41 39.15 38.58 35.56 31.91 29.35
48.89 48.59 48.46 49.15 48.88 48.13 47.64 48.02 48.56 48.82 48.87 45.08 39.27 31.40 42.10 43.58 41.08 36.82 36.88 38.04 36.77 43.65 42.61 43.45 42.75 44.28 42.37 40.17 40.19 37.17 38.79 42.94 45.26 43.21 45.06 43.91 36.45 33.22 30.38 32.95 36.67 34.58 37.24 38.10 36.33 28.58 30.08
48.07 48.32 48.08 48.90 48.51 47.95 47.47 47.89 48.43 48.21 48.80 45.17 39.75 33.23 39.37 34.38 35.67 37.25 38.36 38.40 36.64 36.45 42.84 43.53 40.46 41.83 40.80 37.63 37.66 36.86 40.99 42.34 42.90 44.39 42.54 41.50 34.81 35.31 35.35 36.43 37.99 37.35 37.27 36.45 35.18 34.97 31.94
48.01 47.98 48.02 48.72 48.33 47.71 47.19 47.35 47.71 47.53 48.21 42.16 36.19 35.81 39.68 38.41 37.53 36.41 37.91 36.58 36.66 37.97 40.44 39.22 39.09 41.08 42.29 39.35 40.55 37.94 41.64 39.85 40.02 40.63 40.33 40.05 34.68 33.35 33.08 35.92 35.81 34.85 36.41 36.95 35.94 35.17 34.81
47.89 47.87 48.04 48.52 48.05 47.66 47.24 47.16 47.49 47.02 47.10 40.73 42.08 40.56 39.50 38.83 37.03 34.42 34.75 36.63 37.31 40.12 41.33 43.54 42.12 41.03 39.87 42.05 44.87 45.41 44.92 43.80 42.14 39.70 38.60 38.09 34.69 30.79 29.97 32.27 32.71 28.36 34.50 36.30 36.22 36.86 37.32
48.03 47.79 48.29 48.45 47.72 47.39 47.37 47.18 46.89 46.93 46.75 43.88 43.04 40.30 37.87 32.81 37.00 35.76 36.50 38.67 37.92 39.74 38.34 42.51 43.83 41.08 43.91 48.53 46.44 45.44 43.45 43.00 42.62 41.93 41.86 35.74 33.41 30.01 26.14 27.38 21.49 34.86 37.75 37.84 36.80 36.70 36.57
47.81 47.71 47.96 47.76 47.24 46.93 47.13 47.00 46.11 46.22 46.65 42.36 44.91 41.64 40.48 32.00 37.68 38.37 38.34 37.55 39.54 40.78 39.99 41.03 43.76 45.82 46.45 45.72 40.39 36.85 34.39 35.02 36.42 40.33 40.11 39.08 33.29 28.92 27.04 26.31 30.90 33.88 35.95 35.84 34.94 34.31 37.21
46.83 47.52 48.04 47.11 46.71 46.65 46.72 46.18 45.75 46.49 46.61 42.58 42.33 43.55 42.82 38.63 36.08 40.80 38.67 39.57 36.35 36.93 36.59 39.96 44.69 46.08 46.34 40.60 35.95 32.34 30.37 34.88 33.90 35.62 38.90 37.36 35.10 31.86 25.40 23.50 21.66 33.16 37.93 39.29 38.48 29.66 38.06
46.81 47.72 47.22 46.92 46.71 46.46 46.46 46.07 45.94 46.48 46.90 42.54 42.08 45.62 42.97 38.71 43.19 41.96 38.96 38.23 40.50 38.31 35.75 37.75 41.15 42.95 44.39 31.03 29.53 32.22 32.99 37.31 31.11 32.24 31.09 30.54 29.24 26.86 21.49 22.72 29.41 37.28 38.78 39.48 29.67 31.37 38.53
47.07 46.73 46.46 46.16 46.27 46.12 46.02 45.62 45.69 46.08 46.77 43.32 40.75 44.20 43.02 39.94 41.82 45.30 43.67 40.80 41.21 40.82 34.46 37.97 38.44 40.63 37.07 34.27 34.18 33.91 28.12 33.82 32.77 35.37 34.49 33.86 29.61 25.35 24.72 21.98 27.33 38.80 37.89 34.24 36.84 37.41 39.11
45.70 45.43 45.33 45.83 45.60 45.60 45.58 45.48 45.60 45.79 46.15 44.96 39.75 43.79 44.40 42.70 42.31 45.30 44.72 45.13 43.64 44.43 41.86 40.71 39.82 40.78 41.62 38.71 34.49 31.75 29.35 26.87 32.32 30.54 36.64 32.97 36.08 32.90 33.99 33.58 39.01 39.10 37.82 39.12 39.59 39.38 39.47

GFSGBSN_sfc_wetblb_051.txt.gz
Wetbulb
55.19 54.73 54.97 54.80 55.55 54.96 54.94 54.45 55.40 56.04 56.19 56.43 56.85 58.10 58.94 58.94 58.81 57.92 56.87 56.12 56.00 55.90 55.64 55.93 55.93 56.05 52.02 45.28 45.22 56.89 62.32 61.40 56.68 53.74 48.92 48.73 47.95 47.84 45.57 46.07 45.35 43.29 44.36 47.22 49.67 51.34 51.85
54.52 54.26 54.80 54.31 54.46 54.67 55.12 55.59 55.25 55.45 55.48 55.48 56.33 56.83 58.00 58.50 58.33 57.79 57.01 56.02 55.51 55.29 55.33 55.74 55.85 55.22 48.91 41.04 52.07 57.46 56.91 53.95 52.92 50.97 49.17 49.53 49.69 50.13 48.08 46.95 45.57 47.19 50.35 50.47 51.21 51.30 51.62
54.72 54.87 54.42 54.92 53.98 53.53 54.11 54.79 54.97 54.86 55.13 54.99 55.66 56.40 56.87 57.73 57.96 57.42 56.90 55.94 55.25 55.15 55.39 55.52 55.53 52.07 47.51 44.51 54.79 53.09 52.88 53.19 52.17 51.80 49.08 49.99 51.23 49.75 49.37 46.84 48.80 48.25 48.38 50.47 50.76 50.71 49.85
54.66 54.63 54.59 54.43 54.43 54.07 53.87 53.21 54.57 54.00 54.65 54.91 55.11 55.52 55.47 56.00 56.56 56.68 56.34 55.41 54.85 54.97 55.39 55.40 54.30 50.80 44.90 52.14 53.97 54.04 54.86 54.38 53.66 52.89 50.62 51.46 52.16 50.20 48.53 49.67 47.43 46.34 46.59 44.59 49.40 50.21 49.08
53.56 53.20 54.64 54.18 53.94 53.55 53.55 53.42 53.69 53.93 54.10 54.40 54.60 54.46 54.76 54.89 55.19 55.61 55.56 54.87 54.74 55.05 55.03 54.89 50.35 49.76 43.75 53.45 49.63 53.01 55.22 53.45 52.27 52.28 51.77 51.80 51.63 48.40 48.45 45.19 43.14 42.76 40.70 41.76 45.90 50.35 48.14
51.46 52.80 53.46 53.81 53.68 53.66 53.35 53.52 53.11 53.45 53.52 53.69 53.82 53.91 54.31 54.85 54.89 55.10 54.17 53.87 54.15 53.43 53.56 53.51 51.61 45.45 47.42 47.26 52.25 54.46 55.29 54.00 52.27 50.77 50.11 50.37 48.08 46.28 45.27 43.72 37.68 39.89 40.46 41.56 42.84 47.11 47.83
50.80 51.03 52.49 53.13 53.05 53.89 53.13 53.56 53.28 52.98 53.21 53.23 53.50 54.05 54.48 54.70 55.03 55.13 52.96 50.34 46.15 46.81 49.59 47.55 47.02 45.23 44.21 51.10 54.94 52.50 53.35 52.53 52.45 50.46 45.99 48.11 45.58 42.31 44.36 44.18 43.67 42.61 41.62 40.88 42.86 46.96 45.59
51.63 51.81 52.11 52.20 52.40 52.83 53.97 52.52 53.32 52.84 52.97 53.34 53.03 53.41 54.07 54.54 55.65 54.06 52.18 47.35 46.91 48.88 43.85 49.38 48.91 48.46 49.90 52.77 49.05 51.98 52.74 49.37 48.55 44.42 47.06 45.67 42.74 45.82 45.53 45.26 43.98 43.17 41.71 41.28 43.53 45.14 44.81
51.39 51.32 51.63 51.55 51.61 52.12 52.37 53.74 52.87 52.78 52.55 52.82 52.59 52.57 53.27 53.32 54.47 52.70 50.78 48.60 52.73 52.69 44.29 45.92 48.16 47.87 49.20 51.25 48.04 49.17 50.33 48.78 46.05 43.80 44.74 42.77 44.52 46.02 45.66 44.65 42.88 42.86 41.71 41.40 41.40 44.22 44.51
51.29 51.02 51.00 51.29 51.40 51.16 51.89 52.46 52.70 52.43 52.30 52.15 52.19 51.64 52.41 53.30 50.67 50.25 48.20 52.46 53.30 52.85 37.97 40.52 44.65 48.54 50.95 51.47 47.28 52.80 50.28 50.12 46.59 43.85 44.20 44.09 45.99 44.89 44.61 43.35 44.06 40.25 44.20 43.48 42.30 41.81 38.59
50.38 50.91 51.00 50.98 50.80 50.32 50.10 51.12 52.18 52.16 52.38 51.71 51.92 51.39 52.20 53.36 49.36 47.93 50.69 53.30 53.69 50.70 26.93 42.35 46.55 53.83 51.52 47.36 47.54 48.19 50.30 49.87 44.89 44.16 45.06 43.03 43.36 43.55 42.81 43.78 45.15 43.13 44.83 43.77 43.06 41.20 40.37
50.22 50.49 50.89 50.87 50.39 49.98 49.68 50.11 51.14 51.64 51.58 51.42 51.65 51.67 51.65 51.60 52.38 51.28 53.13 53.96 52.63 39.37 27.29 38.71 46.75 45.31 45.63 45.76 45.55 46.51 47.68 50.31 48.72 45.49 44.93 43.77 47.15 45.83 45.81 45.95 46.00 46.18 43.93 42.02 41.20 40.29 34.88
50.18 50.08 50.11 50.20 50.25 50.14 49.88 49.72 50.41 50.84 50.93 51.19 51.33 51.76 51.17 53.50 48.47 51.78 53.45 51.75 39.26 32.07 41.39 38.59 42.58 43.77 43.16 41.70 42.92 44.04 43.14 43.45 42.25 38.75 38.96 42.07 43.51 46.47 47.34 44.48 45.88 44.32 40.97 35.56 33.91 33.79 33.31
50.17 50.13 50.02 50.06 50.06 50.13 49.92 49.52 49.47 50.12 50.60 50.65 50.52 50.93 50.87 50.55 53.42 52.32 52.52 43.85 32.65 37.08 37.61 43.63 43.21 42.44 39.60 41.52 41.95 42.42 41.06 40.30 42.11 41.40 37.83 37.36 35.53 43.47 46.39 45.41 43.43 42.22 41.70 36.25 28.99 30.56 34.02
50.27 50.12 49.92 49.98 49.86 50.02 49.96 49.61 49.09 49.72 50.17 50.15 50.14 48.83 47.97 49.22 52.79 52.29 46.43 35.62 34.59 38.09 42.06 41.03 41.91 38.71 38.45 40.58 41.85 41.63 40.29 40.87 42.53 43.27 39.22 36.45 37.11 44.32 45.80 46.88 46.46 41.99 39.71 42.61 35.69 34.00 34.01
50.29 50.20 50.00 49.67 49.76 49.76 49.68 49.47 49.16 49.60 50.33 49.84 45.57 45.07 44.40 49.15 52.32 49.11 41.53 36.63 39.63 43.44 45.59 45.28 37.90 40.39 36.41 38.10 39.03 39.96 38.38 41.65 41.44 44.23 46.06 42.16 36.98 43.01 45.20 47.32 45.92 43.69 44.64 37.94 37.09 30.42 28.73
49.38 49.74 50.07 49.72 49.20 49.36 49.48 49.36 48.96 49.57 49.88 49.47 44.02 39.25 44.48 49.60 51.08 44.11 34.84 36.23 41.11 44.93 46.56 42.99 41.47 40.96 39.64 38.08 39.68 38.04 38.89 42.12 43.41 41.89 44.52 42.57 41.41 39.09 43.91 42.72 42.12 41.65 40.21 38.82 39.44 36.42 32.33
47.73 48.26 48.90 49.41 49.34 49.16 49.28 49.34 48.76 49.31 49.54 47.59 41.70 32.61 43.96 48.92 37.79 38.96 35.40 39.53 42.41 42.85 46.35 44.86 45.38 43.59 42.68 40.93 38.38 38.61 38.97 42.54 43.66 44.19 41.32 44.53 41.13 35.81 39.83 43.37 45.00 43.94 42.48 41.51 37.07 34.05 34.45
47.33 47.47 47.92 48.64 49.35 48.98 49.03 49.05 48.60 49.03 49.23 44.49 36.99 37.64 45.57 45.79 31.86 33.94 38.50 38.91 41.84 41.98 42.69 43.47 42.94 44.49 45.54 42.23 37.62 39.85 40.53 44.91 43.72 43.71 43.10 43.67 38.33 34.28 36.15 40.02 43.34 41.91 41.80 40.85 38.98 37.34 33.62
47.26 47.32 47.41 47.89 48.97 49.10 49.17 48.84 48.34 48.58 48.87 44.94 38.49 31.80 39.75 41.06 40.28 36.08 35.70 36.23 37.22 42.74 42.20 44.46 43.61 45.05 43.89 41.53 42.63 40.59 40.41 44.22 44.30 44.81 44.49 45.59 39.33 37.89 34.24 37.52 40.77 38.73 40.26 40.75 40.93 35.65 36.50
47.05 47.23 47.23 47.41 48.28 48.84 49.08 48.72 48.31 48.33 48.58 44.34 39.00 34.36 39.09 32.24 33.86 35.28 37.71 37.07 35.89 36.57 41.87 43.77 41.55 42.19 42.10 38.55 40.29 38.83 42.84 44.44 45.24 45.25 44.90 45.45 38.61 38.47 38.54 39.19 40.40 40.83 40.66 39.71 39.31 40.23 37.73
46.90 46.67 46.98 47.25 47.78 48.80 49.11 48.41 47.78 48.11 48.28 41.39 35.73 35.34 38.32 38.13 36.77 34.83 36.29 35.68 35.67 37.64 39.28 38.88 39.84 41.90 42.57 40.24 41.67 40.00 42.42 43.29 42.37 43.16 43.11 42.85 39.12 38.49 36.67 38.82 39.34 38.54 39.96 40.27 39.97 39.59 38.98
46.41 46.59 46.85 47.14 47.78 48.39 49.14 47.88 47.75 47.84 47.66 40.59 42.50 40.78 38.41 37.81 35.64 33.15 33.80 36.07 37.41 40.04 40.59 42.70 42.15 41.56 40.51 42.72 45.47 45.85 46.05 45.98 45.95 43.81 41.10 40.20 38.02 35.92 34.13 35.84 36.93 33.27 37.99 39.75 40.35 41.24 42.17
47.20 47.05 46.93 47.28 48.04 48.56 48.60 47.72 47.46 47.74 47.26 43.75 42.90 40.72 36.94 32.17 34.87 33.69 34.92 37.48 38.08 39.85 37.99 41.88 43.70 40.86 44.32 49.33 49.21 47.53 45.53 44.17 44.15 43.84 44.85 39.15 37.89 35.39 32.37 31.86 28.87 40.25 41.33 42.04 41.17 41.19 41.87
46.79 46.41 47.18 47.46 47.65 48.42 47.72 47.29 47.35 47.35 46.97 44.44 43.72 40.91 38.81 31.93 36.77 36.33 36.15 35.92 39.55 41.61 40.02 40.86 43.94 46.22 46.90 45.71 40.64 38.12 37.81 38.05 39.23 41.27 41.62 42.24 37.09 32.89 32.47 32.40 35.65 38.04 39.56 40.21 39.59 41.05 42.48
45.57 46.10 47.46 46.92 47.05 47.77 47.08 47.12 47.23 47.49 47.21 44.59 44.10 43.79 42.28 35.53 34.78 40.05 37.60 37.56 36.25 37.28 37.99 40.62 46.01 47.77 46.58 40.64 36.43 32.36 33.03 36.34 36.02 37.51 40.25 37.60 38.38 38.48 30.38 30.79 29.47 39.08 41.88 42.40 42.94 35.93 42.52
46.53 47.22 46.80 46.88 47.50 47.16 46.73 46.71 46.94 47.23 47.48 44.37 43.37 46.38 42.43 37.75 41.33 40.89 38.66 37.50 40.54 39.11 36.99 39.59 41.83 42.42 45.36 35.00 33.64 32.77 33.65 40.23 35.35 33.66 34.44 34.17 33.59 33.55 29.87 33.37 35.41 40.27 41.71 43.27 35.99 39.47 42.65
46.94 46.57 45.82 46.82 47.05 46.84 46.63 46.46 46.63 46.83 46.98 44.25 41.66 45.66 43.15 38.79 40.39 42.49 43.00 40.86 40.79 40.39 35.73 38.92 40.29 40.81 39.02 34.17 34.38 34.64 33.67 37.31 37.02 37.65 36.48 36.16 34.01 32.83 31.90 32.43 32.21 42.04 40.10 39.01 44.44 42.53 43.40
46.38 46.56 47.11 46.84 46.63 46.38 46.41 46.46 46.70 46.55 46.60 44.64 39.00 44.49 44.77 39.74 40.94 45.59 45.30 45.84 44.73 45.32 41.73 41.74 40.07 40.43 41.61 39.10 37.29 36.67 34.99 34.15 37.14 34.73 38.92 35.69 39.13 37.63 38.59 39.03 44.56 42.71 45.37 44.54 44.06 44.67 43.16

GFSGBSN_sfc_wetblb_054.txt.gz
Wetbulb
55.03 55.12 54.85 54.92 55.09 55.12 54.94 55.65 55.21 54.71 55.14 55.56 55.64 56.11 57.06 58.36 59.52 58.61 57.63 57.00 56.74 56.71 56.22 55.96 56.24 56.69 55.53 50.17 49.23 58.02 62.69 62.29 59.94 57.04 53.21 51.07 49.83 50.65 48.48 49.38 50.30 48.43 49.83 52.72 52.06 52.63 53.63
55.74 55.20 55.01 54.81 54.94 54.66 54.14 54.93 55.05 54.70 54.62 55.21 55.02 55.35 56.56 57.56 58.29 58.32 57.95 56.98 56.45 56.23 56.03 55.74 56.10 56.00 52.48 45.90 53.67 60.35 60.36 58.32 56.71 55.59 52.31 52.31 52.68 53.55 51.23 50.27 49.69 50.66 52.92 54.30 53.79 54.10 55.10
53.63 54.74 55.54 54.62 54.34 54.66 54.53 54.08 54.14 54.22 53.99 54.53 54.95 55.02 55.51 56.36 56.80 57.06 57.43 56.89 56.39 56.01 55.97 55.76 55.79 54.66 50.62 49.75 56.47 60.04 57.50 56.30 56.91 55.00 51.66 53.51 54.30 53.07 52.87 49.93 52.06 51.23 50.70 53.71 54.27 54.64 53.44
52.58 53.41 53.69 54.81 54.59 54.20 53.93 53.93 53.68 54.10 54.45 54.22 54.43 54.52 54.06 54.04 54.92 55.39 56.03 56.29 56.05 56.01 55.83 55.62 55.34 54.16 48.92 54.80 56.76 56.46 58.07 56.83 57.70 56.91 54.26 54.88 55.25 53.80 52.35 53.43 51.23 49.02 51.37 45.95 53.45 54.32 52.81
51.68 52.04 52.67 53.57 53.54 54.46 53.72 53.60 53.33 53.57 53.95 53.90 53.86 53.60 53.53 53.59 54.33 54.72 55.31 55.71 55.59 55.57 55.05 54.99 53.63 52.80 48.17 55.24 52.08 54.68 58.62 55.47 56.84 56.67 55.92 53.98 54.71 52.83 52.42 48.56 46.18 48.17 43.44 44.83 48.34 52.78 51.88
51.78 51.61 52.46 52.54 52.77 53.57 54.39 53.48 53.23 53.05 53.31 53.40 53.35 53.32 53.65 53.35 54.21 54.19 54.71 54.74 55.55 54.01 55.13 55.28 54.11 49.73 51.95 48.81 53.42 56.54 57.10 56.30 54.89 54.72 53.19 53.22 53.20 49.96 49.80 46.98 40.08 42.82 43.67 45.61 45.71 50.06 51.74
52.63 52.47 52.47 52.46 52.43 52.48 52.79 54.01 53.27 52.76 52.82 52.83 53.03 52.87 53.26 53.63 54.41 55.09 55.23 57.59 52.95 51.21 52.79 50.08 50.62 50.34 47.74 53.38 57.69 56.28 58.06 55.37 55.21 53.48 49.14 52.61 48.19 45.56 46.58 47.93 47.92 46.71 45.61 44.35 47.38 49.99 48.35
51.47 52.40 52.16 52.51 52.34 52.30 51.92 52.80 53.70 52.67 52.77 52.81 52.81 52.68 52.77 53.30 53.84 54.85 55.60 52.72 52.45 52.42 46.53 52.32 51.85 52.30 54.09 53.57 51.19 54.54 57.07 52.37 51.61 48.20 50.64 49.01 45.59 49.31 49.61 48.98 47.75 47.07 45.38 44.73 47.20 48.80 47.76
50.55 51.08 51.88 52.02 52.35 52.21 51.84 52.02 52.18 52.89 52.69 52.67 52.28 52.26 52.37 51.99 54.17 54.64 54.97 53.67 56.72 55.31 48.36 49.58 52.33 50.18 51.16 53.41 49.94 51.67 54.03 52.93 50.14 48.06 48.47 46.46 47.91 49.62 48.47 47.98 46.60 47.08 45.36 44.71 44.67 47.55 48.88
50.90 50.52 50.71 51.98 52.19 52.04 52.01 51.89 51.16 51.70 52.42 52.35 52.00 52.14 51.75 51.66 50.82 54.59 52.83 56.51 57.47 56.87 43.18 43.85 46.02 50.05 51.23 52.75 48.93 54.46 55.62 52.72 49.71 46.96 48.02 47.94 50.49 48.13 47.71 46.58 47.81 43.81 48.23 46.96 45.99 45.14 41.13
50.89 50.70 50.42 50.78 51.39 51.43 51.12 51.18 51.05 51.12 51.62 52.05 51.51 51.72 51.26 51.88 53.00 52.60 54.94 58.78 57.58 54.98 30.37 45.05 47.66 55.06 52.77 48.95 49.69 51.02 55.63 52.47 47.94 47.46 48.39 46.06 47.29 47.10 46.24 47.04 48.81 45.34 48.20 47.06 46.87 45.43 44.42
50.89 50.97 50.76 50.82 50.40 50.59 50.80 50.84 50.50 50.23 50.97 51.32 51.60 51.37 51.27 50.74 52.12 55.30 57.32 58.35 55.62 41.97 30.71 41.19 48.74 47.44 46.53 48.71 48.28 50.93 50.43 53.37 52.74 48.69 48.94 48.02 50.63 49.68 48.36 49.39 49.71 49.68 47.58 46.85 47.09 45.61 38.72
50.88 50.79 50.79 50.70 50.53 50.36 50.62 50.68 50.25 49.98 50.25 51.30 51.22 51.26 50.85 51.48 48.35 56.59 57.72 54.67 40.81 33.87 42.87 40.27 44.62 46.93 45.32 44.81 46.11 47.87 47.00 46.52 45.04 41.68 42.24 46.16 46.80 49.71 50.03 46.93 49.34 48.67 45.49 38.86 37.11 37.65 36.46
50.68 50.82 50.80 50.81 50.62 50.39 50.51 50.37 50.18 49.92 50.07 50.63 50.77 50.15 50.39 51.12 53.21 56.71 53.71 46.41 33.10 37.69 40.10 45.27 45.51 46.20 42.50 44.60 45.57 46.86 45.63 44.15 47.77 46.30 43.34 41.20 39.17 46.42 49.99 47.84 46.09 46.58 45.75 39.90 31.82 34.41 38.81
50.86 50.82 50.58 50.55 50.63 50.56 50.35 50.37 50.17 49.95 49.57 49.98 50.06 48.76 47.74 50.07 52.69 54.21 47.49 36.33 35.46 39.57 43.71 42.41 44.13 43.18 42.08 42.28 44.70 45.46 44.91 44.01 46.87 47.89 41.99 41.40 41.02 47.78 49.29 50.03 49.41 45.72 43.04 47.23 40.48 40.22 38.78
50.82 50.72 50.55 50.29 50.35 50.37 50.27 50.09 50.09 49.99 49.65 49.89 46.92 45.31 44.78 50.48 52.95 47.35 41.17 36.95 39.95 44.59 46.30 46.52 39.56 44.04 41.25 40.12 40.52 43.09 43.76 46.72 46.07 48.66 49.39 45.65 40.25 46.48 48.23 50.28 49.37 47.69 49.39 41.21 42.75 33.37 32.29
50.22 50.35 50.43 50.14 50.05 50.00 50.04 49.88 49.88 49.86 49.54 49.68 46.44 38.90 47.18 50.07 50.30 40.68 34.23 38.67 41.62 47.08 48.32 45.32 44.20 42.45 42.79 41.59 41.96 42.08 42.79 44.96 48.29 47.52 49.30 47.88 45.01 43.47 47.34 45.95 45.38 45.31 44.24 44.51 44.68 42.09 35.94
46.24 49.70 49.97 49.68 49.68 49.82 49.86 49.91 49.62 49.51 49.23 48.38 41.85 33.70 48.48 50.06 35.65 36.97 35.79 41.30 43.12 44.56 48.90 47.11 47.21 46.09 44.61 43.63 42.20 42.36 42.54 45.11 48.71 49.34 45.02 48.28 45.56 40.96 43.27 47.43 48.97 49.26 46.48 46.12 40.35 38.15 41.14
47.22 47.03 47.27 48.23 48.56 48.88 49.59 49.67 49.68 49.31 49.10 46.62 37.80 38.36 47.33 47.70 30.65 31.30 38.57 39.85 43.01 43.13 45.55 45.52 45.15 47.09 47.69 44.47 40.65 43.79 44.71 49.07 48.66 48.18 46.87 48.12 43.79 38.78 40.06 43.75 46.81 45.30 46.80 46.80 46.16 44.26 40.05
46.87 47.04 47.30 47.45 47.58 48.00 48.64 49.48 49.47 49.16 49.29 46.84 37.59 32.67 39.01 41.66 42.21 35.79 35.39 37.74 38.04 44.38 44.12 46.78 46.07 47.75 45.58 43.46 44.96 42.65 43.39 46.21 48.11 48.91 46.95 48.71 45.50 41.99 38.00 40.96 44.76 42.67 44.51 45.99 44.98 40.69 40.52
46.83 46.86 46.89 47.03 47.22 47.62 48.17 48.90 49.54 49.08 48.93 45.16 38.48 36.40 38.39 31.53 35.55 37.91 38.38 38.40 37.15 38.26 44.57 46.29 44.79 45.20 44.45 41.15 41.60 41.72 43.74 45.42 46.63 46.14 47.92 48.77 42.63 44.34 44.32 44.61 44.47 43.71 43.53 44.59 43.28 44.15 41.01
47.13 47.04 46.55 46.74 46.98 47.27 47.79 48.29 48.85 48.85 48.71 42.40 34.85 38.02 41.53 38.53 38.81 37.49 38.04 36.75 37.56 39.76 41.37 41.86 42.31 44.50 45.66 42.99 43.17 41.31 43.83 44.89 45.24 47.19 46.95 48.59 42.89 44.78 42.14 44.62 43.92 42.17 44.10 44.64 44.93 44.97 44.99
47.61 47.45 47.27 46.63 46.81 47.38 47.55 47.73 47.98 48.54 47.61 41.80 43.42 44.79 42.70 38.16 37.19 35.44 36.98 36.97 38.23 41.58 43.07 44.28 44.70 43.55 42.76 44.75 47.07 47.34 47.84 47.75 47.51 46.62 46.10 45.59 44.22 42.10 38.09 42.99 42.56 36.72 42.70 44.35 45.26 46.99 46.53
47.07 47.06 47.09 46.96 46.73 47.41 47.31 47.36 47.42 48.21 47.44 46.45 43.63 43.58 39.22 35.11 36.81 35.61 36.93 38.59 38.62 40.87 40.50 43.70 45.42 43.90 46.30 50.22 49.96 49.01 47.32 47.12 48.03 48.15 49.48 45.22 44.41 43.57 38.72 36.90 32.56 43.92 47.54 48.05 46.36 47.41 48.70
46.44 46.68 47.04 47.11 46.54 47.03 47.15 47.10 47.82 47.75 47.67 46.59 46.12 43.98 40.81 35.94 38.32 37.78 37.50 37.74 40.08 41.83 42.16 42.73 45.70 47.49 50.19 46.20 40.94 37.58 39.64 39.28 43.11 46.68 47.42 48.58 45.47 40.39 38.34 37.24 41.60 41.56 43.70 44.92 44.67 45.23 49.65
45.62 46.51 47.08 46.39 46.61 46.77 46.76 46.81 47.85 47.61 47.73 46.41 47.28 48.35 44.57 38.94 36.92 40.32 37.89 39.44 37.80 39.16 41.28 43.09 48.14 50.87 49.63 44.18 41.50 35.08 32.08 35.99 37.41 41.12 44.05 44.85 45.41 43.86 37.42 35.79 34.39 43.65 48.39 49.95 48.49 41.60 49.85
46.35 46.51 46.62 46.65 46.44 46.56 46.87 47.32 47.52 47.34 47.67 45.93 45.74 50.34 46.16 38.90 41.80 42.75 38.58 38.62 42.04 42.04 41.31 43.28 44.82 45.21 49.11 42.84 38.60 36.60 35.54 41.54 35.37 36.97 37.58 38.77 39.61 39.02 39.35 38.57 42.37 47.35 48.03 48.69 39.84 43.73 50.43
46.10 46.37 46.35 46.39 46.46 46.75 46.54 47.47 46.91 47.16 46.77 45.47 45.73 50.16 47.21 41.52 42.97 43.93 44.96 42.00 42.45 43.20 40.10 43.79 43.07 43.96 43.42 39.93 39.70 39.60 39.04 40.31 41.01 42.89 41.16 39.97 39.25 38.13 40.21 38.01 36.11 47.36 45.68 43.96 49.98 51.55 51.59
46.55 46.42 46.46 46.49 46.52 46.81 47.31 46.93 46.85 47.27 46.56 46.29 41.32 48.10 49.30 44.51 41.69 44.99 45.99 46.62 46.21 47.93 45.69 46.13 43.29 43.14 45.16 42.02 42.76 42.60 40.83 40.80 41.21 36.88 44.81 39.81 43.93 42.79 42.63 43.92 50.60 49.07 50.79 51.54 52.84 52.19 50.41

GFSGBSN_sfc_wetblb_057.txt.gz
Wetbulb
55.17 55.82 55.74 55.42 55.49 54.93 54.82 55.07 55.61 55.41 55.13 54.87 55.26 55.03 54.82 55.96 57.30 58.36 58.02 57.87 57.92 57.88 57.52 57.19 56.80 57.00 57.23 53.50 52.92 61.21 62.75 62.01 58.10 57.81 55.11 52.80 51.71 52.10 49.64 50.48 51.12 49.76 50.30 51.90 53.95 52.74 53.80
54.02 54.67 54.99 55.61 55.27 55.06 54.30 55.14 55.02 54.82 54.54 54.62 54.68 55.00 55.07 55.10 56.47 57.58 57.26 57.23 57.27 57.35 57.15 56.92 56.90 56.03 55.37 48.85 56.08 58.10 61.48 60.53 58.82 57.56 55.02 53.63 51.89 53.98 52.39 51.33 50.56 52.21 51.40 53.41 54.33 53.40 54.27
52.84 53.17 54.19 54.40 54.69 55.45 54.86 54.59 54.50 54.10 54.02 54.42 54.39 54.59 54.76 54.24 54.76 56.10 55.90 55.89 56.23 56.97 57.07 56.80 56.44 56.49 52.48 52.12 57.97 58.84 60.21 58.81 58.74 56.87 53.55 54.53 56.12 54.32 54.23 51.06 53.32 52.25 49.69 53.03 53.94 53.97 53.76
52.20 52.29 52.73 53.36 53.69 54.01 54.82 54.28 54.19 54.03 53.79 54.12 54.41 54.27 53.74 53.73 53.55 54.00 55.00 55.22 55.66 56.79 56.77 56.09 55.97 56.45 50.56 58.26 58.56 57.70 59.53 57.97 58.20 57.34 56.03 56.43 56.79 55.56 54.00 54.44 51.90 49.23 50.40 46.63 47.97 52.66 53.86
52.68 52.21 52.27 52.84 53.02 53.07 53.66 54.06 54.24 54.01 53.91 53.62 53.72 53.52 53.30 53.32 53.26 53.44 54.51 54.75 55.76 56.97 55.67 55.27 55.90 54.71 50.59 56.37 53.65 56.11 58.72 56.93 57.59 57.30 57.30 55.86 55.78 53.69 53.75 48.90 46.93 48.62 43.89 46.28 48.09 54.77 52.69
52.24 53.24 53.41 53.18 52.80 53.06 52.98 53.06 53.80 54.03 53.41 53.02 53.29 53.25 52.97 52.89 53.09 53.34 53.88 55.12 56.87 54.27 55.31 57.71 56.64 51.24 53.75 51.47 53.72 54.24 57.17 59.10 56.21 55.93 54.18 53.70 52.85 50.64 50.29 47.48 41.42 43.41 44.78 46.67 46.66 48.81 51.04
51.37 52.59 52.69 53.45 53.27 53.01 53.05 52.43 52.61 53.18 53.43 53.17 53.01 52.96 52.82 52.89 52.99 53.79 55.15 57.67 54.20 52.98 54.95 49.87 51.24 49.43 50.92 54.32 57.20 54.37 56.10 57.44 56.20 54.39 48.95 52.20 48.35 46.18 47.97 49.43 48.80 47.54 46.41 45.73 48.04 50.48 50.51
51.59 51.70 51.34 52.17 52.56 53.19 52.52 52.50 51.89 52.58 53.36 53.18 53.00 52.72 52.67 52.71 52.82 53.59 56.16 52.25 53.07 54.70 47.24 52.61 53.38 53.15 55.63 55.40 51.99 53.24 58.04 52.51 51.79 48.63 50.96 49.82 46.27 49.87 50.77 49.73 47.96 47.06 46.03 45.37 48.19 49.91 49.30
51.13 51.30 51.47 51.35 51.64 52.04 52.86 52.60 52.11 51.64 52.28 52.87 52.80 52.44 52.42 52.22 52.02 53.07 54.34 53.98 58.56 58.13 47.98 47.96 51.51 51.28 52.44 54.09 50.96 51.77 55.26 53.28 50.69 48.60 48.92 47.35 48.99 51.08 49.43 48.48 46.88 47.42 46.00 45.96 45.70 48.56 50.12
51.26 51.18 51.51 51.74 51.87 51.79 51.98 52.66 52.38 52.08 51.60 52.22 52.42 52.10 51.84 51.66 49.13 52.73 52.91 57.39 58.49 58.73 43.15 43.34 48.84 51.53 53.09 53.04 49.27 54.50 55.05 52.67 51.20 48.15 49.25 48.47 50.88 49.04 48.49 47.31 48.69 44.85 49.06 47.67 46.96 45.71 41.64
51.26 51.32 51.35 51.43 51.53 51.03 51.03 51.76 52.08 51.93 51.41 51.01 51.88 52.18 51.51 50.81 50.93 52.62 55.72 58.94 60.30 56.83 30.56 46.04 48.75 55.92 53.20 49.95 49.47 50.98 55.75 52.92 48.66 48.64 49.46 46.50 47.77 48.16 47.09 47.78 49.81 46.40 49.58 47.92 47.67 46.00 45.71
51.35 51.37 51.45 51.43 51.33 51.01 50.65 50.98 51.11 51.43 51.36 50.88 51.42 51.76 51.46 50.18 50.39 52.30 57.68 59.75 57.72 41.85 30.93 43.02 50.27 48.29 48.98 49.38 49.03 51.29 51.70 53.58 52.96 49.58 49.65 48.60 52.01 50.62 49.57 50.56 50.52 50.69 48.40 48.02 48.37 46.38 39.38
50.97 50.98 51.20 51.31 51.18 51.20 50.95 50.65 50.84 50.86 50.88 50.61 51.31 51.14 51.34 52.52 46.52 54.72 54.09 53.38 39.88 33.14 43.15 41.38 45.39 48.58 47.97 46.90 47.32 48.83 47.82 45.78 44.92 42.61 43.32 46.75 47.90 50.45 51.19 48.01 50.41 49.40 46.22 39.58 37.71 38.33 37.69
50.82 50.86 50.92 51.10 51.27 51.17 50.94 50.75 50.45 50.54 50.68 50.32 50.57 50.69 50.09 52.27 54.08 53.02 50.58 43.25 32.83 38.65 40.19 46.50 46.04 48.39 45.31 47.57 46.98 47.57 46.56 43.85 46.96 46.89 44.60 41.88 40.09 47.56 50.52 48.24 47.15 47.44 46.40 40.66 32.96 35.57 39.11
51.20 50.93 50.80 50.83 50.90 51.01 50.92 50.83 50.58 50.48 50.33 50.05 50.40 50.12 47.82 51.88 54.05 51.98 42.13 34.15 36.51 39.90 42.91 42.30 45.36 44.56 45.01 46.42 46.63 46.42 45.53 44.26 46.42 48.21 43.28 42.60 42.34 49.39 49.68 50.24 49.20 46.60 44.10 48.79 42.69 43.78 39.66
51.05 51.20 50.85 50.72 50.67 50.80 50.78 50.66 50.44 50.44 50.25 49.81 47.93 46.58 46.13 51.45 54.24 49.52 37.94 34.13 39.61 43.83 43.96 44.68 40.20 45.53 43.28 44.25 43.86 45.03 44.86 47.23 46.34 49.23 50.79 46.78 41.81 47.36 48.40 50.36 50.55 48.57 50.68 42.96 43.93 34.13 33.62
50.48 50.72 50.85 50.58 50.53 50.33 50.62 50.52 50.32 50.20 50.11 49.61 46.60 40.09 47.98 52.13 50.70 42.99 32.41 37.05 42.59 44.95 45.53 42.62 42.75 42.43 44.93 45.56 44.61 44.24 45.11 46.72 48.17 48.21 49.90 48.79 45.64 44.76 48.41 46.48 45.91 46.54 45.58 46.48 46.34 43.64 36.62
49.94 50.10 50.28 50.31 50.33 50.29 50.38 50.38 50.35 50.16 49.76 47.92 43.45 34.92 48.35 51.79 35.90 38.37 34.59 40.26 42.51 44.70 46.06 45.48 47.44 47.09 43.74 46.05 44.81 44.52 43.94 46.23 48.95 49.22 46.44 49.04 46.45 42.41 44.05 48.87 50.15 48.82 47.19 46.98 41.20 40.36 43.21
49.29 48.42 48.59 48.19 48.48 50.05 50.01 50.21 50.15 49.84 49.57 45.74 38.59 39.14 49.74 48.17 31.33 35.11 38.78 39.76 42.15 42.85 43.56 43.64 45.53 47.75 49.04 46.64 43.60 45.72 46.30 49.60 49.78 48.60 47.72 49.13 44.45 39.37 41.62 45.73 48.66 46.19 48.66 48.41 47.86 46.67 41.09
47.65 47.46 47.67 48.18 48.15 47.94 49.95 49.97 49.87 49.64 49.70 46.57 38.55 32.42 39.59 42.46 42.60 38.48 36.94 37.04 38.21 43.84 43.73 44.71 45.51 47.63 46.58 45.74 48.21 45.61 45.95 47.86 50.55 49.36 48.52 50.24 46.08 42.70 39.32 42.64 46.02 43.55 45.70 47.38 46.41 42.08 41.89
46.98 47.00 47.05 47.26 47.55 47.54 47.67 49.75 49.63 49.57 49.49 45.64 38.37 37.38 39.28 32.16 35.46 39.15 39.68 38.57 37.50 37.61 43.74 44.74 42.49 45.35 45.19 43.23 45.02 44.67 46.61 47.25 47.41 47.55 48.37 49.44 42.83 44.71 45.07 46.03 46.03 45.14 44.98 45.52 44.51 45.11 41.81
47.14 47.13 46.85 46.96 47.04 47.39 47.46 47.01 48.44 49.20 49.52 42.92 34.52 38.81 42.07 40.14 39.32 38.60 38.49 37.15 37.70 39.25 41.13 41.17 41.48 44.25 45.88 43.62 45.49 43.83 46.15 45.82 44.31 47.67 47.41 49.67 43.57 45.04 42.84 45.63 45.34 43.18 44.79 45.01 45.39 45.49 45.26
47.14 47.14 46.93 46.75 47.05 47.28 47.40 47.38 47.19 47.47 48.91 41.64 41.42 45.63 42.76 38.71 37.70 36.65 37.88 38.33 38.18 41.06 43.02 44.18 44.24 43.09 44.06 45.70 49.63 49.88 48.99 48.30 47.07 45.47 46.83 47.07 45.34 43.07 39.44 44.60 44.24 40.47 43.95 44.83 45.53 46.90 46.54
47.43 47.64 47.77 47.25 47.21 47.31 47.04 46.85 46.95 46.96 47.96 44.11 44.49 45.50 40.42 35.64 37.75 38.29 39.19 40.04 39.10 40.89 40.70 44.07 45.60 44.14 47.47 51.58 50.67 49.76 48.33 47.05 46.77 46.95 48.38 46.51 45.23 44.47 40.46 39.22 33.85 44.10 48.95 48.40 46.39 47.36 48.52
46.93 47.34 47.81 47.86 47.65 47.29 47.05 46.66 46.53 47.41 47.63 45.23 46.49 45.62 41.87 37.78 39.42 38.19 38.64 39.57 41.17 41.77 41.23 43.12 46.14 48.28 51.53 48.60 41.11 39.08 39.11 38.90 41.31 44.34 45.64 48.21 46.46 42.15 38.88 38.24 42.09 44.36 46.63 46.88 45.76 45.43 49.55
46.92 46.78 46.91 47.16 47.16 47.12 46.81 46.46 46.47 47.13 47.29 45.94 47.79 50.02 44.82 40.00 38.42 41.75 39.42 40.41 38.71 39.51 40.46 43.59 48.25 50.66 49.81 43.70 39.69 34.25 32.43 36.40 34.93 38.99 45.58 46.03 47.61 44.23 40.89 36.08 33.35 43.59 48.42 51.30 50.75 43.01 50.76
46.16 46.22 45.90 46.27 46.67 46.85 46.74 46.46 46.69 46.97 47.22 45.84 46.64 52.43 46.78 40.20 42.49 43.07 39.09 39.61 43.17 41.98 40.23 42.85 45.17 46.55 49.20 41.99 38.16 37.15 35.75 40.31 34.50 34.09 38.07 40.14 41.99 40.50 40.45 38.70 42.37 48.06 49.62 51.77 41.45 43.79 51.78
46.02 45.86 45.92 46.41 46.39 46.48 46.42 46.38 46.70 46.61 47.42 46.23 47.76 51.02 46.03 41.73 43.26 44.71 45.93 43.19 42.78 44.10 40.06 43.56 42.83 44.24 44.31 39.12 39.40 38.91 39.76 40.80 39.22 41.64 41.13 39.50 39.00 39.34 41.46 39.06 36.65 50.24 49.24 45.62 50.56 54.03 53.09
46.16 46.27 46.23 46.16 45.95 46.22 46.27 46.40 46.47 47.07 46.97 47.32 45.41 49.14 50.04 44.99 43.18 48.78 48.22 48.46 47.27 47.87 45.52 46.17 44.47 44.98 45.62 42.48 43.71 43.53 42.46 43.77 41.03 37.43 45.15 40.35 44.68 42.72 44.21 44.36 51.08 51.59 51.48 53.38 54.44 53.58 54.26

GFSGBSN_sfc_wetblb_060.txt.gz
Wetbulb
53.95 54.22 54.41 54.89 55.78 55.73 54.91 55.69 55.64 54.56 55.06 54.87 53.93 55.05 54.68 54.72 54.63 55.92 57.20 56.98 57.52 57.86 58.21 58.31 58.20 57.90 56.34 53.15 53.81 60.95 63.13 60.70 56.92 55.68 54.27 52.85 50.64 50.58 48.53 50.00 50.69 48.84 50.06 50.44 51.66 52.38 51.41
53.27 53.40 53.66 54.56 54.66 54.34 55.50 55.40 55.17 54.98 54.47 54.27 54.15 53.82 54.73 54.63 54.26 54.70 56.08 56.04 55.83 56.34 57.30 57.86 57.77 56.84 55.80 48.06 59.15 60.13 59.57 60.77 57.63 56.08 54.76 53.77 51.34 51.95 50.27 49.98 49.62 51.07 50.80 50.52 53.20 53.89 53.93
52.85 53.37 53.57 53.76 54.27 54.11 54.10 54.65 55.02 54.49 54.46 54.02 53.22 53.94 53.41 54.42 54.57 54.28 54.12 54.74 55.15 55.63 56.74 57.65 57.68 56.74 53.33 51.93 58.94 59.29 58.54 59.56 58.52 57.35 53.95 54.68 54.06 51.41 53.14 50.57 53.06 51.55 47.98 49.88 51.05 51.41 50.91
53.31 52.86 52.86 53.22 53.38 53.50 53.86 54.06 54.42 54.84 54.44 54.14 53.90 53.72 52.78 52.75 53.56 53.68 53.45 53.76 54.61 55.51 56.84 57.38 56.98 55.63 49.17 57.56 59.74 58.27 58.48 57.70 58.64 58.05 55.93 55.87 54.99 53.55 52.02 53.78 51.29 48.43 48.29 44.16 50.03 51.02 52.00
52.73 53.01 53.53 53.72 53.24 53.08 53.26 53.37 53.83 54.12 54.49 54.09 53.81 53.29 53.13 52.83 52.71 53.14 52.93 53.55 54.49 55.65 56.90 57.20 54.71 54.21 47.95 57.65 55.25 57.02 57.23 55.05 56.44 56.32 55.73 55.88 54.81 51.82 51.71 48.15 45.82 46.71 42.14 44.88 47.32 51.61 51.66
51.93 52.72 53.01 53.01 53.56 53.18 53.27 53.20 52.82 53.58 53.74 54.09 53.67 53.15 52.87 52.73 52.48 52.66 52.40 53.37 54.79 56.20 56.88 57.71 56.14 49.82 52.38 49.18 54.77 56.06 56.65 56.34 55.45 54.82 52.52 52.30 50.83 47.61 48.36 46.06 39.29 42.61 43.16 45.52 45.47 50.20 51.22
51.25 51.55 52.47 52.64 52.99 52.72 53.14 53.44 52.95 52.48 53.18 53.35 53.86 53.42 52.89 52.82 52.69 52.58 51.86 54.27 51.72 53.19 54.89 50.92 50.31 48.49 50.35 55.28 55.95 52.69 54.82 54.17 55.48 52.91 46.89 50.18 45.61 42.97 46.36 48.55 48.19 47.47 45.24 44.31 48.19 50.55 48.99
51.74 51.89 51.69 51.88 52.15 52.18 51.69 52.72 52.95 52.48 52.17 53.47 53.57 53.28 53.02 52.61 52.77 52.33 51.30 50.36 50.52 54.89 46.46 51.35 53.42 52.93 54.38 55.21 51.11 53.45 53.86 51.10 51.37 46.86 49.45 47.37 44.08 47.98 49.90 49.32 48.20 46.85 43.84 43.73 47.52 50.48 49.44
51.70 51.98 52.02 51.63 51.80 52.18 51.67 51.78 51.24 52.48 52.33 52.04 52.54 53.12 52.98 52.31 52.14 50.53 48.77 51.05 57.28 56.93 47.02 46.92 48.57 47.54 48.98 52.55 50.28 51.47 52.19 51.66 49.61 46.90 47.81 45.12 47.43 50.80 48.61 47.89 46.15 45.90 44.61 44.51 44.88 47.61 49.38
51.31 51.37 51.72 51.93 52.06 51.91 51.92 52.02 52.00 52.06 52.29 52.02 52.40 52.33 52.12 51.87 47.77 50.82 48.24 55.04 55.90 58.01 41.05 40.62 44.63 48.92 48.94 50.26 47.34 54.07 54.54 51.97 49.41 46.21 47.36 47.33 49.99 49.06 48.05 46.53 47.20 44.04 48.64 47.28 45.65 44.91 40.29
51.42 51.54 51.60 51.75 51.77 51.62 51.54 51.66 51.68 51.77 52.08 52.12 51.67 52.05 51.77 50.93 50.29 49.91 54.11 54.81 58.17 56.09 26.48 44.21 46.47 55.16 52.61 47.66 49.61 49.73 54.56 52.52 47.43 47.58 48.09 45.99 47.40 46.75 46.25 46.56 48.83 45.92 49.77 47.90 46.93 44.10 43.83
51.42 51.42 51.57 51.80 51.50 51.34 51.38 51.42 51.16 51.22 51.52 51.79 51.56 51.87 51.55 49.81 50.37 51.52 54.93 53.75 55.83 39.50 28.04 41.75 49.32 47.43 47.45 48.29 48.06 50.75 50.20 53.00 52.41 48.44 49.05 47.91 51.34 49.25 48.19 50.04 49.43 50.37 48.08 47.43 46.94 44.33 38.06
50.90 51.13 51.24 51.40 51.44 51.36 51.46 51.43 51.03 50.93 51.04 51.02 51.31 51.51 50.74 50.47 46.12 53.55 54.72 50.32 37.97 30.81 41.11 40.10 45.12 47.83 46.06 45.88 45.87 47.38 46.78 46.05 44.55 41.42 42.39 46.04 46.41 49.47 50.51 46.99 49.80 48.24 45.14 38.12 36.52 36.93 36.46
50.75 50.98 51.21 51.32 51.32 51.28 51.26 51.22 51.02 50.65 50.75 50.92 50.86 50.70 49.90 48.95 52.38 52.00 49.88 42.16 30.67 37.45 38.55 45.99 45.63 47.03 44.24 47.15 46.08 45.94 45.46 43.73 47.56 45.78 43.07 40.60 38.21 46.08 49.80 47.81 45.76 45.98 45.07 39.48 31.99 32.34 37.45
50.63 50.78 50.85 51.14 51.22 51.22 51.05 51.22 51.02 50.79 50.61 50.68 50.45 49.11 48.27 49.79 51.94 52.67 42.70 32.21 33.62 38.17 42.32 40.81 43.38 42.42 44.12 46.66 46.66 45.43 44.94 44.48 46.48 47.36 41.86 40.99 40.79 47.98 49.36 49.83 48.36 45.22 43.13 47.84 42.17 41.07 37.31
50.60 50.64 50.64 50.73 50.90 51.02 50.95 50.81 51.00 50.98 50.45 50.44 48.18 45.36 45.99 51.73 53.75 48.47 37.68 32.13 37.41 42.06 43.52 43.82 38.18 43.38 41.73 44.82 44.16 44.44 44.07 47.50 46.37 48.75 49.53 45.61 40.31 47.04 48.43 49.83 49.45 46.59 48.07 42.42 43.26 33.77 32.38
49.84 50.17 50.37 50.40 50.42 50.57 50.77 50.73 50.90 50.90 50.37 50.29 45.26 39.99 46.93 52.58 51.82 41.90 32.00 33.53 38.25 42.72 43.97 41.33 40.17 40.09 41.47 42.65 45.26 43.68 44.14 47.22 48.89 47.93 48.71 47.90 45.28 44.46 47.55 45.25 43.66 44.42 43.50 45.93 45.61 42.87 36.47
49.26 49.57 49.80 49.95 50.15 50.40 50.78 50.67 50.74 50.55 50.03 48.30 42.88 34.77 47.23 50.86 36.71 37.78 33.13 37.84 40.84 40.86 43.92 43.60 44.14 42.54 41.58 43.80 44.28 44.91 43.73 46.91 50.28 49.45 45.03 47.94 45.85 40.40 43.07 48.05 49.14 47.53 45.74 45.51 40.72 38.93 42.20
48.97 49.44 49.77 49.92 50.10 49.76 50.16 50.38 50.44 50.21 50.13 46.02 38.61 38.73 47.27 47.46 30.57 32.32 37.22 37.48 39.72 39.77 40.79 41.85 42.01 43.53 44.40 43.64 41.52 45.10 47.15 50.35 50.97 49.20 47.46 47.91 43.65 38.23 40.68 45.38 47.90 44.87 46.46 47.37 47.14 45.80 41.18
48.93 48.35 47.95 48.98 49.62 48.89 48.61 49.56 50.22 50.13 50.27 46.58 38.73 32.47 39.47 42.10 42.14 37.01 35.38 35.96 36.36 41.16 41.03 42.79 43.29 44.74 43.33 43.04 46.02 44.75 45.58 49.29 51.33 49.18 47.84 48.88 45.17 41.93 37.05 41.00 45.46 43.03 44.82 47.00 46.11 41.13 41.38
47.50 47.50 47.48 47.63 47.95 48.29 48.61 48.71 50.41 50.03 49.93 46.26 38.93 34.81 39.40 32.75 34.58 38.03 38.11 37.51 35.89 35.78 40.89 42.54 41.60 42.54 41.79 39.21 40.92 42.12 46.62 46.82 49.50 48.01 49.17 48.79 42.45 44.31 44.31 44.82 45.76 44.88 44.28 44.37 43.27 45.39 40.20
47.08 46.84 46.85 46.81 47.05 47.32 47.91 48.29 48.34 49.87 49.77 44.07 32.73 37.67 40.69 38.95 38.58 36.64 37.09 36.63 36.38 38.06 38.43 37.96 39.30 42.44 43.36 40.55 41.90 41.10 44.88 44.52 44.66 48.10 46.90 48.65 42.43 44.27 41.10 44.56 44.57 42.83 45.08 45.16 44.74 45.19 44.82
46.58 46.62 46.62 46.76 46.83 47.23 47.29 47.70 47.92 48.39 49.13 43.15 40.57 44.02 41.53 37.82 37.09 34.84 35.61 37.46 37.77 40.56 41.13 41.77 41.40 42.31 42.78 43.83 47.13 46.18 47.71 47.30 49.72 46.92 45.61 45.66 44.05 41.74 36.79 43.11 43.10 37.52 43.33 44.61 45.41 46.95 46.29
46.66 47.05 47.13 47.17 47.42 47.60 47.30 47.16 47.43 47.52 49.01 42.21 41.49 43.52 38.04 34.12 36.51 36.63 37.25 38.62 38.31 39.88 39.21 41.75 43.63 42.21 46.16 50.90 49.67 48.02 45.04 46.33 47.96 47.55 48.35 44.47 44.88 42.69 37.28 37.31 31.22 43.57 48.91 47.70 45.67 46.57 47.40
47.15 47.41 47.78 47.83 47.65 47.60 47.10 46.96 47.01 47.09 48.14 45.33 44.95 42.99 39.07 35.35 38.74 38.25 38.44 38.20 40.20 42.17 40.83 41.81 43.94 46.23 49.22 48.29 41.50 38.13 37.33 38.73 42.10 45.62 45.98 46.64 44.30 37.68 36.09 35.70 40.74 43.62 46.24 45.99 44.81 44.44 48.83
47.23 47.28 47.60 47.42 47.26 47.42 47.22 47.02 46.92 47.05 46.97 45.45 44.55 47.25 43.49 37.26 37.41 41.07 38.73 40.01 37.66 38.52 39.79 42.18 46.66 48.89 48.80 45.56 39.40 32.56 31.08 36.46 34.36 38.74 45.69 44.35 45.02 40.71 38.06 32.87 31.41 42.72 48.26 50.24 49.71 40.08 49.70
46.84 47.14 47.00 46.83 46.95 46.96 47.08 47.17 46.82 47.06 47.11 46.11 42.98 46.77 45.15 39.30 42.18 43.11 38.55 38.76 42.63 40.90 39.51 42.23 43.61 44.29 47.31 41.11 36.39 34.91 34.02 39.31 33.79 34.56 35.60 37.15 38.25 36.30 36.93 35.05 40.79 47.59 49.07 50.15 39.22 41.33 52.00
46.67 46.41 46.26 46.42 46.71 46.83 47.22 46.85 46.74 46.77 46.87 45.30 42.81 46.99 44.49 41.00 42.91 43.62 43.33 41.60 42.15 42.89 38.31 42.87 40.95 43.00 39.91 37.97 37.94 37.52 37.87 37.93 37.11 39.35 39.30 37.72 35.86 35.89 38.40 35.14 33.87 49.96 48.74 43.28 48.17 51.59 54.49
46.39 45.81 45.22 46.16 46.21 46.12 46.50 46.42 46.60 46.60 46.79 46.26 42.07 47.02 48.85 44.68 42.92 48.31 48.12 48.24 48.25 46.90 43.95 44.15 43.11 42.09 43.81 40.92 41.82 41.75 41.40 40.99 39.69 34.67 43.68 36.56 41.91 39.88 40.42 41.02 50.61 50.87 50.02 52.30 53.32 52.85 53.58

GFSGBSN_sfc_wetblb_063.txt.gz
Wetbulb
53.57 54.03 54.07 54.11 54.35 54.48 54.75 55.88 55.70 55.15 53.94 53.66 53.59 53.12 53.57 54.50 54.65 55.16 54.54 54.39 55.51 56.02 56.32 57.05 58.09 58.26 54.37 50.46 51.08 58.71 61.56 60.30 55.74 54.05 51.66 50.08 48.08 46.79 43.83 45.90 46.32 45.07 46.18 48.14 49.26 50.38 50.77
52.97 53.36 54.06 54.14 53.72 53.74 54.11 54.67 54.94 55.13 54.96 54.39 53.76 52.80 52.91 53.18 54.27 54.75 54.35 53.92 53.55 54.59 55.49 56.36 57.89 57.60 52.53 45.07 56.64 59.62 58.75 56.87 54.55 51.52 51.07 51.11 49.41 49.22 46.29 46.18 45.86 47.78 47.82 47.02 48.87 50.22 50.41
54.19 53.66 54.10 53.94 53.87 53.89 53.65 54.23 54.57 54.38 54.88 54.69 54.12 53.50 53.02 52.65 52.92 53.67 53.90 53.61 53.28 53.67 55.14 56.14 57.12 56.31 50.72 48.17 55.38 54.97 56.31 55.90 57.22 54.36 51.29 52.92 52.33 47.74 47.12 46.55 50.60 49.63 45.18 46.37 47.65 48.98 47.54
52.58 53.05 53.19 53.87 53.80 53.55 53.52 53.75 53.93 54.28 54.12 54.66 54.81 54.07 53.38 52.82 52.72 52.48 53.06 53.03 52.84 53.48 54.98 56.02 56.97 53.44 46.88 55.95 55.64 55.13 55.53 54.70 56.97 56.72 54.97 54.78 52.73 48.71 48.38 49.36 48.34 45.31 44.45 38.65 45.58 47.96 49.78
52.09 52.60 52.80 53.52 52.94 53.49 53.48 53.35 53.66 53.80 53.97 53.93 54.13 53.96 53.33 52.83 52.64 52.29 52.35 52.68 52.72 53.53 54.84 55.71 53.69 50.14 46.66 57.00 52.86 54.53 54.63 53.69 54.76 55.42 53.82 54.96 51.05 47.46 47.68 42.65 40.04 42.13 37.72 39.70 43.67 49.11 49.02
51.83 51.68 52.85 52.86 52.69 52.96 53.09 53.35 53.37 53.39 53.24 53.57 53.67 53.90 53.75 52.79 52.51 52.14 51.87 52.14 52.36 53.35 54.80 56.53 54.86 46.75 51.57 49.48 53.10 54.52 54.89 54.27 52.76 52.09 51.02 48.43 45.72 42.95 42.17 38.78 33.66 38.23 39.12 39.26 41.22 46.05 47.19
51.22 51.58 51.56 52.37 52.44 52.54 51.95 53.01 52.80 52.95 53.30 52.97 53.34 53.42 53.63 53.32 52.72 52.31 50.17 47.98 47.46 48.51 51.02 48.76 48.36 46.50 48.95 52.81 54.97 51.75 54.01 51.64 51.30 49.53 43.79 45.66 40.84 38.90 41.11 43.08 44.50 43.91 42.62 40.22 41.80 47.66 46.36
51.27 51.36 51.64 51.62 51.96 51.92 51.64 52.18 51.83 51.96 52.91 52.83 52.64 53.26 53.32 53.05 52.62 52.24 48.79 43.97 48.49 48.53 43.23 52.11 52.50 52.12 53.78 54.33 48.92 51.35 52.09 46.90 46.51 42.91 45.93 43.05 39.51 44.92 46.88 46.38 44.98 45.16 42.27 39.84 43.80 47.88 45.76
51.43 51.53 51.43 51.58 51.69 52.03 51.91 52.26 52.02 51.62 51.56 52.62 52.41 52.64 52.56 52.56 52.06 48.62 45.18 45.46 50.91 48.23 42.67 45.68 48.81 47.19 47.78 50.83 48.12 48.24 50.49 47.45 45.48 44.12 44.39 41.01 43.97 47.81 46.59 45.28 43.86 43.94 41.75 41.17 41.81 45.53 46.90
51.15 51.14 51.60 51.36 51.66 52.06 52.01 52.06 51.99 51.72 51.76 51.47 52.23 52.10 51.77 51.64 46.85 45.78 44.07 51.86 51.88 49.37 37.76 38.95 42.67 45.85 47.66 46.70 44.68 51.37 52.36 47.28 46.18 44.26 45.20 43.49 47.55 46.44 45.85 44.43 44.94 40.01 46.26 46.36 44.37 41.54 35.35
50.74 50.83 51.23 51.56 51.75 51.54 51.91 51.99 52.28 52.08 51.62 51.72 51.60 51.82 51.57 51.68 45.58 44.03 49.46 51.90 52.18 51.01 19.07 40.38 42.37 50.72 48.17 43.53 46.76 47.47 51.83 48.81 43.30 45.17 44.70 42.31 44.22 44.44 43.63 45.32 46.97 43.05 48.02 46.57 45.17 40.43 37.59
50.36 50.78 51.12 51.35 51.29 51.63 51.82 51.76 51.57 51.69 51.64 51.45 51.46 51.48 51.26 48.55 46.75 46.86 50.27 50.29 50.06 37.50 25.64 38.62 46.63 45.49 44.43 43.09 43.98 48.00 47.43 49.59 49.17 45.46 45.72 44.56 48.59 46.82 45.69 48.36 47.81 48.39 46.30 45.18 43.31 39.82 32.13
50.07 50.53 50.74 51.09 51.19 51.49 51.61 51.74 51.47 51.45 51.34 51.25 51.22 51.08 49.74 47.95 42.11 48.72 50.97 47.77 35.11 27.93 38.68 36.51 43.13 45.25 43.97 42.30 41.76 43.41 43.52 42.17 39.54 38.19 38.41 43.30 44.14 47.13 48.48 44.41 47.12 45.31 41.29 32.41 30.18 30.48 28.70
50.07 50.31 50.55 50.86 51.18 51.37 51.53 51.53 51.31 51.19 51.23 50.99 50.93 50.49 49.30 47.76 47.09 48.68 48.41 40.92 28.41 34.18 34.90 42.05 42.69 43.88 41.50 43.86 43.21 43.46 41.75 39.83 43.32 42.56 38.83 36.85 35.11 43.91 47.37 45.46 42.97 43.29 41.42 33.39 28.30 27.73 31.75
50.08 50.26 50.29 50.63 50.80 51.20 51.21 51.33 51.29 51.13 51.01 50.78 50.28 48.45 45.15 46.49 46.87 47.59 41.76 30.80 29.23 34.38 39.05 37.60 38.64 36.85 40.25 43.68 43.87 42.31 41.07 40.66 43.13 43.74 38.00 37.17 37.76 45.89 46.46 47.68 46.21 43.62 39.09 44.04 37.67 38.48 32.08
49.90 50.13 50.14 50.31 50.35 50.60 50.95 51.15 51.15 51.20 51.06 50.51 46.30 45.09 43.28 47.09 47.16 44.99 37.22 31.82 34.12 39.87 40.47 39.94 34.42 38.98 35.51 41.16 41.32 40.84 40.60 44.53 43.66 45.60 46.53 42.06 36.65 44.97 46.17 46.99 46.92 44.81 45.72 37.84 38.68 30.99 28.97
48.96 49.33 49.74 49.90 49.90 50.17 50.42 50.78 51.12 51.00 50.98 50.45 45.25 39.29 44.75 47.98 47.99 39.87 30.66 31.07 35.18 40.64 41.45 37.82 35.38 35.36 37.04 37.18 38.90 38.77 41.14 44.96 46.03 45.46 46.54 44.06 40.32 40.67 45.20 42.41 41.60 41.58 40.62 40.27 41.29 39.62 30.03
48.26 48.67 48.95 49.19 49.65 49.80 50.28 50.61 50.83 50.88 50.68 48.67 42.94 33.81 45.52 47.54 35.69 36.28 31.58 34.07 38.55 37.58 40.71 39.00 39.09 37.79 36.60 38.11 37.57 38.35 39.66 43.06 48.02 47.09 42.53 44.38 41.54 36.20 39.88 46.24 47.57 45.21 42.88 41.44 33.85 35.53 37.85
48.15 48.22 48.55 48.92 49.09 49.47 49.74 50.24 50.56 50.48 50.60 46.26 38.68 38.23 46.27 44.44 29.59 31.32 34.49 35.49 36.24 36.30 36.86 36.68 36.77 39.29 40.36 37.46 34.81 40.01 43.82 46.75 48.38 46.89 44.08 44.29 39.92 33.00 35.94 41.44 44.62 41.84 42.66 43.75 43.13 41.19 35.89
47.61 47.87 48.22 48.84 48.97 49.19 49.66 49.74 49.98 50.25 50.55 46.98 37.51 31.59 38.73 41.24 37.96 32.08 31.95 31.96 32.77 38.92 37.28 39.49 37.63 38.59 36.48 36.10 39.99 38.63 41.50 46.24 46.58 47.95 47.81 46.70 40.04 37.46 32.70 36.77 42.66 39.44 42.18 43.52 42.46 35.08 36.26
47.26 47.75 48.05 48.21 49.15 48.91 48.32 48.94 49.88 50.01 50.26 46.31 37.17 33.73 36.77 31.85 33.25 33.81 33.53 34.38 31.79 32.61 37.67 38.70 35.96 36.38 35.66 33.49 36.40 37.67 42.23 43.58 45.73 48.02 46.05 45.47 38.25 40.32 41.00 43.08 44.27 43.25 42.53 42.61 41.54 42.34 38.85
47.32 47.97 48.20 47.91 47.88 47.92 48.21 48.32 48.93 49.46 50.31 44.47 31.98 35.68 37.39 34.06 36.96 34.45 34.30 32.35 32.45 35.16 35.93 35.30 34.17 36.67 37.39 35.01 36.74 36.83 42.20 42.45 42.20 45.06 42.95 46.11 37.47 40.16 37.96 42.29 43.07 41.56 43.91 42.33 42.74 42.52 43.52
47.41 46.94 46.76 46.94 47.36 47.62 47.82 47.66 47.87 48.25 47.97 43.85 41.93 40.02 37.79 35.29 35.20 33.46 32.37 32.65 34.44 36.60 37.99 38.48 38.01 35.75 35.00 37.55 42.05 45.23 46.93 46.27 45.69 43.28 40.76 41.84 38.95 37.43 33.57 40.68 40.82 33.95 39.77 42.15 43.54 44.88 42.91
46.46 46.72 46.78 46.85 47.05 46.83 46.95 46.99 47.14 47.74 47.55 45.83 42.63 40.76 35.98 32.43 33.06 33.34 34.94 35.43 34.95 36.63 35.04 38.35 40.10 36.72 39.93 48.18 48.76 47.53 45.06 44.55 44.57 44.76 45.49 41.01 39.90 37.59 31.19 35.09 28.59 39.53 45.45 45.32 44.11 44.94 45.18
46.18 46.21 46.49 46.72 46.85 46.79 46.79 46.76 46.85 47.07 47.76 44.79 43.15 41.26 37.20 32.77 34.79 34.76 35.32 35.27 36.86 38.13 36.89 38.26 40.72 42.59 43.03 40.18 38.04 36.60 36.28 36.99 39.06 43.12 42.84 42.77 41.33 33.86 31.79 32.63 36.73 40.86 43.48 43.65 42.45 41.64 45.50
46.11 46.44 46.88 46.87 47.02 47.33 47.28 46.93 46.84 46.88 47.60 45.06 43.87 44.50 41.36 34.97 34.57 37.91 36.22 36.93 33.56 33.62 34.96 37.83 42.87 43.55 42.06 37.38 34.62 30.72 28.76 34.65 34.25 37.28 42.81 42.30 41.58 34.76 32.20 28.53 28.00 37.73 45.32 48.81 47.21 36.69 46.42
46.36 46.73 46.75 47.01 47.05 47.13 47.31 47.13 47.19 46.92 47.46 45.40 42.23 44.70 42.47 35.86 39.16 40.38 35.57 35.58 39.75 37.57 35.17 37.44 38.50 38.36 43.18 32.70 29.13 27.57 30.47 37.04 31.60 31.31 32.09 33.53 34.76 32.98 32.90 31.85 34.36 43.92 47.22 48.94 36.51 36.48 47.76
46.93 47.07 46.82 46.72 46.72 47.13 47.18 47.06 47.17 47.15 47.22 45.59 41.90 44.58 42.45 37.60 39.20 42.13 43.19 39.78 39.94 39.54 34.37 36.93 37.03 38.17 35.88 30.25 31.55 29.37 28.28 33.95 33.33 36.66 35.95 34.17 32.13 31.71 34.06 29.91 28.91 46.47 46.40 40.93 43.83 47.21 48.28
46.39 46.20 46.32 46.27 46.20 46.69 46.94 46.95 46.97 47.27 47.13 46.50 40.52 44.16 46.00 41.66 42.23 45.58 44.73 45.96 45.37 45.38 41.64 40.21 37.65 37.58 38.90 34.67 34.11 33.97 28.61 31.10 32.15 28.97 40.14 32.33 36.41 34.33 36.21 35.23 44.99 47.67 46.42 48.66 49.76 49.05 49.21

GFSGBSN_sfc_wetblb_066.txt.gz
Wetbulb
53.78 53.62 53.53 53.68 53.71 54.01 54.20 54.44 55.24 55.20 55.20 55.06 54.58 54.30 54.18 53.46 53.35 53.14 54.03 54.11 54.09 54.03 53.67 54.29 55.84 57.65 54.58 49.23 49.53 56.52 60.96 60.07 55.38 52.07 49.88 48.54 46.23 44.99 41.93 42.83 43.83 42.66 44.68 46.36 47.04 48.73 48.92
54.16 54.29 54.08 53.94 53.72 53.48 53.25 53.72 54.70 54.67 54.34 54.63 54.91 54.41 54.39 53.94 54.03 53.49 52.80 53.42 53.59 53.65 53.84 53.93 55.59 56.99 51.39 43.53 53.35 56.04 57.81 54.69 52.06 49.77 49.61 49.34 47.62 47.79 44.98 43.68 42.39 46.19 46.28 46.48 46.36 48.29 48.93
52.61 53.01 53.22 53.45 54.07 53.96 53.78 54.07 54.36 54.30 54.36 54.26 54.66 54.68 54.46 54.29 54.10 53.68 53.34 53.05 52.92 53.29 53.49 53.66 55.17 55.02 49.60 46.46 53.65 52.51 54.23 53.26 54.87 51.94 49.31 51.10 50.68 46.95 45.91 43.90 47.97 47.17 43.52 44.70 44.61 46.07 45.98
52.14 52.42 52.55 53.44 53.35 53.00 52.85 53.94 53.91 54.12 53.95 54.16 54.36 54.05 53.80 53.78 53.43 53.18 53.04 52.62 52.69 53.12 53.62 53.96 54.84 54.19 44.99 54.59 53.46 53.75 53.95 52.86 54.12 55.38 53.18 53.41 52.20 48.32 45.38 47.01 45.81 43.19 41.99 36.92 43.14 45.56 47.77
51.98 52.08 52.34 52.88 52.92 52.89 53.13 53.33 53.74 53.72 53.93 53.78 53.86 54.00 53.41 53.14 52.99 52.70 52.47 52.41 52.66 52.96 53.66 54.48 52.59 49.72 43.82 55.97 52.38 54.22 53.25 51.13 53.52 54.11 53.69 55.76 51.25 46.00 45.71 40.60 37.86 38.76 34.30 37.60 41.09 46.25 46.62
51.67 51.65 52.46 52.76 52.78 52.65 52.79 52.70 53.02 53.37 53.65 53.57 53.37 53.67 53.45 53.04 52.97 52.31 51.92 52.10 51.93 52.21 51.98 54.80 54.65 45.22 48.26 46.59 51.92 53.04 52.29 52.33 50.83 50.89 49.81 47.77 44.16 41.21 39.72 37.42 32.31 34.31 36.13 35.23 37.13 43.01 45.15
51.03 50.66 51.14 51.83 52.75 52.41 52.00 52.58 52.52 52.27 52.89 53.41 53.30 53.06 53.36 53.37 53.18 52.23 50.27 46.61 44.09 45.52 48.88 47.35 47.48 45.26 46.01 51.55 54.51 50.96 52.70 51.14 49.56 47.46 42.12 44.36 38.75 37.24 38.60 40.56 41.97 41.13 39.45 38.07 40.96 45.42 44.60
49.96 49.84 50.41 51.14 51.61 52.14 52.52 52.46 52.30 52.33 52.31 52.23 52.91 52.58 52.95 52.81 52.69 52.17 48.48 42.87 44.38 43.36 37.72 47.09 49.59 50.43 51.87 52.75 48.35 50.55 51.68 46.12 44.88 40.81 43.82 41.44 38.13 42.89 43.83 43.53 42.18 41.55 40.10 39.43 41.60 46.29 44.96
49.86 49.81 50.10 50.91 51.42 51.97 52.26 52.58 52.39 52.08 52.10 52.08 52.02 52.77 52.16 52.11 52.09 48.21 45.17 44.55 48.83 47.01 38.88 43.81 47.82 47.69 49.88 51.45 47.36 47.92 48.71 46.13 43.18 40.67 41.95 39.84 42.66 45.92 44.01 42.35 41.25 41.31 39.96 40.21 39.86 42.04 42.87
49.57 49.95 50.73 50.56 51.05 51.64 52.27 52.06 52.29 52.12 52.02 51.81 51.81 51.94 51.55 51.32 46.38 45.52 43.27 49.53 49.92 48.22 33.36 36.87 42.40 44.49 46.93 47.24 42.72 49.81 49.73 46.76 43.86 41.17 42.20 41.46 46.43 44.45 42.89 41.68 42.60 38.30 44.37 44.05 42.82 39.55 34.30
49.20 50.04 50.57 50.13 50.95 51.36 51.49 51.74 52.07 52.11 51.98 51.96 51.67 51.72 51.49 51.31 44.08 43.11 47.41 49.59 50.24 46.25 18.48 37.26 41.93 49.93 47.51 42.16 43.54 45.15 50.11 46.64 41.22 43.37 43.40 40.94 42.66 42.35 41.42 42.85 45.09 41.92 46.07 44.21 43.99 39.56 35.69
49.34 49.96 49.88 50.55 50.78 50.96 51.34 51.36 51.52 51.64 51.86 51.72 51.53 51.53 51.22 47.85 44.91 45.81 48.61 49.93 48.02 34.60 21.39 36.01 43.29 41.24 40.94 41.85 42.95 46.20 45.15 47.82 46.69 42.86 44.26 43.74 47.45 44.83 44.67 46.52 46.07 46.93 43.93 43.07 41.86 37.62 30.73
48.80 49.13 49.75 50.24 50.68 50.81 50.85 51.43 51.37 51.40 51.46 51.56 51.60 51.30 50.08 47.68 40.05 45.38 48.31 46.78 35.03 26.88 37.28 34.54 40.99 43.40 40.66 38.72 39.85 41.73 41.33 39.60 37.94 35.37 35.92 41.78 42.84 45.27 46.18 42.35 44.69 43.41 38.73 30.75 29.72 29.13 29.01
48.58 49.05 49.56 50.05 50.47 50.55 50.69 51.04 50.99 51.19 51.35 51.30 50.91 50.74 49.90 47.91 44.91 45.05 46.66 39.33 27.20 32.19 32.49 39.43 39.69 39.85 39.47 39.90 38.98 40.45 38.96 36.06 40.78 39.46 37.07 35.03 33.40 42.42 45.59 43.50 40.96 40.69 39.72 31.37 27.96 25.99 30.24
48.42 48.77 48.96 49.68 50.04 50.50 50.74 50.99 51.20 51.36 51.15 50.80 50.49 48.26 46.51 46.29 45.38 45.46 39.87 29.97 29.61 32.94 37.49 35.34 37.00 34.04 34.70 41.67 41.91 39.17 37.94 37.28 40.21 41.86 35.58 35.69 36.12 44.36 45.45 45.95 44.80 41.22 36.73 43.46 35.98 35.36 30.15
47.87 48.39 48.61 49.07 49.89 50.29 50.47 50.50 50.93 51.23 51.10 50.81 46.71 45.18 43.66 46.83 45.50 43.58 34.69 31.50 33.58 39.04 39.08 38.20 31.88 36.01 32.73 35.88 36.82 36.78 38.03 42.10 41.07 43.38 44.35 40.68 34.74 43.26 45.17 45.04 45.42 43.67 44.65 35.73 36.06 29.93 27.65
47.39 47.99 48.36 48.57 49.21 49.71 50.10 50.55 50.83 51.04 51.17 50.82 45.53 39.45 44.62 46.35 45.72 38.94 29.10 30.90 34.49 39.42 39.80 36.70 34.47 33.34 34.62 35.35 37.43 37.07 37.58 41.69 43.62 43.70 44.20 42.44 38.74 38.25 43.09 41.04 39.29 40.03 38.10 38.52 39.24 37.11 29.60
46.99 47.51 47.60 48.28 48.55 49.16 49.50 50.25 50.41 50.78 50.87 49.14 43.55 34.09 43.78 46.92 33.56 34.06 30.27 33.12 38.04 36.51 39.60 37.31 38.19 36.15 34.32 35.82 34.84 35.99 37.35 40.79 46.52 46.42 40.44 42.88 39.43 34.72 38.22 44.26 45.57 43.54 41.41 39.94 32.88 33.29 34.71
46.73 47.09 47.34 48.01 48.17 48.72 49.04 49.40 49.90 50.32 50.52 46.80 38.64 37.80 45.11 43.30 27.47 28.64 32.43 33.38 35.41 34.81 35.81 35.64 35.17 37.04 37.47 34.74 31.28 36.61 38.57 44.96 47.55 45.45 42.81 42.73 37.21 31.35 34.32 39.36 43.21 39.72 41.45 42.66 40.06 37.77 33.21
46.66 47.00 47.44 47.91 48.28 48.53 48.96 49.34 49.54 50.00 50.47 47.31 35.64 31.48 38.36 39.43 35.36 31.09 30.30 31.16 31.37 38.15 35.50 36.40 35.44 37.64 34.72 32.65 35.81 33.23 36.02 42.71 46.36 45.37 46.20 45.43 40.81 36.26 32.05 35.57 39.45 37.53 40.15 42.50 40.95 31.41 33.23
46.07 46.60 46.93 47.21 47.67 48.00 48.65 48.83 49.38 49.60 50.02 47.00 36.38 33.24 36.77 30.54 32.16 33.04 33.01 32.72 31.28 30.85 36.80 37.52 33.84 33.99 33.44 30.48 32.03 32.37 37.95 42.12 45.82 46.26 45.99 43.94 36.77 39.30 39.63 40.98 41.66 41.23 40.67 40.84 38.90 39.22 35.18
46.06 46.27 46.51 47.02 47.43 47.87 48.36 48.84 48.90 49.41 49.84 44.61 31.67 34.75 37.51 32.31 36.11 33.03 33.07 30.67 30.40 32.82 34.03 33.30 32.52 34.73 35.08 32.03 33.15 31.21 35.61 39.08 41.70 44.83 43.24 44.23 37.01 38.36 37.03 40.47 41.58 39.81 41.42 41.28 40.69 40.30 40.10
46.22 46.51 46.62 46.94 47.38 47.88 48.74 48.35 48.93 48.73 48.47 42.88 41.76 39.79 38.39 35.50 32.97 32.91 30.77 31.00 32.69 33.90 35.64 36.73 36.10 34.81 33.57 35.38 37.56 38.73 42.35 44.08 44.10 42.49 41.68 40.57 38.45 36.26 32.89 38.19 39.25 33.52 38.83 40.28 40.81 41.93 42.10
46.45 46.80 46.94 47.31 47.57 48.03 47.91 47.91 47.87 48.08 48.03 45.34 43.60 41.13 36.25 31.46 31.80 32.02 34.08 34.56 33.45 34.76 32.49 36.61 37.78 35.01 38.41 42.53 42.91 44.22 42.65 42.88 43.52 43.63 45.33 39.23 37.42 37.06 30.71 31.99 27.84 38.75 43.99 42.99 41.67 43.07 44.39
46.31 46.64 47.08 47.45 47.14 47.08 46.94 47.19 47.43 47.72 47.20 43.38 44.47 41.84 37.24 31.87 33.21 33.17 33.99 34.57 35.63 36.10 34.98 35.98 38.63 40.63 40.94 37.50 33.35 33.04 31.47 33.26 36.66 41.36 43.53 42.90 38.07 32.17 30.59 29.81 35.33 38.74 41.49 41.44 40.82 39.22 44.31
46.08 46.04 46.16 46.16 46.23 46.27 46.20 46.40 46.85 46.93 47.50 43.89 43.72 45.24 41.48 34.66 33.33 36.23 34.08 35.36 32.57 32.37 33.25 35.75 40.82 42.39 39.58 33.93 29.99 25.18 23.40 31.11 31.61 36.74 42.81 40.70 39.95 33.77 31.67 28.62 26.87 36.02 42.68 46.39 46.09 34.67 44.47
45.92 46.24 46.36 46.16 46.06 46.11 46.23 46.35 46.46 46.79 47.21 45.19 43.34 44.12 39.68 32.81 37.09 37.87 33.27 33.72 37.08 34.61 31.71 34.45 36.11 36.70 39.36 29.64 25.41 25.13 25.85 35.00 28.90 29.80 30.73 32.17 32.20 31.28 31.72 31.33 33.15 41.17 44.93 47.15 36.07 35.98 45.31
46.55 46.57 46.68 46.59 46.62 46.43 46.43 46.64 46.74 46.94 46.96 45.40 42.38 44.27 39.45 32.99 36.54 40.72 40.44 36.74 37.50 36.79 31.49 34.61 34.54 35.52 33.49 28.79 28.12 26.87 25.07 32.05 32.03 35.23 33.67 31.83 31.02 30.50 32.23 30.35 27.01 45.28 45.52 39.81 41.66 44.79 47.50
46.93 46.82 46.84 46.93 46.71 46.59 46.82 46.68 46.89 47.30 47.09 46.64 40.88 44.44 44.45 39.74 38.40 43.87 43.99 43.56 43.42 42.51 39.01 37.52 36.21 36.45 36.64 32.06 30.74 30.05 26.43 26.54 30.44 27.59 37.66 31.93 36.46 33.83 35.37 34.44 43.45 45.89 46.79 47.49 48.18 46.53 47.46

GFSGBSN_sfc_wetblb_069.txt.gz
Wetbulb
53.95 54.55 54.35 54.12 53.91 53.79 53.75 53.70 54.57 54.61 54.88 54.42 54.51 54.87 54.77 54.20 54.71 54.33 53.78 53.36 53.67 53.79 53.38 53.53 53.72 55.40 53.87 47.35 47.91 54.20 60.83 60.07 54.69 49.84 47.13 47.07 45.25 44.21 40.74 40.82 41.69 41.08 42.87 44.48 45.59 45.93 46.08
52.44 52.88 53.13 53.29 53.58 54.37 54.30 53.95 54.23 54.32 54.39 54.45 54.31 54.45 54.82 54.81 54.94 54.60 54.14 53.60 53.26 53.49 53.74 53.34 53.56 54.50 50.98 41.99 51.84 53.55 55.70 53.52 50.13 48.69 47.86 47.68 45.61 46.17 43.52 42.26 40.58 43.58 44.70 44.85 45.31 45.53 49.12
52.41 52.23 52.38 53.20 53.30 53.03 52.93 52.80 53.04 53.86 53.92 54.06 54.11 54.25 54.37 54.25 54.13 54.37 53.92 53.47 53.12 53.37 53.51 53.22 53.55 52.22 48.24 44.96 51.94 51.70 52.02 50.93 51.53 49.68 47.57 49.66 49.08 45.62 44.76 42.89 45.87 45.03 41.62 43.01 43.37 43.79 45.24
52.16 52.23 52.17 52.89 53.00 53.19 53.15 53.10 52.88 52.53 53.17 54.08 54.03 53.90 53.81 53.71 53.28 53.30 53.38 52.89 52.72 53.24 53.45 53.49 53.39 52.47 43.95 53.33 52.05 51.75 51.33 51.37 52.91 51.75 51.69 51.94 50.31 47.25 45.12 45.63 44.08 40.92 39.67 35.63 41.91 43.31 45.39
51.79 51.74 51.92 52.23 52.75 52.80 52.85 52.77 52.77 52.86 52.63 53.36 53.65 53.48 53.15 53.14 52.89 52.93 52.83 52.78 52.66 53.08 53.38 53.35 51.15 50.15 43.22 54.31 50.80 53.71 52.42 49.59 51.11 52.30 52.28 54.86 50.04 45.71 44.14 39.44 35.82 36.69 31.71 35.30 39.41 42.70 43.63
51.32 51.02 51.17 51.18 51.93 52.55 52.71 52.79 52.56 52.64 52.39 52.95 53.28 53.46 53.09 52.79 52.79 52.42 52.26 52.06 52.16 51.58 50.96 53.08 53.36 43.40 45.66 44.85 50.10 52.18 51.88 51.25 48.47 49.35 48.57 47.55 43.95 39.54 37.69 36.36 30.55 32.24 33.83 32.84 35.20 40.18 42.79
50.64 50.65 50.58 50.25 50.44 51.20 51.79 52.50 52.75 52.49 52.56 52.64 52.27 52.82 52.87 52.66 52.70 52.11 50.35 46.08 41.54 42.98 45.28 43.46 45.19 44.55 46.25 50.56 54.15 50.12 51.31 48.81 47.95 45.56 40.65 42.92 37.75 34.86 38.97 39.17 39.76 38.82 36.79 35.23 39.04 42.61 41.86
50.06 50.21 49.51 49.46 50.12 50.80 51.49 52.22 52.70 52.57 52.64 52.72 52.47 52.43 52.74 52.39 52.52 52.15 48.29 42.56 42.27 43.35 38.86 44.63 43.87 46.88 50.39 52.04 46.34 48.79 50.73 45.17 43.69 39.58 41.94 39.63 37.36 41.09 42.00 41.74 40.39 39.09 36.57 36.15 39.84 42.86 42.32
49.39 49.47 49.40 49.41 49.46 50.57 51.16 51.77 52.29 52.31 52.29 52.22 52.14 51.99 52.37 51.90 51.57 48.12 45.25 44.66 49.05 48.16 39.44 41.52 43.62 42.88 44.20 48.93 45.25 45.95 48.94 45.36 42.15 39.09 40.17 37.87 40.89 44.56 41.84 40.31 39.08 38.51 36.72 36.80 37.43 40.90 42.40
48.87 48.98 48.85 48.57 49.48 50.22 50.73 51.11 51.59 51.99 52.00 52.16 51.96 51.94 51.44 51.22 45.15 45.08 43.01 48.34 48.86 49.08 32.04 33.68 40.18 42.72 45.47 47.90 42.87 49.83 49.71 45.91 42.09 39.45 40.36 39.25 44.61 42.91 40.47 39.55 40.20 35.86 41.34 41.44 40.16 37.16 32.96
48.20 49.17 49.04 48.95 49.39 50.32 50.60 51.46 51.60 51.67 51.90 51.86 51.74 51.63 51.26 51.33 42.72 41.96 46.06 48.24 49.64 45.82 17.85 35.98 41.18 47.86 46.14 41.58 41.42 44.11 49.77 45.49 39.90 40.65 40.55 38.11 41.45 40.76 39.90 41.16 42.31 39.48 43.49 41.79 40.77 37.39 34.17
48.00 47.61 47.96 48.42 49.58 49.87 50.68 50.84 51.34 51.50 51.62 51.84 51.70 51.72 51.31 47.92 45.01 45.83 47.21 47.32 47.88 34.05 19.55 32.89 41.23 40.73 40.11 41.25 41.35 45.09 44.09 46.83 45.85 41.66 41.00 40.70 45.18 43.21 42.93 44.72 43.87 45.10 42.02 40.87 38.96 36.03 29.54
47.67 47.51 47.39 47.82 48.91 49.34 50.18 50.78 50.93 51.06 51.13 51.35 51.20 51.61 50.46 46.99 39.33 44.58 44.87 44.35 34.16 25.62 35.15 32.57 37.95 39.32 38.89 37.97 38.92 41.57 39.57 38.22 37.48 34.30 34.42 38.81 40.71 42.99 44.63 40.98 43.33 41.41 36.94 29.20 27.48 27.37 28.80
46.58 47.16 47.43 47.30 48.63 49.02 49.62 50.58 50.43 50.49 50.76 51.11 50.82 50.68 50.18 47.28 45.27 44.43 42.58 37.46 27.19 31.31 30.82 37.14 37.49 37.44 37.18 37.97 37.92 38.86 37.24 34.16 39.28 38.88 34.65 32.61 30.40 40.35 44.33 42.15 39.45 38.56 37.64 29.93 26.60 25.48 29.00
46.34 46.94 47.37 48.02 48.43 48.73 49.26 50.03 50.30 50.56 50.63 50.80 50.51 48.40 45.77 45.79 45.05 43.87 36.32 28.65 29.27 32.62 35.97 34.78 36.07 31.98 33.39 38.90 39.53 36.90 35.84 35.09 37.36 39.28 35.41 32.68 32.63 42.57 43.98 44.13 43.32 39.16 35.07 41.13 33.39 33.04 29.54
46.17 46.98 47.23 47.62 48.02 48.43 48.86 49.57 50.05 50.36 50.54 50.39 46.94 45.30 43.89 45.88 45.52 40.52 32.72 29.84 34.06 38.53 38.23 37.30 30.25 33.78 30.26 33.63 35.53 36.20 36.57 40.24 38.95 40.75 42.47 39.07 33.01 41.29 43.13 43.38 43.26 41.45 43.03 34.31 33.69 27.30 26.56
45.82 46.38 46.75 47.32 47.48 48.10 48.40 49.06 49.65 50.12 50.39 50.44 45.87 39.88 44.80 46.56 46.02 35.77 25.95 29.20 34.50 39.17 38.83 34.34 33.40 32.42 32.84 32.00 33.65 34.21 36.42 40.13 42.81 42.68 42.37 41.35 36.98 36.24 41.04 38.50 37.57 38.04 38.18 37.57 37.81 33.68 28.40
46.23 46.56 46.61 46.99 47.18 47.87 48.18 48.79 49.40 49.60 50.06 48.62 44.06 33.84 44.70 46.74 33.41 31.00 26.67 30.96 37.31 35.47 38.02 36.45 36.31 35.42 33.51 33.75 32.33 33.87 34.93 38.56 44.39 44.52 39.56 40.81 37.15 33.37 36.83 42.15 43.38 41.95 39.50 38.76 31.29 30.94 32.98
46.11 46.35 46.47 46.82 46.88 47.39 47.81 48.09 48.80 49.14 49.59 46.51 38.62 37.60 44.91 43.14 28.58 26.95 30.07 31.45 33.99 34.54 34.55 34.38 33.85 35.43 35.99 32.87 29.30 34.01 36.88 41.89 45.34 43.57 42.23 43.40 35.91 30.73 33.08 37.28 41.12 38.26 39.49 40.73 38.70 35.67 32.83
45.79 46.03 46.15 46.27 46.78 47.25 47.50 47.93 48.47 48.90 49.66 46.80 33.82 31.27 37.38 39.24 34.44 30.40 28.73 28.55 29.90 35.77 34.30 35.54 34.37 35.07 33.67 31.20 33.87 31.32 33.30 39.63 43.80 45.51 46.07 45.02 38.98 35.01 29.75 33.58 37.67 35.89 39.43 40.54 39.63 31.83 31.81
45.53 45.79 45.67 46.08 46.64 46.87 47.42 47.65 48.51 48.88 49.10 46.16 35.44 33.04 35.71 30.52 32.24 32.09 31.52 31.18 28.67 30.12 34.78 36.68 32.91 32.77 31.49 29.05 30.11 29.51 33.28 35.70 42.93 46.12 45.75 43.70 35.48 38.24 38.46 39.81 40.09 39.49 39.27 39.60 38.23 38.14 33.77
45.36 45.39 45.36 45.80 46.61 46.35 47.14 47.74 48.09 48.55 48.81 43.34 31.59 34.20 37.62 33.99 35.99 32.62 32.65 29.53 29.96 31.00 32.80 31.70 31.08 33.67 33.18 29.88 31.36 29.49 32.40 33.74 37.04 42.81 42.68 43.42 36.69 37.05 34.68 39.01 39.13 37.42 39.89 40.04 39.07 39.26 39.07
45.62 45.78 45.97 45.79 45.85 46.55 46.98 47.32 47.59 48.04 48.14 41.21 41.76 40.04 38.39 35.29 33.35 31.81 30.54 31.51 31.54 34.08 35.30 35.94 34.92 33.19 32.15 33.84 36.10 37.38 37.76 37.38 37.31 40.78 39.39 40.15 37.31 35.06 30.08 36.00 36.42 32.30 37.04 38.99 40.26 40.92 40.07
45.67 45.59 45.79 45.95 46.16 46.80 46.87 47.04 47.26 47.84 47.82 44.86 43.37 40.78 35.82 31.49 31.71 31.77 33.85 33.75 32.56 34.04 31.71 35.81 36.53 33.72 37.17 40.33 39.18 40.64 38.42 40.52 41.85 42.05 43.31 37.31 35.75 34.70 31.40 32.81 27.04 37.36 42.34 42.77 40.29 41.82 42.39
45.99 46.20 46.34 46.60 46.71 47.03 46.96 47.08 47.19 47.54 48.43 45.34 43.97 41.84 37.40 32.00 33.94 33.18 34.18 33.88 34.19 34.69 34.31 34.04 36.92 39.43 40.18 36.51 31.54 29.83 29.84 32.66 34.64 39.50 40.55 40.55 35.36 31.32 27.70 29.06 34.11 35.75 40.38 39.30 38.54 39.16 43.29
46.01 46.37 46.78 46.60 46.62 46.78 47.01 47.08 47.62 47.14 48.57 45.65 43.62 44.76 41.22 35.12 33.32 36.27 34.02 35.23 31.69 30.93 32.22 34.66 40.08 41.68 38.39 34.22 29.68 25.49 21.00 27.92 30.29 36.02 43.06 40.40 38.40 32.89 31.17 26.94 24.09 33.38 40.54 43.37 44.07 34.46 43.36
45.83 46.23 46.25 46.27 46.06 46.27 46.92 46.99 46.93 47.21 47.52 45.35 42.01 44.08 39.52 34.18 37.92 38.06 33.13 33.15 36.13 33.82 30.72 34.02 35.70 35.45 37.62 28.86 26.28 24.14 25.00 31.63 27.30 29.25 31.40 32.43 32.31 31.71 30.69 29.67 30.87 38.84 42.14 45.22 34.00 34.30 44.77
45.83 46.01 46.22 46.02 45.85 45.78 45.83 46.09 46.44 46.61 46.87 44.88 42.11 44.22 39.39 34.03 36.24 40.08 40.28 36.72 36.40 35.74 30.21 33.66 34.38 34.01 31.00 27.20 26.88 26.12 22.80 28.96 29.77 32.69 31.42 30.10 29.80 27.47 31.97 29.26 23.55 43.42 43.06 39.25 41.40 44.20 44.72
46.73 46.38 46.53 46.48 46.27 46.22 46.04 45.80 46.02 46.09 46.45 45.76 40.65 44.89 44.44 38.19 37.42 40.74 42.43 44.17 42.38 41.35 38.00 37.19 35.95 35.77 35.39 30.36 28.46 28.18 24.11 24.40 29.05 25.26 36.00 29.40 32.81 29.86 31.84 32.40 40.64 42.31 43.01 45.10 46.35 46.23 46.58

GFSGBSN_sfc_wetblb_072.txt.gz
Wetbulb
52.87 52.92 53.15 53.32 53.63 54.02 54.34 54.25 53.85 54.25 54.31 54.45 54.43 53.80 53.41 53.85 54.21 54.90 54.60 54.20 54.09 53.66 53.40 53.31 53.40 53.78 51.69 45.11 45.07 52.12 60.16 60.22 54.16 49.04 46.53 45.62 43.91 42.83 40.24 40.12 40.43 38.86 41.14 42.46 44.19 44.55 43.12
52.13 52.21 52.20 52.23 52.54 52.70 53.03 53.09 52.66 53.24 53.83 54.00 54.02 54.12 54.04 53.32 53.49 54.01 53.84 53.84 53.73 53.55 53.39 53.11 53.34 53.24 49.31 39.39 49.62 51.73 52.29 52.27 48.81 46.31 46.06 45.97 44.27 45.36 42.43 41.27 40.07 41.89 42.40 43.06 43.57 44.06 44.92
51.38 51.80 52.02 52.44 52.33 52.33 52.26 52.59 52.66 52.52 52.79 53.08 53.82 53.75 53.96 52.85 53.04 53.42 53.44 53.13 53.26 53.36 53.41 53.26 53.20 50.58 45.90 42.64 50.15 50.65 51.44 49.42 49.63 47.65 45.99 47.62 47.24 44.11 43.84 41.19 44.24 42.96 39.91 40.60 40.62 41.28 41.99
51.64 52.21 51.98 52.33 52.58 52.73 52.77 52.77 52.19 52.18 52.48 52.54 52.48 53.38 53.36 53.22 53.28 53.08 53.12 52.79 52.87 53.28 53.34 53.28 53.05 50.09 42.39 52.37 51.00 51.00 49.43 49.84 51.42 50.43 49.30 50.05 48.74 45.70 43.82 44.79 42.72 38.90 37.84 33.48 39.51 41.61 43.15
50.77 51.08 51.11 51.43 51.83 51.86 52.43 52.74 52.68 52.09 52.09 52.70 52.72 52.95 53.01 52.88 52.63 52.36 52.25 52.21 52.33 52.91 53.58 53.35 48.72 47.34 41.22 53.31 48.93 51.43 51.26 48.23 49.09 50.43 49.85 53.05 48.34 44.12 42.64 38.72 35.27 35.24 30.37 32.90 37.18 41.20 41.98
50.15 50.51 50.39 50.10 50.49 50.72 50.71 52.12 52.39 52.68 52.72 52.76 52.62 52.55 52.10 52.39 52.42 52.05 51.69 51.58 51.78 50.85 50.52 50.89 51.78 40.37 42.88 41.50 48.83 50.62 51.09 50.97 47.39 47.97 47.60 46.80 43.44 38.68 37.04 35.14 29.36 31.82 32.13 31.32 33.44 37.24 38.79
50.27 50.19 49.95 49.81 49.70 49.69 50.26 50.80 52.04 52.43 52.64 52.85 52.72 52.76 52.41 51.92 51.75 52.11 49.36 45.23 40.83 40.27 42.15 41.31 42.72 40.70 44.44 50.79 53.79 49.27 50.02 47.86 46.37 44.53 39.55 42.32 37.84 35.33 36.26 38.06 37.80 36.57 35.09 33.59 35.61 39.73 38.24
49.60 49.12 48.92 49.24 49.51 49.20 49.75 50.75 51.87 51.93 52.49 52.56 52.35 52.39 52.23 52.23 52.52 51.83 47.15 41.25 42.01 43.30 37.06 43.18 42.98 43.13 47.01 49.47 44.24 45.40 50.33 44.02 42.63 38.17 40.69 37.50 36.17 41.34 41.63 40.09 39.19 37.47 35.28 34.54 37.87 40.84 39.29
49.47 49.28 49.07 49.26 48.99 49.06 49.26 50.40 51.19 51.66 51.85 52.10 52.13 52.27 52.16 51.86 51.63 46.25 44.52 43.62 48.56 47.55 38.31 39.99 43.28 42.33 43.39 45.84 42.29 43.20 46.74 44.53 41.29 38.27 38.78 37.50 39.52 43.50 40.41 38.11 37.50 36.72 36.08 34.66 35.93 37.92 39.09
48.87 48.80 48.74 49.02 48.98 48.31 48.94 49.90 50.33 50.97 51.46 51.68 51.84 52.13 51.60 51.08 43.97 43.45 42.80 47.40 47.76 48.28 32.33 32.70 38.44 41.05 43.38 45.15 40.30 47.90 47.75 44.55 42.01 38.95 39.98 38.47 43.22 41.14 38.70 37.84 38.38 33.78 39.38 39.09 37.28 35.01 30.72
48.52 48.24 48.13 48.48 48.04 48.74 49.08 49.43 49.79 50.47 51.53 51.68 51.42 51.96 51.45 51.15 41.29 40.07 44.79 47.82 47.59 45.97 16.49 35.45 39.75 45.95 45.91 40.05 39.59 43.64 48.69 43.37 38.57 39.73 40.14 36.84 39.28 39.83 37.69 39.02 40.41 37.48 41.07 38.90 38.14 34.93 32.38
47.95 47.89 47.94 47.89 48.18 48.41 48.15 49.07 50.12 50.87 51.20 51.44 51.17 51.40 51.19 47.55 45.99 45.31 46.27 45.58 46.71 32.04 19.20 32.43 41.02 39.98 39.78 41.05 39.46 43.82 43.30 44.23 44.21 41.11 38.85 38.70 43.28 41.58 41.88 43.61 42.00 43.13 39.59 38.83 37.06 34.28 27.96
47.76 47.53 47.91 47.48 47.46 47.25 47.23 48.23 49.28 50.28 50.61 50.88 50.93 51.25 49.93 46.17 38.68 44.19 43.51 42.42 31.61 23.89 34.85 31.72 35.04 39.35 38.40 37.22 38.17 39.55 38.32 36.14 34.42 33.14 33.55 37.22 39.44 42.55 43.93 39.55 41.03 39.65 35.54 28.18 26.67 26.93 27.46
47.55 47.42 47.26 46.77 46.92 47.18 47.12 48.19 49.02 49.66 50.40 50.60 50.42 50.26 49.86 46.30 43.69 43.57 41.10 35.55 25.60 30.31 30.81 36.98 35.74 36.21 34.95 37.42 36.96 37.93 35.83 32.37 37.20 37.50 32.41 31.97 30.58 39.70 43.31 41.58 38.87 37.75 35.99 28.81 25.84 24.83 28.35
46.89 46.83 47.01 46.54 46.81 46.60 47.02 48.26 48.56 49.17 49.96 50.22 50.13 48.06 46.94 46.53 44.60 44.06 34.04 26.12 26.30 30.72 35.50 34.11 35.10 31.40 32.93 36.88 38.27 36.02 34.20 33.16 35.90 38.69 34.63 32.65 32.21 40.87 42.78 43.65 43.57 37.32 32.99 39.07 31.66 31.09 29.07
46.45 46.30 46.87 47.16 46.74 46.95 47.65 48.05 48.04 48.78 49.67 49.83 45.81 45.28 44.53 45.69 45.84 42.04 30.03 26.45 31.63 37.12 36.64 35.67 29.12 33.21 29.46 32.32 33.54 34.92 35.69 39.88 37.34 39.46 40.97 37.42 32.07 40.21 42.29 42.94 41.41 39.97 40.87 32.61 31.70 26.28 25.92
45.83 46.14 46.47 46.58 46.50 46.80 47.22 47.67 47.94 48.39 49.23 49.56 44.93 39.88 44.94 46.72 46.34 37.14 25.65 25.21 31.63 36.73 37.94 33.73 32.38 30.74 32.00 31.17 32.59 32.60 34.80 39.27 42.27 42.25 39.98 38.26 35.80 35.35 40.65 37.25 36.24 36.43 35.74 35.54 35.77 31.66 27.04
45.45 45.42 45.48 45.58 45.56 46.73 46.99 47.49 47.72 48.20 48.69 47.44 42.93 33.73 44.97 46.51 33.47 33.40 28.36 28.51 35.91 34.22 37.50 35.83 35.82 34.11 32.32 32.42 31.13 32.39 33.86 37.72 42.56 42.83 37.46 39.48 34.97 30.41 35.19 40.99 41.85 39.26 37.65 37.40 31.30 29.57 31.35
45.14 45.22 45.06 45.24 46.02 46.37 46.56 47.18 47.46 47.83 48.42 44.64 38.44 35.67 44.91 43.74 29.17 29.19 31.09 29.88 32.31 32.93 33.62 33.76 32.74 34.26 34.85 31.33 27.71 31.76 35.36 41.17 40.79 41.78 41.35 41.99 34.61 27.52 31.23 36.37 39.61 36.51 38.17 39.07 37.32 34.57 32.73
44.28 44.86 44.84 44.87 45.88 46.35 46.60 46.69 47.17 47.62 48.27 44.86 32.22 30.35 36.49 39.49 35.84 31.61 29.39 27.96 27.87 34.00 33.59 34.43 33.29 34.36 32.90 30.68 32.59 30.34 32.05 37.12 39.03 40.60 45.79 44.60 38.77 35.48 29.17 32.38 37.55 34.23 36.95 38.86 38.03 31.31 30.81
44.84 44.96 44.86 45.01 45.59 45.96 46.18 46.52 46.93 47.25 47.87 44.37 32.22 31.56 35.93 29.44 32.42 32.59 31.92 29.87 26.93 28.65 33.65 34.51 31.11 31.66 30.30 27.18 29.27 28.45 32.66 35.15 37.94 42.20 43.02 42.20 34.77 37.82 38.43 39.64 38.63 38.13 37.69 37.82 35.46 36.61 33.06
44.98 44.82 44.76 44.94 45.15 45.56 45.98 46.48 46.50 46.94 47.33 42.04 30.89 33.25 37.52 31.48 35.64 32.97 32.03 29.38 28.03 28.87 31.35 30.04 29.58 32.56 32.02 28.61 29.69 28.12 31.08 30.32 31.44 37.57 40.20 41.65 33.36 36.05 34.05 38.04 38.06 35.62 38.12 37.91 37.23 37.01 37.14
45.76 45.67 45.39 45.34 45.41 45.72 45.88 46.08 46.41 46.82 46.43 40.65 38.65 39.25 38.42 35.18 33.74 31.82 30.60 30.83 30.16 32.95 33.74 34.92 34.77 33.10 31.04 32.24 34.62 35.25 35.87 35.48 34.83 32.98 31.55 36.84 35.56 32.84 28.66 36.37 35.22 29.46 34.55 36.04 37.55 38.85 38.39
46.22 46.22 46.06 45.73 45.62 45.79 45.90 45.70 46.01 46.25 46.39 43.38 41.11 40.12 35.49 31.01 32.70 32.36 33.27 33.39 32.78 32.77 31.78 35.63 35.54 33.53 37.00 38.92 38.07 37.20 35.19 35.24 35.23 34.99 36.73 35.75 35.50 33.50 28.60 31.26 23.76 33.63 40.81 39.62 37.83 39.45 40.76
46.11 46.15 46.37 46.29 45.97 45.90 45.99 45.99 45.64 46.16 46.74 44.40 43.73 40.51 36.28 31.22 33.95 33.00 33.87 33.02 34.20 35.46 33.76 34.50 36.89 39.07 40.50 36.15 31.14 28.69 28.15 30.72 32.78 35.45 36.52 40.70 35.11 30.04 23.97 27.43 31.03 33.01 37.02 39.36 35.37 35.80 40.23
45.92 46.04 46.11 46.32 45.73 46.11 45.76 45.87 46.16 46.34 47.13 45.13 43.66 45.19 40.58 33.92 32.84 35.84 34.12 34.87 31.64 31.23 31.99 34.19 39.54 40.90 39.35 34.09 30.39 26.65 21.59 26.94 27.36 33.31 37.87 37.48 36.27 30.56 30.76 24.37 21.51 29.96 39.30 43.07 41.68 31.00 41.89
45.93 45.97 45.94 45.92 45.90 45.99 46.29 46.29 46.45 46.82 47.28 45.40 43.61 45.31 39.88 34.85 38.24 37.74 33.91 34.53 36.49 33.98 31.05 33.44 34.98 34.83 37.34 31.03 28.52 26.76 25.90 30.12 24.94 28.97 30.71 32.89 32.27 30.45 30.39 28.31 30.25 36.44 42.19 44.34 30.68 31.07 41.75
46.64 46.34 45.78 45.87 45.94 45.92 46.16 46.08 46.37 46.96 47.07 45.51 42.90 45.59 39.67 34.20 37.75 40.36 39.90 36.83 36.93 35.46 30.70 34.09 34.39 33.85 31.92 27.58 27.75 27.68 24.26 27.51 27.24 31.23 30.65 29.29 28.23 30.02 31.15 28.62 25.47 39.93 42.08 37.61 40.29 41.50 42.70
46.15 46.52 46.14 45.71 45.83 45.72 45.94 46.18 46.28 46.80 46.94 46.30 39.96 44.29 44.26 38.18 37.99 41.54 42.57 43.06 42.42 40.93 37.66 37.43 34.74 33.71 33.36 28.49 27.39 27.82 23.72 23.93 28.23 24.41 33.84 27.05 30.95 29.42 30.78 30.35 37.94 39.77 39.46 43.75 44.58 43.78 43.20

GFSGBSN_sfc_wetblb_075.txt.gz
Wetbulb
52.27 52.37 52.31 52.56 52.57 52.99 53.16 53.41 53.46 53.03 53.75 53.97 53.73 53.63 53.47 53.25 53.03 53.28 53.85 53.66 53.91 53.78 53.82 53.76 53.67 53.72 51.67 43.73 43.09 52.63 58.49 60.22 57.25 51.88 49.25 48.56 47.68 46.58 44.64 44.37 44.10 43.22 45.15 45.20 46.54 46.47 46.55
51.30 51.35 52.28 52.17 52.53 52.37 52.34 52.45 52.51 53.07 53.15 53.25 53.40 53.89 53.34 53.40 52.61 52.84 53.40 53.06 53.31 53.52 53.42 53.51 53.51 53.12 48.96 36.79 49.51 52.89 52.46 53.96 51.65 49.89 48.78 48.72 47.55 48.37 46.34 45.17 44.09 45.73 44.91 45.74 46.90 47.08 46.71
52.09 52.09 52.51 52.56 52.47 52.06 52.08 52.15 52.04 52.25 52.47 52.55 53.05 53.25 53.35 52.72 53.21 52.88 53.13 53.00 52.59 52.67 52.82 53.24 53.36 50.77 44.23 40.16 50.40 51.56 51.73 51.07 51.79 49.84 48.00 49.22 49.42 47.67 47.39 44.77 46.62 45.96 43.67 44.91 45.36 46.11 45.58
51.27 51.52 51.72 51.77 52.01 51.75 51.43 51.51 52.12 52.02 52.08 52.08 52.13 52.63 52.84 52.74 53.13 53.05 52.80 52.49 52.32 52.32 52.68 52.71 53.28 49.33 40.50 51.14 52.87 51.59 51.91 50.26 51.70 51.67 50.49 52.16 51.55 48.76 47.38 47.88 45.65 43.56 42.45 39.12 43.06 45.92 46.38
51.51 50.77 51.18 51.12 51.31 51.21 51.20 51.28 51.74 51.99 52.20 52.76 52.80 52.73 52.61 52.20 51.93 51.93 51.98 52.11 51.67 52.68 52.79 53.20 49.15 46.80 39.47 52.27 48.62 52.06 52.05 47.64 49.72 50.49 51.38 52.67 50.96 47.66 46.13 43.45 40.89 40.39 36.94 37.43 40.29 44.89 46.70
51.17 50.83 50.51 50.62 50.27 50.06 50.10 50.59 51.25 51.99 52.36 52.75 52.82 52.88 52.57 52.41 52.16 51.59 51.63 50.68 51.30 51.36 51.03 50.96 50.39 41.48 42.56 40.91 48.48 51.93 52.07 51.58 48.10 48.31 48.96 48.44 46.61 43.99 42.03 41.53 34.93 36.98 36.92 38.43 39.20 43.50 44.25
50.18 50.46 49.81 49.61 49.61 49.85 49.67 49.59 50.54 51.46 52.03 51.96 52.01 52.26 52.53 52.41 52.16 52.01 48.93 45.26 41.66 41.16 43.09 42.19 42.32 39.72 42.79 49.88 53.60 50.66 51.65 49.70 48.70 46.22 42.46 45.50 41.57 39.11 41.36 42.58 41.42 40.52 38.71 38.29 40.96 43.16 42.32
50.37 50.24 50.37 48.84 49.05 49.36 49.42 49.43 50.16 51.06 51.34 51.48 51.78 51.99 52.32 52.53 52.06 51.69 47.06 41.64 42.63 42.95 36.87 43.29 42.52 42.27 45.45 47.99 42.64 47.20 50.88 45.93 44.12 39.71 43.00 41.21 38.84 43.74 43.54 42.82 42.04 40.56 38.76 39.06 41.53 43.00 42.36
49.27 49.03 49.34 49.16 48.50 48.61 49.18 48.88 49.42 50.66 51.07 51.33 51.81 51.66 52.19 52.03 51.37 45.80 44.34 43.39 47.95 46.47 38.20 39.89 42.38 41.41 42.51 45.00 40.66 41.78 48.11 46.05 42.60 39.97 41.02 39.63 41.80 44.33 42.73 40.83 39.83 40.03 38.97 39.24 38.63 41.40 42.90
48.49 49.06 48.88 48.52 48.49 48.62 48.52 48.08 49.03 49.64 50.16 50.96 51.55 51.78 51.71 51.39 43.86 43.81 42.80 47.15 47.72 47.77 32.04 32.80 38.18 41.60 43.49 44.85 39.08 45.54 46.75 45.42 43.14 39.82 40.87 40.74 44.44 41.98 41.19 40.07 41.57 37.00 41.59 41.10 39.94 38.53 34.41
48.01 49.06 48.77 48.54 47.56 48.77 48.23 47.82 48.68 48.87 49.57 50.56 51.04 51.52 51.50 51.33 42.34 40.79 44.13 47.78 46.94 46.50 18.81 35.48 39.49 46.60 45.03 39.10 40.73 42.71 47.95 44.30 38.86 40.81 41.51 38.77 40.17 40.67 38.68 40.21 41.99 39.64 42.62 41.36 41.02 38.46 37.50
47.44 47.82 48.40 48.14 48.49 48.47 47.95 47.96 47.70 47.98 48.87 49.57 50.40 51.00 50.69 47.94 47.36 46.76 47.23 46.21 45.56 31.81 19.46 32.63 40.76 39.95 38.47 40.47 40.70 44.78 43.31 46.23 44.50 41.41 41.14 41.10 44.84 43.68 42.47 43.65 43.18 44.42 42.06 41.08 40.64 38.85 32.61
46.49 47.47 47.74 47.80 48.13 47.78 47.13 47.23 47.27 47.58 48.83 49.35 50.06 50.59 49.59 47.53 42.11 45.51 44.88 42.27 29.61 24.04 35.25 32.24 33.93 39.14 38.05 37.83 38.34 40.36 38.77 37.25 36.21 32.64 33.80 39.10 40.48 44.03 45.05 41.04 43.02 42.57 39.42 32.87 31.77 31.58 31.18
46.57 46.44 47.63 47.69 47.75 47.10 46.33 47.05 47.50 47.90 48.57 49.27 49.57 49.64 48.75 47.63 45.58 45.89 42.14 34.67 22.73 30.37 31.04 37.45 36.73 36.47 34.23 38.23 37.92 38.82 36.85 34.35 38.92 38.40 34.87 32.78 31.43 40.86 44.68 42.92 40.17 39.62 39.31 33.96 27.54 29.48 33.50
45.95 45.98 46.40 46.81 46.92 46.75 46.57 47.03 46.66 47.69 48.13 48.91 49.02 46.39 46.34 47.64 45.95 46.71 36.22 23.41 26.30 31.15 35.47 33.78 35.27 32.86 33.46 36.38 37.41 37.23 35.79 35.19 37.54 39.14 34.86 33.04 33.14 41.83 43.67 45.28 45.05 39.63 36.57 42.61 35.30 35.19 33.54
45.16 45.48 45.72 46.82 46.76 47.04 46.84 46.66 46.42 46.76 47.58 48.39 44.95 44.03 43.48 47.83 47.09 43.01 31.43 24.87 30.33 37.28 36.72 35.65 29.91 33.36 29.61 32.57 33.48 35.96 37.00 40.42 39.48 40.80 43.06 39.03 33.39 40.55 42.03 44.57 44.71 42.80 43.85 35.92 36.27 29.05 28.03
44.74 44.92 45.31 45.84 46.03 45.99 46.24 46.02 46.09 46.42 47.01 48.19 43.10 38.00 45.60 47.77 46.43 37.20 27.33 27.66 30.09 34.99 36.20 33.82 32.05 31.03 31.93 31.35 33.05 33.80 34.94 39.48 41.23 42.08 41.85 41.04 38.63 37.47 41.78 39.66 38.56 39.55 38.55 39.17 39.49 36.48 31.79
44.47 44.45 44.53 44.70 44.96 45.43 45.73 45.41 45.70 46.30 46.99 45.18 40.69 32.69 45.13 46.68 34.56 33.78 29.43 30.96 35.07 33.21 37.22 36.10 35.97 34.30 32.69 33.31 31.71 32.62 34.24 37.14 39.56 41.99 39.01 41.76 36.72 32.46 35.68 41.57 43.31 42.12 40.54 40.56 34.54 32.63 34.91
43.83 44.06 44.01 44.32 44.56 45.18 45.30 45.27 45.68 46.54 46.24 42.68 36.97 36.40 45.20 44.57 29.48 30.08 32.83 31.17 32.45 32.02 34.18 34.14 33.10 34.75 35.58 32.61 29.78 33.02 34.67 40.63 39.95 38.25 35.99 41.82 37.12 31.29 33.39 38.23 41.70 38.84 39.99 41.17 39.78 37.62 34.56
44.07 44.04 43.94 43.58 44.22 44.98 45.06 44.94 45.43 45.89 46.22 43.33 33.84 29.43 36.27 39.85 37.57 33.57 30.72 29.27 28.14 33.89 33.25 35.52 34.08 35.19 33.65 32.02 34.29 31.70 33.02 37.44 39.63 39.21 42.38 44.35 38.95 35.50 30.76 33.91 38.73 36.72 38.90 40.77 38.79 34.09 35.01
44.86 44.66 44.71 44.90 45.12 44.76 44.79 44.89 45.83 45.75 46.71 42.64 33.30 31.21 35.51 29.51 31.70 33.31 33.76 31.94 28.85 28.25 33.38 35.25 32.37 32.88 31.76 28.51 29.98 30.47 33.42 34.88 37.25 39.89 42.00 42.02 33.94 35.76 36.26 37.40 38.06 37.59 37.74 38.53 37.34 38.00 33.95
45.19 45.11 44.90 44.86 45.09 45.34 45.46 45.44 45.61 45.98 46.57 39.92 31.47 33.04 37.03 34.58 34.81 33.28 33.09 30.67 28.98 30.03 31.78 29.83 30.24 32.75 33.09 29.84 31.19 29.55 32.66 32.56 31.80 36.59 36.31 37.40 34.52 37.44 34.47 38.10 38.03 36.03 38.56 38.55 39.30 39.67 38.82
45.77 46.01 45.70 45.50 45.45 45.48 45.55 45.41 45.62 45.62 45.42 38.43 39.66 38.94 37.85 35.29 33.74 32.57 31.48 31.76 31.08 32.55 33.45 35.06 34.12 32.21 31.11 33.72 36.25 37.24 37.49 37.03 36.29 33.97 32.76 33.70 36.33 34.35 30.18 36.78 36.72 31.05 35.66 38.70 39.18 40.91 40.43
46.73 46.56 46.64 46.45 46.38 46.24 45.66 45.47 45.52 45.73 45.40 40.97 39.67 38.86 33.93 29.23 32.49 32.77 33.73 33.78 32.64 33.24 31.26 34.93 35.78 34.30 37.31 41.10 40.20 39.00 36.77 35.92 35.95 35.57 36.73 32.76 32.22 34.55 30.36 32.15 24.98 35.83 42.11 41.92 39.08 41.11 42.59
46.22 46.46 46.90 46.80 46.70 46.68 46.26 45.62 45.50 45.66 46.14 41.92 42.55 39.23 35.39 29.86 33.91 33.57 33.96 33.15 34.58 35.24 33.86 34.60 37.10 39.26 41.48 37.65 32.68 30.14 30.31 32.42 33.87 34.79 35.02 36.36 33.74 32.39 29.77 29.04 32.93 35.88 38.61 38.17 38.13 38.00 43.06
46.45 46.70 46.87 46.56 46.15 46.13 46.17 46.04 45.40 45.75 46.29 43.56 42.51 43.52 39.48 34.13 31.78 36.17 34.19 34.91 31.80 31.83 32.76 34.58 39.91 41.67 39.66 35.10 31.16 25.72 24.43 28.16 28.33 32.68 36.99 36.49 37.65 33.84 30.27 26.64 24.41 34.36 40.32 44.65 43.17 33.85 43.48
46.72 46.93 47.21 47.11 46.33 46.05 45.98 45.98 45.58 45.45 45.71 43.59 42.28 44.37 40.38 33.66 37.19 38.01 34.18 34.23 36.53 34.25 32.47 34.12 35.31 35.99 38.65 33.13 27.89 26.86 26.00 31.29 26.49 29.45 29.40 30.99 33.37 30.18 29.89 28.03 32.53 39.02 41.94 45.89 32.50 35.64 44.00
46.34 46.68 46.64 46.80 46.61 46.08 45.91 45.47 45.71 45.75 46.04 44.00 41.45 45.33 40.62 34.20 38.08 40.44 40.57 37.92 37.22 35.82 31.79 34.97 34.23 34.44 34.28 30.06 29.56 28.73 27.87 30.52 29.62 32.35 32.94 31.25 29.81 29.59 30.79 28.27 26.20 41.44 42.95 37.94 42.37 45.47 44.51
46.33 46.50 46.33 46.34 46.61 45.99 45.94 45.24 45.55 46.22 46.17 45.78 40.66 45.34 44.94 38.76 37.88 42.36 43.19 43.59 42.54 41.12 37.66 37.75 36.05 34.86 35.52 32.15 31.62 31.93 29.04 29.84 30.60 26.81 35.42 31.25 35.37 34.05 34.70 34.37 40.81 43.40 42.88 44.80 46.41 45.02 45.59

GFSGBSN_sfc_wetblb_078.txt.gz
Wetbulb
52.02 51.93 52.01 52.77 52.60 52.76 52.48 52.62 52.89 53.28 52.99 52.92 53.05 52.99 53.16 53.32 53.73 53.62 53.60 53.57 53.41 53.03 52.89 53.12 53.69 54.14 53.06 46.71 44.16 53.57 60.00 60.58 60.14 56.46 53.31 52.42 50.51 49.85 47.73 49.01 49.66 47.76 48.63 50.27 50.86 50.75 50.19
51.56 51.64 51.96 52.64 52.43 52.85 52.44 52.55 52.25 52.95 53.02 52.94 53.43 53.33 52.92 52.77 52.63 53.05 53.88 53.74 53.33 53.16 52.71 52.81 52.91 53.45 49.68 41.74 49.11 54.14 55.47 56.46 56.57 55.53 53.42 53.58 52.16 53.03 49.30 49.05 48.20 49.28 49.50 49.47 49.95 49.85 50.52
52.26 51.34 51.81 52.11 52.00 51.82 51.90 51.65 51.79 52.34 52.76 52.49 52.86 53.04 53.02 52.53 52.24 52.07 52.67 52.95 52.56 52.69 53.20 52.73 52.47 52.34 47.09 45.04 49.85 54.01 53.52 52.35 55.55 54.07 53.40 54.71 54.51 50.28 50.02 48.07 50.91 49.29 46.34 48.11 48.67 49.48 48.62
52.20 52.25 51.59 51.43 51.94 51.86 51.21 50.86 50.83 51.30 52.32 52.57 52.59 52.98 52.96 52.81 52.77 52.44 52.36 52.00 52.17 52.29 52.71 52.91 52.36 50.83 43.88 51.75 53.58 51.25 51.59 49.69 50.54 54.42 53.47 54.01 54.19 51.90 50.11 50.94 48.74 46.51 47.25 43.80 47.56 48.10 48.60
51.80 52.22 51.78 50.92 51.28 51.00 50.66 50.75 50.75 50.68 51.32 52.00 52.40 53.28 53.14 52.88 52.62 52.57 52.28 52.12 51.84 52.20 53.36 52.94 50.61 48.61 43.10 52.50 48.50 51.06 51.64 48.02 48.31 50.91 54.65 54.22 53.27 49.69 49.71 45.86 44.65 46.04 42.56 44.07 45.26 48.89 49.19
50.47 50.73 51.17 51.12 50.74 50.24 50.19 50.23 50.53 50.49 51.24 51.62 52.02 52.54 52.81 52.59 52.49 52.27 51.53 51.57 50.98 52.25 53.02 52.62 51.21 44.15 46.80 43.67 47.71 52.32 55.02 51.68 48.23 47.86 48.88 50.78 49.97 46.89 46.83 44.74 38.51 42.37 42.82 44.84 43.76 46.79 47.59
50.87 50.61 50.49 50.64 50.05 49.50 49.59 49.96 49.88 50.63 50.91 51.26 51.60 51.73 52.50 52.34 52.45 52.15 50.47 49.40 46.25 45.40 45.98 43.80 45.24 44.12 46.49 49.91 52.90 52.11 53.91 51.95 49.79 45.81 42.88 48.00 44.68 42.14 44.24 46.06 46.58 46.14 44.46 43.80 45.85 46.75 45.50
49.74 49.79 50.02 50.20 50.20 49.11 49.52 49.73 49.96 49.89 50.23 50.89 51.04 51.54 51.99 52.03 52.29 51.63 50.17 44.94 43.55 43.81 37.86 45.27 45.18 45.03 47.37 49.21 43.82 48.79 53.47 48.00 46.86 41.77 45.22 45.20 41.34 44.96 47.04 47.54 45.80 45.14 43.04 43.17 45.90 46.81 45.46
49.01 49.10 49.21 49.14 48.95 49.40 49.05 49.10 49.03 49.54 50.00 50.19 50.49 51.15 51.49 51.65 51.77 49.60 47.99 44.65 48.87 46.99 39.29 40.57 45.28 44.27 44.53 46.32 42.45 44.63 50.03 47.19 45.73 43.30 43.02 42.85 44.50 46.16 45.69 44.63 43.71 44.39 42.84 43.31 43.04 45.71 46.61
48.35 49.05 48.51 48.84 49.15 49.04 48.19 48.36 48.60 48.29 49.29 49.68 50.53 51.02 51.16 51.01 48.12 48.78 47.24 49.95 49.85 48.95 34.86 36.72 40.38 43.86 45.36 44.89 40.52 46.23 47.82 47.10 45.14 42.37 43.65 43.29 46.40 44.52 44.13 42.74 44.78 41.35 46.08 44.66 43.52 42.61 39.33
47.88 47.99 48.35 48.77 49.02 48.66 48.61 48.96 47.73 48.29 48.30 48.82 49.87 50.08 50.79 50.52 48.75 46.49 47.13 51.21 49.62 47.74 25.52 37.49 40.62 48.58 46.26 42.11 42.34 43.35 47.81 44.11 39.37 41.43 42.52 41.40 42.55 42.36 41.42 42.52 45.22 42.87 46.42 44.33 44.27 42.89 42.48
47.09 47.42 47.57 47.96 48.66 48.24 48.53 48.49 48.11 48.01 47.62 48.04 48.96 49.42 50.28 50.04 50.12 49.84 51.47 50.39 48.10 34.59 24.71 34.74 41.92 41.22 40.03 41.87 40.67 44.99 43.08 45.59 45.27 39.68 43.41 42.82 47.32 45.40 44.41 45.61 46.27 46.73 44.18 43.74 43.89 42.37 36.02
46.45 46.84 46.93 47.19 48.02 48.15 48.73 48.10 47.88 47.49 47.26 47.61 48.67 49.31 49.49 51.18 43.75 51.17 50.48 45.40 33.56 27.65 38.04 34.32 36.03 39.47 39.11 38.98 39.87 40.93 39.74 36.85 36.31 31.80 33.76 40.19 41.40 45.53 46.15 42.05 45.06 44.81 42.59 37.23 35.19 35.04 34.76
46.10 46.14 46.48 46.93 47.00 47.85 47.66 47.76 46.95 47.36 47.14 47.45 48.38 48.68 49.78 50.10 50.96 49.08 47.60 37.27 26.33 31.82 33.86 39.98 38.42 38.85 35.90 39.34 39.90 40.28 38.21 37.30 38.96 39.02 37.11 33.44 32.59 41.01 45.12 43.89 40.93 41.77 42.65 38.09 31.21 34.15 37.97
45.14 45.62 45.78 46.09 46.44 46.52 47.44 47.47 47.47 47.26 47.05 47.76 47.86 48.25 48.66 50.55 51.77 48.73 40.33 29.07 30.72 32.78 37.03 36.53 38.08 34.74 35.62 38.60 38.93 39.21 38.75 37.31 39.76 40.70 34.97 34.63 35.27 44.02 44.81 45.53 45.37 41.15 38.65 44.46 39.22 40.42 36.72
44.76 44.91 45.71 45.61 46.21 46.48 46.56 47.01 47.36 46.88 46.57 47.19 44.76 44.41 45.28 51.70 52.14 43.34 34.91 29.92 32.91 38.77 38.41 38.01 32.35 35.40 32.04 35.56 36.63 38.53 38.89 41.48 40.64 43.45 43.09 40.01 34.60 41.22 43.34 46.39 46.97 45.71 47.28 38.76 40.05 31.53 31.38
44.28 44.26 44.48 44.92 45.72 45.58 45.77 46.03 46.61 46.30 46.28 46.44 43.72 39.73 47.69 51.93 49.49 38.27 29.52 31.99 34.93 39.11 38.26 35.42 34.27 33.85 34.39 33.65 35.99 36.91 38.18 39.22 40.16 42.81 44.37 41.21 39.28 39.10 42.25 40.87 41.30 42.69 41.63 42.97 43.30 40.82 34.85
44.04 44.24 44.61 44.62 44.99 45.19 45.22 45.24 46.29 45.94 46.27 44.67 40.78 32.79 48.08 49.60 35.73 35.47 31.79 35.14 37.22 37.05 39.18 37.15 37.70 36.74 35.19 35.60 34.42 34.90 36.01 38.09 41.59 42.87 40.01 43.52 40.52 37.06 39.45 44.04 45.90 44.48 42.61 43.21 38.07 36.96 39.74
44.19 44.05 44.13 44.40 44.15 44.76 45.10 44.83 45.56 46.16 46.09 43.84 36.59 38.23 47.46 45.79 29.92 30.50 35.06 35.28 36.99 36.13 36.71 36.24 35.62 37.44 38.25 35.50 32.53 35.61 36.82 41.18 41.13 40.08 38.83 42.69 38.88 33.31 35.42 40.80 44.06 42.48 43.77 43.74 43.66 42.56 38.25
44.51 44.47 44.47 44.03 43.86 44.03 44.23 44.54 45.58 45.69 46.04 44.65 36.16 31.77 38.12 40.03 38.38 35.98 32.00 33.00 32.77 37.74 36.78 37.41 36.58 37.88 36.60 34.96 37.65 34.68 35.65 39.34 41.08 40.31 42.60 43.29 40.51 36.86 32.50 36.00 40.48 38.48 40.64 42.59 42.07 37.65 38.46
44.98 45.00 44.86 44.94 44.77 44.39 44.39 44.66 45.19 45.62 46.17 44.18 35.22 33.21 37.99 30.51 32.85 34.84 34.87 34.83 33.02 32.44 36.40 37.53 34.92 35.54 34.83 32.33 33.92 33.67 36.37 37.15 39.60 41.02 42.47 42.10 35.57 37.56 39.19 40.24 39.77 39.36 39.39 40.44 39.15 40.62 37.41
45.36 45.68 45.42 45.19 45.12 45.12 44.94 45.20 45.51 45.52 45.81 41.62 32.47 34.65 36.65 34.54 36.27 33.58 34.39 34.06 33.84 34.98 35.07 33.22 33.50 35.70 36.24 33.36 34.77 32.90 35.68 35.72 34.78 38.92 38.46 41.05 36.12 37.83 35.07 39.15 39.19 37.27 40.19 41.05 41.28 41.48 41.77
45.64 46.39 46.41 45.68 45.92 45.69 45.52 45.34 45.53 45.33 45.45 39.84 40.64 40.35 37.57 33.66 34.87 32.76 33.33 35.26 35.18 37.00 37.45 37.77 36.50 34.96 34.47 36.53 39.64 40.33 40.85 40.20 39.11 36.92 35.52 35.95 37.72 36.06 31.99 37.51 37.66 33.55 38.60 40.44 41.89 44.66 44.10
46.43 46.66 46.82 46.61 46.52 46.57 46.20 45.50 45.33 45.48 45.62 42.59 42.01 39.78 33.04 29.16 32.43 33.49 34.99 36.53 35.03 36.39 34.50 36.43 37.69 35.55 38.93 43.32 42.62 42.08 40.76 40.04 40.39 39.59 40.22 35.79 36.27 36.38 33.04 34.66 26.18 38.56 43.66 44.49 43.39 43.56 45.69
46.06 46.45 46.66 46.71 46.87 46.84 46.57 46.08 45.64 45.38 45.58 44.29 43.92 40.71 35.34 30.13 33.51 33.40 34.14 35.93 37.53 37.92 35.88 36.05 38.08 40.55 42.96 39.49 34.41 32.40 33.80 34.46 36.85 39.30 39.04 39.48 36.85 33.71 30.77 30.86 35.17 37.89 40.68 41.06 40.30 39.94 45.77
46.10 46.69 46.98 46.98 46.66 46.57 46.50 46.41 46.13 45.71 45.57 44.95 44.08 45.19 39.86 32.63 32.66 36.47 35.12 36.44 34.51 35.02 35.01 36.21 39.77 43.40 41.46 36.46 32.21 28.29 27.17 31.08 31.06 34.68 39.91 38.88 39.08 34.86 32.69 27.47 25.86 37.04 43.47 46.80 45.20 36.34 45.86
46.24 46.54 47.12 47.25 47.00 46.73 46.72 46.41 46.36 46.19 45.85 44.52 43.10 46.33 40.21 34.11 37.65 39.13 35.06 35.39 39.07 37.01 34.58 36.08 37.53 37.52 39.97 34.87 31.12 29.46 29.08 34.58 29.65 30.22 29.61 30.94 32.54 29.56 31.22 30.60 34.75 41.68 44.01 46.99 34.62 37.16 45.54
46.49 46.77 46.78 46.54 46.58 46.78 47.00 46.54 46.24 46.43 46.13 43.73 41.50 46.41 40.36 34.61 37.90 41.37 41.26 38.33 39.03 38.78 33.91 37.16 35.51 35.90 34.58 31.53 31.69 31.87 31.47 34.02 32.79 35.40 33.23 32.43 31.27 30.91 32.03 29.09 27.33 44.67 43.82 38.44 42.82 46.17 46.94
46.40 46.52 46.45 46.52 46.57 46.73 46.75 46.59 46.11 45.97 46.29 45.47 38.84 44.98 45.28 38.05 38.43 44.48 45.07 45.67 44.31 42.99 39.61 38.78 37.09 37.59 38.34 34.66 35.68 35.96 33.10 35.98 33.68 30.02 38.71 32.64 37.23 34.75 36.44 36.32 44.00 45.64 44.62 47.08 47.57 46.36 47.14

GFSGBSN_sfc_wetblb_081.txt.gz
Wetbulb
52.03 52.15 52.38 52.28 52.74 52.40 53.20 53.14 52.83 52.81 52.76 52.94 53.08 52.90 52.96 52.98 52.94 52.79 53.36 53.89 53.93 53.22 52.83 53.09 53.41 53.24 53.45 49.02 49.15 54.80 59.74 60.77 59.99 58.64 55.36 54.06 53.18 52.30 49.33 50.28 51.08 49.58 50.24 51.16 51.89 51.53 51.33
51.45 52.07 51.89 52.17 52.28 52.27 52.23 52.31 52.00 52.24 52.69 53.32 53.17 52.89 52.60 52.65 52.53 52.58 52.95 52.88 52.79 52.88 52.82 52.26 52.53 52.65 50.64 45.00 55.11 52.49 54.05 54.67 57.66 57.96 55.41 55.17 53.42 53.66 51.07 50.38 50.11 51.48 50.87 51.11 51.58 51.48 51.33
52.54 52.79 52.79 52.74 51.66 51.66 51.14 51.20 51.36 51.22 51.49 52.45 52.95 53.42 53.39 52.94 52.86 52.96 52.84 53.08 52.67 52.65 52.73 52.30 52.39 52.56 48.02 48.41 55.94 55.31 53.69 52.20 54.37 57.67 54.88 55.78 55.85 53.10 53.11 50.18 52.08 51.02 48.02 49.80 50.49 50.93 50.16
51.93 52.04 52.61 52.51 51.90 51.83 51.36 50.96 51.03 50.78 50.92 51.55 52.14 52.98 53.23 53.41 53.41 53.40 53.25 52.95 52.70 52.57 52.98 52.54 53.92 51.96 45.04 54.80 56.96 55.10 53.75 51.39 51.83 52.05 52.97 57.04 57.42 54.37 52.21 52.69 50.36 48.06 48.46 44.60 49.99 51.02 51.18
51.83 51.16 51.47 51.97 51.73 51.30 50.86 50.63 50.49 50.31 50.45 50.86 51.46 52.44 53.00 52.99 52.82 52.76 52.66 52.56 52.26 52.67 53.11 53.55 51.93 50.05 44.93 54.54 50.75 52.93 53.60 50.21 50.17 49.79 50.98 53.96 54.47 51.64 51.77 47.41 45.35 46.98 42.91 45.35 47.58 50.77 49.81
51.11 51.40 51.18 50.90 51.73 51.04 50.68 50.17 50.90 50.50 50.37 50.41 50.98 51.86 52.51 52.62 52.48 52.42 52.07 51.80 52.08 52.28 53.07 54.66 53.44 46.59 49.37 45.95 49.13 50.93 55.28 53.03 48.10 47.88 46.87 49.60 49.23 47.59 47.97 45.95 37.94 40.65 43.33 45.88 46.02 50.17 49.11
50.37 50.73 50.52 51.03 51.13 51.11 50.28 50.05 50.66 50.75 50.06 49.85 51.04 51.37 51.67 52.39 52.31 52.07 51.27 51.86 48.72 48.69 50.24 46.05 46.94 47.28 47.96 52.25 53.38 51.59 55.10 51.39 49.35 46.64 40.74 45.94 42.00 41.62 44.36 46.24 45.81 45.99 46.18 46.34 48.88 50.06 48.10
48.73 49.69 50.21 49.90 50.09 50.23 50.06 49.65 50.14 49.89 49.34 49.62 50.68 50.75 51.36 52.18 51.98 52.27 51.93 47.15 46.43 46.05 40.57 47.59 47.18 46.85 48.20 50.13 45.44 49.27 54.95 48.54 46.47 41.10 44.22 42.09 40.16 45.50 46.80 46.98 46.41 45.81 44.80 45.57 48.19 49.57 47.36
48.52 49.16 49.47 49.55 49.59 49.55 49.32 49.65 49.67 49.76 48.97 49.38 49.80 50.29 50.95 51.49 51.78 51.24 49.58 47.77 51.88 51.24 41.60 44.07 47.07 46.38 47.27 48.64 43.64 45.78 51.43 48.24 44.14 43.62 43.33 40.04 44.05 47.56 45.63 45.13 44.44 45.36 44.61 45.24 45.44 48.65 48.19
48.34 48.55 48.82 48.97 49.01 49.09 49.51 49.32 48.27 48.42 48.36 48.84 49.21 49.78 50.59 50.92 48.32 51.31 47.09 51.48 52.94 52.20 36.59 41.44 42.73 46.17 47.87 47.04 42.22 48.25 50.25 48.27 43.15 39.96 44.39 43.40 46.82 46.37 44.90 43.97 45.28 41.92 47.66 46.76 46.06 44.80 40.96
47.88 47.88 47.97 48.14 48.56 48.88 48.73 48.78 48.17 48.04 47.71 48.13 48.85 49.03 50.13 49.99 48.97 46.32 49.35 53.45 53.40 48.24 28.87 39.85 42.98 50.52 47.85 43.87 44.24 44.33 48.76 48.51 41.22 41.32 43.57 41.53 43.49 43.78 43.19 44.25 45.98 43.74 47.89 46.91 46.47 44.46 43.92
47.33 46.93 47.20 47.60 47.77 48.52 48.02 48.32 49.01 47.96 47.61 47.56 47.72 48.56 49.49 49.27 50.21 51.32 52.62 53.35 49.73 35.35 28.48 37.34 43.59 42.30 42.93 44.69 44.18 46.05 44.12 47.55 46.93 40.98 42.13 41.66 47.89 46.33 45.37 46.37 46.42 47.41 45.71 45.68 45.75 44.17 37.64
46.45 46.61 46.74 46.99 47.23 47.81 47.69 47.83 48.14 48.33 47.58 47.07 47.62 48.11 48.32 49.50 45.15 53.28 53.31 48.36 36.17 30.16 39.68 36.80 38.50 41.09 41.12 41.05 42.35 42.28 41.49 39.62 34.84 32.16 33.26 38.14 40.28 46.32 47.62 43.01 45.93 45.34 43.28 37.28 36.05 36.40 35.38
45.91 46.02 46.15 46.47 46.66 46.80 47.18 47.49 47.52 47.80 47.90 47.19 47.80 48.02 48.62 50.07 52.46 52.43 48.01 40.08 28.51 34.73 35.80 41.46 40.39 41.01 38.20 42.03 42.30 41.91 41.28 37.21 38.79 38.93 36.36 32.80 31.12 41.39 46.46 43.67 41.71 43.20 42.85 37.73 31.53 34.47 38.26
45.40 45.12 45.79 45.67 46.04 46.37 46.72 46.78 46.75 47.17 47.79 46.83 47.27 46.69 47.23 50.56 52.93 52.16 41.49 32.20 33.06 35.88 38.72 37.87 40.18 36.87 37.55 40.91 40.94 40.69 40.92 39.33 41.81 39.89 35.50 34.90 35.15 42.68 44.58 45.36 44.50 41.45 39.08 44.87 38.91 41.60 38.34
44.87 45.03 45.09 45.34 45.39 46.16 46.54 46.35 45.93 46.49 47.14 46.59 44.32 44.08 45.43 51.99 53.39 47.89 36.23 32.19 36.32 39.56 40.28 39.75 34.45 37.54 34.78 37.52 39.17 39.71 40.28 42.39 40.21 43.31 44.01 39.45 33.79 41.12 43.38 46.87 46.12 43.46 45.66 37.03 38.83 32.03 31.58
44.44 44.50 44.53 44.51 45.13 45.02 45.68 45.53 46.15 46.38 46.72 46.63 43.17 37.92 46.95 52.02 51.23 40.05 29.34 34.08 37.48 41.06 41.46 37.90 36.51 36.14 36.88 36.04 38.07 38.62 38.89 41.38 42.29 41.72 45.94 40.56 37.44 38.53 41.61 41.48 41.10 41.43 40.08 41.39 42.86 40.49 35.33
44.50 44.41 44.62 44.68 44.85 44.91 45.15 45.59 45.63 45.84 46.69 44.36 41.51 33.42 48.93 51.11 36.82 36.71 33.18 36.82 40.30 39.10 41.34 39.82 40.45 39.20 37.70 37.80 36.51 36.86 36.47 38.93 43.21 43.05 40.16 43.38 39.55 35.43 39.44 44.37 46.35 45.30 42.44 42.56 36.87 36.63 40.53
44.39 44.40 44.22 44.63 44.73 44.91 44.77 44.73 45.21 45.73 46.07 43.74 37.06 37.88 48.60 47.45 31.49 33.53 36.56 37.14 39.01 38.20 38.87 38.49 37.65 40.27 41.05 37.63 33.84 37.10 38.25 42.49 42.81 41.12 39.23 41.02 39.33 32.57 34.71 40.92 44.18 42.21 44.05 44.82 44.80 43.43 37.81
44.77 44.72 44.58 44.23 44.23 44.50 44.80 44.76 44.83 45.34 45.86 44.73 39.00 32.99 39.72 41.87 39.08 35.84 33.34 34.66 34.20 40.54 39.56 40.02 39.13 40.57 38.79 37.02 39.42 36.18 37.33 40.59 42.11 41.52 42.16 43.53 39.77 38.23 34.26 37.45 41.35 39.70 42.82 44.13 42.86 38.41 38.78
45.04 45.43 45.43 45.14 44.74 45.11 44.45 44.77 45.15 45.16 45.91 43.96 38.76 33.90 38.77 32.37 35.35 36.00 36.52 35.78 34.50 34.38 39.39 40.38 37.68 37.77 37.26 34.32 35.92 35.80 38.62 39.87 40.11 41.60 41.70 41.49 35.98 39.38 40.86 42.06 41.25 41.17 41.58 43.00 41.76 42.30 38.48
45.82 45.47 45.52 45.56 45.77 45.52 45.24 44.89 45.37 45.50 45.76 41.95 33.30 34.68 39.15 36.82 37.82 35.81 35.37 33.15 34.68 36.59 37.56 35.75 35.84 38.17 39.03 35.57 35.83 34.93 37.95 38.39 37.48 39.60 39.15 41.64 35.15 37.70 36.20 39.85 40.90 38.86 41.02 42.02 42.25 42.51 42.57
45.69 45.87 46.05 46.00 46.07 45.84 45.78 45.48 45.43 45.45 45.06 39.14 41.47 42.29 38.75 35.51 35.69 34.07 34.89 35.44 35.01 37.95 39.28 40.18 38.97 38.21 36.61 38.77 40.61 41.44 42.16 41.56 40.70 38.71 37.81 37.60 37.36 35.61 32.32 38.40 38.52 34.93 39.77 40.78 41.63 43.51 43.21
45.66 45.99 46.38 46.40 46.73 46.32 46.16 45.98 45.54 45.50 45.43 42.35 41.94 40.25 35.16 30.42 33.84 34.38 36.09 37.04 36.14 37.35 37.28 40.12 40.67 37.92 40.70 45.56 44.46 43.03 41.68 40.76 40.46 40.76 41.73 37.03 36.34 37.27 33.34 35.53 27.00 39.74 44.92 44.49 43.37 44.51 46.30
46.19 46.15 46.38 46.92 47.12 46.85 46.70 46.47 45.91 45.44 45.78 44.46 44.13 40.81 36.57 31.79 35.12 35.26 36.25 36.02 36.49 38.22 38.08 39.14 40.30 41.66 44.04 41.73 36.60 33.05 34.55 34.55 36.52 40.05 40.22 41.15 37.85 33.90 30.70 31.33 35.88 38.86 41.75 41.56 41.13 42.27 47.31
46.30 46.43 46.62 46.66 46.75 46.61 46.61 46.60 46.53 45.82 45.62 45.46 44.38 45.35 40.14 33.96 33.42 37.23 35.45 37.09 34.27 35.27 37.67 39.43 43.12 44.91 42.57 37.98 34.53 28.92 28.58 33.05 32.42 35.43 41.30 40.56 40.12 35.51 33.81 28.31 26.02 37.77 44.19 46.95 45.93 37.42 47.43
45.89 46.14 46.51 46.88 46.91 47.04 46.99 46.83 46.72 46.28 45.98 45.12 42.79 46.09 41.53 34.51 38.44 38.87 35.55 35.78 39.74 38.49 36.38 38.77 38.87 37.91 40.05 35.31 31.17 30.03 31.12 36.92 31.14 31.58 32.31 33.60 34.37 31.45 31.91 30.72 35.43 43.03 45.13 46.83 35.36 37.55 45.69
46.58 46.47 46.44 46.97 47.15 47.11 47.08 47.08 47.02 46.76 46.37 43.79 42.07 46.13 42.48 37.69 38.65 41.24 41.80 39.63 39.32 38.72 35.35 38.90 37.05 37.06 34.51 33.68 32.62 33.78 33.19 35.40 34.73 37.06 35.30 33.28 31.95 31.28 32.81 29.67 27.60 44.77 44.24 39.56 44.06 46.65 47.78
46.61 46.58 46.67 46.74 46.93 46.89 46.89 46.97 46.95 47.02 46.63 45.82 38.94 46.11 46.47 40.30 39.31 44.26 44.42 45.39 44.40 43.30 39.63 39.88 38.15 37.99 39.42 35.47 36.80 37.60 34.65 37.64 35.66 30.54 41.09 32.63 37.54 35.67 36.33 36.72 45.15 47.80 44.45 47.58 48.40 47.07 47.90

GFSGBSN_sfc_wetblb_087.txt.gz
Wetbulb
53.44 53.31 53.05 52.75 52.86 52.40 52.35 52.27 52.22 52.45 52.31 52.04 52.18 51.75 52.51 53.04 52.83 52.81 53.74 53.70 53.88 53.31 53.21 53.40 53.49 53.36 48.60 42.63 44.74 52.73 61.25 60.97 59.51 56.91 53.69 51.76 46.05 44.70 42.96 45.90 46.30 44.96 46.19 48.10 48.91 49.19 48.65
52.75 52.73 52.74 52.75 52.63 53.14 52.60 51.92 52.07 52.38 52.30 52.09 52.18 52.32 52.10 52.26 52.37 52.43 53.19 53.19 53.04 53.23 53.31 53.25 53.30 53.08 45.79 36.68 49.05 50.85 51.44 52.59 55.75 49.91 51.96 51.60 49.02 49.03 47.18 46.98 45.67 47.80 47.45 47.57 48.27 47.76 48.16
51.93 51.93 52.41 52.68 52.34 52.39 52.83 52.74 51.80 52.05 52.15 51.98 52.06 51.90 51.59 51.63 52.15 52.42 52.34 52.73 52.59 52.82 52.87 53.11 53.20 50.81 44.20 40.79 48.94 49.49 50.08 49.03 50.67 51.23 46.73 51.50 53.25 49.29 47.93 45.77 49.63 48.87 44.49 46.36 47.04 46.42 45.76
51.40 51.16 50.99 51.81 52.50 52.49 52.28 52.47 51.83 51.22 51.13 51.06 50.92 51.25 51.71 52.09 52.32 52.55 52.43 52.18 52.09 52.57 52.56 52.94 53.20 49.16 41.38 51.33 49.29 49.83 49.72 49.70 52.57 52.44 50.11 48.72 48.43 46.34 46.82 49.33 47.87 44.55 44.24 39.38 45.36 46.61 47.15
51.54 50.96 50.28 50.71 51.20 51.80 52.19 52.07 51.77 51.41 50.88 51.17 50.90 51.14 51.23 51.72 51.75 51.92 51.86 51.77 51.51 52.40 52.75 53.27 49.08 46.42 41.53 53.92 48.69 50.37 50.44 48.50 50.19 51.40 50.21 51.89 45.77 42.10 44.35 41.47 38.92 40.43 35.63 38.41 41.52 46.84 46.08
50.62 50.65 50.62 50.03 49.87 50.61 51.22 51.41 51.88 51.50 51.54 50.89 50.55 50.42 50.98 51.32 51.36 51.20 51.18 51.34 50.91 51.82 51.71 51.69 50.34 44.16 47.45 46.01 49.89 50.84 50.54 49.75 48.06 48.28 46.77 44.39 39.67 36.47 38.38 38.68 33.06 35.61 36.84 37.41 38.44 44.29 46.31
50.16 49.94 50.08 49.83 49.49 49.83 50.61 50.68 51.28 51.00 50.70 50.40 49.97 49.76 49.98 50.98 51.07 50.92 49.36 44.67 42.91 42.45 45.90 44.23 44.90 44.20 47.02 50.32 50.11 46.55 50.94 51.30 48.77 44.15 37.71 40.78 33.42 30.89 35.94 39.89 42.87 42.75 41.08 40.01 41.78 46.44 45.42
48.81 48.92 49.51 49.64 49.19 49.21 50.00 50.32 50.66 50.70 50.46 50.02 49.97 49.25 49.36 49.83 50.51 50.54 46.79 42.19 43.89 42.73 37.26 44.62 44.66 44.22 47.68 46.97 41.86 44.33 46.96 43.43 43.27 37.42 40.09 37.28 33.39 37.90 40.92 42.07 41.48 40.67 39.01 38.00 43.10 46.27 45.15
48.34 48.71 48.71 48.90 48.86 48.93 49.31 49.35 49.42 49.68 49.57 49.64 49.33 48.92 48.99 49.60 49.74 46.72 44.70 46.39 49.49 48.46 36.58 40.11 44.68 44.10 45.04 46.53 42.03 42.11 43.99 41.98 41.42 39.77 40.14 36.46 40.30 44.13 41.97 40.07 38.06 37.08 36.64 36.89 39.61 43.83 45.43
47.25 47.35 47.42 47.70 48.25 48.42 48.55 48.90 48.75 48.71 49.05 49.13 49.19 49.15 49.05 49.39 44.52 44.56 43.53 49.88 50.95 48.63 32.06 37.03 41.88 44.46 46.38 46.57 42.04 47.21 46.96 42.04 42.09 39.19 41.14 39.59 43.59 42.15 40.58 38.38 39.02 34.22 41.48 42.35 41.60 38.91 34.02
47.00 47.09 47.36 47.51 47.78 47.77 47.82 48.17 48.40 48.38 48.57 48.85 48.80 48.50 48.62 48.22 42.04 40.50 45.58 49.42 50.40 46.08 21.76 42.32 41.87 49.29 48.22 43.28 44.14 43.07 46.99 42.38 38.36 40.33 39.58 37.43 40.22 39.63 38.76 39.28 40.55 37.34 43.47 42.39 40.94 38.86 38.75
46.49 46.64 46.73 46.78 46.83 46.97 47.17 47.31 47.59 47.71 48.06 48.11 48.62 48.16 48.25 43.98 42.47 43.22 47.32 49.21 46.78 32.10 22.53 36.48 42.59 41.31 41.51 43.02 43.59 43.78 42.06 43.61 44.16 39.45 40.61 39.50 43.09 41.26 41.27 42.79 42.30 43.37 41.20 41.74 40.85 38.83 32.68
45.50 45.72 46.04 46.19 46.32 46.28 46.46 47.09 47.06 47.15 47.30 47.84 48.42 47.85 45.89 45.04 38.10 46.54 45.99 44.40 30.57 25.26 40.54 35.89 38.31 41.35 40.12 38.79 40.81 40.94 38.04 35.52 33.32 30.82 30.91 35.96 37.45 41.45 43.26 38.07 41.79 42.24 38.55 32.46 30.44 30.54 28.39
45.32 45.45 45.45 45.68 45.82 46.18 46.16 46.25 46.47 46.73 46.85 47.16 47.81 47.51 45.42 44.21 44.36 45.15 43.04 36.66 25.08 34.20 36.57 41.25 40.07 39.48 36.26 39.25 39.49 39.88 36.29 32.19 36.42 35.79 30.25 28.26 28.64 37.67 42.58 38.97 37.90 39.45 38.57 32.97 26.09 27.28 31.41
45.69 45.73 45.56 45.61 45.49 45.55 45.62 45.86 46.09 46.27 46.63 46.79 46.75 40.99 41.14 43.29 44.88 44.54 39.18 27.37 28.32 33.40 38.70 37.41 37.77 34.17 34.36 38.55 39.16 39.73 36.61 35.86 37.32 36.69 29.26 30.08 32.27 41.75 42.71 42.89 41.42 38.11 35.09 40.52 34.17 35.48 32.40
45.07 45.13 45.21 45.26 45.26 45.41 45.27 45.40 45.61 46.04 46.20 45.35 40.40 39.80 39.37 44.58 45.01 42.71 35.09 29.10 31.56 38.93 38.83 38.68 32.10 35.43 31.93 37.17 36.74 36.91 38.06 40.09 39.41 39.95 38.77 35.00 29.52 39.10 41.44 43.10 43.29 39.81 42.65 34.50 34.82 27.32 27.55
44.75 45.16 45.28 45.27 45.06 45.21 45.17 45.18 45.07 45.38 45.72 45.50 40.63 35.15 39.71 44.37 45.47 37.74 29.36 30.74 34.86 39.24 39.68 36.86 34.72 33.29 34.62 34.80 36.11 35.73 37.21 39.46 40.04 38.95 40.31 37.80 34.16 33.94 38.74 37.00 36.37 37.21 36.07 38.25 37.58 36.16 31.65
44.88 45.13 45.21 45.47 45.53 45.31 45.20 45.23 45.00 45.35 45.39 42.44 38.67 27.29 41.36 44.61 33.26 35.04 31.30 34.06 38.50 36.86 39.12 37.93 38.20 36.64 34.57 35.53 34.64 35.37 36.56 38.09 40.79 39.61 34.97 38.67 36.41 30.32 33.17 40.56 42.51 40.39 37.51 38.90 34.50 31.80 36.20
44.89 45.06 45.33 45.32 45.58 45.63 45.39 45.24 45.05 44.94 44.99 38.65 35.30 31.74 41.06 43.72 26.31 30.83 34.01 34.58 36.79 35.98 36.17 36.52 35.98 37.88 37.85 34.57 31.54 36.02 38.43 42.49 41.51 39.44 35.81 36.51 35.11 29.26 31.76 36.40 40.68 37.26 39.58 40.33 39.50 38.07 34.63
44.87 45.06 45.18 45.55 45.92 45.80 45.63 45.48 44.92 44.89 45.03 40.41 33.31 24.92 31.06 36.88 35.37 32.71 30.84 31.70 31.95 38.31 36.84 37.57 36.31 37.85 35.86 33.58 36.99 34.74 37.11 40.87 41.28 40.09 41.95 40.59 35.00 32.93 29.21 33.50 35.51 35.76 38.24 39.94 38.77 34.15 33.78
44.74 45.36 45.55 45.56 46.13 46.17 45.73 45.69 45.12 44.85 45.09 40.03 34.06 30.65 32.36 20.64 31.16 32.83 33.78 35.06 32.86 31.96 37.32 38.12 35.10 35.03 34.09 30.86 32.73 32.09 35.63 38.01 41.49 41.56 39.28 38.01 31.60 34.73 35.90 37.62 37.30 36.12 36.82 37.97 37.24 37.87 35.36
44.85 45.40 45.46 45.52 45.89 46.04 45.56 45.66 45.62 45.51 44.97 36.98 31.71 29.82 32.43 30.71 33.51 33.03 33.42 30.96 31.21 33.13 34.82 34.14 33.77 35.89 35.25 31.73 32.87 30.66 35.39 36.23 35.38 39.56 36.93 38.02 31.90 33.90 31.54 36.68 37.86 36.11 38.21 38.12 37.52 39.41 39.87
44.63 45.18 45.77 45.79 46.03 46.25 45.77 46.01 45.99 45.68 44.03 36.57 37.26 35.76 33.11 30.61 29.91 29.83 29.41 32.62 32.94 34.92 35.86 37.40 37.08 34.40 34.23 35.64 38.83 38.19 38.33 38.56 38.28 36.54 34.54 34.89 33.39 31.66 28.52 35.00 34.29 31.13 37.16 38.44 39.00 40.74 40.34
44.39 44.77 45.23 45.56 46.27 46.31 46.41 46.00 46.18 45.72 44.31 36.65 35.59 34.36 30.53 22.69 27.19 29.13 32.52 34.09 33.64 34.83 33.14 36.55 38.03 35.47 39.36 41.27 41.62 40.77 40.36 39.05 38.16 37.68 38.69 33.58 32.66 33.28 26.73 29.78 23.54 37.35 43.26 43.15 40.76 42.15 43.59
44.87 44.61 44.96 45.25 46.24 46.64 46.56 46.53 46.23 45.48 45.75 38.86 37.75 35.19 31.18 22.70 29.63 30.46 31.82 32.68 34.18 36.63 34.80 36.10 38.22 40.58 42.41 39.13 32.98 29.97 29.31 30.83 33.76 36.48 36.04 36.91 33.14 26.93 25.45 26.83 31.86 35.34 39.32 39.34 38.11 39.04 44.20
44.58 44.61 45.08 46.09 46.30 46.37 46.48 46.65 46.60 46.35 46.09 41.99 39.12 39.12 34.59 29.45 27.19 33.65 31.08 33.49 29.71 30.41 32.18 35.28 40.66 42.33 41.53 34.21 29.68 24.33 22.48 28.19 28.11 32.53 37.41 36.38 35.36 30.27 26.92 25.14 20.82 33.81 41.55 44.95 44.59 34.23 44.27
44.67 45.00 45.40 46.26 46.65 46.83 46.74 46.81 46.72 46.67 46.46 43.57 39.56 41.09 36.65 30.36 33.31 33.80 30.45 30.94 34.58 33.62 32.48 33.69 36.31 36.74 39.44 30.68 24.53 23.88 24.81 33.12 26.71 28.33 28.64 29.15 29.25 27.44 26.97 26.21 30.93 40.04 43.30 45.48 32.96 34.05 43.01
44.77 45.43 46.16 46.49 46.92 47.15 47.19 46.94 46.90 46.70 46.79 44.01 40.67 41.73 37.88 32.69 33.89 36.41 37.38 34.04 35.48 34.51 28.19 34.95 32.43 35.29 32.80 27.51 26.71 26.31 24.30 29.96 30.54 33.72 32.60 29.42 27.59 27.02 28.14 24.76 23.27 43.01 43.13 37.37 41.13 44.10 43.53
45.22 45.73 46.23 46.78 46.78 46.78 47.12 47.08 46.92 47.08 46.97 46.07 39.22 42.09 42.58 35.56 34.36 38.98 39.43 40.03 38.82 40.22 37.24 37.09 36.42 34.78 35.89 30.22 30.12 30.27 26.96 31.50 31.73 28.15 38.04 29.33 33.11 29.62 30.95 30.25 40.52 43.25 42.49 44.27 44.99 42.29 42.70

GFSGBSN_sfc_wetblb_090.txt.gz
Wetbulb
52.82 53.21 53.23 53.14 53.14 53.06 53.37 53.21 53.21 52.98 52.82 52.59 51.97 51.30 51.06 51.79 52.05 52.31 52.89 52.99 53.13 52.56 52.46 52.77 53.28 53.38 49.23 41.38 42.74 50.35 60.70 58.57 58.93 57.82 53.48 50.50 44.73 42.37 40.49 42.55 43.71 42.36 44.70 46.68 47.18 47.12 46.70
52.00 52.08 52.11 52.47 52.96 52.77 52.59 52.72 52.77 52.69 52.83 52.81 52.62 52.35 51.53 51.20 51.31 51.78 52.74 52.86 52.80 52.72 52.10 52.29 52.92 53.21 45.41 34.97 47.03 49.06 48.86 48.99 54.65 53.44 50.51 51.37 49.36 46.63 43.67 44.15 42.83 45.85 45.74 45.98 46.63 46.26 46.55
51.78 51.67 51.34 51.47 51.98 52.10 52.47 52.20 52.40 52.45 52.38 52.08 52.15 52.02 51.68 50.73 50.76 51.30 51.70 52.27 52.23 52.31 51.74 52.12 52.86 50.26 43.48 39.47 46.55 46.35 48.02 47.76 48.23 48.64 47.27 48.22 49.97 48.09 46.08 44.14 47.78 46.74 42.81 45.17 45.64 44.44 43.78
50.94 51.14 51.51 50.88 50.68 51.06 51.49 51.79 51.87 51.75 52.38 51.29 51.07 51.66 51.53 51.00 51.36 51.58 51.87 51.88 51.75 51.91 51.55 51.83 52.63 48.69 39.43 49.34 48.31 47.87 47.20 47.27 49.30 48.76 50.16 49.91 47.98 44.07 43.99 47.31 46.43 42.68 41.49 36.73 44.12 44.63 44.83
51.37 50.86 50.60 50.63 50.52 51.02 51.22 51.62 51.68 51.35 51.63 51.61 51.28 51.26 51.34 51.01 51.25 51.34 51.32 51.17 51.17 51.64 51.45 51.77 48.93 45.42 38.59 52.21 48.56 50.12 48.62 46.50 48.22 48.68 48.62 51.86 46.67 40.67 41.35 39.99 37.43 38.45 34.40 36.99 39.85 44.12 43.33
50.50 50.41 50.33 50.25 50.22 49.97 49.82 50.59 51.22 51.36 51.03 50.92 50.69 50.71 50.75 50.66 50.58 50.48 50.22 50.38 49.90 51.51 50.39 51.70 49.37 42.54 44.69 44.18 48.41 48.85 47.94 48.76 46.01 46.50 45.51 43.72 39.35 35.11 35.67 36.18 31.50 33.99 34.37 34.06 34.50 39.57 43.26
49.54 49.68 49.53 49.49 49.67 49.67 49.50 49.54 50.18 50.37 50.45 50.52 50.64 50.75 50.41 50.27 50.21 50.01 47.83 43.14 41.13 40.36 43.37 42.27 42.51 42.63 44.42 49.53 49.26 46.05 46.87 48.29 46.83 42.58 36.67 39.17 32.23 29.89 34.01 36.90 39.45 39.12 37.96 36.55 38.85 43.84 41.96
48.22 48.54 48.85 49.06 49.09 49.22 49.29 49.18 49.43 49.71 49.54 49.71 49.69 49.81 49.36 49.30 49.75 49.53 45.37 40.84 44.22 43.26 36.72 43.57 43.29 43.35 46.90 48.18 41.43 44.98 45.92 40.26 42.47 36.34 38.23 35.65 30.97 35.75 37.96 38.90 38.41 38.02 35.61 35.83 40.05 43.95 43.05
47.13 47.46 47.68 48.07 48.27 48.41 48.70 48.96 48.87 49.19 49.21 49.23 49.45 48.95 48.78 49.18 49.34 44.83 42.31 43.55 49.67 48.61 35.54 38.76 42.65 41.76 42.33 44.37 40.77 41.87 43.23 40.45 37.54 36.74 36.58 32.65 37.89 41.09 38.47 36.60 35.93 35.84 34.50 34.78 36.03 41.76 42.78
47.40 47.50 47.29 47.69 47.76 47.95 48.16 48.46 48.45 48.30 48.76 49.41 48.99 48.84 49.02 49.01 40.39 40.84 39.36 46.81 48.31 48.10 29.46 33.85 39.04 42.55 44.75 44.91 39.21 45.27 45.06 41.43 38.24 36.40 39.23 37.80 42.77 41.34 39.55 38.29 38.40 32.95 39.16 38.93 38.67 37.29 31.60
46.56 46.64 46.86 47.13 47.16 47.23 47.28 47.30 47.61 47.79 47.90 47.92 48.56 48.47 48.67 47.73 40.07 37.79 42.70 45.60 46.42 44.75 17.70 39.39 41.03 48.60 45.95 41.47 42.70 41.95 45.54 40.79 36.02 39.52 39.38 36.67 39.52 38.54 37.34 38.99 40.66 36.37 40.65 39.20 39.18 37.54 36.35
45.68 45.91 46.00 46.41 46.52 46.56 46.62 46.73 46.93 47.33 47.28 47.61 47.88 47.97 48.40 43.29 38.85 41.47 44.89 44.15 44.93 30.87 20.10 36.89 41.65 40.03 40.28 42.20 42.30 42.84 41.70 42.90 41.82 39.68 39.37 37.92 41.97 40.41 39.27 41.34 42.20 42.88 39.66 39.81 39.49 38.23 30.15
45.41 45.66 45.80 45.73 45.93 45.95 46.27 46.59 46.39 46.54 46.75 46.95 47.40 47.31 45.69 44.44 35.94 44.12 43.89 40.92 29.60 24.16 37.51 35.70 36.70 40.22 39.45 38.66 39.81 38.95 37.52 35.83 32.98 30.02 30.22 34.62 35.69 39.43 42.34 37.57 40.37 40.53 37.42 30.77 28.73 29.58 26.58
45.64 46.01 45.95 45.92 46.02 45.96 45.78 45.97 45.94 46.20 46.47 46.47 47.29 47.18 44.40 43.56 41.39 43.93 41.55 35.74 22.93 31.43 34.30 40.28 39.17 39.22 36.12 38.76 38.70 37.38 34.79 31.10 34.90 33.97 28.28 26.11 25.51 35.76 40.76 37.70 35.74 36.17 37.47 32.73 24.32 25.98 29.01
45.62 45.65 45.31 45.48 45.57 45.49 45.64 45.67 45.62 45.93 46.02 46.38 45.98 39.06 38.64 41.16 42.08 43.00 35.67 26.93 26.09 31.65 36.01 33.89 36.91 33.22 33.85 37.39 37.85 36.78 34.10 32.73 35.03 35.86 29.20 27.66 30.22 39.25 40.66 41.43 40.09 36.16 34.11 39.44 33.81 35.06 30.89
45.39 45.51 45.16 45.41 45.52 45.64 45.49 45.42 45.58 45.33 45.55 45.74 37.24 36.93 37.16 40.98 41.87 40.38 32.00 28.05 30.56 36.80 36.86 35.80 31.36 34.57 30.86 34.96 36.44 37.11 36.90 38.86 37.02 37.90 36.71 33.08 27.44 36.63 40.05 41.53 41.42 38.75 41.52 34.02 34.71 26.56 26.39
44.57 45.35 45.46 45.46 45.64 45.75 45.72 45.49 45.44 45.34 45.22 44.99 39.30 33.46 38.41 40.72 41.69 35.03 26.91 29.54 33.21 38.00 38.51 33.72 33.14 32.45 33.21 32.37 35.06 35.47 36.39 38.77 38.95 37.45 38.64 34.85 31.57 31.91 36.51 35.86 35.73 37.17 36.26 36.13 37.09 34.84 29.09
44.62 45.04 45.20 45.42 45.65 45.72 45.74 45.82 45.45 45.22 44.49 41.75 37.37 27.40 37.99 42.99 28.08 29.55 27.25 33.96 37.57 36.49 38.55 36.63 37.09 35.81 33.75 33.61 33.19 34.05 35.54 38.18 39.53 38.98 33.99 35.79 33.54 26.92 30.76 38.17 42.60 40.36 37.93 37.25 33.69 30.82 34.71
44.54 44.72 45.21 45.32 45.48 45.77 45.95 45.93 45.50 45.19 44.39 38.57 34.25 30.82 37.77 41.90 22.96 26.45 33.23 33.57 35.85 34.75 34.96 35.00 33.71 36.06 35.87 33.26 29.77 35.70 37.06 40.88 40.39 37.18 33.94 35.33 32.65 27.58 29.49 35.94 39.97 36.33 38.20 38.50 38.62 37.30 33.16
44.14 44.62 45.03 45.23 45.60 46.00 46.17 46.04 45.83 45.06 44.83 38.42 32.08 25.23 28.55 33.77 34.56 30.93 29.53 30.72 31.03 37.38 35.74 36.69 35.48 36.38 34.29 32.08 34.73 32.54 35.67 39.87 40.21 38.79 42.04 39.28 32.89 31.35 27.98 31.47 36.16 33.76 35.16 37.94 37.43 33.34 32.13
43.94 44.44 44.68 45.23 45.49 45.89 46.22 46.34 45.79 45.10 44.90 37.04 32.49 23.09 33.08 27.68 30.23 28.99 31.42 33.36 31.13 30.56 36.57 37.50 33.98 34.71 32.60 29.05 30.42 30.02 34.88 36.35 39.12 41.48 37.77 35.87 28.87 33.80 34.66 35.53 36.90 36.61 35.59 36.51 35.94 36.79 34.85
43.49 43.97 44.82 44.92 45.56 45.73 46.34 46.05 45.77 45.26 44.96 35.29 28.91 28.76 32.11 29.11 32.71 31.49 32.25 30.74 30.85 32.17 33.41 32.92 32.55 34.66 34.71 31.31 31.61 28.99 33.88 33.86 33.98 37.74 35.23 36.63 28.38 31.50 30.24 35.37 35.22 33.17 37.27 37.44 37.18 38.32 38.87
43.41 43.81 44.58 44.89 45.39 45.87 46.38 46.03 45.92 45.61 42.63 35.77 33.00 32.64 29.95 28.40 28.81 26.57 29.40 31.23 31.64 34.79 35.90 36.43 35.45 33.95 33.40 35.39 36.61 37.61 37.85 37.55 36.56 34.55 32.93 33.37 31.68 29.32 26.55 33.45 31.74 29.07 35.78 37.50 37.39 39.78 37.76
43.30 43.53 44.49 45.01 45.27 45.69 46.35 46.56 46.53 46.05 43.77 34.51 33.57 32.07 26.25 20.72 26.03 27.41 30.16 31.77 31.34 32.78 32.44 35.98 36.89 34.78 39.06 41.82 40.04 39.14 38.09 37.63 36.97 36.34 37.06 31.78 30.56 30.07 25.73 28.72 20.34 34.47 40.12 41.30 39.34 41.52 41.46
42.76 43.61 44.46 44.79 44.92 45.63 46.07 46.39 46.37 46.28 45.56 35.78 34.92 33.28 29.09 19.38 27.54 28.52 29.73 30.75 31.98 32.73 33.36 34.70 37.43 39.90 40.90 38.41 31.89 29.85 28.62 29.81 32.26 35.23 34.68 35.72 30.92 24.90 23.62 24.77 29.89 33.42 37.80 38.40 37.33 38.01 43.30
42.56 43.75 44.09 44.68 45.36 45.71 46.23 46.48 46.41 46.60 46.04 41.52 37.87 36.41 32.72 29.11 24.84 31.89 29.42 31.02 27.09 27.54 30.09 34.42 39.60 40.33 38.98 34.05 29.29 25.58 22.06 27.05 27.14 30.74 35.87 34.70 33.22 27.54 24.91 23.15 19.18 32.06 40.21 43.71 43.46 33.48 43.74
42.74 43.24 44.13 44.87 45.90 46.39 46.60 46.67 46.67 46.77 46.67 43.58 39.95 39.78 34.21 27.37 29.70 31.80 28.28 29.47 33.42 31.79 29.20 31.63 34.19 34.45 37.29 28.30 23.65 25.30 24.21 31.49 24.49 26.79 28.36 28.84 27.43 25.86 25.17 23.25 28.77 38.44 41.53 44.24 31.77 33.55 42.30
42.49 43.43 44.55 45.10 45.96 46.53 46.90 47.01 46.85 47.01 46.78 44.39 41.12 41.23 35.98 29.18 32.00 33.97 35.21 31.47 34.20 35.60 29.80 33.31 28.93 33.87 32.42 28.19 27.02 26.12 23.10 28.11 28.42 31.42 30.26 29.17 27.80 26.31 26.03 25.43 22.49 40.92 42.14 35.98 39.16 41.62 41.64
42.89 44.02 44.80 45.43 46.18 46.34 46.69 46.85 47.10 46.99 46.83 46.27 39.63 41.87 40.89 33.76 32.86 37.22 37.00 37.80 36.89 37.88 34.63 35.79 34.97 35.00 35.25 31.91 29.96 29.09 24.02 25.33 28.52 25.23 37.20 30.33 32.64 28.80 29.76 28.80 39.58 41.08 39.76 41.87 42.22 40.45 40.60

GFSGBSN_sfc_wetblb_093.txt.gz
Wetbulb
51.75 52.08 52.02 52.19 52.36 52.81 53.05 52.72 52.36 53.51 52.78 52.55 52.12 51.77 51.39 51.33 51.24 51.20 51.97 52.34 52.46 52.15 51.98 51.95 52.17 52.88 47.88 39.76 40.14 48.70 56.63 53.78 57.90 54.96 50.46 48.54 43.22 41.55 38.05 40.35 42.83 41.32 42.83 44.66 45.05 45.03 43.74
51.73 51.82 51.65 51.33 51.06 51.52 52.12 52.46 52.31 52.64 53.00 52.79 52.73 52.26 51.49 51.19 50.98 50.83 51.48 51.58 51.84 51.81 51.54 51.74 51.98 52.54 44.18 34.29 44.98 46.88 46.89 47.22 48.51 53.41 50.91 50.37 46.38 44.46 41.21 40.89 41.03 43.99 44.55 44.96 45.00 45.03 44.44
51.10 50.94 51.36 51.51 50.90 51.00 50.77 50.98 51.63 51.86 51.86 52.34 52.25 52.11 51.88 50.98 50.79 50.64 51.06 51.29 51.36 51.63 50.91 51.30 51.87 49.57 42.45 38.45 45.62 46.53 46.99 45.06 46.94 48.91 47.71 47.74 50.16 46.54 44.47 42.19 46.07 45.16 41.98 43.33 42.68 43.07 42.89
50.61 51.45 50.86 50.61 50.84 50.68 50.48 50.48 50.63 51.21 51.21 51.51 51.53 51.44 51.60 51.18 50.93 50.85 50.77 50.64 50.62 50.97 51.16 51.13 51.58 47.92 39.37 48.68 47.03 46.28 46.16 45.44 47.35 47.85 47.02 49.23 47.51 42.88 41.57 44.22 44.37 41.69 40.38 35.05 42.53 43.92 44.61
50.18 50.57 50.53 50.46 50.37 50.45 50.19 50.37 50.39 50.24 50.89 50.87 50.95 51.01 51.65 51.19 50.99 50.80 50.31 50.10 50.03 50.55 51.36 50.81 47.94 45.20 37.82 50.80 46.60 49.35 47.92 45.12 46.31 46.69 46.93 50.84 45.80 40.60 38.86 35.96 35.26 36.57 32.51 34.45 38.36 43.71 42.87
49.18 49.55 49.81 49.62 49.71 49.84 49.81 49.86 50.26 50.04 50.34 50.23 50.34 50.70 51.00 50.71 50.53 49.92 49.47 49.19 48.73 50.09 50.19 49.72 48.40 41.36 43.31 43.35 49.13 48.28 48.30 47.60 44.86 45.46 44.53 43.31 38.39 33.84 34.14 34.71 29.25 32.16 32.53 30.45 34.06 38.56 41.02
48.23 48.14 48.71 48.97 49.18 49.36 49.58 49.54 49.28 49.72 49.61 49.68 49.87 49.70 50.02 50.15 49.81 49.34 46.85 41.14 41.05 38.97 43.44 41.53 41.52 41.01 43.72 48.37 49.80 45.89 45.60 44.83 44.64 41.46 35.86 37.44 32.54 29.49 31.83 35.87 37.89 37.70 35.55 33.86 35.70 41.95 41.08
46.88 46.97 47.39 47.79 47.92 48.56 48.74 48.86 48.86 48.82 49.07 49.27 49.27 49.35 49.48 49.27 49.15 49.35 43.27 40.68 42.98 43.31 36.90 43.30 42.54 43.36 46.10 47.93 41.76 44.74 46.06 40.30 41.54 35.52 36.47 33.98 29.28 34.22 36.00 36.31 36.12 35.84 33.80 33.44 37.92 42.10 40.38
46.53 47.40 47.81 47.75 47.77 48.05 48.10 48.16 48.06 48.28 48.23 48.36 48.61 48.89 48.91 49.25 49.01 42.64 38.64 39.41 46.26 44.95 36.41 38.29 42.27 41.15 42.22 43.93 39.80 40.83 43.77 39.21 36.63 35.83 34.79 31.59 35.85 39.35 36.09 33.67 33.18 32.09 31.79 32.96 34.54 38.63 39.56
45.87 46.33 46.78 46.98 47.18 47.44 47.67 47.62 47.57 47.62 47.84 47.78 47.87 48.16 48.91 48.78 39.55 38.89 37.21 44.27 44.76 44.48 29.88 32.05 36.75 40.02 42.58 42.39 37.35 45.42 44.04 39.85 36.45 34.44 36.10 34.63 39.99 40.26 38.02 36.86 37.28 32.13 37.81 37.36 36.06 34.83 28.79
45.30 45.33 45.79 45.96 46.30 46.58 46.70 46.88 47.07 47.07 47.20 47.54 47.54 47.75 48.24 47.60 39.00 36.24 39.45 44.24 44.07 42.42 16.77 35.93 39.35 47.04 43.31 39.24 41.09 39.79 43.66 39.72 35.16 37.84 38.30 35.96 38.65 37.71 36.69 37.60 39.70 35.75 39.95 37.67 36.20 34.51 33.55
44.58 44.88 45.65 45.88 46.13 46.08 46.22 46.20 46.41 46.71 46.65 46.78 46.97 47.35 47.62 42.99 37.41 39.37 42.79 43.39 42.96 27.63 18.12 33.51 40.03 38.57 38.19 40.52 41.15 40.86 40.47 41.56 40.47 38.39 37.81 36.95 41.26 39.94 38.58 40.55 41.04 42.19 38.41 37.88 37.45 35.43 28.03
45.72 45.75 46.14 46.46 46.33 46.22 46.33 46.37 46.16 46.07 46.24 46.56 46.60 46.95 45.01 43.68 35.55 40.44 41.78 39.90 25.77 21.26 34.29 33.88 35.34 38.89 37.42 37.18 38.96 37.91 36.44 35.10 30.96 29.09 30.11 34.26 35.66 38.80 42.25 36.75 39.29 39.31 35.20 24.22 27.09 27.02 25.29
45.49 45.58 45.87 45.72 45.80 45.97 45.77 45.93 46.01 45.96 45.88 46.19 46.45 46.77 43.41 42.95 40.77 40.99 40.49 33.22 20.84 28.17 31.13 37.26 35.68 37.61 34.93 38.21 37.73 36.20 34.21 31.12 33.77 32.29 28.53 27.00 24.30 34.94 39.94 37.16 34.33 35.89 35.84 28.97 22.73 24.33 27.88
44.94 45.47 45.67 45.55 45.32 45.78 45.97 45.82 45.68 45.68 45.79 45.83 45.25 37.78 37.10 38.54 41.63 39.74 33.22 23.63 24.44 30.39 33.81 31.86 33.67 33.19 33.76 36.92 36.68 34.81 32.76 30.67 33.66 34.68 28.63 26.69 28.50 37.34 39.35 39.55 38.88 35.19 33.01 39.03 33.31 34.22 29.80
44.87 44.77 45.08 45.41 45.61 45.63 45.96 46.09 45.88 45.77 45.59 45.34 36.18 34.90 35.12 39.40 41.25 36.89 28.80 26.60 29.80 35.69 35.49 34.61 29.33 33.88 28.94 32.76 34.61 33.84 34.64 37.27 35.48 37.38 35.26 32.53 27.08 35.96 38.71 40.56 39.45 37.83 40.72 33.16 34.29 26.69 25.93
44.49 44.15 44.94 45.45 45.57 45.64 45.99 46.11 46.18 45.88 45.48 44.30 39.10 31.69 36.01 40.44 39.95 34.60 21.23 27.65 31.62 37.21 36.49 32.89 31.23 31.32 32.60 31.13 33.96 35.25 35.71 38.03 37.65 36.66 37.69 34.31 30.73 30.56 36.81 35.02 33.89 35.65 35.17 35.66 36.01 34.22 28.83
43.79 44.34 44.70 45.18 45.55 45.72 45.96 46.23 46.19 45.70 44.70 40.52 35.95 26.76 36.72 43.22 25.23 28.29 21.01 29.95 35.42 35.28 37.47 34.46 35.52 34.29 31.82 33.68 32.37 35.20 34.76 37.00 39.82 38.23 33.75 35.79 33.48 26.69 29.64 36.37 40.51 38.54 36.50 37.14 31.26 31.36 33.42
44.26 44.10 44.49 45.02 45.34 45.59 45.81 46.21 46.40 45.75 44.30 36.03 32.52 32.46 37.35 39.69 24.99 17.18 27.35 31.74 33.40 33.27 34.00 32.95 32.18 35.67 35.52 32.57 30.08 36.06 36.74 40.39 40.08 37.91 34.39 35.68 32.09 25.79 27.60 33.75 37.56 36.01 37.43 36.99 36.57 36.02 31.43
43.75 43.60 44.17 44.83 45.08 45.66 46.04 46.28 46.33 45.65 44.95 36.35 31.87 22.16 27.62 33.34 34.28 29.38 26.03 28.00 28.66 36.55 34.66 35.46 34.06 36.20 33.80 31.55 33.95 32.48 35.14 39.58 40.44 38.31 41.71 38.39 31.75 29.35 24.23 29.04 34.16 32.68 35.34 37.17 36.02 32.21 32.69
43.27 43.13 43.86 44.45 44.98 45.59 45.90 46.21 45.86 45.42 44.97 35.89 32.10 23.94 29.88 24.38 29.63 27.64 29.64 30.68 29.76 30.22 35.81 37.18 34.51 34.02 32.24 27.83 29.43 28.95 33.87 35.40 38.07 40.43 36.59 34.70 27.87 30.95 32.68 34.85 34.64 34.92 35.10 36.39 34.82 35.98 32.69
42.52 42.60 43.27 44.12 44.66 45.49 45.80 46.13 46.45 45.46 44.56 34.30 28.53 27.68 30.81 29.61 31.99 32.03 31.05 29.61 30.24 31.96 32.61 31.58 31.33 33.70 33.93 30.93 31.37 29.13 32.63 32.46 32.24 36.22 34.26 34.78 27.26 29.02 27.92 32.78 33.60 31.42 32.78 33.33 36.38 37.30 36.92
42.81 42.61 43.29 43.83 44.41 45.42 45.54 46.17 46.33 45.60 41.70 31.46 31.73 31.48 29.35 26.29 27.40 27.29 28.67 29.44 30.08 32.20 34.72 35.91 34.85 32.47 31.33 33.96 35.49 36.04 36.68 36.35 35.63 34.15 32.10 32.28 29.92 27.79 24.81 30.17 29.67 25.57 32.31 34.11 37.65 38.59 38.16
42.27 42.04 43.23 43.71 44.82 45.02 45.30 45.79 46.24 46.09 42.41 33.79 32.38 30.23 24.09 18.96 25.89 26.73 28.31 29.96 30.24 31.39 30.81 34.24 35.68 33.56 37.49 40.64 39.05 37.26 36.48 36.32 35.49 35.60 35.95 31.11 29.65 28.38 24.42 26.61 17.41 30.74 37.13 40.42 38.69 39.09 40.34
41.99 42.61 42.93 43.53 44.70 44.92 45.22 45.70 45.83 46.23 45.93 35.83 35.25 31.43 27.59 20.41 27.06 27.51 28.12 29.69 30.65 32.66 32.12 35.02 37.46 39.46 40.28 37.31 30.46 29.00 28.52 29.04 31.26 34.25 33.88 34.13 29.75 23.99 21.89 22.24 26.52 30.66 36.03 35.92 34.36 35.97 42.86
41.77 42.68 42.68 43.70 44.05 45.11 45.41 45.90 46.14 46.21 46.45 40.77 36.62 36.16 31.17 24.55 22.95 30.43 27.77 29.41 27.01 28.27 29.23 33.44 38.11 39.43 38.27 32.01 28.21 24.43 22.40 26.75 26.50 30.10 34.56 33.03 31.72 26.68 23.72 20.99 16.04 29.77 38.62 42.18 41.74 32.59 42.21
41.54 42.14 42.63 43.37 44.02 45.36 45.72 46.14 46.39 46.49 46.67 43.19 39.64 37.86 33.58 26.11 28.63 29.55 27.80 28.21 32.14 30.61 28.89 30.58 34.37 34.69 36.60 28.07 26.79 24.55 24.56 30.29 24.55 26.33 27.28 26.78 26.48 24.86 24.53 23.92 26.41 35.40 39.34 42.75 29.73 30.81 41.18
41.39 41.58 42.25 43.19 44.28 45.27 45.86 46.62 46.73 46.96 46.88 44.38 41.21 40.17 35.59 25.74 30.02 32.46 33.03 29.25 32.16 33.10 29.30 31.86 27.85 31.76 31.71 24.93 25.61 25.63 23.93 27.68 27.91 29.34 27.79 26.18 24.26 23.33 25.41 24.50 20.55 38.63 39.45 33.96 38.20 39.64 40.54
40.66 41.06 42.10 43.53 44.62 45.31 46.05 46.51 46.80 46.98 46.90 45.98 39.92 41.06 40.75 34.83 30.42 35.32 35.56 36.37 35.18 35.85 31.46 33.08 32.04 33.57 35.31 31.61 30.40 29.97 23.72 24.13 27.21 23.22 34.37 25.86 31.07 29.29 27.88 26.82 38.27 39.59 38.47 40.16 39.56 36.52 36.32

GFSGBSN_sfc_wetblb_096.txt.gz
Wetbulb
51.74 51.78 51.78 51.51 51.12 51.27 51.61 51.82 51.82 52.04 52.18 52.16 52.16 52.06 51.84 51.75 51.30 51.01 51.55 51.57 50.80 50.28 50.34 50.91 51.46 51.74 47.13 38.75 38.24 45.96 52.60 50.52 57.02 52.76 47.67 46.25 42.29 40.52 37.27 38.34 40.29 39.66 40.92 42.85 44.05 44.06 43.06
50.81 50.60 50.52 51.59 50.83 50.80 50.87 50.61 50.51 50.97 51.30 51.47 52.26 52.24 51.87 51.66 50.97 50.56 50.90 51.23 50.92 50.70 50.01 50.23 50.87 51.31 44.43 34.12 44.58 44.81 46.12 45.66 45.36 51.88 50.86 47.93 44.73 43.61 39.87 39.00 38.97 41.82 42.44 43.46 43.99 44.17 44.13
50.23 50.77 50.61 50.41 50.43 50.43 50.38 50.21 49.99 50.11 50.21 50.96 51.39 51.82 51.32 51.32 50.75 50.64 50.32 50.79 50.56 50.26 49.60 50.02 50.54 48.12 41.30 37.66 45.38 46.10 46.52 43.95 44.16 44.81 46.54 49.02 49.73 45.43 41.84 39.69 43.46 42.37 38.32 40.45 41.12 42.16 41.76
49.93 50.39 50.70 50.20 50.18 50.07 50.16 50.01 50.00 49.99 50.07 50.47 50.68 50.58 51.36 51.30 51.28 51.09 50.61 50.44 49.91 50.13 50.45 50.18 50.70 46.35 37.42 47.87 46.37 45.30 44.48 44.17 45.78 45.79 45.14 46.05 46.13 43.10 41.23 42.01 41.27 39.14 38.32 33.57 40.70 42.22 43.64
48.37 49.09 49.60 49.41 49.13 49.23 49.30 49.50 49.66 49.47 49.70 49.87 50.09 50.30 50.84 50.76 50.87 50.52 50.29 49.75 49.33 49.60 51.15 51.30 46.56 43.54 36.60 49.57 45.16 47.22 46.59 43.16 44.86 45.16 44.38 48.54 44.70 39.43 37.65 34.58 33.22 34.96 30.22 33.15 36.56 41.98 41.45
48.19 47.64 48.15 48.51 48.61 48.86 49.00 49.06 49.08 49.02 49.30 49.51 49.51 49.53 50.10 50.46 50.47 49.91 49.49 49.06 48.79 49.04 49.41 48.84 47.58 39.53 40.34 40.17 48.01 48.81 47.15 46.91 44.33 43.38 42.97 41.81 38.18 33.58 32.64 32.19 27.03 30.27 31.39 29.74 32.90 38.13 39.83
46.89 47.09 46.98 47.38 47.60 47.75 48.14 48.64 48.47 48.80 48.88 48.98 48.93 49.23 49.04 50.00 49.81 49.33 46.39 40.41 39.67 37.21 40.73 38.04 39.77 38.99 41.73 47.49 50.14 46.73 46.35 44.76 44.55 41.72 35.93 37.80 32.94 29.20 33.00 34.92 35.39 35.38 34.15 32.90 34.50 40.52 39.68
45.98 46.96 47.97 47.69 47.34 47.49 47.97 48.08 47.90 47.84 47.98 48.21 48.24 48.24 48.42 48.63 48.73 48.90 40.38 34.73 38.00 40.00 33.58 40.61 40.64 41.13 43.93 45.91 40.32 44.04 46.73 39.56 40.99 35.99 37.34 34.29 30.13 35.83 36.36 35.35 34.56 33.63 31.75 30.82 35.29 39.67 38.97
45.74 45.26 46.33 46.69 46.74 46.96 47.22 47.53 47.45 47.45 47.41 47.39 47.69 47.80 47.89 48.03 47.93 40.67 36.97 37.04 44.04 42.71 35.20 37.47 40.78 39.89 41.46 43.24 38.88 39.88 44.28 39.87 39.48 36.36 35.07 32.37 35.34 37.84 34.74 32.39 31.53 30.31 29.34 29.83 31.58 36.04 36.83
44.99 45.16 45.04 45.63 45.77 45.95 46.40 46.61 46.65 46.79 47.06 47.09 47.05 47.31 47.99 47.94 39.96 37.28 35.53 41.47 43.01 43.67 29.74 30.30 35.15 38.90 41.70 41.56 36.39 43.87 45.52 39.84 36.22 35.78 35.44 33.91 37.36 38.51 35.55 33.50 33.38 29.28 35.66 35.29 34.26 31.72 26.20
45.04 44.35 44.59 45.29 45.80 46.08 46.15 46.17 46.43 46.41 46.55 46.62 46.75 46.90 47.06 47.30 38.37 35.94 38.56 41.68 42.52 42.92 15.76 33.20 37.08 44.91 42.38 36.56 37.86 38.94 44.30 39.40 34.22 35.32 37.43 33.99 37.84 36.73 35.21 36.61 38.44 34.65 39.13 36.82 35.45 30.89 31.83
44.19 45.09 45.47 45.93 46.29 46.05 45.96 46.07 46.10 46.35 46.46 46.30 46.42 46.63 46.84 41.65 37.13 38.72 40.04 40.95 40.81 27.00 15.38 30.85 38.55 36.34 34.52 36.66 38.56 39.53 38.49 40.58 41.08 38.55 37.57 36.87 40.91 39.15 37.55 40.06 39.92 40.95 37.02 36.27 35.83 33.51 25.40
44.76 45.68 45.39 45.55 45.73 45.41 45.73 45.76 45.69 45.89 45.97 45.90 46.06 46.18 44.59 43.11 35.07 39.11 40.17 36.41 25.96 19.55 31.52 31.26 32.18 35.27 34.54 35.44 36.87 37.12 35.13 34.03 31.35 29.10 29.82 34.12 35.60 38.07 40.82 35.85 38.44 38.03 32.51 21.40 24.08 26.02 23.24
44.11 44.94 45.32 45.50 45.56 45.03 45.43 45.84 46.04 45.83 45.73 45.89 45.81 45.82 43.07 42.25 39.67 39.37 36.29 29.47 18.16 26.11 28.05 35.45 34.41 33.52 31.49 36.54 35.99 35.55 34.25 30.04 33.45 32.15 29.24 26.43 23.97 35.37 39.53 36.19 33.30 34.90 32.60 24.38 21.89 23.65 26.79
43.64 44.40 44.84 44.91 45.26 45.39 45.51 45.80 46.05 46.08 45.93 45.88 44.64 36.35 35.73 37.25 39.40 38.52 28.40 19.52 21.38 28.05 34.48 32.85 32.97 30.83 32.28 35.61 35.64 34.11 32.12 31.29 33.45 33.40 27.69 26.77 26.10 35.90 38.73 38.83 37.40 34.25 31.83 36.84 32.18 30.63 28.34
43.29 44.40 44.18 44.49 45.24 45.62 45.61 45.87 46.15 46.24 46.07 45.49 35.71 33.78 33.61 38.60 39.53 34.64 23.27 21.82 26.99 34.03 35.16 34.64 29.00 31.42 28.08 31.11 31.57 32.28 33.14 36.20 34.17 36.91 35.15 31.98 26.88 35.24 37.86 39.20 38.61 36.31 39.80 31.88 33.16 24.93 22.15
43.28 44.25 43.87 44.46 44.96 45.23 45.70 45.91 46.08 46.38 45.71 44.35 34.12 30.20 34.73 38.78 39.59 32.07 20.39 22.23 29.19 35.01 36.56 32.59 31.07 30.39 30.66 30.60 33.56 34.17 34.16 35.79 36.39 35.77 36.69 33.76 30.69 30.32 36.69 34.18 32.73 33.84 33.29 34.76 35.82 33.31 28.44
43.82 43.49 44.07 44.50 44.62 45.37 45.46 45.86 46.22 46.36 44.62 39.33 34.62 24.88 35.22 42.90 30.16 24.87 18.19 27.13 32.96 31.32 36.17 34.15 33.93 33.96 31.37 31.61 33.72 33.86 33.94 36.00 38.85 37.92 33.42 35.50 31.70 26.92 29.81 35.97 39.12 37.55 35.15 35.56 31.21 29.20 32.89
43.36 44.05 43.63 43.90 44.64 45.16 45.47 46.01 46.38 45.35 43.84 34.85 29.42 29.01 35.36 40.35 22.64 25.04 26.51 27.92 31.88 31.48 31.61 32.65 31.20 34.23 34.04 31.01 29.82 33.97 34.68 39.06 39.86 36.90 34.45 35.93 31.57 25.99 28.97 33.27 36.53 35.32 37.33 37.20 36.34 34.77 28.58
43.77 43.68 43.16 43.41 44.53 44.75 45.35 45.82 46.00 44.98 44.43 35.18 30.71 22.18 24.65 35.24 34.55 28.82 26.65 25.33 25.95 34.57 33.57 34.59 33.05 34.27 32.98 31.09 33.89 30.99 33.10 38.12 39.96 37.83 41.44 38.77 31.86 28.35 23.97 27.72 32.23 30.58 34.51 36.66 36.53 30.29 31.07
42.90 43.33 42.68 42.80 43.85 44.45 45.13 45.72 46.12 44.90 44.91 34.53 31.42 23.28 28.54 21.12 27.72 27.35 29.80 28.31 26.97 27.80 35.04 35.53 33.09 32.71 32.26 29.14 30.43 30.02 34.02 34.28 37.45 39.31 36.69 34.65 27.43 30.44 31.21 32.73 33.74 32.69 32.97 34.16 33.61 34.45 31.22
41.97 41.99 42.10 42.53 43.48 44.26 44.75 45.65 45.93 45.59 44.30 31.96 22.72 25.95 30.72 28.25 28.68 26.80 29.09 27.38 28.24 30.02 32.96 31.78 30.79 32.82 34.16 31.34 30.46 29.17 31.86 32.28 32.63 35.55 33.60 34.57 27.34 28.86 27.60 31.48 32.45 30.16 31.32 31.15 31.78 32.47 33.41
42.18 42.11 42.67 42.44 43.45 43.94 44.89 45.33 45.74 45.71 41.23 29.73 30.38 30.81 28.61 25.76 25.80 25.97 27.21 27.74 27.28 31.55 33.15 34.46 33.74 33.13 30.63 33.88 34.59 34.43 35.43 35.51 34.49 32.71 30.97 31.23 29.30 27.04 24.41 28.51 28.12 23.02 28.18 34.15 35.23 37.08 36.40
42.60 41.86 41.97 41.94 43.22 43.84 44.91 45.26 45.47 45.88 41.04 33.60 31.81 29.57 23.56 18.90 24.78 25.66 26.57 28.80 28.52 30.04 29.98 34.12 36.39 33.02 36.48 39.39 37.71 35.96 34.59 34.91 35.01 34.68 35.21 30.10 29.28 28.39 24.32 26.36 15.55 27.13 34.03 38.05 35.81 38.80 39.71
41.80 42.01 41.78 42.41 42.89 43.49 44.62 44.95 45.17 45.50 45.02 36.59 34.91 32.60 27.95 21.93 26.30 26.97 27.30 27.74 29.19 29.90 31.16 32.98 36.60 38.34 38.66 35.43 29.42 27.71 27.50 28.32 30.23 33.35 32.75 33.60 29.41 24.76 21.83 22.41 25.43 28.63 34.24 34.63 33.91 34.62 42.23
42.06 42.31 41.41 42.42 42.79 43.62 44.37 44.69 45.24 45.52 45.95 41.15 37.68 38.16 33.78 24.86 21.88 28.69 26.83 27.33 24.86 27.43 28.27 31.05 36.32 38.34 36.75 30.59 27.02 23.70 21.50 26.08 25.95 28.46 33.77 32.21 31.16 26.96 23.94 20.16 14.08 26.75 36.65 39.57 39.62 30.26 39.88
41.70 42.50 41.15 42.27 42.62 43.40 43.91 44.90 45.48 45.94 46.24 43.53 39.79 39.65 35.93 26.79 28.31 29.02 27.16 29.01 31.81 29.00 28.17 30.26 32.38 34.55 34.19 26.29 24.58 24.24 24.26 29.32 23.81 25.84 27.06 26.98 26.97 24.76 23.93 23.96 26.29 33.72 37.15 39.98 27.83 30.27 38.99
41.74 42.18 41.09 41.64 42.23 42.84 43.80 44.95 45.40 46.15 46.47 43.97 40.69 40.29 36.53 25.90 27.95 31.35 31.42 27.58 28.51 31.25 27.66 29.60 26.45 30.92 29.81 26.26 25.33 25.67 24.30 27.06 27.52 28.91 27.92 26.02 25.08 22.82 26.05 23.37 19.87 37.57 36.91 31.07 35.82 35.93 37.38
41.51 41.27 40.67 41.39 41.78 42.99 43.88 45.10 45.62 46.43 46.77 45.94 39.72 40.80 40.74 34.75 29.63 34.25 34.51 35.28 34.33 34.38 30.21 30.34 30.75 34.00 33.72 30.98 30.46 30.40 26.82 25.82 27.37 23.91 32.65 24.56 31.70 29.74 28.41 27.17 37.26 38.51 37.31 37.88 36.54 33.69 33.76

GFSGBSN_sfc_wetblb_099.txt.gz
Wetbulb
50.79 50.44 51.11 51.17 50.88 50.86 50.69 50.58 50.27 50.13 50.23 50.61 51.16 51.53 51.50 51.65 51.68 51.47 51.51 51.66 50.83 50.46 50.13 50.05 50.27 50.59 47.31 39.94 39.73 47.31 50.91 50.38 54.05 54.48 48.91 46.75 44.51 44.30 41.76 43.17 44.79 42.58 44.00 45.24 46.49 47.12 46.55
50.47 50.72 49.99 50.48 50.60 50.36 50.32 49.98 49.94 49.87 49.93 50.35 50.44 50.90 50.94 50.94 50.86 50.78 50.75 51.30 51.30 50.49 49.82 49.94 50.12 50.12 43.57 33.54 46.34 47.18 46.59 46.93 46.13 51.86 50.42 48.47 45.89 46.21 43.10 42.24 42.07 44.00 44.54 45.11 46.23 46.55 46.74
49.71 50.12 51.10 50.54 50.31 50.16 50.06 49.75 49.48 49.82 49.59 49.86 50.16 50.45 50.54 50.47 50.49 50.32 50.35 50.52 50.72 50.63 50.26 50.21 50.26 47.58 41.15 37.87 47.11 47.60 46.48 45.58 46.32 45.43 44.35 51.72 50.12 45.81 44.74 42.03 44.84 43.75 40.81 42.48 42.61 44.52 44.37
48.41 49.27 50.06 49.80 49.43 49.17 49.07 49.33 49.79 49.48 49.35 49.56 49.84 49.66 50.05 50.01 50.07 50.12 50.25 50.64 50.17 50.50 50.39 51.20 51.39 46.14 38.04 47.46 48.92 46.37 47.21 45.84 47.04 46.64 44.89 46.23 48.98 48.98 45.69 45.97 42.99 42.75 42.35 38.50 43.73 44.05 44.97
47.71 48.09 48.25 48.57 48.54 48.76 48.89 48.87 48.80 48.95 49.27 49.13 49.12 49.21 49.58 50.02 50.09 50.31 50.12 49.80 49.54 49.81 51.24 51.34 46.79 43.52 37.43 49.32 44.55 48.54 48.06 43.47 45.47 45.37 45.88 48.36 47.45 44.08 42.16 39.73 37.37 38.75 35.99 36.81 39.95 44.70 44.57
47.06 46.77 47.37 47.30 47.34 47.42 47.60 48.02 48.35 48.23 48.34 48.45 48.47 48.60 48.44 49.09 49.54 49.27 49.21 48.42 48.91 49.60 49.40 49.12 47.30 40.00 41.41 39.72 47.47 49.65 48.39 46.54 44.48 43.96 43.35 42.88 42.90 39.44 37.67 37.07 30.77 33.78 35.15 37.32 37.95 42.74 43.50
46.17 46.18 47.31 47.20 46.87 46.96 47.47 47.73 47.88 47.75 47.69 47.84 47.93 48.02 48.02 48.09 48.56 48.73 45.98 39.90 37.09 37.87 39.59 35.20 36.65 38.47 39.97 44.87 48.49 47.31 48.21 46.25 45.60 42.37 37.26 41.14 37.33 34.50 36.56 38.75 37.89 38.32 37.15 36.60 39.27 43.54 41.80
45.48 45.40 45.83 46.45 46.59 46.54 46.92 47.36 47.38 47.30 47.43 47.42 47.34 47.34 47.68 47.88 47.98 47.76 41.24 36.40 37.82 38.69 31.98 38.68 38.78 39.14 42.17 44.42 38.87 42.45 48.09 40.94 41.29 36.30 38.84 36.69 34.52 38.64 39.38 38.46 38.08 37.25 35.18 34.96 38.11 40.83 40.37
44.65 44.75 45.14 45.81 46.06 46.00 46.27 46.45 46.58 46.61 46.49 46.63 46.84 47.17 47.08 47.43 47.68 41.01 39.07 38.56 43.15 42.11 33.47 35.48 39.31 39.07 40.23 42.30 37.58 38.82 43.57 41.86 40.93 37.25 36.71 34.59 37.67 39.49 37.79 36.15 34.80 34.82 34.01 33.79 34.36 37.83 40.23
44.43 44.32 44.19 44.58 45.25 45.91 46.25 46.45 46.59 46.59 46.55 46.41 46.54 46.85 46.69 47.45 40.27 39.72 37.74 41.31 43.05 42.44 29.10 31.59 35.28 39.00 41.33 42.21 36.39 43.52 45.15 42.26 38.61 37.71 37.24 36.56 39.92 36.31 35.29 34.89 36.16 31.70 36.79 36.04 35.43 35.17 30.84
43.72 43.84 43.94 45.27 45.97 46.16 46.16 45.97 46.19 46.16 46.40 46.41 46.35 46.57 46.49 46.38 40.64 38.17 40.20 42.30 43.25 42.05 15.70 33.27 36.75 45.10 42.62 37.44 38.21 39.15 45.32 41.39 35.79 37.28 38.27 35.75 37.57 37.59 35.04 36.89 38.00 35.64 40.62 37.92 37.70 35.87 34.78
43.26 44.29 45.06 45.43 45.75 45.59 45.65 45.88 45.83 45.92 46.02 46.18 46.07 45.98 46.13 42.18 39.92 40.58 41.22 41.83 41.01 26.06 14.75 29.13 38.51 36.13 35.32 37.70 37.51 39.78 39.47 42.18 41.96 39.45 39.75 38.53 43.01 41.32 39.90 41.47 41.57 42.27 39.18 38.24 38.31 36.15 28.10
43.97 44.43 44.66 45.12 45.34 45.12 45.24 45.65 46.18 46.31 45.99 45.88 45.80 45.97 44.09 43.25 36.77 40.83 41.45 37.25 24.14 17.16 32.07 28.77 31.17 35.53 35.15 33.51 35.03 36.08 34.72 34.39 33.83 30.34 31.76 36.23 38.13 40.83 42.23 37.92 40.82 39.62 34.88 28.10 26.27 26.56 26.48
43.97 43.35 44.67 44.72 45.16 45.38 45.29 45.70 46.07 46.38 46.28 46.31 46.06 45.07 41.58 41.97 41.41 41.50 37.99 29.27 16.59 25.08 26.90 34.35 33.38 33.50 31.92 35.85 35.88 35.37 33.31 31.68 35.73 34.95 32.38 30.06 27.81 37.11 41.12 38.47 36.11 36.20 34.59 28.99 22.60 25.14 29.27
43.21 43.00 44.43 44.06 44.45 45.21 45.53 45.85 46.02 46.51 46.48 46.17 44.07 38.03 37.16 39.07 40.28 39.93 31.62 19.22 21.13 26.45 31.40 30.94 31.14 30.59 32.34 35.73 35.66 34.48 33.57 32.73 35.55 36.46 31.42 30.09 28.88 38.24 40.45 40.58 39.97 35.61 32.54 37.81 30.24 31.79 28.87
42.86 42.69 44.08 43.66 44.27 44.96 45.44 45.77 46.04 46.46 46.50 45.06 37.65 35.11 34.65 39.52 40.80 36.00 25.91 21.23 25.02 31.48 32.71 34.57 26.58 30.51 25.37 30.73 32.12 33.89 33.71 36.42 34.95 37.98 38.16 34.06 29.37 36.91 38.57 41.47 41.30 38.60 40.46 31.64 32.52 24.27 23.28
42.47 42.83 43.69 43.65 44.23 44.62 45.45 45.79 46.15 46.48 45.50 43.82 35.64 30.22 35.79 41.17 41.89 32.60 20.14 22.01 26.25 32.36 33.05 31.70 28.85 27.72 29.71 29.90 31.79 34.16 33.72 36.23 37.96 37.02 38.48 36.13 34.14 33.09 38.34 35.84 34.78 36.11 34.81 34.38 34.05 32.18 26.77
42.61 43.60 43.18 43.72 43.74 44.52 45.27 45.71 46.23 46.08 44.32 39.31 33.64 23.79 36.58 41.42 28.38 27.75 23.94 26.41 31.45 29.93 33.43 31.19 33.73 32.52 30.03 32.05 33.59 34.08 32.50 35.37 39.75 39.15 34.82 37.53 34.10 29.55 32.02 38.32 40.64 38.66 35.96 35.67 30.44 29.39 31.57
42.76 43.00 43.85 43.06 43.14 44.43 44.89 45.53 45.98 44.98 42.83 35.78 29.42 29.43 36.92 40.18 21.74 24.36 28.30 27.87 29.72 28.05 30.83 31.20 30.74 32.43 31.60 31.04 29.99 35.54 35.26 39.62 40.40 37.86 36.34 38.35 32.85 28.92 30.47 34.99 38.04 35.94 37.33 37.43 35.62 35.17 29.94
42.64 43.15 43.55 42.45 42.81 44.06 44.56 45.23 45.78 44.72 43.72 36.39 28.71 21.80 27.01 35.40 33.12 27.37 26.38 26.53 26.61 33.25 31.82 34.55 33.00 33.65 33.32 32.49 34.56 32.68 33.66 37.69 40.42 39.54 41.57 40.43 33.58 30.31 26.86 29.71 34.08 31.87 34.49 36.68 35.16 30.53 31.28
42.70 43.53 43.08 41.83 42.09 43.22 44.21 45.01 45.74 45.28 43.91 35.61 32.08 23.65 28.39 21.39 26.39 27.94 29.13 28.83 27.75 28.46 33.34 35.19 32.54 33.46 32.56 29.86 31.09 30.83 33.60 35.46 38.30 39.12 38.14 36.89 29.40 32.25 32.87 33.63 34.48 33.17 32.96 33.80 31.92 33.43 30.34
42.75 42.76 41.71 41.60 42.02 42.83 44.09 44.77 45.60 45.48 43.04 33.21 25.25 26.24 29.80 28.22 28.58 27.08 28.03 26.44 25.88 27.51 31.29 31.39 30.65 33.00 33.46 31.40 32.06 30.52 32.55 33.15 33.14 37.32 35.78 36.77 29.70 31.89 29.27 32.76 33.39 30.45 32.59 32.23 32.84 34.05 34.09
43.05 41.92 41.74 42.31 42.04 42.87 43.86 44.53 45.45 45.73 41.49 32.13 31.80 32.66 30.27 26.39 26.17 25.33 25.82 26.40 27.25 29.68 31.10 34.05 34.08 33.35 32.77 34.16 36.24 36.74 37.10 36.34 36.44 35.03 33.50 33.72 31.67 28.79 24.38 30.42 30.18 25.42 29.88 32.04 35.82 38.55 37.80
41.85 42.84 41.88 42.02 41.47 42.63 43.62 44.61 45.12 45.68 41.37 35.91 33.32 31.72 27.16 21.74 25.37 25.51 26.57 28.14 27.52 29.67 27.51 33.34 36.34 33.75 36.96 39.49 39.08 37.58 36.23 35.52 36.04 36.32 36.74 32.47 31.56 30.47 26.00 27.92 17.53 29.76 35.87 36.54 35.04 37.43 40.70
42.36 42.92 41.55 41.65 41.63 42.90 43.10 44.54 44.85 45.26 43.50 37.54 35.49 33.51 29.27 22.56 26.42 26.83 27.63 27.48 29.49 29.98 31.06 32.22 35.93 37.74 39.31 36.69 31.63 28.74 29.51 30.68 32.09 34.59 34.35 35.81 32.11 27.84 24.32 23.84 27.54 30.97 35.53 34.15 33.72 32.88 40.29
42.19 42.55 41.47 42.31 41.59 42.67 42.85 44.33 44.67 45.07 45.76 40.37 38.18 38.92 35.11 27.95 25.03 29.01 28.14 28.77 26.36 27.83 29.79 31.99 36.82 39.17 37.29 32.38 29.61 24.41 22.58 26.51 26.54 29.65 34.78 33.87 33.84 30.14 26.63 20.86 18.07 29.09 35.88 39.91 39.35 30.27 38.47
42.43 41.99 41.93 42.36 41.12 42.21 42.77 43.82 44.30 45.33 45.54 42.72 39.69 40.29 36.29 29.43 30.24 30.14 28.35 28.41 32.75 30.24 28.44 31.21 32.79 34.31 36.46 29.69 27.73 25.67 25.02 29.66 24.49 25.91 27.66 28.89 29.25 26.57 26.52 24.17 28.07 34.79 37.70 39.80 26.47 29.06 37.65
42.18 41.19 41.57 42.30 41.10 41.73 42.40 43.30 44.30 45.24 45.78 43.59 40.38 40.65 37.02 30.11 30.00 32.11 32.75 29.88 29.97 31.54 27.80 31.79 30.19 32.70 32.56 28.69 27.94 27.55 26.80 28.64 28.23 30.53 29.84 27.92 26.87 26.23 27.22 24.00 21.25 37.58 37.44 32.23 34.34 35.27 36.04
41.37 41.09 41.61 41.75 40.76 41.38 42.12 43.11 44.14 45.17 45.85 45.69 39.02 40.76 41.41 34.93 32.53 35.52 35.95 36.77 35.52 36.10 33.65 31.90 31.92 31.85 34.04 28.96 29.20 29.72 28.02 29.40 27.78 25.21 33.87 28.82 31.68 29.10 30.10 30.23 36.50 37.11 35.40 35.93 35.66 33.21 33.76

GFSGBSN_sfc_wetblb_105.txt.gz
Wetbulb
53.04 52.71 52.18 51.83 51.04 50.40 50.17 49.56 49.17 49.65 49.73 49.77 50.20 50.56 50.90 50.97 51.03 50.65 50.47 51.01 50.38 50.28 50.23 50.53 50.85 50.99 49.90 44.23 45.32 52.52 55.11 56.01 51.32 51.08 52.82 52.56 49.98 48.69 46.71 49.52 50.94 49.60 50.75 52.15 53.08 52.63 52.30
51.70 51.30 51.77 51.24 50.66 50.42 49.82 48.94 49.07 49.73 49.39 49.53 49.85 50.15 50.23 50.36 50.49 50.32 49.97 50.25 50.80 50.10 50.00 50.45 50.92 50.96 47.36 38.91 51.40 51.77 50.45 50.00 49.74 48.00 51.51 51.93 51.10 51.67 48.85 48.82 49.75 51.73 51.30 51.65 52.22 52.23 51.60
51.40 51.89 51.57 50.96 50.14 49.14 48.65 48.74 49.53 49.22 49.42 49.44 49.57 49.57 49.61 49.78 49.67 49.54 49.52 49.78 50.40 50.51 50.12 50.86 51.83 51.58 46.07 43.70 51.21 51.43 50.59 49.55 49.37 49.20 47.50 52.01 53.49 50.90 51.06 48.70 52.16 51.06 47.89 50.23 50.35 51.41 50.49
51.28 51.88 51.11 49.87 49.08 48.64 48.66 48.17 48.30 48.21 48.40 48.49 48.83 48.66 48.68 48.79 48.90 48.92 49.24 49.88 50.18 50.16 49.93 51.03 52.64 50.89 42.91 50.62 52.33 50.34 50.98 49.58 50.65 50.35 48.44 50.68 52.90 51.95 49.92 51.40 49.56 46.64 47.50 43.14 48.97 49.51 50.10
50.47 50.37 49.75 49.12 48.28 47.20 46.86 47.04 47.83 47.75 48.00 48.18 48.16 48.05 48.11 48.75 49.14 49.39 49.59 49.82 50.14 50.20 50.10 52.45 51.32 46.95 42.16 52.60 48.44 51.03 51.26 48.89 50.93 51.34 49.45 49.15 48.67 47.92 49.43 45.40 43.56 45.42 40.85 42.76 44.98 50.26 49.79
49.55 48.97 48.50 48.03 47.41 47.01 47.27 47.72 47.78 47.69 47.65 47.63 47.59 47.72 47.80 48.16 48.74 48.97 48.98 49.30 50.06 50.60 50.81 52.47 50.88 42.20 46.53 43.95 48.45 50.68 53.07 52.38 50.36 49.54 46.05 44.64 44.46 42.05 43.25 44.11 37.19 41.32 41.68 44.05 44.65 49.00 49.79
48.80 47.85 47.80 47.59 47.28 46.64 46.54 46.42 46.75 46.54 46.83 47.05 47.28 47.37 47.64 47.99 48.04 48.58 48.52 48.85 45.27 44.43 45.25 40.30 41.61 43.86 43.78 46.19 47.10 45.65 47.42 49.52 50.11 47.18 40.29 42.18 38.55 36.76 40.23 43.84 45.77 44.91 43.85 43.98 46.41 49.16 48.25
47.86 47.97 47.70 47.07 46.56 45.93 45.57 45.45 45.81 46.25 46.74 46.95 47.23 47.31 47.46 47.76 47.63 48.20 48.85 43.48 42.03 41.90 34.65 42.31 42.33 42.40 44.45 45.44 40.66 44.52 47.78 43.70 44.61 40.61 42.65 39.20 35.41 40.67 43.03 43.67 43.62 43.04 41.97 41.94 44.39 46.91 46.57
47.26 46.61 46.68 46.64 45.95 45.63 45.60 45.82 45.96 46.25 46.39 46.62 46.93 47.03 47.07 47.09 47.38 47.59 45.92 44.01 48.09 47.30 36.05 38.62 42.58 42.43 43.80 46.57 43.10 43.67 45.65 43.52 41.60 41.18 41.13 36.58 39.15 41.43 40.78 40.82 40.48 41.17 39.92 40.54 40.38 44.14 45.87
46.50 46.10 45.51 45.64 46.12 46.10 45.83 45.46 45.58 45.83 45.92 46.18 46.58 46.61 46.91 47.14 44.82 45.82 44.90 47.40 48.86 48.28 30.32 35.17 39.80 43.78 45.53 46.14 41.45 48.11 48.41 43.20 41.07 38.94 41.97 39.80 41.78 40.99 39.46 39.13 40.92 36.40 42.77 41.16 40.23 40.27 36.78
46.14 45.62 45.21 45.80 46.13 46.02 44.97 45.36 45.56 46.18 46.54 46.52 46.60 46.71 46.79 46.16 45.02 43.23 44.75 48.32 48.90 45.35 20.08 37.12 40.00 49.47 46.50 42.07 42.46 43.36 48.54 43.32 38.23 40.61 40.63 39.03 39.28 39.62 38.28 39.06 40.92 38.62 41.89 40.71 40.85 39.50 38.89
45.53 45.05 45.65 45.79 45.50 45.09 44.97 45.04 45.64 46.35 46.81 46.88 47.00 46.97 46.67 47.42 46.80 46.88 49.10 48.77 45.95 29.60 21.30 32.91 38.97 37.65 37.63 40.50 41.19 43.60 43.46 46.46 43.53 40.09 42.38 41.31 45.10 43.24 41.16 41.64 41.78 42.42 41.26 40.72 40.39 39.08 33.29
45.02 45.54 46.30 45.73 45.55 45.20 44.51 44.72 45.52 46.30 46.83 47.10 47.19 46.76 45.92 47.34 43.41 49.92 49.48 44.10 30.06 23.50 34.86 31.25 32.29 36.36 35.57 35.82 37.39 40.39 39.92 38.27 35.42 32.48 33.22 39.39 41.26 43.52 43.77 39.55 42.61 41.24 38.56 32.21 30.65 32.01 31.63
45.09 45.29 45.20 45.62 45.24 44.85 44.90 45.24 45.65 46.30 46.86 47.20 47.02 46.04 45.49 48.81 49.78 49.63 46.39 36.47 22.55 29.32 29.22 34.79 33.84 34.01 32.59 34.24 34.74 34.74 37.82 35.69 39.06 38.50 36.40 33.24 30.08 40.12 44.18 40.90 37.85 39.45 38.52 32.50 25.49 29.30 33.55
45.62 44.72 44.21 45.30 44.46 44.65 44.79 45.37 45.94 46.31 46.90 47.24 46.77 48.24 48.48 48.71 50.15 48.47 40.62 28.12 26.95 29.73 33.01 31.05 32.66 30.10 31.18 32.99 32.27 32.68 37.11 36.84 38.63 40.80 32.52 33.82 32.24 41.66 43.47 44.10 42.58 38.46 35.71 41.79 35.70 38.32 35.36
46.00 44.26 44.34 44.70 44.23 44.60 44.54 45.55 45.91 46.54 46.97 46.54 45.89 45.94 45.27 49.30 49.96 45.42 36.48 28.54 31.30 35.16 34.88 33.76 25.83 30.01 25.04 27.89 29.35 32.63 36.59 40.02 38.51 42.09 42.54 39.48 32.05 39.72 42.20 44.75 44.54 41.72 44.09 34.68 36.73 28.34 27.95
44.96 44.00 44.66 44.34 44.53 44.35 44.48 45.44 46.09 46.76 46.01 45.04 45.45 40.52 45.36 49.19 48.06 40.87 30.63 31.17 33.52 37.01 36.35 30.61 28.61 27.56 28.30 28.23 31.25 32.26 36.02 38.92 41.02 41.69 43.13 40.02 37.91 35.83 40.78 39.22 38.22 39.32 37.60 39.11 39.73 37.85 32.21
44.52 43.90 43.69 44.07 44.28 44.03 44.52 45.03 45.98 46.29 45.17 42.85 44.05 37.81 46.25 48.34 38.49 38.52 32.86 34.13 36.52 35.80 38.32 35.42 34.48 32.09 31.03 32.35 31.25 31.81 34.18 38.57 43.09 42.83 38.56 42.02 38.57 32.69 36.05 42.62 44.75 42.77 40.31 40.43 34.75 32.78 37.04
43.87 43.25 43.86 43.81 44.17 43.78 44.47 44.58 45.78 45.69 45.01 45.99 41.45 41.12 46.90 46.39 32.81 33.56 35.78 34.56 36.43 34.90 35.40 34.77 33.12 35.05 35.94 31.41 28.28 31.18 37.66 42.79 43.06 42.32 39.85 42.08 36.91 30.33 32.73 38.68 42.30 39.34 40.99 41.43 39.89 39.15 34.80
43.88 43.56 43.87 44.29 43.80 43.87 44.03 44.39 45.45 45.78 45.22 44.71 41.48 35.65 40.85 43.42 40.44 35.13 32.96 32.91 32.82 38.14 36.39 36.68 34.84 36.07 35.08 32.86 33.04 31.56 36.22 39.94 43.64 42.61 42.95 43.59 38.15 34.58 30.60 34.57 39.32 36.62 38.70 40.38 39.19 35.14 34.72
43.99 43.65 43.50 44.49 43.49 43.15 43.29 44.17 45.09 45.73 45.29 43.92 41.55 35.88 37.11 34.95 35.49 34.94 35.24 34.71 32.14 30.82 36.03 37.15 35.57 34.99 33.39 30.23 30.38 31.71 34.90 38.13 41.01 42.03 42.34 41.53 33.98 36.03 37.79 39.69 40.12 38.56 37.91 38.56 36.81 37.01 32.96
43.81 43.71 43.96 43.94 42.64 42.13 42.64 43.89 44.88 45.67 44.95 43.84 34.02 38.01 38.78 38.17 34.98 34.42 33.60 32.51 31.63 32.68 32.41 32.29 33.58 35.69 35.67 32.36 32.43 30.45 34.29 35.31 35.16 39.21 38.71 40.47 33.33 36.10 33.64 37.71 38.42 35.99 36.97 35.93 35.68 36.69 38.61
43.88 43.57 44.09 43.25 42.57 42.18 42.91 43.79 44.38 45.88 44.50 42.14 44.85 43.33 39.46 34.57 33.88 33.80 32.99 31.96 32.10 35.29 36.59 37.24 36.84 35.72 34.15 35.45 39.11 38.92 41.26 40.72 39.83 37.09 35.41 35.04 34.40 33.06 27.99 34.31 34.17 30.41 35.00 36.86 37.77 39.72 39.33
43.84 43.73 43.45 42.85 42.35 42.70 42.79 43.30 44.18 45.59 45.23 43.99 45.00 43.11 39.51 33.94 34.93 33.80 33.11 34.37 33.95 34.89 33.33 37.54 38.25 35.91 39.30 43.05 43.65 42.96 41.15 40.89 40.61 40.02 41.11 35.52 34.12 34.78 29.23 31.57 23.46 35.12 41.33 40.29 39.56 38.31 38.74
43.96 43.65 43.40 43.04 43.08 42.52 42.37 43.22 43.77 45.02 46.34 43.94 46.29 41.11 38.39 32.43 36.31 33.75 33.84 34.20 36.79 37.61 36.99 37.06 38.79 40.55 44.45 42.67 36.07 33.60 34.28 34.35 36.73 39.03 39.11 40.51 37.35 32.69 29.68 29.71 32.52 35.30 38.01 37.47 36.93 33.51 38.71
43.37 43.67 43.08 43.44 42.75 42.21 42.79 43.12 43.25 44.78 45.99 45.37 46.43 44.60 39.99 34.28 35.10 35.62 34.70 35.21 34.41 35.31 36.50 37.82 42.38 44.78 43.95 40.16 35.88 29.01 27.20 30.97 30.13 34.47 39.90 38.54 39.43 36.50 32.60 26.48 23.99 32.75 39.47 42.62 42.03 30.56 37.59
43.22 42.92 42.84 43.34 42.97 42.61 42.44 42.74 43.04 44.27 45.02 44.24 41.76 44.06 42.51 36.63 39.28 38.22 35.53 34.40 37.71 36.50 35.15 38.27 38.22 39.39 42.60 36.97 33.04 30.43 29.97 34.48 29.47 29.62 31.54 33.74 34.63 31.81 31.58 30.45 31.92 32.95 37.29 41.63 31.02 28.31 35.41
43.50 43.05 42.80 43.54 43.24 42.82 42.62 42.82 43.25 43.69 44.40 45.92 44.30 46.30 42.06 38.12 39.50 40.65 40.45 37.26 37.46 38.21 33.91 37.50 37.86 38.29 36.22 32.46 31.13 30.49 31.48 33.60 33.13 34.92 33.22 32.32 30.89 31.19 32.60 29.58 25.81 32.90 38.51 31.78 32.59 34.33 34.87
43.11 42.75 42.46 43.26 43.27 42.98 42.57 42.26 42.29 43.14 44.16 45.36 40.87 44.52 43.02 40.59 39.77 44.17 44.20 44.66 42.82 42.18 38.56 39.15 35.41 36.79 37.41 33.50 32.91 33.03 32.54 35.66 33.07 29.88 38.08 31.22 32.29 30.38 29.41 27.66 32.37 33.10 31.82 33.51 35.39 33.98 33.95

GFSGBSN_sfc_wetblb_108.txt.gz
Wetbulb
54.73 53.88 52.89 52.34 51.65 51.27 50.54 49.67 49.07 49.49 49.39 49.60 49.90 50.13 50.28 50.47 50.67 50.45 50.27 50.37 50.20 50.18 50.21 50.19 50.66 51.21 49.45 42.92 44.05 51.92 58.42 57.14 52.66 49.85 46.90 48.35 49.44 49.14 44.00 45.25 47.95 47.86 49.81 51.25 52.30 52.19 52.30
53.76 53.21 52.76 52.13 51.26 50.96 50.55 49.11 49.02 49.37 49.20 49.42 49.63 49.95 49.86 49.76 49.72 49.84 49.58 49.73 49.86 49.82 49.95 50.47 50.92 51.10 46.81 37.96 50.91 51.99 51.35 50.54 48.99 47.98 46.53 45.78 47.91 50.90 47.92 46.53 45.88 49.11 49.71 50.54 51.74 51.66 52.18
52.90 52.33 52.70 51.80 51.24 50.58 49.36 48.81 49.21 48.57 48.86 48.86 49.05 49.16 49.09 49.04 49.09 49.07 49.15 49.43 50.33 50.16 49.97 50.61 51.04 50.27 45.57 43.15 51.53 52.16 51.14 48.94 49.25 48.33 45.83 47.86 47.92 48.57 48.99 46.76 49.62 48.41 45.68 49.15 50.33 50.89 50.34
52.32 51.92 51.83 51.46 50.38 49.44 49.36 48.95 48.33 48.03 48.01 48.38 48.57 48.55 48.44 48.48 48.63 48.85 48.89 49.83 49.98 49.82 50.20 50.83 51.38 50.42 42.76 52.37 52.54 50.10 50.37 49.16 49.52 49.17 47.83 48.30 48.37 46.97 47.57 49.60 47.93 45.44 46.15 42.03 48.30 49.94 50.95
51.68 52.66 52.03 50.64 49.81 49.23 48.29 47.63 48.01 47.39 47.65 47.91 47.94 47.98 48.02 48.24 48.75 49.39 49.46 49.63 50.05 50.24 50.80 51.37 49.56 47.65 42.59 53.68 48.52 51.01 51.32 47.26 48.40 49.15 49.00 48.91 46.73 43.34 45.63 43.30 41.34 43.58 39.58 41.65 43.90 49.82 49.47
51.67 51.83 50.80 49.83 48.65 48.18 47.67 48.03 47.69 47.12 47.01 47.34 47.56 47.73 48.02 48.00 48.98 48.99 48.97 49.27 50.38 50.95 50.82 50.94 50.97 44.84 47.37 44.68 47.93 49.58 52.12 51.44 47.98 49.03 47.98 46.41 42.86 38.47 39.83 40.37 34.60 37.77 39.60 41.53 42.12 46.63 48.00
50.82 50.41 49.78 48.82 48.18 47.83 48.10 47.38 46.56 46.14 46.65 47.23 47.52 47.61 47.65 47.72 48.23 48.53 47.65 48.07 42.76 43.71 46.36 42.02 42.47 44.18 44.76 47.43 47.90 45.37 46.63 45.39 44.87 45.27 40.44 44.17 36.82 33.66 36.31 39.53 41.61 42.06 41.34 41.24 44.41 47.41 46.37
49.55 49.05 48.54 48.43 48.15 47.40 46.91 46.22 45.99 46.25 46.81 47.12 47.36 47.46 47.59 47.77 47.69 48.64 47.46 43.65 42.44 43.09 35.41 42.62 42.60 42.53 44.21 45.12 39.97 42.98 47.32 41.09 39.81 35.64 42.22 39.81 35.42 38.69 39.71 39.93 39.63 39.44 39.80 40.79 45.03 47.98 46.63
48.90 48.95 48.70 47.84 47.32 46.60 46.31 46.41 46.18 45.87 46.18 46.50 46.91 47.11 47.14 47.34 48.27 47.80 45.87 44.26 47.95 47.30 35.81 37.84 41.95 41.96 42.65 44.60 40.86 42.18 47.18 44.18 38.60 36.17 38.46 36.65 38.93 41.28 38.38 37.75 37.49 38.90 38.73 40.77 41.12 45.10 45.80
48.21 47.21 47.29 47.25 46.68 46.72 46.87 46.20 45.64 45.71 45.96 46.68 46.91 47.26 47.40 47.92 44.98 46.47 44.64 46.96 48.33 48.04 30.25 35.27 39.39 43.50 45.37 46.22 40.70 47.47 48.27 44.89 40.87 35.40 37.94 38.39 42.16 40.14 37.48 36.42 38.36 35.54 42.42 42.93 41.57 39.63 34.40
47.51 46.66 46.06 46.34 46.78 46.79 46.30 45.98 45.71 46.12 46.43 46.99 47.20 47.53 47.62 47.23 44.29 43.59 45.32 48.70 48.53 45.45 20.99 37.70 39.79 48.25 43.42 40.04 39.33 42.83 47.62 44.55 38.59 36.85 37.33 35.39 38.28 38.80 36.53 37.30 39.65 38.26 43.48 41.92 40.84 37.97 37.23
47.06 46.50 45.39 46.39 46.95 46.33 45.98 45.74 45.63 45.84 46.55 47.22 47.52 47.58 47.43 47.14 46.59 47.90 49.46 49.13 45.97 29.36 21.27 32.91 37.33 35.63 35.65 37.74 38.09 41.85 42.78 44.95 43.82 37.87 38.24 37.66 43.22 42.10 39.19 41.69 41.10 42.75 40.47 39.91 38.81 37.00 30.08
46.37 45.74 45.52 46.64 46.16 46.02 45.67 45.36 45.34 45.74 46.63 47.07 47.52 47.52 46.28 47.16 43.47 49.50 49.61 44.59 29.92 23.74 34.46 30.57 31.77 34.76 34.08 33.98 35.12 37.35 36.58 35.44 33.62 29.97 30.04 35.69 37.19 40.49 42.17 38.65 41.75 40.44 36.39 28.41 27.08 27.35 27.17
45.84 45.44 46.23 46.08 46.13 46.04 45.72 45.43 45.36 46.01 46.74 47.19 47.78 47.75 48.83 48.75 50.22 50.04 46.57 36.25 24.12 29.83 30.48 34.97 34.00 34.14 31.21 33.67 33.97 34.50 32.87 33.37 39.06 36.75 32.10 29.54 29.25 38.41 42.99 40.37 37.21 37.18 36.11 29.98 23.76 25.16 29.68
45.46 46.41 45.77 45.90 45.65 45.35 45.58 45.42 45.48 46.12 46.77 47.41 47.57 48.17 47.39 48.65 50.53 49.08 40.25 28.89 27.51 30.50 33.51 31.69 32.46 28.85 29.28 32.80 32.20 32.21 33.47 35.68 38.67 38.20 30.84 31.25 32.00 41.06 43.27 42.95 41.90 37.03 33.17 40.07 32.82 36.20 32.41
45.44 45.41 44.95 45.89 45.15 45.17 45.14 45.32 45.44 46.37 46.89 47.03 44.70 45.59 45.70 49.44 50.26 46.16 37.13 29.75 31.72 35.70 36.12 34.63 26.22 29.45 25.68 28.90 29.30 30.28 33.32 40.00 37.96 38.87 41.72 36.77 32.21 38.63 41.96 43.05 42.85 40.19 41.82 32.96 33.75 28.12 27.13
45.75 45.20 44.82 45.34 44.68 44.77 44.93 45.24 45.51 46.40 46.61 45.61 44.27 40.75 46.41 49.76 49.34 41.23 31.71 31.59 35.11 38.97 38.66 33.73 31.03 29.15 30.02 30.48 31.49 30.88 33.81 39.69 40.14 40.54 41.13 36.81 34.87 35.60 39.72 37.46 36.38 36.81 35.90 37.36 37.55 35.18 29.35
45.89 44.86 44.75 45.19 44.74 44.83 44.95 44.97 45.66 46.16 45.98 44.18 44.36 37.34 46.50 49.72 38.39 39.02 33.37 35.19 37.85 37.67 40.23 37.70 36.64 34.34 32.24 32.63 30.85 30.43 31.75 35.40 41.97 41.63 36.32 40.61 37.11 32.41 34.95 42.02 43.32 40.27 37.94 37.82 33.07 31.86 35.49
45.47 44.55 44.65 44.65 44.63 44.39 44.72 44.72 45.61 46.06 45.61 45.28 41.16 40.71 46.88 47.13 33.20 33.99 36.48 36.38 38.16 36.89 36.87 35.72 34.17 35.65 36.12 32.24 28.77 31.70 33.44 42.22 43.64 42.55 39.40 40.63 34.76 29.73 31.26 36.24 40.60 37.66 39.83 41.18 39.65 37.65 34.40
44.59 44.26 43.85 44.76 44.63 44.16 44.50 44.33 45.08 45.91 46.25 43.96 41.27 35.78 40.44 41.95 40.27 35.51 33.63 34.08 34.04 38.94 37.48 37.65 36.67 37.48 35.77 32.72 33.46 31.51 34.44 40.49 42.91 42.27 42.81 43.97 37.29 33.46 29.65 32.99 38.54 35.76 38.71 40.24 38.76 33.64 34.24
44.56 44.35 44.17 44.27 44.53 43.90 44.05 44.04 44.56 45.58 45.93 43.81 42.46 36.91 38.42 34.17 35.73 35.33 36.14 35.57 33.10 32.19 37.25 38.15 35.94 35.74 33.98 29.48 31.28 32.09 35.50 37.73 41.26 42.37 41.60 38.79 34.00 34.49 36.10 39.10 39.57 37.68 37.61 38.83 36.77 36.79 33.23
44.48 44.95 44.71 44.74 43.91 43.30 43.05 43.54 44.25 45.41 45.66 43.03 33.49 38.02 38.43 36.65 36.45 35.33 34.73 33.32 32.33 33.80 35.29 33.72 33.95 35.40 35.18 31.45 32.50 31.61 34.64 35.70 35.55 39.81 38.45 39.03 32.00 35.21 31.62 37.37 37.55 33.92 36.27 36.83 37.99 38.58 37.76
44.68 44.28 44.42 44.48 43.37 42.68 42.85 43.68 44.12 45.20 45.39 42.41 44.34 43.40 39.61 36.18 35.36 34.10 33.94 33.30 33.32 36.25 36.93 38.01 37.16 35.30 34.34 34.97 39.02 40.96 41.81 41.12 39.79 38.24 35.96 35.11 34.46 32.38 27.46 34.87 34.37 29.34 34.84 36.38 36.16 36.84 36.09
44.36 44.13 44.10 44.48 43.13 42.80 42.85 43.30 43.82 44.94 45.71 44.66 43.59 42.88 37.58 33.17 34.37 34.35 34.52 35.75 35.17 36.19 34.24 38.14 38.73 35.84 38.65 43.59 44.70 43.22 42.23 40.88 40.67 39.63 40.27 34.30 33.94 34.42 27.95 31.34 23.66 34.03 41.01 38.99 35.37 35.63 37.46
44.38 44.56 44.25 43.71 43.02 43.01 42.66 43.05 43.45 44.75 45.13 45.16 44.87 41.59 38.45 33.67 36.20 35.14 34.66 35.25 37.07 38.96 37.54 37.98 39.39 41.03 44.02 42.16 36.99 33.15 34.23 35.18 36.51 38.76 38.72 40.13 36.90 32.34 28.88 27.90 31.62 34.96 36.15 34.58 34.80 31.24 35.81
44.24 44.33 43.92 43.71 43.85 43.21 42.34 43.21 43.16 44.43 44.96 45.67 45.74 45.71 41.40 34.95 34.83 37.06 35.14 37.21 34.16 34.65 36.47 38.54 41.83 45.00 42.93 39.82 36.40 28.97 26.14 30.35 29.92 33.69 40.32 39.89 40.59 35.43 33.00 26.37 23.90 29.58 33.69 39.38 39.73 27.17 34.96
44.28 44.21 44.16 43.72 43.80 43.18 42.90 43.12 43.17 44.43 45.20 45.38 44.94 46.83 41.14 35.75 39.38 38.97 34.66 34.37 37.97 36.34 34.93 37.84 37.53 38.75 41.68 36.55 32.93 29.25 29.11 35.10 28.41 29.44 31.35 33.21 33.91 31.24 31.29 28.96 28.95 31.09 35.50 39.42 28.94 26.39 34.75
44.17 44.09 43.94 44.09 43.79 43.27 43.05 42.85 43.38 44.13 44.94 45.26 44.89 46.83 41.84 38.02 39.04 40.81 40.87 36.91 37.85 37.50 32.86 36.59 36.89 37.06 35.78 31.93 30.55 30.67 30.46 32.46 32.39 34.31 32.85 29.78 29.58 28.63 30.74 27.55 23.26 32.58 34.96 28.74 31.37 34.92 35.25
43.81 43.58 43.87 43.98 43.62 43.82 43.03 42.97 43.15 43.30 43.70 45.00 42.21 46.33 45.74 39.63 39.62 43.67 43.96 44.71 43.11 41.97 38.24 38.46 36.16 36.80 37.50 33.78 33.27 32.56 31.15 34.94 32.56 28.77 36.64 28.45 32.26 28.96 27.81 26.76 32.32 33.25 32.00 34.40 35.14 33.17 33.29

GFSGBSN_sfc_wetblb_114.txt.gz
Wetbulb
57.88 57.65 56.98 56.68 55.64 53.98 52.84 51.67 50.61 50.17 49.76 49.22 49.33 49.77 49.92 50.04 49.72 49.63 49.62 49.68 49.92 50.03 50.01 50.08 50.38 50.96 46.26 39.53 39.55 48.06 56.76 56.21 54.46 48.42 44.30 42.53 40.39 40.14 40.16 40.15 39.72 37.49 39.34 41.43 43.35 45.73 47.25
57.12 57.04 56.93 56.10 54.74 53.52 52.64 51.65 50.59 50.31 49.76 49.54 49.27 49.19 49.21 49.28 49.37 49.47 49.62 49.66 49.98 49.93 49.72 50.16 50.42 50.69 43.23 33.05 46.00 48.04 48.33 48.22 49.08 46.13 44.12 42.41 39.85 40.07 37.01 36.19 38.76 43.20 42.41 41.31 42.28 42.30 43.57
57.23 57.14 56.47 55.07 54.17 53.34 52.48 51.45 50.19 50.56 49.45 48.73 48.58 48.54 48.64 48.73 48.90 49.05 49.25 49.14 49.61 49.44 50.15 50.66 50.80 48.42 41.37 36.92 45.79 46.32 47.38 45.66 45.71 45.43 42.27 43.46 42.21 38.63 37.70 35.46 39.77 40.77 38.90 42.53 43.35 43.65 42.15
57.21 57.15 56.04 54.48 53.62 53.06 52.77 50.79 50.48 49.81 48.91 48.08 48.32 48.29 48.36 48.49 48.58 48.75 48.88 49.39 49.88 49.89 50.38 51.12 51.07 46.86 38.57 48.52 46.95 47.57 46.54 46.90 47.45 46.22 44.90 45.23 43.75 39.85 37.53 38.81 37.53 34.80 35.53 31.67 40.56 42.35 44.15
57.00 56.60 55.33 54.19 53.26 52.89 51.90 50.35 50.02 49.32 48.52 47.88 47.48 47.79 48.16 48.47 48.65 49.01 49.47 50.02 50.42 50.93 51.63 51.13 45.95 43.57 38.84 51.92 47.62 47.66 46.95 45.12 44.26 45.70 44.96 47.25 42.52 37.83 36.25 30.73 28.41 30.65 27.04 30.66 34.84 41.79 41.84
56.68 55.75 54.81 54.22 53.04 51.76 50.66 50.24 49.70 48.88 48.03 47.04 47.41 47.77 48.23 48.34 48.94 49.26 49.46 49.63 49.88 50.33 49.81 49.41 47.32 38.93 43.16 40.24 46.21 45.29 44.13 44.59 41.64 40.82 40.45 40.25 37.41 33.56 32.15 26.80 21.57 25.94 27.54 30.37 31.87 37.01 40.73
56.31 55.30 54.83 53.80 52.17 51.06 50.62 49.67 49.42 48.56 47.19 47.11 47.66 47.59 47.70 47.86 48.46 49.19 47.43 41.70 36.60 34.72 37.89 33.29 35.80 36.17 37.96 42.27 44.48 42.14 44.63 42.16 40.63 37.20 30.33 34.28 29.22 27.03 33.09 32.59 32.70 31.60 29.42 28.83 33.40 39.09 38.25
55.13 54.62 54.24 53.31 51.54 50.66 49.88 49.66 48.82 47.68 47.02 46.84 46.93 47.11 47.64 48.24 48.36 49.29 45.25 38.05 38.94 37.03 30.83 38.87 39.03 38.78 41.25 41.68 37.19 40.95 43.46 37.26 36.98 31.32 35.78 31.76 26.83 32.76 34.82 37.06 34.67 31.86 28.85 28.34 33.36 37.59 37.12
53.91 53.40 53.23 52.02 50.97 49.87 49.90 49.18 47.96 47.11 46.82 45.95 46.71 47.28 48.07 48.25 48.40 45.01 40.68 39.76 42.76 41.14 29.78 35.25 39.33 39.04 40.34 42.84 36.18 37.09 41.49 39.92 36.22 32.95 32.94 30.13 33.11 36.57 33.63 32.35 32.94 32.30 29.22 29.05 29.19 33.90 36.14
52.87 52.75 52.38 51.00 49.86 49.33 48.86 48.18 47.28 46.82 46.19 46.29 47.16 47.52 48.00 48.54 43.67 41.36 39.69 44.34 43.21 41.31 24.70 32.84 36.81 41.46 42.49 39.96 34.95 41.81 43.60 40.36 36.88 31.91 34.12 32.73 36.98 35.83 33.19 30.98 33.58 29.86 35.59 33.49 31.86 30.31 25.13
52.44 51.66 50.94 49.65 48.93 48.51 47.87 47.58 47.02 46.42 46.38 46.89 47.09 47.74 48.07 47.86 40.31 39.59 42.40 43.82 43.98 39.11 17.21 34.48 35.64 43.91 40.64 35.94 37.18 38.04 42.62 39.69 33.22 33.59 34.63 30.65 33.86 33.92 31.57 31.68 35.68 32.18 36.69 34.11 32.45 29.57 32.89
50.82 50.05 48.90 48.98 48.25 47.30 47.43 47.11 46.45 46.40 46.68 46.73 47.13 47.70 48.10 44.19 41.32 42.02 43.67 43.96 40.08 24.14 17.12 30.66 35.46 34.14 34.36 36.16 36.21 38.85 38.72 40.39 39.46 34.56 34.91 33.84 38.60 36.38 34.59 36.28 36.52 38.69 35.76 36.26 34.50 32.52 25.37
49.04 48.72 47.95 48.38 47.64 47.56 47.01 46.37 46.35 46.36 46.30 46.75 47.23 47.87 46.51 45.69 38.86 43.54 43.54 38.79 24.26 16.74 32.18 28.59 29.53 33.87 32.90 31.74 33.62 34.81 33.32 31.59 27.84 24.49 25.82 31.90 32.61 35.39 37.44 31.50 36.24 35.98 31.03 19.77 22.12 23.17 22.47
48.00 48.21 48.02 47.28 47.02 47.37 46.46 46.40 46.10 46.05 46.13 46.77 47.46 48.09 45.19 45.36 43.57 43.42 40.31 30.34 19.78 27.61 27.89 33.22 33.21 32.99 28.86 31.90 32.63 33.68 31.69 28.22 33.11 30.91 27.75 23.49 21.68 30.94 36.94 33.24 31.09 33.04 31.21 22.92 18.32 20.84 24.40
47.13 46.64 46.23 46.40 47.41 46.27 46.14 45.94 45.91 45.98 45.98 46.91 46.91 41.56 41.25 43.66 43.73 42.39 33.77 19.50 22.94 27.75 32.28 31.67 31.94 27.88 26.55 31.16 32.21 32.22 30.78 30.80 34.48 34.53 26.35 24.42 25.27 35.81 38.95 40.53 38.84 32.69 28.58 34.38 28.73 30.93 25.53
46.34 46.00 46.38 47.37 46.64 46.11 45.92 45.85 45.91 45.95 46.12 46.31 38.87 39.62 40.37 43.65 43.36 39.92 28.58 27.37 29.16 34.61 36.19 34.42 25.25 29.96 25.52 28.34 27.93 28.16 30.67 34.93 35.67 38.62 37.13 34.49 25.23 35.20 36.92 40.21 40.83 36.63 37.28 26.68 28.19 19.45 16.97
46.00 45.63 46.85 46.36 46.04 45.60 45.77 45.77 45.85 45.91 46.27 45.67 38.61 35.77 41.09 43.55 42.89 33.75 21.83 26.47 32.26 37.83 37.43 32.56 29.68 29.43 27.60 28.82 29.11 28.39 30.47 34.93 37.60 37.21 39.59 37.61 32.89 30.87 34.87 35.61 32.58 33.05 32.81 33.51 32.29 30.03 21.71
45.97 46.47 46.62 45.87 45.67 45.20 45.41 45.84 45.64 45.98 45.82 42.84 37.84 30.68 40.81 43.00 29.89 28.60 24.14 31.75 37.49 35.58 37.44 34.90 34.42 32.88 29.40 29.55 28.26 27.86 29.55 34.23 39.54 39.79 35.89 38.05 32.60 27.14 33.51 39.06 41.39 37.58 35.19 35.01 24.82 26.99 32.39
46.06 45.42 46.13 45.49 45.14 44.83 45.52 45.59 45.66 46.30 45.60 39.70 35.74 33.94 39.85 40.61 23.59 22.83 30.73 34.16 35.91 34.27 34.11 33.09 31.62 34.16 32.17 28.86 21.07 25.81 31.57 38.34 39.61 38.25 37.25 38.75 33.61 28.12 30.18 34.06 38.69 35.33 37.35 38.11 36.49 33.67 31.29
46.09 45.33 45.49 45.42 45.10 44.80 45.22 45.26 45.42 46.11 46.30 39.58 33.82 26.89 32.24 34.85 32.05 29.40 28.52 30.22 30.55 35.94 34.40 34.87 33.23 31.92 28.53 22.48 28.35 24.36 30.29 36.68 39.27 38.86 42.85 41.39 34.06 29.85 25.12 30.01 34.28 33.60 35.74 37.39 36.15 30.36 27.88
45.56 45.21 45.82 44.91 44.51 44.19 44.57 44.76 44.99 45.63 46.07 39.13 31.40 28.26 32.35 23.92 28.01 28.67 29.93 31.75 29.30 28.28 34.05 33.89 29.91 30.69 27.15 18.90 24.93 24.20 31.51 34.14 37.74 39.73 38.10 36.57 30.03 32.53 34.50 35.23 34.98 32.48 35.17 35.27 34.29 32.88 27.60
45.39 45.25 45.32 45.02 44.73 43.76 44.07 44.27 44.67 45.36 45.69 37.63 26.56 31.13 31.02 29.00 33.61 28.80 29.92 29.85 29.01 29.91 29.74 28.18 29.00 31.38 29.96 26.96 27.80 26.20 31.12 32.41 32.32 36.37 34.82 37.68 30.95 32.10 30.36 33.76 33.34 30.43 31.96 33.03 34.30 33.13 30.90
45.22 44.43 44.70 44.78 44.64 44.15 43.74 43.87 44.57 45.46 44.09 37.04 36.86 35.88 32.10 31.14 28.33 25.76 26.19 29.05 29.65 32.12 33.68 34.35 32.21 30.38 28.83 30.89 34.48 35.57 35.91 35.93 36.07 34.39 34.07 32.41 31.25 30.45 26.40 32.29 31.63 24.58 29.35 30.25 30.72 31.69 32.51
45.10 44.22 44.34 44.56 44.41 43.68 43.41 43.95 44.62 45.00 44.63 39.94 37.67 35.84 29.60 24.47 27.91 28.24 32.63 32.51 31.73 32.91 31.03 34.27 33.95 30.92 34.79 38.68 38.10 38.01 36.78 36.96 37.56 38.10 38.87 33.73 32.15 31.46 27.13 29.48 18.84 28.65 34.25 32.58 29.63 31.70 31.94
45.32 44.96 44.32 44.72 44.00 43.48 43.41 43.99 44.19 44.74 45.06 40.99 39.08 35.44 30.88 23.96 30.28 32.24 33.10 32.71 32.46 32.78 31.96 33.33 34.41 36.19 37.46 35.48 32.15 29.36 29.09 30.98 34.16 37.53 36.78 37.77 34.16 28.55 26.91 25.97 27.50 27.84 29.10 28.21 28.94 27.12 33.57
45.20 45.36 44.73 45.08 44.33 44.19 44.38 43.94 43.89 44.67 44.55 40.41 39.68 39.30 33.83 28.31 28.25 35.16 31.08 32.08 26.99 27.06 28.85 32.89 36.31 36.85 35.82 32.31 27.82 24.80 24.36 27.80 28.68 31.95 37.08 36.25 35.01 30.99 28.68 22.53 18.39 25.07 29.24 33.08 33.50 22.96 33.61
45.33 45.17 45.06 44.93 44.38 44.26 43.97 43.96 44.21 44.98 45.36 40.81 38.69 39.37 34.75 27.27 33.18 33.98 29.81 29.06 32.67 29.76 27.54 30.09 31.77 32.94 33.70 25.10 25.04 23.88 25.02 32.72 27.09 26.62 28.05 28.10 28.92 24.97 26.85 23.90 24.84 27.78 31.27 34.98 23.68 23.47 33.57
44.96 44.91 45.08 44.74 44.64 43.92 44.23 44.16 44.98 44.91 45.43 41.16 38.54 40.13 36.23 28.81 31.96 37.16 37.87 32.00 32.52 30.84 24.12 29.57 27.22 29.92 28.05 24.38 24.73 24.57 25.67 29.65 29.30 31.20 29.72 27.52 25.55 22.67 25.29 21.13 18.20 30.60 30.24 27.15 30.31 33.07 32.76
44.53 44.53 44.51 44.48 44.39 44.04 44.24 44.34 44.81 44.91 44.77 43.23 37.14 42.12 40.40 32.79 31.40 37.54 37.96 39.13 38.28 36.71 32.13 31.79 33.77 33.04 31.05 25.25 29.11 27.36 26.69 28.42 27.52 22.19 33.64 25.28 27.54 24.80 26.10 23.79 30.67 32.08 31.73 33.40 32.94 31.02 30.12

GFSGBSN_sfc_wetblb_117.txt.gz
Wetbulb
59.38 58.82 57.98 57.26 56.80 56.54 55.45 54.12 52.62 51.26 50.80 50.13 49.89 49.78 49.94 50.09 50.03 49.92 49.89 49.87 50.12 50.36 50.34 50.15 50.46 51.16 45.45 36.88 36.17 45.98 53.69 51.36 50.52 48.85 43.02 40.88 38.85 38.75 38.18 36.90 37.59 34.91 36.75 39.16 40.86 40.65 40.60
58.84 58.20 57.67 57.07 56.74 56.54 55.31 53.80 52.26 51.02 50.79 50.32 49.97 49.57 49.16 49.38 49.31 49.53 49.52 49.63 49.65 49.65 49.84 50.29 50.64 50.45 42.28 31.84 43.61 46.32 46.35 47.37 46.78 45.38 43.56 42.22 39.36 39.22 35.78 35.25 35.35 39.01 37.42 38.16 39.79 40.80 41.73
58.99 57.97 57.48 56.58 56.62 56.02 55.21 53.70 52.51 50.92 50.84 50.23 49.65 48.89 48.70 48.50 48.83 49.09 49.33 49.33 49.50 49.87 50.31 50.46 50.45 48.40 41.31 38.38 45.98 46.48 46.77 45.90 46.03 45.06 41.99 43.43 41.58 37.40 36.34 34.10 38.00 37.34 32.93 35.27 36.71 38.55 40.35
58.90 57.98 57.39 56.45 56.10 54.88 54.04 53.24 52.24 50.94 50.61 49.93 48.86 48.53 48.05 48.00 48.70 48.96 49.09 49.19 49.71 50.44 51.03 50.78 50.57 46.84 38.30 48.41 47.16 47.58 45.88 45.23 46.37 45.55 44.33 44.71 43.28 39.09 36.14 37.24 35.61 32.39 31.59 26.87 35.10 37.37 39.42
58.89 58.06 57.29 56.70 55.54 54.22 53.60 52.98 51.79 51.00 50.29 49.27 48.53 47.85 47.94 48.36 48.49 48.69 49.02 49.65 50.45 51.28 51.40 51.33 45.58 42.27 37.32 51.03 46.32 47.41 44.50 43.08 42.70 42.57 42.26 46.24 41.42 36.56 34.75 29.26 26.78 27.76 23.93 26.99 30.51 36.14 37.44
58.99 58.04 56.93 56.59 54.97 54.11 53.41 52.48 50.93 50.50 49.80 48.83 47.74 47.76 47.98 48.06 48.26 49.38 49.47 49.98 49.63 49.19 50.32 49.27 46.97 38.11 41.19 38.92 43.22 44.69 43.27 43.35 40.52 39.87 38.34 36.71 34.81 30.59 29.13 27.21 21.89 24.41 23.96 24.89 25.67 31.81 35.46
59.00 57.91 56.90 56.36 54.70 53.96 52.70 51.58 50.72 50.19 49.11 48.04 47.59 47.58 47.57 47.77 48.52 49.32 46.96 39.72 35.04 33.91 36.43 32.49 35.71 36.10 37.57 40.49 42.74 40.87 42.98 41.01 39.44 35.83 29.24 33.02 26.87 22.92 26.66 30.43 31.99 31.24 29.20 27.40 30.02 33.95 32.52
58.41 57.44 56.93 55.49 54.45 53.02 52.02 51.30 50.35 49.78 48.59 47.72 47.26 46.59 47.19 48.09 48.42 49.02 41.88 37.02 37.26 36.37 30.55 37.21 37.41 37.15 39.92 40.12 35.81 39.09 41.94 36.51 36.11 30.18 33.77 30.94 25.49 32.63 33.46 32.66 30.65 30.12 28.54 27.78 31.64 34.88 33.38
57.47 56.50 55.95 54.78 53.86 52.75 51.62 50.52 50.00 48.77 47.80 47.46 46.22 46.34 47.33 47.91 48.45 42.36 38.10 38.73 42.43 41.17 29.40 34.81 38.82 38.04 39.71 39.95 35.80 35.31 39.80 38.43 34.47 31.64 31.86 28.57 31.28 35.87 33.80 31.04 29.07 28.22 26.51 28.66 29.55 33.48 33.21
56.29 55.49 54.64 53.92 53.21 52.07 50.55 50.31 49.24 47.74 47.26 46.62 46.53 46.71 47.45 48.02 41.36 38.45 37.83 43.02 42.42 41.55 23.65 32.17 36.71 39.98 40.19 39.26 34.41 41.38 40.58 38.24 35.72 30.76 31.71 30.61 35.14 34.89 33.28 31.34 31.62 25.30 32.48 32.81 32.35 30.43 22.15
55.59 54.46 53.40 52.75 51.74 50.63 50.45 49.08 48.10 47.66 46.98 46.71 46.78 46.92 47.77 47.82 37.00 37.64 40.93 43.16 43.29 38.71 18.08 33.86 34.93 41.86 40.00 35.40 36.52 36.60 42.05 38.39 32.05 32.13 32.70 28.62 31.23 31.54 30.12 32.00 35.04 29.93 34.21 33.89 31.94 29.59 25.67
54.32 53.50 52.34 51.49 50.40 50.08 49.19 48.19 47.57 46.94 46.96 46.97 46.81 47.06 47.51 44.05 39.50 40.33 42.42 42.45 39.57 24.71 19.01 29.94 34.65 33.14 33.60 34.93 35.11 37.27 37.36 39.39 37.81 32.37 32.39 31.54 36.79 34.55 33.34 35.31 35.37 35.71 34.19 34.16 32.61 28.34 17.99
52.94 52.01 50.88 50.14 49.50 48.94 48.60 47.44 46.93 47.02 46.60 46.23 46.53 47.04 46.15 45.15 38.38 42.07 42.47 38.39 23.64 18.03 31.81 28.15 29.35 33.11 31.82 30.73 32.52 34.15 33.23 31.38 27.65 25.00 24.68 30.37 31.27 35.04 36.63 31.34 34.44 33.30 30.01 21.42 16.14 17.27 20.63
51.47 50.33 49.58 49.22 48.66 47.86 46.89 46.08 46.29 46.42 46.19 46.39 47.08 47.39 45.34 44.41 42.55 42.09 38.87 30.34 20.95 26.98 27.50 32.69 32.58 32.13 28.02 31.05 31.45 32.32 31.10 28.59 34.54 31.12 27.48 22.75 22.45 29.74 33.72 32.02 28.13 29.06 29.79 23.80 16.81 19.42 23.09
50.08 48.95 48.38 47.76 47.08 46.63 46.02 46.16 46.25 46.22 46.36 46.46 46.78 40.96 40.45 42.55 42.91 41.63 31.75 19.87 23.70 27.48 31.87 31.41 31.17 27.19 26.26 30.12 29.67 29.87 29.86 30.95 34.94 36.95 27.70 26.69 25.45 34.01 37.55 38.59 35.61 31.43 26.62 33.01 26.36 29.33 25.06
47.01 46.90 46.93 46.97 46.70 45.91 45.81 45.95 46.02 45.84 46.43 46.62 38.55 39.43 40.07 43.15 43.75 38.32 28.79 26.83 28.88 34.50 35.55 33.82 25.06 29.06 20.98 26.51 23.41 27.51 29.28 34.38 35.76 38.75 39.24 33.22 27.66 34.83 36.53 38.33 38.82 36.02 36.82 26.31 26.64 21.24 19.51
46.23 46.23 47.40 46.88 45.67 45.49 45.98 45.73 45.88 46.41 46.81 45.48 38.57 35.53 40.43 43.32 41.82 32.05 21.03 25.99 31.79 37.00 36.64 31.77 28.27 26.36 25.98 24.14 27.04 27.62 30.03 34.31 38.01 37.53 39.27 37.00 33.30 30.01 34.69 32.20 32.58 33.73 30.90 31.56 32.47 30.43 24.14
46.14 47.15 46.26 46.09 45.61 45.89 45.78 45.75 46.21 46.49 46.52 41.81 38.01 30.84 39.74 41.84 30.08 27.45 24.89 31.45 37.04 34.79 36.41 34.05 32.91 31.31 26.36 27.26 28.47 27.93 28.36 32.96 38.55 38.33 34.17 38.29 33.58 27.39 31.37 37.35 40.64 37.37 32.90 32.46 24.02 25.32 30.60
46.58 45.93 45.85 45.70 45.67 45.26 45.74 46.08 46.22 46.34 45.95 39.68 34.99 33.46 39.41 39.51 25.04 23.22 30.29 33.45 35.16 33.23 33.04 31.99 29.91 31.86 30.32 22.36 20.97 24.69 29.64 37.13 38.04 36.50 35.10 38.10 33.36 25.88 28.86 34.84 38.34 34.91 36.05 36.06 34.81 33.81 27.45
46.99 46.27 45.85 45.44 44.85 45.10 45.94 45.90 46.46 46.42 45.56 39.86 34.48 27.26 32.19 35.17 31.78 29.14 28.55 29.60 29.56 34.43 32.87 33.34 31.44 30.21 26.52 21.47 28.18 23.99 28.27 35.08 37.56 37.43 42.02 40.30 34.39 30.20 25.03 29.32 33.86 33.03 35.08 36.38 34.10 26.93 25.81
46.08 46.06 46.18 45.77 44.99 45.50 45.66 45.63 45.87 46.06 45.83 39.14 32.71 28.33 32.21 24.46 27.62 28.88 30.17 31.14 27.89 27.05 32.01 32.15 27.97 28.96 25.68 17.43 22.12 23.37 27.90 32.58 35.45 38.63 36.33 37.44 30.56 31.32 30.98 32.71 32.23 32.56 35.74 34.62 31.88 31.50 25.64
46.14 46.15 45.94 45.71 44.95 44.64 45.04 45.23 45.58 45.75 44.99 37.78 30.94 31.01 29.96 29.88 32.21 29.51 29.85 28.83 27.48 28.15 28.42 26.70 27.33 30.32 28.59 26.11 26.17 24.69 28.29 30.95 30.14 34.64 33.71 36.30 31.00 32.03 28.89 31.20 29.35 27.06 29.67 31.65 30.46 29.11 27.79
45.81 45.53 45.63 45.30 44.28 44.56 44.54 44.85 45.28 45.44 43.64 36.88 36.40 35.79 31.85 29.82 27.87 26.29 26.44 28.52 28.28 30.48 32.32 33.22 30.73 28.84 27.90 29.63 32.36 33.75 34.05 33.96 34.49 32.23 31.90 32.21 31.02 30.28 26.77 31.56 30.73 22.61 26.93 28.40 28.79 30.91 31.75
45.92 45.17 44.75 44.86 44.16 44.18 43.85 44.68 45.04 45.34 44.15 39.32 37.24 34.89 29.69 25.16 27.91 27.69 31.77 30.96 30.37 31.49 29.76 32.62 32.02 29.37 34.04 36.51 36.29 35.77 34.48 34.41 35.33 35.74 35.55 32.88 31.93 30.72 27.14 29.72 17.83 26.78 31.75 32.00 28.49 29.62 31.25
45.44 44.66 44.47 44.85 44.42 43.79 43.78 44.56 45.06 45.34 45.01 40.30 38.57 34.90 30.95 25.99 29.65 31.23 31.63 31.05 30.79 31.54 30.27 32.09 32.71 34.54 35.17 33.92 30.75 28.48 28.09 29.78 33.20 35.66 34.36 35.65 32.83 29.89 25.86 23.10 26.47 27.11 27.98 27.71 27.68 26.32 31.10
45.32 45.20 44.83 45.23 44.73 44.32 43.88 44.39 44.91 45.23 45.29 40.80 38.78 38.00 33.88 29.04 28.52 34.31 29.75 30.65 26.94 26.63 27.93 30.83 35.07 35.26 34.10 29.33 26.76 24.23 23.62 27.39 26.93 29.88 35.51 34.16 33.62 31.09 28.61 21.96 18.27 24.85 28.65 33.09 32.38 21.81 31.59
45.18 45.20 45.32 45.10 44.62 44.58 43.98 44.17 44.94 45.41 45.53 40.81 38.22 38.68 34.49 29.02 32.63 33.06 28.71 28.39 30.95 28.60 26.86 28.43 30.45 31.27 31.91 23.76 24.05 23.61 24.69 31.74 24.08 25.45 27.48 27.60 28.26 24.50 25.99 22.80 23.99 27.07 30.56 35.37 23.38 22.70 32.82
44.69 44.92 44.96 44.72 44.37 44.12 43.93 44.51 44.94 45.74 45.58 41.00 38.19 39.89 35.54 29.38 31.49 36.03 36.66 31.34 30.96 29.27 23.44 28.28 25.46 28.55 26.31 22.99 24.22 24.02 24.26 28.28 29.55 29.88 28.78 25.28 24.36 22.84 24.88 20.23 17.98 30.15 30.15 25.90 29.55 31.47 32.54
44.63 44.78 44.85 44.53 44.39 44.37 44.29 45.01 45.67 45.77 45.39 42.97 37.30 40.79 38.77 32.57 31.01 36.12 37.37 37.77 37.14 35.31 30.94 32.25 32.78 30.57 29.57 24.10 28.20 25.86 24.45 26.96 26.94 21.46 32.32 23.87 26.74 24.15 25.03 22.99 29.54 31.36 30.53 32.54 31.79 27.24 26.95

GFSGBSN_sfc_wetblb_120.txt.gz
Wetbulb
60.38 59.97 59.40 58.73 57.98 57.09 56.99 56.51 55.52 54.44 53.17 51.58 50.50 50.11 50.05 50.07 49.99 49.84 49.76 49.67 49.73 49.78 49.91 50.31 51.02 51.17 44.09 34.72 34.37 43.64 52.48 50.36 47.17 46.59 42.18 39.86 36.77 37.39 35.89 34.28 36.88 34.49 34.98 37.19 37.57 37.79 37.89
60.04 59.33 59.19 58.55 57.70 57.15 57.01 56.47 55.61 53.99 52.46 51.02 50.47 50.08 49.84 49.40 49.31 49.07 49.33 49.44 49.41 49.52 49.82 50.35 51.02 50.59 39.87 31.05 41.82 45.05 46.63 46.22 45.05 43.06 41.71 40.67 38.38 38.16 34.52 32.94 32.39 35.67 34.83 35.16 36.03 35.80 36.69
60.56 59.43 58.92 58.27 57.48 56.83 56.65 55.95 55.34 53.56 51.76 51.04 50.51 49.78 48.85 48.85 48.55 48.74 49.22 49.41 49.59 49.81 50.27 50.50 50.33 47.80 39.72 36.27 44.05 45.08 46.57 43.85 44.25 43.97 40.34 42.54 41.62 38.12 36.40 33.73 37.04 35.60 31.83 34.52 34.58 33.26 33.96
60.34 59.82 59.07 57.99 57.19 56.31 56.09 55.73 54.69 53.21 51.54 51.14 50.57 49.16 48.24 47.94 48.36 48.86 48.99 49.13 49.77 50.70 51.10 50.95 50.63 44.51 35.70 46.92 45.56 47.28 43.81 42.68 45.20 44.44 43.70 44.18 42.35 38.23 35.47 36.69 34.42 31.11 29.85 25.60 32.68 34.14 34.76
58.03 59.97 59.40 58.18 57.03 56.24 55.90 55.23 53.99 53.10 51.55 51.01 50.25 49.05 47.81 48.01 48.35 48.54 48.92 49.46 50.24 51.67 51.35 51.26 43.94 40.64 35.56 49.04 44.43 44.51 43.09 40.84 41.56 41.07 41.52 45.09 40.24 35.76 33.78 28.65 25.48 25.96 22.80 24.96 28.94 33.55 33.36
56.71 58.09 59.30 58.26 57.18 56.16 55.94 55.00 53.41 52.35 51.93 50.71 49.61 48.07 47.72 47.83 47.95 49.15 49.43 49.50 49.69 50.21 49.27 48.46 46.55 35.24 38.46 37.82 41.57 42.77 41.79 42.42 39.30 39.20 38.12 36.09 32.37 29.38 27.38 25.49 21.35 21.81 22.37 22.57 24.66 29.63 33.55
55.62 56.70 58.62 58.72 57.38 56.72 56.08 54.70 53.08 51.98 51.43 49.97 48.83 47.67 47.52 47.06 48.06 48.89 45.77 37.42 33.08 32.42 35.88 31.32 33.68 36.40 36.34 39.68 41.04 39.27 41.23 39.66 38.09 34.71 28.32 31.68 26.42 23.05 26.01 28.21 30.19 28.45 26.97 25.49 29.21 33.88 32.31
54.32 55.25 56.76 58.86 57.65 56.69 55.88 54.35 52.18 51.06 50.42 49.48 48.05 47.57 46.80 47.28 48.07 48.83 39.09 34.79 34.04 34.30 27.54 35.50 36.16 36.07 38.71 38.81 34.92 37.77 40.71 34.65 34.78 28.76 31.55 29.48 24.66 30.86 32.28 31.03 28.69 27.47 24.92 24.68 29.49 33.30 32.29
53.39 54.13 55.48 58.23 57.53 56.48 55.29 53.78 52.02 50.83 49.64 48.34 47.64 47.13 47.17 47.29 48.15 41.51 37.29 37.35 40.60 38.68 28.89 33.80 37.26 36.73 38.41 38.65 34.62 34.41 38.28 36.49 32.85 29.44 30.29 26.29 29.13 34.27 32.47 30.37 28.32 28.04 25.95 26.06 25.50 29.81 31.72
53.98 53.62 54.47 57.41 57.05 55.65 54.21 52.78 51.62 50.22 48.65 48.12 47.14 47.53 47.46 47.47 41.36 37.68 37.22 41.42 41.10 38.68 22.88 29.74 34.33 37.99 38.79 38.31 33.54 39.34 38.93 37.11 33.85 30.10 30.31 29.10 33.47 32.20 31.24 30.48 30.55 24.57 31.43 30.61 28.83 26.34 21.47
55.62 53.86 54.32 56.86 55.93 53.75 52.52 51.34 50.57 49.16 48.16 47.27 47.51 47.53 47.54 47.42 37.44 35.66 40.66 42.42 41.47 37.27 18.61 31.94 33.27 40.41 38.96 34.72 35.73 36.26 40.45 37.54 31.30 31.09 30.72 28.05 29.79 29.97 28.79 30.07 33.13 28.64 33.89 31.49 30.04 27.36 27.70
55.33 54.43 54.53 55.95 53.85 52.32 51.10 50.40 49.27 48.61 47.01 46.87 47.44 47.76 47.52 43.26 38.78 39.95 41.48 42.10 39.55 24.70 19.06 29.45 33.09 32.28 32.54 33.85 33.89 36.51 36.74 38.43 36.75 31.38 30.97 30.80 34.15 31.89 31.19 33.80 33.74 34.51 31.28 30.93 30.31 28.52 21.28
54.82 54.58 55.85 54.05 52.60 51.15 50.33 49.31 48.29 47.54 47.25 47.36 47.53 47.69 46.13 43.70 37.33 40.79 41.34 37.36 23.84 18.33 30.85 27.02 28.47 32.20 30.21 29.74 31.38 33.51 31.71 30.50 27.43 26.41 25.29 28.80 29.89 33.05 34.93 29.46 32.79 30.97 26.38 17.73 15.92 15.58 19.61
54.96 55.31 54.19 52.59 51.09 50.33 49.03 48.40 47.88 47.61 47.66 47.30 47.67 47.33 46.10 43.45 41.85 41.08 38.44 28.49 20.26 26.07 26.50 31.30 31.66 31.02 27.01 30.18 30.48 31.03 29.79 27.24 32.80 31.84 27.42 22.53 22.32 29.09 33.84 31.14 27.93 27.55 26.75 20.40 16.02 18.75 22.48
55.41 53.79 52.03 50.63 50.05 49.14 48.42 48.01 47.69 47.19 47.16 47.24 46.98 40.01 39.26 40.46 42.26 41.08 31.14 18.47 22.81 25.77 30.93 30.81 30.40 26.60 26.20 28.99 28.88 28.47 28.28 28.37 33.81 35.72 28.61 27.41 25.13 33.58 35.99 36.12 33.51 28.20 25.40 30.93 25.68 26.89 23.37
50.02 50.56 49.87 49.20 48.52 47.76 47.03 46.18 46.12 46.50 46.95 46.95 38.83 38.94 39.55 42.26 43.46 37.52 28.25 26.21 27.36 33.71 34.74 32.51 25.14 28.37 21.28 25.33 22.57 25.82 27.37 32.91 33.51 38.35 39.08 34.15 26.37 34.45 36.83 37.44 36.01 32.86 36.51 26.88 25.88 19.54 18.40
45.54 44.85 45.82 46.45 46.36 45.95 45.69 45.57 45.20 46.29 46.90 45.18 38.28 35.08 40.50 42.42 41.67 31.41 23.46 26.86 31.71 36.38 35.96 30.92 28.04 26.53 25.86 23.29 24.26 26.62 28.33 33.22 37.20 35.93 37.00 36.69 33.40 30.32 34.59 32.08 29.22 31.71 29.72 31.42 31.59 28.80 22.55
46.50 45.81 45.40 45.26 45.30 45.05 45.23 45.25 46.00 46.65 46.83 42.46 37.83 30.47 39.25 42.45 31.52 28.98 26.19 30.84 36.91 34.11 35.35 33.86 32.26 29.51 24.93 25.89 24.09 22.55 25.98 32.82 37.78 36.69 32.32 36.63 34.16 27.50 30.23 37.24 38.08 37.36 31.92 31.49 23.04 22.44 27.92
44.90 44.93 44.81 45.55 45.56 45.23 45.06 45.86 46.20 46.83 45.43 39.11 33.92 33.86 39.63 39.08 27.39 25.01 30.41 32.84 34.34 32.88 32.36 31.49 29.74 30.55 28.31 22.35 17.17 19.40 27.60 34.86 37.06 35.11 34.66 36.93 32.82 26.39 25.63 33.28 36.38 33.97 35.14 35.52 33.31 31.26 26.77
45.95 45.60 45.60 45.76 45.32 45.34 45.76 45.80 46.25 46.43 46.15 39.64 34.13 26.79 32.73 35.04 32.17 30.04 29.18 29.19 29.52 34.25 32.54 32.81 30.74 29.73 25.93 17.80 23.48 18.14 26.77 33.29 36.18 35.83 39.65 40.27 33.60 26.98 21.66 26.05 32.71 29.76 33.73 35.45 32.68 24.15 23.51
45.85 45.34 44.89 44.89 45.42 45.32 45.42 45.76 46.25 46.31 45.52 37.94 31.30 28.84 33.35 27.12 28.36 29.86 30.80 30.48 28.00 27.56 31.69 31.34 28.12 28.69 24.70 16.85 20.57 22.98 26.84 30.46 34.46 37.44 36.25 36.63 30.25 31.46 30.45 30.13 30.34 29.38 31.02 32.81 29.65 29.31 23.34
45.92 45.34 45.54 45.47 45.44 45.56 45.80 46.05 46.00 46.14 45.03 35.31 31.08 30.55 30.97 30.33 31.30 29.82 30.68 28.47 27.53 27.81 27.95 26.43 27.28 28.51 28.47 25.69 25.10 22.69 26.68 28.16 29.32 34.05 32.64 36.86 29.89 32.26 27.60 33.15 28.71 25.27 27.32 29.61 29.60 28.04 26.02
45.44 45.42 45.68 45.18 45.34 45.34 45.20 45.34 45.36 45.70 43.25 36.46 35.91 35.61 32.64 29.44 28.16 28.12 28.12 29.19 28.34 30.05 31.71 32.01 29.81 28.21 27.45 28.58 30.74 31.42 32.25 32.40 33.88 31.60 30.35 32.07 30.89 28.89 24.19 30.00 28.92 21.80 25.65 26.39 27.37 27.75 28.58
45.58 45.21 44.94 44.43 44.70 44.75 44.63 44.82 45.05 44.94 44.16 38.88 37.24 33.94 30.34 26.07 27.58 28.01 31.38 30.77 29.61 30.47 29.38 31.62 31.02 28.76 31.86 34.33 34.53 33.80 32.50 32.12 32.58 33.38 34.08 31.58 32.15 30.09 26.80 28.79 17.16 26.16 32.17 31.12 26.99 28.25 28.61
45.53 45.20 44.53 44.12 44.22 44.07 44.24 44.48 44.77 45.13 44.72 39.66 37.51 34.80 31.54 27.34 29.80 30.38 31.00 30.33 30.34 30.91 29.64 31.15 31.63 32.85 33.91 32.29 30.01 28.18 27.60 28.67 31.13 34.24 32.59 35.17 32.11 29.83 24.18 22.31 25.39 27.08 27.21 27.66 27.38 25.06 29.06
45.01 45.42 44.60 44.61 44.28 43.50 44.24 44.58 45.10 45.43 45.19 39.88 37.86 37.61 34.69 30.29 28.30 33.39 29.30 30.23 26.95 26.44 27.33 29.89 33.35 34.46 32.80 28.57 26.09 24.18 22.47 26.82 26.85 28.69 33.85 33.39 32.87 31.58 26.57 22.16 17.71 23.67 27.90 31.74 32.26 21.94 29.11
44.81 45.03 45.22 44.53 43.99 43.80 44.02 44.41 44.91 45.46 45.12 40.38 38.19 38.27 35.79 30.29 32.23 32.13 28.48 28.36 30.40 28.33 26.29 27.47 29.48 30.31 30.24 22.72 23.64 23.32 24.29 29.94 24.28 24.27 26.07 26.65 27.56 24.65 25.36 22.25 23.18 26.54 30.47 33.76 23.06 21.71 29.47
44.53 44.31 45.03 44.69 44.10 43.83 43.97 44.65 45.34 45.81 44.58 40.96 37.68 39.39 35.76 30.69 31.15 35.62 35.81 31.12 30.34 28.59 22.94 26.96 24.76 26.86 25.28 22.15 23.79 23.49 23.94 27.26 26.32 28.93 27.07 23.95 23.55 22.67 25.24 20.79 18.16 29.63 30.56 25.61 28.84 31.03 30.56
44.32 43.82 44.58 44.44 44.37 43.86 43.95 44.80 45.67 46.02 44.81 42.54 37.00 39.85 37.96 33.04 31.92 35.86 36.43 36.77 36.00 34.29 30.30 29.74 28.70 29.76 28.88 22.76 23.44 25.20 24.05 25.14 26.57 19.58 30.04 23.33 25.72 23.89 24.12 22.10 28.80 29.39 29.35 30.19 28.41 26.36 28.02

GFSGBSN_sfc_wetblb_123.txt.gz
Wetbulb
61.26 60.93 60.27 59.66 59.42 58.77 58.42 57.70 56.61 55.74 55.17 54.33 53.24 51.34 50.59 50.52 50.41 50.12 49.47 49.59 49.76 49.98 50.13 50.64 51.40 51.91 45.29 38.73 37.89 45.45 52.60 50.68 49.25 48.27 45.14 43.42 40.76 41.53 38.15 39.05 40.08 38.73 39.42 38.83 39.73 39.49 39.70
59.54 60.38 60.16 59.67 59.29 59.10 58.75 57.65 56.66 55.67 55.10 53.95 52.70 51.17 50.58 50.32 49.71 49.15 49.10 49.46 49.57 49.79 50.17 50.72 50.85 51.13 42.10 36.28 44.95 47.80 48.11 47.88 47.92 46.91 44.97 44.30 41.84 41.63 38.80 37.11 36.12 37.88 37.87 38.16 39.20 39.02 39.30
56.74 58.30 60.02 59.37 59.02 58.85 58.24 57.19 56.51 55.81 55.07 53.58 52.19 51.10 50.64 49.78 49.14 48.51 49.10 49.31 49.62 50.03 50.57 50.59 50.30 48.18 41.11 39.60 47.41 48.20 48.17 46.90 47.59 46.49 43.29 45.21 44.75 41.76 39.82 36.80 39.52 38.47 35.02 37.55 38.21 37.86 37.63
54.84 55.74 57.10 58.86 58.49 58.09 57.50 56.77 56.26 56.15 54.93 52.88 51.89 50.98 50.21 49.25 48.36 48.60 48.73 49.04 49.97 50.73 51.59 51.04 50.68 46.28 37.89 47.91 49.04 48.80 48.45 45.24 47.77 47.11 45.72 45.65 44.80 42.04 40.08 40.41 37.91 35.18 35.22 29.94 35.55 37.37 37.70
53.25 53.51 55.24 56.15 57.04 57.97 57.28 56.51 56.03 56.00 54.77 53.21 52.07 50.99 49.72 48.73 48.54 48.68 48.68 49.38 50.58 51.52 51.63 51.27 45.83 42.85 38.97 49.86 45.33 46.22 47.11 43.34 43.95 43.87 44.49 45.60 43.50 40.19 38.20 34.80 32.68 31.64 28.90 30.23 32.69 37.85 37.46
53.15 52.92 53.84 54.86 55.80 58.07 57.36 56.53 55.85 55.41 54.11 52.61 51.82 50.62 48.99 48.56 48.20 49.00 49.43 49.05 52.21 50.45 49.55 48.70 46.59 38.39 41.96 39.65 42.65 43.39 44.96 44.36 41.73 41.93 40.82 39.84 37.75 35.79 34.19 33.62 25.53 28.10 28.36 30.58 29.71 34.89 35.98
53.14 52.67 53.16 53.68 54.90 56.36 58.15 57.15 55.76 54.90 53.15 52.34 51.10 49.89 48.68 48.52 47.73 49.10 44.24 42.19 37.00 36.29 41.50 36.25 36.38 38.20 38.37 41.30 42.90 42.16 43.65 42.55 41.17 39.27 33.53 36.01 32.23 29.46 31.94 33.64 33.85 32.40 30.29 28.72 32.00 35.59 33.46
52.71 52.29 52.59 53.34 53.92 55.60 57.44 57.86 55.74 54.13 52.62 51.95 50.73 49.12 48.81 48.14 47.56 48.47 41.77 36.81 36.90 38.78 33.64 36.99 36.99 37.47 39.50 40.80 37.59 40.10 43.69 38.36 37.72 32.85 35.08 33.19 29.15 34.23 34.06 33.39 31.26 31.02 28.26 28.55 32.44 35.27 34.38
52.56 51.57 51.71 52.80 53.75 54.70 56.35 57.98 55.53 53.00 52.10 51.09 49.40 48.35 48.13 47.88 47.84 43.10 40.27 39.86 42.54 41.75 33.97 35.24 37.88 38.03 39.83 40.29 36.81 37.28 41.15 39.29 35.57 31.77 32.55 29.65 32.59 35.36 33.35 32.17 30.14 30.60 28.88 29.44 29.04 33.40 35.21
50.82 50.53 51.22 52.23 53.23 54.06 55.40 57.16 54.63 52.40 51.28 50.38 49.40 48.39 47.91 47.59 43.79 41.45 40.45 44.32 42.58 42.37 30.12 32.21 35.25 39.06 39.77 39.65 35.75 41.22 41.66 40.05 36.05 31.78 32.58 31.81 35.08 33.02 31.78 30.06 31.82 27.73 33.60 32.23 30.67 29.49 24.51
49.66 50.68 51.51 52.36 52.96 52.76 53.95 56.13 53.24 52.01 50.76 49.38 47.87 47.46 47.81 48.11 40.29 38.62 42.47 43.86 42.68 40.19 23.02 32.77 35.06 43.03 40.67 37.28 37.24 38.20 42.93 39.72 33.35 33.17 32.63 32.35 31.78 32.14 31.07 31.76 34.70 30.88 35.05 32.78 32.24 29.78 29.01
49.88 49.95 52.29 53.74 54.38 52.86 53.52 55.26 52.36 50.88 49.44 48.22 47.92 48.18 47.81 43.12 41.38 43.05 44.35 44.98 41.83 29.29 21.99 29.58 34.77 34.21 34.40 35.63 36.08 38.88 38.90 41.42 39.03 33.84 33.61 33.18 36.91 35.01 33.90 34.88 35.10 35.87 33.09 33.29 33.05 30.06 22.40
48.19 49.43 53.82 55.53 54.56 53.08 54.60 52.60 51.04 49.54 48.53 48.48 48.34 48.33 46.25 44.45 39.52 43.65 44.43 39.94 27.89 23.74 31.61 28.00 29.83 33.45 32.18 31.40 33.21 34.83 33.09 33.17 31.92 28.83 28.91 31.52 32.32 35.28 35.84 32.06 34.67 33.56 29.71 23.31 22.28 22.91 22.02
47.12 52.20 55.35 54.95 53.87 53.05 53.69 51.11 49.40 48.22 47.83 48.20 47.77 47.94 46.02 43.72 44.21 44.19 41.62 31.84 22.81 27.19 27.75 33.28 32.67 32.10 29.24 31.72 31.25 32.16 31.23 29.97 34.50 33.37 29.04 26.69 26.10 32.53 35.87 34.11 31.50 31.36 30.55 24.19 16.13 19.78 22.77
46.53 54.79 54.22 53.85 53.19 53.77 51.54 49.55 48.20 47.67 47.69 48.14 47.12 41.81 42.35 43.32 43.96 42.64 35.17 25.38 26.69 27.70 31.71 31.29 31.48 27.75 27.75 30.34 30.89 30.15 29.61 30.37 34.32 36.31 29.45 28.65 27.71 35.91 35.89 36.89 36.41 30.49 27.95 33.32 26.27 27.46 23.08
46.23 53.04 53.85 52.68 52.36 50.40 49.46 48.25 47.73 47.70 48.02 46.66 40.26 39.77 39.50 43.45 44.21 39.48 30.90 27.37 29.05 34.59 34.93 33.16 26.75 29.29 25.22 27.35 27.48 28.32 28.69 33.94 34.18 38.17 38.58 33.09 28.80 35.20 37.10 38.82 38.42 35.61 37.12 28.33 28.76 20.15 20.26
46.55 45.40 49.17 50.64 49.59 48.80 48.21 48.24 47.69 47.46 45.98 45.93 41.02 36.87 40.91 43.74 42.62 34.07 26.32 27.81 32.89 36.81 36.97 32.27 29.61 28.74 28.03 27.05 28.04 27.74 28.78 33.69 36.96 36.08 37.49 35.13 33.10 31.97 35.74 33.67 32.53 33.35 31.87 32.78 32.64 30.03 23.85
46.68 46.07 44.83 44.24 47.12 47.31 47.51 47.01 46.71 45.62 46.25 44.44 39.40 31.62 40.89 43.12 33.56 30.58 27.82 32.36 37.19 34.45 36.96 34.45 33.95 31.24 28.95 28.74 28.24 27.17 27.73 33.19 38.17 36.85 32.46 36.52 33.73 28.32 31.50 37.76 39.24 37.97 34.69 34.24 27.95 26.23 29.55
46.27 46.09 45.75 45.23 44.47 44.38 45.05 45.41 44.76 44.55 45.25 40.97 35.73 35.10 40.62 41.21 28.00 28.80 31.61 33.26 35.12 33.91 33.60 32.96 32.04 32.29 30.42 26.62 23.85 25.09 28.93 35.61 36.81 35.40 34.44 36.64 31.52 25.08 26.76 32.86 35.82 34.17 36.22 37.08 34.84 32.95 26.35
44.80 45.22 44.43 45.00 45.37 44.94 44.69 44.63 44.81 45.74 45.43 40.52 34.85 29.50 34.32 36.78 33.60 31.63 30.84 30.45 30.27 35.23 33.61 33.69 31.68 31.85 28.48 24.02 26.86 23.65 28.31 33.82 36.34 35.81 39.18 39.73 32.15 26.96 22.28 25.90 29.58 28.51 32.43 35.53 34.52 28.31 24.39
45.08 44.83 44.95 44.83 44.70 44.91 44.81 45.57 45.96 46.26 45.77 39.10 34.34 30.86 35.63 29.77 30.52 31.95 32.79 31.72 29.49 28.76 33.11 33.69 31.41 31.02 28.44 21.42 24.36 24.49 28.60 31.37 34.72 37.46 36.92 37.23 31.30 32.13 31.19 30.64 29.18 27.53 29.13 30.53 27.66 29.22 24.88
44.73 44.19 45.14 45.27 44.95 45.26 45.58 45.97 46.30 46.05 44.98 36.61 32.62 31.63 33.54 32.09 33.17 32.42 32.33 29.72 28.90 29.03 30.91 29.22 29.67 30.93 30.54 28.13 27.75 25.69 28.76 30.30 31.19 35.45 34.08 37.14 31.29 32.49 28.43 32.24 29.51 25.18 27.34 28.68 28.82 27.08 25.46
45.13 44.08 45.27 45.58 45.62 45.93 46.07 46.00 46.12 45.84 43.05 37.00 36.48 36.37 35.19 30.47 30.16 31.05 30.47 30.06 29.46 32.39 33.24 33.31 32.49 31.23 29.38 30.85 33.20 34.45 35.09 34.96 34.51 32.01 31.33 32.68 32.75 30.87 25.93 30.83 29.35 22.72 25.43 26.70 27.11 27.87 28.58
45.20 44.92 45.40 45.50 45.20 45.25 45.39 45.32 45.31 45.17 43.99 39.77 37.88 35.89 32.40 27.34 29.82 29.56 31.65 31.85 30.79 32.04 30.96 32.96 33.76 31.73 33.51 36.16 35.97 35.36 33.57 33.03 33.38 33.73 34.24 32.01 31.48 31.93 27.84 29.74 18.54 27.03 32.39 30.42 27.08 28.29 28.15
45.31 44.99 44.56 45.22 44.86 44.69 44.77 44.86 45.26 44.88 44.55 39.87 38.56 36.77 33.21 28.17 30.66 31.48 31.77 30.82 31.77 32.89 31.85 32.64 33.61 34.50 36.11 34.48 33.00 30.39 30.35 31.41 32.71 34.30 34.35 34.73 32.02 29.89 26.18 23.81 26.14 27.96 27.64 27.75 27.69 24.97 28.97
45.24 45.01 44.48 44.57 44.04 44.14 44.26 44.58 45.32 45.55 44.81 40.43 38.94 38.66 36.43 31.72 30.19 33.68 30.96 31.78 28.92 28.88 29.56 31.81 35.00 36.41 35.39 31.77 30.44 26.08 24.10 28.05 27.93 29.80 35.06 33.89 34.02 31.53 27.91 22.72 19.48 24.39 28.43 32.18 32.81 22.35 28.65
45.24 45.12 44.60 43.95 42.84 43.85 44.05 44.48 44.98 45.72 44.89 40.86 39.20 39.39 37.26 32.26 34.03 34.19 30.52 30.33 32.07 30.30 28.43 29.72 31.73 32.78 33.42 29.29 27.93 26.67 26.65 31.00 25.01 24.56 25.88 27.16 28.01 25.38 26.31 23.12 23.61 27.13 29.99 33.52 23.70 24.21 28.42
44.75 45.29 45.08 44.48 43.88 43.85 44.12 44.72 45.73 45.12 44.81 41.00 39.16 39.89 37.72 33.20 33.83 36.98 36.36 32.66 31.93 30.68 26.69 29.62 29.14 30.91 29.38 26.92 27.61 26.69 27.56 29.30 28.48 28.97 27.35 24.89 24.67 23.96 26.23 22.76 19.95 29.53 31.65 26.91 29.38 31.32 29.86
44.49 45.03 44.86 44.67 44.13 43.85 44.47 44.75 45.69 45.57 45.17 42.40 37.75 39.76 38.78 35.42 34.88 37.32 37.80 38.69 38.22 35.76 32.78 32.58 31.18 31.83 31.78 28.64 28.70 29.34 28.48 29.22 28.27 23.09 31.33 24.93 27.20 25.45 25.29 23.88 28.98 29.61 29.01 30.83 32.20 30.72 29.84

GFSGBSN_sfc_wetblb_126.txt.gz
Wetbulb
58.03 58.95 61.47 60.87 60.24 59.95 59.93 59.21 57.87 56.77 56.53 55.92 55.13 54.45 52.75 51.56 50.98 50.86 50.55 50.22 50.47 50.64 50.94 51.40 51.88 52.58 51.03 43.98 42.30 49.80 53.61 54.85 51.95 50.37 47.17 45.62 43.83 43.31 40.83 42.30 42.61 41.81 43.17 43.82 44.09 43.46 43.31
56.71 57.18 58.16 60.56 60.10 59.85 60.04 59.28 58.00 56.90 56.07 55.69 54.81 53.83 52.21 51.24 50.82 50.21 49.86 49.94 50.25 50.44 50.89 51.25 51.71 51.69 47.84 40.25 49.23 52.56 52.59 50.56 50.21 49.13 47.55 47.25 44.76 45.21 42.54 41.59 40.64 42.10 41.75 42.15 43.16 42.94 43.28
55.14 55.90 56.43 56.91 58.52 59.61 59.49 58.74 57.88 57.08 56.25 55.66 54.67 53.34 51.97 51.18 50.73 49.67 49.32 49.95 49.93 50.53 51.00 51.40 51.65 50.82 46.07 43.84 51.91 53.29 52.00 49.30 50.01 48.60 45.93 47.70 47.81 44.99 43.54 41.25 43.53 42.06 39.34 41.73 42.10 41.27 41.09
54.05 54.13 54.34 54.89 55.43 56.32 58.21 58.35 57.77 57.27 56.37 55.76 54.63 53.02 52.11 51.31 50.13 48.88 49.09 49.46 50.13 50.98 52.04 51.75 51.13 49.50 43.07 50.38 53.39 50.76 50.68 48.18 49.54 49.47 47.69 48.28 48.21 45.92 43.83 44.65 42.47 39.97 40.60 37.08 39.88 41.52 41.52
54.55 53.68 53.52 54.10 54.04 54.32 55.36 57.13 57.68 57.17 56.49 55.56 54.11 52.44 51.86 51.02 49.72 48.93 48.74 49.60 51.05 51.90 51.86 51.61 49.63 47.04 42.10 51.20 47.23 48.68 49.43 45.61 46.79 47.90 48.13 47.52 47.03 44.05 42.97 40.02 38.71 39.68 35.68 36.42 37.57 41.06 40.76
54.71 54.34 53.27 53.97 53.66 53.43 54.07 55.45 57.20 56.74 56.37 55.25 54.09 52.65 51.70 50.44 49.53 48.98 49.06 49.57 52.07 52.09 51.56 51.29 49.86 44.13 45.31 43.35 46.06 46.66 48.59 47.06 45.13 45.90 44.26 43.54 43.70 40.86 40.94 39.12 33.53 34.67 34.65 36.46 35.93 39.15 40.14
53.59 54.91 54.57 54.25 53.62 53.07 53.32 54.52 55.39 56.69 55.94 54.97 53.54 52.59 51.02 49.99 49.25 48.90 49.32 51.10 45.13 43.29 46.49 42.73 41.83 42.19 43.23 45.83 46.90 45.32 46.79 45.77 45.38 43.35 39.69 41.31 38.52 37.04 38.47 38.60 37.75 36.22 34.75 34.43 37.70 40.50 37.98
52.43 53.19 53.86 53.91 53.78 53.53 52.91 53.80 54.23 56.13 55.92 54.48 53.11 52.01 50.79 49.21 49.01 49.22 47.27 42.71 43.45 43.86 39.20 41.47 40.96 41.71 43.55 45.13 41.21 43.42 46.98 42.08 41.39 38.78 39.59 38.88 36.71 38.65 38.25 37.52 35.93 35.72 34.22 34.68 38.04 39.20 38.40
51.79 52.42 52.90 53.60 53.79 53.68 53.56 53.11 53.42 55.04 55.45 53.73 52.40 51.29 49.91 49.67 49.38 45.97 43.45 43.50 47.48 45.83 39.55 38.68 41.80 41.93 43.74 44.35 40.66 40.92 44.20 42.66 40.03 37.66 37.74 36.43 37.97 38.80 37.53 37.14 35.40 36.23 34.32 34.80 34.54 37.80 39.20
51.86 50.83 50.51 51.27 51.67 52.17 52.24 52.48 53.18 54.20 55.01 53.00 51.66 50.21 49.43 49.26 44.49 43.55 41.26 46.15 45.88 46.65 35.13 37.11 39.06 41.89 43.38 43.56 39.17 44.12 45.38 43.06 40.61 37.05 37.24 37.94 39.65 37.34 37.05 35.45 36.42 32.65 38.24 36.39 35.02 34.21 30.66
51.59 50.77 50.27 50.02 50.16 50.82 51.24 51.84 52.63 53.69 55.13 52.71 50.64 49.37 49.01 47.82 43.09 41.74 44.19 45.25 46.51 46.11 23.46 37.59 38.42 46.39 43.83 40.42 41.48 41.27 46.23 43.37 38.76 38.28 38.20 37.06 37.01 36.92 35.36 36.23 37.57 34.92 37.99 36.36 35.92 34.83 34.18
51.12 50.64 49.43 49.16 49.94 50.32 50.75 51.30 51.99 52.90 54.66 52.21 49.87 48.80 48.74 44.65 46.44 44.24 46.48 45.46 45.86 29.95 23.06 32.26 38.03 37.49 38.09 39.42 39.90 42.12 42.27 44.83 43.25 38.53 39.39 39.01 41.92 38.95 38.83 38.91 38.77 39.42 36.72 37.13 36.97 35.16 28.38
50.17 49.99 48.77 48.86 49.23 50.53 51.08 51.32 52.02 52.23 53.50 50.88 48.96 48.22 47.16 45.21 44.12 46.76 46.88 43.36 28.82 25.14 34.13 30.68 33.45 36.93 37.24 36.20 37.16 38.45 38.28 38.91 38.31 34.24 34.84 37.55 37.42 39.71 40.03 37.26 39.00 37.10 34.51 30.13 27.10 27.51 27.76
50.10 49.15 48.32 49.06 51.18 53.15 53.49 52.81 52.00 52.77 50.61 48.87 47.70 47.73 46.72 46.10 47.62 47.24 45.21 34.38 25.01 32.74 32.25 36.46 36.17 36.43 34.01 35.83 35.92 36.37 36.77 36.12 38.86 37.23 36.54 33.57 31.38 37.45 40.73 38.47 36.07 36.18 35.00 29.27 21.06 25.34 28.63
49.35 48.52 47.62 52.44 54.72 54.79 54.31 53.20 52.50 50.53 48.54 47.71 47.16 44.25 43.99 44.54 47.22 47.85 38.08 27.35 31.02 33.13 34.56 33.21 34.45 32.51 31.60 33.87 35.45 35.46 36.35 36.49 37.80 38.46 30.24 31.03 32.43 40.17 40.23 41.41 39.81 35.40 31.84 37.36 30.82 32.65 28.39
48.88 47.26 46.51 52.25 53.66 54.31 53.31 52.36 51.44 48.65 48.12 46.87 41.77 41.27 41.45 45.78 48.44 45.66 36.16 30.53 32.37 36.34 37.75 37.06 31.40 33.39 30.12 32.72 33.01 35.00 35.41 38.04 37.52 39.88 40.94 35.85 29.62 38.40 39.62 41.47 41.61 38.36 40.18 31.00 32.85 23.78 22.84
48.09 46.87 46.10 51.39 52.65 52.86 52.08 50.03 48.89 47.98 46.80 46.58 41.76 35.17 42.69 47.07 47.94 40.16 33.01 33.87 35.13 39.22 39.12 35.06 32.24 31.74 32.56 31.45 33.47 33.46 33.71 37.21 39.54 38.80 40.42 37.84 34.40 34.91 39.09 36.16 34.37 36.49 35.27 35.25 35.16 33.54 26.87
47.12 46.66 45.68 46.92 49.77 49.20 48.63 48.09 47.57 46.73 46.56 44.31 39.20 31.12 42.89 46.61 36.49 37.07 33.76 35.62 38.61 36.96 39.31 36.83 37.12 35.13 33.93 33.14 32.68 32.83 33.08 36.25 41.11 39.64 36.00 38.39 35.38 30.81 33.83 40.38 42.14 40.09 36.65 36.53 30.29 28.34 32.87
46.38 46.31 46.37 45.23 46.31 48.25 48.11 47.49 46.37 46.77 46.50 42.62 34.68 34.68 43.13 43.21 30.40 32.39 35.39 36.54 38.04 36.66 36.92 36.07 34.84 35.91 35.67 33.14 31.58 32.96 33.68 38.78 39.46 38.72 37.45 39.14 33.73 30.35 32.00 37.07 38.44 34.83 36.52 38.46 37.60 36.98 31.88
45.01 46.21 46.19 46.19 45.10 44.29 46.03 46.72 46.49 46.17 45.44 43.84 36.31 30.66 35.46 38.61 38.13 34.71 33.69 33.88 32.49 38.53 36.53 37.04 35.86 36.03 33.78 30.70 31.26 30.37 32.29 36.35 38.77 39.10 39.09 40.48 35.21 30.54 27.71 26.91 31.44 28.78 32.29 36.86 35.04 33.59 30.64
44.97 43.76 45.26 45.63 45.61 45.12 45.47 45.32 45.79 46.40 45.31 43.89 37.16 33.53 35.72 30.36 33.53 35.20 36.42 35.10 32.30 31.69 36.66 37.88 34.10 34.40 32.92 28.14 29.89 29.58 32.63 35.48 37.86 39.31 40.48 39.11 31.91 32.32 32.50 33.17 31.79 30.03 29.65 31.39 30.03 31.19 28.83
45.07 44.67 44.03 44.30 44.17 45.45 45.45 45.68 46.26 46.31 44.57 41.65 34.50 34.92 38.58 36.45 36.47 35.96 35.53 34.57 34.01 33.21 34.50 32.88 33.38 34.91 34.79 31.31 32.24 29.20 32.99 35.43 36.61 39.49 38.84 38.69 32.49 34.13 31.14 33.68 31.81 27.89 29.70 31.29 29.93 28.69 27.22
44.25 45.17 44.44 44.98 44.35 44.50 44.14 44.66 46.19 45.87 43.95 40.53 39.78 40.28 39.55 35.61 35.93 35.42 35.11 35.36 34.14 35.37 35.62 37.53 36.98 34.75 33.23 35.17 37.15 37.80 38.43 37.97 38.92 37.33 35.43 35.76 33.64 32.67 30.01 31.79 31.35 25.70 27.43 29.59 29.44 30.98 30.50
44.06 44.99 44.38 45.39 45.44 45.61 45.82 46.16 45.84 45.73 44.40 42.72 41.09 42.03 37.84 33.11 36.25 35.38 35.50 35.87 34.86 35.54 34.47 36.85 37.58 35.05 37.01 40.43 40.15 39.82 38.49 37.73 38.40 38.65 39.04 34.86 33.63 33.11 31.39 31.85 23.13 28.39 33.56 31.64 29.24 29.69 30.86
44.94 44.74 45.44 45.40 45.49 45.53 45.09 45.06 45.40 45.30 44.66 43.91 43.48 42.87 40.02 35.07 37.13 35.67 35.97 35.70 37.07 37.88 36.26 35.21 35.82 38.44 40.75 38.57 36.75 33.69 34.86 35.42 36.57 38.37 38.31 38.35 34.86 32.29 29.50 28.50 27.98 28.98 30.93 30.33 29.58 26.46 30.71
45.39 45.42 45.35 45.16 44.95 44.82 44.94 45.40 45.65 45.33 44.23 45.29 43.50 44.67 43.90 37.78 35.98 38.46 35.64 36.78 34.23 34.63 34.47 34.90 38.46 41.09 39.91 37.07 35.46 29.31 27.42 31.57 30.83 33.26 38.35 36.64 37.92 32.51 31.31 25.77 23.10 28.62 31.10 33.64 34.29 26.33 30.73
45.23 45.45 45.16 44.58 44.13 44.47 44.88 45.27 45.77 45.37 44.42 46.47 43.30 44.88 44.61 37.99 38.37 39.39 35.64 34.55 37.43 35.83 33.71 35.03 35.77 36.51 38.51 34.88 32.69 30.78 30.44 34.94 29.86 28.41 29.74 32.06 32.93 30.29 30.47 27.84 27.17 30.16 32.08 35.12 26.06 26.12 31.34
45.07 45.14 44.85 43.22 43.60 44.28 44.97 45.61 45.60 45.53 44.68 45.39 42.86 45.00 45.23 39.57 38.81 40.29 39.52 37.14 36.59 37.04 32.51 35.30 34.77 35.28 35.61 32.55 32.98 33.13 32.96 33.69 32.25 32.16 30.74 29.73 29.44 30.04 30.21 27.15 24.07 31.75 32.75 29.85 31.44 33.84 33.55
44.95 45.11 44.75 44.33 44.18 44.40 44.88 45.93 45.70 45.89 45.45 45.22 42.46 45.10 47.09 41.73 38.94 42.30 41.98 42.05 41.12 40.48 37.99 36.58 35.99 36.05 37.84 35.65 36.10 36.40 33.05 34.61 32.78 27.89 34.71 29.70 32.38 31.71 28.48 27.71 31.61 32.88 33.26 36.05 36.52 33.83 33.06